<?xml version="1.0" encoding="UTF-8" standalone="no" ?>
<gpx xmlns="http://www.topografix.com/GPX/1/1" xmlns:xsi="http://www.w3.org/2001/XMLSchema-instance" xsi:schemaLocation="http://www.topografix.com/GPX/1/1 http://www.topografix.com/GPX/1/1/gpx.xsd" version="1.1" creator="VisuGPX - https://www.visugpx.com">
  <metadata>
    <name>Champagnat Cyclisme sur route</name>
  </metadata>
  <trk>
    <name><![CDATA[Champagnat Cyclisme sur route_1]]></name>
    <trkseg>
      <trkpt lat="46.48268" lon="5.36835">
        <ele>269.4</ele>
        <time>2022-06-23T05:04:01Z</time>
      </trkpt>
      <trkpt lat="46.48258" lon="5.36823">
        <ele>269</ele>
        <time>2022-06-23T05:04:02Z</time>
      </trkpt>
      <trkpt lat="46.48248" lon="5.36812">
        <ele>268</ele>
        <time>2022-06-23T05:04:03Z</time>
      </trkpt>
      <trkpt lat="46.48225" lon="5.36792">
        <ele>266.6</ele>
        <time>2022-06-23T05:04:05Z</time>
      </trkpt>
      <trkpt lat="46.48216" lon="5.36785">
        <ele>265.6</ele>
        <time>2022-06-23T05:04:06Z</time>
      </trkpt>
      <trkpt lat="46.48205" lon="5.36776">
        <ele>264.6</ele>
        <time>2022-06-23T05:04:07Z</time>
      </trkpt>
      <trkpt lat="46.48183" lon="5.36759">
        <ele>263.4</ele>
        <time>2022-06-23T05:04:09Z</time>
      </trkpt>
      <trkpt lat="46.48172" lon="5.3675">
        <ele>262.2</ele>
        <time>2022-06-23T05:04:10Z</time>
      </trkpt>
      <trkpt lat="46.48162" lon="5.36741">
        <ele>261.6</ele>
        <time>2022-06-23T05:04:11Z</time>
      </trkpt>
      <trkpt lat="46.48151" lon="5.36734">
        <ele>260.8</ele>
        <time>2022-06-23T05:04:12Z</time>
      </trkpt>
      <trkpt lat="46.48123" lon="5.36711">
        <ele>258.6</ele>
        <time>2022-06-23T05:04:15Z</time>
      </trkpt>
      <trkpt lat="46.48116" lon="5.36706">
        <ele>258</ele>
        <time>2022-06-23T05:04:16Z</time>
      </trkpt>
      <trkpt lat="46.48111" lon="5.36699">
        <ele>257.4</ele>
        <time>2022-06-23T05:04:17Z</time>
      </trkpt>
      <trkpt lat="46.48109" lon="5.36691">
        <ele>257</ele>
        <time>2022-06-23T05:04:18Z</time>
      </trkpt>
      <trkpt lat="46.48112" lon="5.36673">
        <ele>256.4</ele>
        <time>2022-06-23T05:04:20Z</time>
      </trkpt>
      <trkpt lat="46.48116" lon="5.36666">
        <ele>255.6</ele>
        <time>2022-06-23T05:04:21Z</time>
      </trkpt>
      <trkpt lat="46.48122" lon="5.36659">
        <ele>255</ele>
        <time>2022-06-23T05:04:22Z</time>
      </trkpt>
      <trkpt lat="46.48135" lon="5.36647">
        <ele>253.4</ele>
        <time>2022-06-23T05:04:24Z</time>
      </trkpt>
      <trkpt lat="46.4814" lon="5.36639">
        <ele>253</ele>
        <time>2022-06-23T05:04:25Z</time>
      </trkpt>
      <trkpt lat="46.48158" lon="5.36613">
        <ele>252.4</ele>
        <time>2022-06-23T05:04:28Z</time>
      </trkpt>
      <trkpt lat="46.48178" lon="5.36608">
        <ele>252</ele>
        <time>2022-06-23T05:04:30Z</time>
      </trkpt>
      <trkpt lat="46.48187" lon="5.36605">
        <ele>252</ele>
        <time>2022-06-23T05:04:31Z</time>
      </trkpt>
      <trkpt lat="46.48195" lon="5.36602">
        <ele>252</ele>
        <time>2022-06-23T05:04:32Z</time>
      </trkpt>
      <trkpt lat="46.48211" lon="5.36596">
        <ele>251.8</ele>
        <time>2022-06-23T05:04:34Z</time>
      </trkpt>
      <trkpt lat="46.48217" lon="5.36589">
        <ele>251.6</ele>
        <time>2022-06-23T05:04:35Z</time>
      </trkpt>
      <trkpt lat="46.48221" lon="5.3658">
        <ele>251.4</ele>
        <time>2022-06-23T05:04:36Z</time>
      </trkpt>
      <trkpt lat="46.48226" lon="5.36562">
        <ele>251.2</ele>
        <time>2022-06-23T05:04:38Z</time>
      </trkpt>
      <trkpt lat="46.48232" lon="5.36552">
        <ele>251.2</ele>
        <time>2022-06-23T05:04:39Z</time>
      </trkpt>
      <trkpt lat="46.48244" lon="5.36539">
        <ele>251.2</ele>
        <time>2022-06-23T05:04:41Z</time>
      </trkpt>
      <trkpt lat="46.48269" lon="5.36511">
        <ele>250</ele>
        <time>2022-06-23T05:04:45Z</time>
      </trkpt>
      <trkpt lat="46.48295" lon="5.36483">
        <ele>249.4</ele>
        <time>2022-06-23T05:04:49Z</time>
      </trkpt>
      <trkpt lat="46.48308" lon="5.36469">
        <ele>248.6</ele>
        <time>2022-06-23T05:04:51Z</time>
      </trkpt>
      <trkpt lat="46.48356" lon="5.36417">
        <ele>247.8</ele>
        <time>2022-06-23T05:04:58Z</time>
      </trkpt>
      <trkpt lat="46.48363" lon="5.36409">
        <ele>247.6</ele>
        <time>2022-06-23T05:04:59Z</time>
      </trkpt>
      <trkpt lat="46.48396" lon="5.36373">
        <ele>246.6</ele>
        <time>2022-06-23T05:05:04Z</time>
      </trkpt>
      <trkpt lat="46.48417" lon="5.36358">
        <ele>245.6</ele>
        <time>2022-06-23T05:05:07Z</time>
      </trkpt>
      <trkpt lat="46.48455" lon="5.36346">
        <ele>244.6</ele>
        <time>2022-06-23T05:05:12Z</time>
      </trkpt>
      <trkpt lat="46.48479" lon="5.36342">
        <ele>244.4</ele>
        <time>2022-06-23T05:05:15Z</time>
      </trkpt>
      <trkpt lat="46.48515" lon="5.36337">
        <ele>244.2</ele>
        <time>2022-06-23T05:05:20Z</time>
      </trkpt>
      <trkpt lat="46.48572" lon="5.36327">
        <ele>243.4</ele>
        <time>2022-06-23T05:05:28Z</time>
      </trkpt>
      <trkpt lat="46.48579" lon="5.36326">
        <ele>243.2</ele>
        <time>2022-06-23T05:05:29Z</time>
      </trkpt>
      <trkpt lat="46.48611" lon="5.3632">
        <ele>242.8</ele>
        <time>2022-06-23T05:05:33Z</time>
      </trkpt>
      <trkpt lat="46.48618" lon="5.36316">
        <ele>242.6</ele>
        <time>2022-06-23T05:05:34Z</time>
      </trkpt>
      <trkpt lat="46.48625" lon="5.36308">
        <ele>242.4</ele>
        <time>2022-06-23T05:05:35Z</time>
      </trkpt>
      <trkpt lat="46.4863" lon="5.36298">
        <ele>242.4</ele>
        <time>2022-06-23T05:05:36Z</time>
      </trkpt>
      <trkpt lat="46.48633" lon="5.36286">
        <ele>242</ele>
        <time>2022-06-23T05:05:37Z</time>
      </trkpt>
      <trkpt lat="46.48639" lon="5.36248">
        <ele>240.6</ele>
        <time>2022-06-23T05:05:40Z</time>
      </trkpt>
      <trkpt lat="46.48641" lon="5.36222">
        <ele>239.8</ele>
        <time>2022-06-23T05:05:42Z</time>
      </trkpt>
      <trkpt lat="46.48642" lon="5.36209">
        <ele>239.4</ele>
        <time>2022-06-23T05:05:43Z</time>
      </trkpt>
      <trkpt lat="46.48644" lon="5.36183">
        <ele>238.4</ele>
        <time>2022-06-23T05:05:45Z</time>
      </trkpt>
      <trkpt lat="46.48649" lon="5.36133">
        <ele>237.6</ele>
        <time>2022-06-23T05:05:49Z</time>
      </trkpt>
      <trkpt lat="46.48654" lon="5.36109">
        <ele>237.4</ele>
        <time>2022-06-23T05:05:51Z</time>
      </trkpt>
      <trkpt lat="46.48663" lon="5.36065">
        <ele>236.8</ele>
        <time>2022-06-23T05:05:55Z</time>
      </trkpt>
      <trkpt lat="46.48672" lon="5.36028">
        <ele>236.8</ele>
        <time>2022-06-23T05:05:59Z</time>
      </trkpt>
      <trkpt lat="46.48676" lon="5.36012">
        <ele>236.8</ele>
        <time>2022-06-23T05:06:01Z</time>
      </trkpt>
      <trkpt lat="46.48677" lon="5.36005">
        <ele>237</ele>
        <time>2022-06-23T05:06:02Z</time>
      </trkpt>
      <trkpt lat="46.4868" lon="5.35981">
        <ele>237.8</ele>
        <time>2022-06-23T05:06:05Z</time>
      </trkpt>
      <trkpt lat="46.48687" lon="5.35931">
        <ele>238.2</ele>
        <time>2022-06-23T05:06:10Z</time>
      </trkpt>
      <trkpt lat="46.48689" lon="5.35921">
        <ele>238.2</ele>
        <time>2022-06-23T05:06:11Z</time>
      </trkpt>
      <trkpt lat="46.48701" lon="5.35882">
        <ele>238.2</ele>
        <time>2022-06-23T05:06:15Z</time>
      </trkpt>
      <trkpt lat="46.48729" lon="5.35814">
        <ele>237.2</ele>
        <time>2022-06-23T05:06:22Z</time>
      </trkpt>
      <trkpt lat="46.48752" lon="5.35759">
        <ele>236.4</ele>
        <time>2022-06-23T05:06:28Z</time>
      </trkpt>
      <trkpt lat="46.48773" lon="5.35714">
        <ele>235.6</ele>
        <time>2022-06-23T05:06:33Z</time>
      </trkpt>
      <trkpt lat="46.4878" lon="5.35696">
        <ele>235.4</ele>
        <time>2022-06-23T05:06:35Z</time>
      </trkpt>
      <trkpt lat="46.48796" lon="5.35663">
        <ele>235.2</ele>
        <time>2022-06-23T05:06:39Z</time>
      </trkpt>
      <trkpt lat="46.48821" lon="5.35607">
        <ele>235.4</ele>
        <time>2022-06-23T05:06:46Z</time>
      </trkpt>
      <trkpt lat="46.48825" lon="5.356">
        <ele>235.4</ele>
        <time>2022-06-23T05:06:47Z</time>
      </trkpt>
      <trkpt lat="46.48837" lon="5.35577">
        <ele>235.4</ele>
        <time>2022-06-23T05:06:50Z</time>
      </trkpt>
      <trkpt lat="46.48842" lon="5.35571">
        <ele>235.4</ele>
        <time>2022-06-23T05:06:51Z</time>
      </trkpt>
      <trkpt lat="46.48847" lon="5.35567">
        <ele>235.4</ele>
        <time>2022-06-23T05:06:52Z</time>
      </trkpt>
      <trkpt lat="46.48859" lon="5.35564">
        <ele>235.4</ele>
        <time>2022-06-23T05:06:54Z</time>
      </trkpt>
      <trkpt lat="46.4891" lon="5.3556">
        <ele>234.8</ele>
        <time>2022-06-23T05:07:01Z</time>
      </trkpt>
      <trkpt lat="46.48943" lon="5.35556">
        <ele>234.2</ele>
        <time>2022-06-23T05:07:06Z</time>
      </trkpt>
      <trkpt lat="46.48975" lon="5.35554">
        <ele>233.4</ele>
        <time>2022-06-23T05:07:10Z</time>
      </trkpt>
      <trkpt lat="46.48983" lon="5.35553">
        <ele>233.2</ele>
        <time>2022-06-23T05:07:11Z</time>
      </trkpt>
      <trkpt lat="46.49023" lon="5.3555">
        <ele>232.6</ele>
        <time>2022-06-23T05:07:16Z</time>
      </trkpt>
      <trkpt lat="46.49059" lon="5.35548">
        <ele>232.6</ele>
        <time>2022-06-23T05:07:21Z</time>
      </trkpt>
      <trkpt lat="46.49065" lon="5.35547">
        <ele>232.6</ele>
        <time>2022-06-23T05:07:22Z</time>
      </trkpt>
      <trkpt lat="46.49076" lon="5.35547">
        <ele>233</ele>
        <time>2022-06-23T05:07:24Z</time>
      </trkpt>
      <trkpt lat="46.49087" lon="5.35546">
        <ele>233.4</ele>
        <time>2022-06-23T05:07:26Z</time>
      </trkpt>
      <trkpt lat="46.49114" lon="5.35544">
        <ele>233.8</ele>
        <time>2022-06-23T05:07:31Z</time>
      </trkpt>
      <trkpt lat="46.49119" lon="5.35544">
        <ele>234</ele>
        <time>2022-06-23T05:07:32Z</time>
      </trkpt>
      <trkpt lat="46.49131" lon="5.35543">
        <ele>234.2</ele>
        <time>2022-06-23T05:07:34Z</time>
      </trkpt>
      <trkpt lat="46.49134" lon="5.35542">
        <ele>234.6</ele>
        <time>2022-06-23T05:07:35Z</time>
      </trkpt>
      <trkpt lat="46.49168" lon="5.35541">
        <ele>235</ele>
        <time>2022-06-23T05:07:40Z</time>
      </trkpt>
      <trkpt lat="46.49196" lon="5.3554">
        <ele>235.6</ele>
        <time>2022-06-23T05:07:45Z</time>
      </trkpt>
      <trkpt lat="46.49227" lon="5.35539">
        <ele>236</ele>
        <time>2022-06-23T05:07:50Z</time>
      </trkpt>
      <trkpt lat="46.49246" lon="5.35538">
        <ele>236.4</ele>
        <time>2022-06-23T05:07:53Z</time>
      </trkpt>
      <trkpt lat="46.49265" lon="5.35538">
        <ele>236.4</ele>
        <time>2022-06-23T05:07:55Z</time>
      </trkpt>
      <trkpt lat="46.49284" lon="5.35538">
        <ele>236.4</ele>
        <time>2022-06-23T05:07:57Z</time>
      </trkpt>
      <trkpt lat="46.49312" lon="5.35536">
        <ele>236.4</ele>
        <time>2022-06-23T05:08:00Z</time>
      </trkpt>
      <trkpt lat="46.49341" lon="5.35533">
        <ele>236.2</ele>
        <time>2022-06-23T05:08:05Z</time>
      </trkpt>
      <trkpt lat="46.49363" lon="5.35532">
        <ele>236</ele>
        <time>2022-06-23T05:08:09Z</time>
      </trkpt>
      <trkpt lat="46.49378" lon="5.35534">
        <ele>235.8</ele>
        <time>2022-06-23T05:08:10Z</time>
      </trkpt>
      <trkpt lat="46.494" lon="5.35539">
        <ele>235.4</ele>
        <time>2022-06-23T05:08:14Z</time>
      </trkpt>
      <trkpt lat="46.49429" lon="5.35549">
        <ele>234.6</ele>
        <time>2022-06-23T05:08:18Z</time>
      </trkpt>
      <trkpt lat="46.49485" lon="5.35573">
        <ele>233.6</ele>
        <time>2022-06-23T05:08:25Z</time>
      </trkpt>
      <trkpt lat="46.49506" lon="5.35582">
        <ele>233.4</ele>
        <time>2022-06-23T05:08:28Z</time>
      </trkpt>
      <trkpt lat="46.49547" lon="5.356">
        <ele>233.2</ele>
        <time>2022-06-23T05:08:34Z</time>
      </trkpt>
      <trkpt lat="46.49575" lon="5.3561">
        <ele>232.6</ele>
        <time>2022-06-23T05:08:38Z</time>
      </trkpt>
      <trkpt lat="46.4963" lon="5.35627">
        <ele>232</ele>
        <time>2022-06-23T05:08:46Z</time>
      </trkpt>
      <trkpt lat="46.49637" lon="5.35629">
        <ele>231.6</ele>
        <time>2022-06-23T05:08:47Z</time>
      </trkpt>
      <trkpt lat="46.49688" lon="5.35645">
        <ele>230.6</ele>
        <time>2022-06-23T05:08:55Z</time>
      </trkpt>
      <trkpt lat="46.49693" lon="5.35646">
        <ele>230.4</ele>
        <time>2022-06-23T05:08:56Z</time>
      </trkpt>
      <trkpt lat="46.49696" lon="5.35646">
        <ele>230</ele>
        <time>2022-06-23T05:08:58Z</time>
      </trkpt>
      <trkpt lat="46.49701" lon="5.3564">
        <ele>229.6</ele>
        <time>2022-06-23T05:08:59Z</time>
      </trkpt>
      <trkpt lat="46.49703" lon="5.35634">
        <ele>229.6</ele>
        <time>2022-06-23T05:09:00Z</time>
      </trkpt>
      <trkpt lat="46.49705" lon="5.3563">
        <ele>229.2</ele>
        <time>2022-06-23T05:09:01Z</time>
      </trkpt>
      <trkpt lat="46.49707" lon="5.35613">
        <ele>229</ele>
        <time>2022-06-23T05:09:03Z</time>
      </trkpt>
      <trkpt lat="46.49709" lon="5.35596">
        <ele>228.8</ele>
        <time>2022-06-23T05:09:05Z</time>
      </trkpt>
      <trkpt lat="46.49714" lon="5.35556">
        <ele>228.4</ele>
        <time>2022-06-23T05:09:09Z</time>
      </trkpt>
      <trkpt lat="46.49718" lon="5.35526">
        <ele>228.4</ele>
        <time>2022-06-23T05:09:12Z</time>
      </trkpt>
      <trkpt lat="46.49728" lon="5.35444">
        <ele>228.2</ele>
        <time>2022-06-23T05:09:20Z</time>
      </trkpt>
      <trkpt lat="46.49734" lon="5.35388">
        <ele>227.4</ele>
        <time>2022-06-23T05:09:25Z</time>
      </trkpt>
      <trkpt lat="46.49736" lon="5.35354">
        <ele>227</ele>
        <time>2022-06-23T05:09:28Z</time>
      </trkpt>
      <trkpt lat="46.49733" lon="5.35322">
        <ele>226.4</ele>
        <time>2022-06-23T05:09:31Z</time>
      </trkpt>
      <trkpt lat="46.49731" lon="5.3531">
        <ele>226.4</ele>
        <time>2022-06-23T05:09:32Z</time>
      </trkpt>
      <trkpt lat="46.49718" lon="5.35245">
        <ele>226.2</ele>
        <time>2022-06-23T05:09:39Z</time>
      </trkpt>
      <trkpt lat="46.49702" lon="5.35173">
        <ele>227.2</ele>
        <time>2022-06-23T05:09:47Z</time>
      </trkpt>
      <trkpt lat="46.49687" lon="5.35092">
        <ele>227.2</ele>
        <time>2022-06-23T05:09:55Z</time>
      </trkpt>
      <trkpt lat="46.49671" lon="5.35016">
        <ele>226.8</ele>
        <time>2022-06-23T05:10:03Z</time>
      </trkpt>
      <trkpt lat="46.4967" lon="5.35007">
        <ele>226.8</ele>
        <time>2022-06-23T05:10:04Z</time>
      </trkpt>
      <trkpt lat="46.4966" lon="5.34958">
        <ele>227.4</ele>
        <time>2022-06-23T05:10:10Z</time>
      </trkpt>
      <trkpt lat="46.49652" lon="5.34918">
        <ele>228.4</ele>
        <time>2022-06-23T05:10:15Z</time>
      </trkpt>
      <trkpt lat="46.49645" lon="5.34886">
        <ele>228.8</ele>
        <time>2022-06-23T05:10:19Z</time>
      </trkpt>
      <trkpt lat="46.49642" lon="5.34869">
        <ele>228.8</ele>
        <time>2022-06-23T05:10:21Z</time>
      </trkpt>
      <trkpt lat="46.49629" lon="5.34797">
        <ele>228.4</ele>
        <time>2022-06-23T05:10:29Z</time>
      </trkpt>
      <trkpt lat="46.49627" lon="5.34751">
        <ele>228.2</ele>
        <time>2022-06-23T05:10:33Z</time>
      </trkpt>
      <trkpt lat="46.49627" lon="5.34738">
        <ele>228</ele>
        <time>2022-06-23T05:10:34Z</time>
      </trkpt>
      <trkpt lat="46.49629" lon="5.347">
        <ele>227.2</ele>
        <time>2022-06-23T05:10:37Z</time>
      </trkpt>
      <trkpt lat="46.49632" lon="5.34673">
        <ele>226.4</ele>
        <time>2022-06-23T05:10:39Z</time>
      </trkpt>
      <trkpt lat="46.49633" lon="5.3466">
        <ele>226</ele>
        <time>2022-06-23T05:10:40Z</time>
      </trkpt>
      <trkpt lat="46.49639" lon="5.34605">
        <ele>224.6</ele>
        <time>2022-06-23T05:10:44Z</time>
      </trkpt>
      <trkpt lat="46.49644" lon="5.34573">
        <ele>224</ele>
        <time>2022-06-23T05:10:46Z</time>
      </trkpt>
      <trkpt lat="46.49649" lon="5.34546">
        <ele>223.4</ele>
        <time>2022-06-23T05:10:48Z</time>
      </trkpt>
      <trkpt lat="46.49657" lon="5.34508">
        <ele>222.2</ele>
        <time>2022-06-23T05:10:51Z</time>
      </trkpt>
      <trkpt lat="46.4966" lon="5.34496">
        <ele>222</ele>
        <time>2022-06-23T05:10:52Z</time>
      </trkpt>
      <trkpt lat="46.49677" lon="5.34436">
        <ele>222</ele>
        <time>2022-06-23T05:10:58Z</time>
      </trkpt>
      <trkpt lat="46.49691" lon="5.34388">
        <ele>223.2</ele>
        <time>2022-06-23T05:11:04Z</time>
      </trkpt>
      <trkpt lat="46.49693" lon="5.3438">
        <ele>223.4</ele>
        <time>2022-06-23T05:11:05Z</time>
      </trkpt>
      <trkpt lat="46.49701" lon="5.34351">
        <ele>223.8</ele>
        <time>2022-06-23T05:11:09Z</time>
      </trkpt>
      <trkpt lat="46.49706" lon="5.34336">
        <ele>224.4</ele>
        <time>2022-06-23T05:11:11Z</time>
      </trkpt>
      <trkpt lat="46.49708" lon="5.34329">
        <ele>224.4</ele>
        <time>2022-06-23T05:11:12Z</time>
      </trkpt>
      <trkpt lat="46.49728" lon="5.34287">
        <ele>225.2</ele>
        <time>2022-06-23T05:11:18Z</time>
      </trkpt>
      <trkpt lat="46.49744" lon="5.34256">
        <ele>225.6</ele>
        <time>2022-06-23T05:11:22Z</time>
      </trkpt>
      <trkpt lat="46.49757" lon="5.34235">
        <ele>225.8</ele>
        <time>2022-06-23T05:11:25Z</time>
      </trkpt>
      <trkpt lat="46.4977" lon="5.34214">
        <ele>225.8</ele>
        <time>2022-06-23T05:11:28Z</time>
      </trkpt>
      <trkpt lat="46.49788" lon="5.34185">
        <ele>226</ele>
        <time>2022-06-23T05:11:32Z</time>
      </trkpt>
      <trkpt lat="46.49825" lon="5.34123">
        <ele>226.6</ele>
        <time>2022-06-23T05:11:41Z</time>
      </trkpt>
      <trkpt lat="46.49855" lon="5.34077">
        <ele>226.6</ele>
        <time>2022-06-23T05:11:48Z</time>
      </trkpt>
      <trkpt lat="46.49865" lon="5.34064">
        <ele>226.6</ele>
        <time>2022-06-23T05:11:50Z</time>
      </trkpt>
      <trkpt lat="46.49881" lon="5.34045">
        <ele>226.2</ele>
        <time>2022-06-23T05:11:53Z</time>
      </trkpt>
      <trkpt lat="46.49909" lon="5.34014">
        <ele>226.2</ele>
        <time>2022-06-23T05:11:59Z</time>
      </trkpt>
      <trkpt lat="46.49926" lon="5.33995">
        <ele>226.8</ele>
        <time>2022-06-23T05:12:03Z</time>
      </trkpt>
      <trkpt lat="46.49936" lon="5.33985">
        <ele>227</ele>
        <time>2022-06-23T05:12:05Z</time>
      </trkpt>
      <trkpt lat="46.4994" lon="5.3398">
        <ele>227</ele>
        <time>2022-06-23T05:12:06Z</time>
      </trkpt>
      <trkpt lat="46.49957" lon="5.33962">
        <ele>227.8</ele>
        <time>2022-06-23T05:12:10Z</time>
      </trkpt>
      <trkpt lat="46.49971" lon="5.33947">
        <ele>228</ele>
        <time>2022-06-23T05:12:13Z</time>
      </trkpt>
      <trkpt lat="46.49996" lon="5.33918">
        <ele>228.8</ele>
        <time>2022-06-23T05:12:18Z</time>
      </trkpt>
      <trkpt lat="46.50006" lon="5.33906">
        <ele>229</ele>
        <time>2022-06-23T05:12:20Z</time>
      </trkpt>
      <trkpt lat="46.50018" lon="5.33894">
        <ele>229</ele>
        <time>2022-06-23T05:12:22Z</time>
      </trkpt>
      <trkpt lat="46.5003" lon="5.3388">
        <ele>229.2</ele>
        <time>2022-06-23T05:12:24Z</time>
      </trkpt>
      <trkpt lat="46.50055" lon="5.33852">
        <ele>229.2</ele>
        <time>2022-06-23T05:12:28Z</time>
      </trkpt>
      <trkpt lat="46.50062" lon="5.33845">
        <ele>229</ele>
        <time>2022-06-23T05:12:29Z</time>
      </trkpt>
      <trkpt lat="46.50103" lon="5.33801">
        <ele>228</ele>
        <time>2022-06-23T05:12:35Z</time>
      </trkpt>
      <trkpt lat="46.50115" lon="5.33787">
        <ele>227.8</ele>
        <time>2022-06-23T05:12:37Z</time>
      </trkpt>
      <trkpt lat="46.50134" lon="5.33767">
        <ele>227.2</ele>
        <time>2022-06-23T05:12:40Z</time>
      </trkpt>
      <trkpt lat="46.50162" lon="5.33737">
        <ele>226.8</ele>
        <time>2022-06-23T05:12:45Z</time>
      </trkpt>
      <trkpt lat="46.50197" lon="5.33703">
        <ele>226.8</ele>
        <time>2022-06-23T05:12:51Z</time>
      </trkpt>
      <trkpt lat="46.50213" lon="5.33686">
        <ele>227</ele>
        <time>2022-06-23T05:12:54Z</time>
      </trkpt>
      <trkpt lat="46.50229" lon="5.33666">
        <ele>227.2</ele>
        <time>2022-06-23T05:12:57Z</time>
      </trkpt>
      <trkpt lat="46.50252" lon="5.33642">
        <ele>227</ele>
        <time>2022-06-23T05:13:01Z</time>
      </trkpt>
      <trkpt lat="46.50263" lon="5.3363">
        <ele>226.8</ele>
        <time>2022-06-23T05:13:03Z</time>
      </trkpt>
      <trkpt lat="46.50274" lon="5.33617">
        <ele>226.8</ele>
        <time>2022-06-23T05:13:05Z</time>
      </trkpt>
      <trkpt lat="46.50297" lon="5.33591">
        <ele>226.6</ele>
        <time>2022-06-23T05:13:09Z</time>
      </trkpt>
      <trkpt lat="46.5034" lon="5.33543">
        <ele>225.8</ele>
        <time>2022-06-23T05:13:16Z</time>
      </trkpt>
      <trkpt lat="46.50359" lon="5.33525">
        <ele>225.6</ele>
        <time>2022-06-23T05:13:19Z</time>
      </trkpt>
      <trkpt lat="46.50381" lon="5.33502">
        <ele>225.2</ele>
        <time>2022-06-23T05:13:23Z</time>
      </trkpt>
      <trkpt lat="46.50417" lon="5.33461">
        <ele>224.6</ele>
        <time>2022-06-23T05:13:29Z</time>
      </trkpt>
      <trkpt lat="46.50422" lon="5.33455">
        <ele>224.6</ele>
        <time>2022-06-23T05:13:30Z</time>
      </trkpt>
      <trkpt lat="46.50445" lon="5.33423">
        <ele>224.2</ele>
        <time>2022-06-23T05:13:34Z</time>
      </trkpt>
      <trkpt lat="46.50448" lon="5.33416">
        <ele>224</ele>
        <time>2022-06-23T05:13:35Z</time>
      </trkpt>
      <trkpt lat="46.50457" lon="5.33393">
        <ele>223.8</ele>
        <time>2022-06-23T05:13:37Z</time>
      </trkpt>
      <trkpt lat="46.50461" lon="5.33371">
        <ele>223.4</ele>
        <time>2022-06-23T05:13:39Z</time>
      </trkpt>
      <trkpt lat="46.50464" lon="5.33288">
        <ele>223</ele>
        <time>2022-06-23T05:13:46Z</time>
      </trkpt>
      <trkpt lat="46.50465" lon="5.33222">
        <ele>223</ele>
        <time>2022-06-23T05:13:52Z</time>
      </trkpt>
      <trkpt lat="46.50467" lon="5.33156">
        <ele>223.2</ele>
        <time>2022-06-23T05:13:59Z</time>
      </trkpt>
      <trkpt lat="46.50466" lon="5.33129">
        <ele>223.2</ele>
        <time>2022-06-23T05:14:02Z</time>
      </trkpt>
      <trkpt lat="46.50467" lon="5.33107">
        <ele>223.2</ele>
        <time>2022-06-23T05:14:04Z</time>
      </trkpt>
      <trkpt lat="46.50469" lon="5.33058">
        <ele>222.4</ele>
        <time>2022-06-23T05:14:08Z</time>
      </trkpt>
      <trkpt lat="46.5047" lon="5.33034">
        <ele>222</ele>
        <time>2022-06-23T05:14:10Z</time>
      </trkpt>
      <trkpt lat="46.5047" lon="5.33007">
        <ele>221.2</ele>
        <time>2022-06-23T05:14:12Z</time>
      </trkpt>
      <trkpt lat="46.50471" lon="5.3297">
        <ele>220.2</ele>
        <time>2022-06-23T05:14:15Z</time>
      </trkpt>
      <trkpt lat="46.50472" lon="5.32954">
        <ele>219.4</ele>
        <time>2022-06-23T05:14:16Z</time>
      </trkpt>
      <trkpt lat="46.50472" lon="5.32943">
        <ele>219</ele>
        <time>2022-06-23T05:14:17Z</time>
      </trkpt>
      <trkpt lat="46.50473" lon="5.32902">
        <ele>217.8</ele>
        <time>2022-06-23T05:14:20Z</time>
      </trkpt>
      <trkpt lat="46.50474" lon="5.32859">
        <ele>216.4</ele>
        <time>2022-06-23T05:14:23Z</time>
      </trkpt>
      <trkpt lat="46.50475" lon="5.32844">
        <ele>216</ele>
        <time>2022-06-23T05:14:24Z</time>
      </trkpt>
      <trkpt lat="46.50475" lon="5.32815">
        <ele>215</ele>
        <time>2022-06-23T05:14:26Z</time>
      </trkpt>
      <trkpt lat="46.50475" lon="5.32787">
        <ele>214</ele>
        <time>2022-06-23T05:14:28Z</time>
      </trkpt>
      <trkpt lat="46.50476" lon="5.32743">
        <ele>212.6</ele>
        <time>2022-06-23T05:14:31Z</time>
      </trkpt>
      <trkpt lat="46.50477" lon="5.3272">
        <ele>212</ele>
        <time>2022-06-23T05:14:33Z</time>
      </trkpt>
      <trkpt lat="46.50478" lon="5.32681">
        <ele>211.4</ele>
        <time>2022-06-23T05:14:36Z</time>
      </trkpt>
      <trkpt lat="46.50478" lon="5.32617">
        <ele>210.4</ele>
        <time>2022-06-23T05:14:41Z</time>
      </trkpt>
      <trkpt lat="46.50477" lon="5.32605">
        <ele>210.2</ele>
        <time>2022-06-23T05:14:42Z</time>
      </trkpt>
      <trkpt lat="46.50475" lon="5.32529">
        <ele>209.4</ele>
        <time>2022-06-23T05:14:48Z</time>
      </trkpt>
      <trkpt lat="46.50474" lon="5.32515">
        <ele>209.2</ele>
        <time>2022-06-23T05:14:49Z</time>
      </trkpt>
      <trkpt lat="46.50466" lon="5.32431">
        <ele>208.4</ele>
        <time>2022-06-23T05:14:56Z</time>
      </trkpt>
      <trkpt lat="46.50464" lon="5.32422">
        <ele>208.4</ele>
        <time>2022-06-23T05:14:57Z</time>
      </trkpt>
      <trkpt lat="46.50448" lon="5.32343">
        <ele>207.4</ele>
        <time>2022-06-23T05:15:04Z</time>
      </trkpt>
      <trkpt lat="46.50445" lon="5.3233">
        <ele>207.4</ele>
        <time>2022-06-23T05:15:05Z</time>
      </trkpt>
      <trkpt lat="46.50441" lon="5.32311">
        <ele>207.6</ele>
        <time>2022-06-23T05:15:07Z</time>
      </trkpt>
      <trkpt lat="46.50433" lon="5.32245">
        <ele>207.4</ele>
        <time>2022-06-23T05:15:13Z</time>
      </trkpt>
      <trkpt lat="46.50434" lon="5.32162">
        <ele>207.2</ele>
        <time>2022-06-23T05:15:20Z</time>
      </trkpt>
      <trkpt lat="46.50435" lon="5.32078">
        <ele>206.6</ele>
        <time>2022-06-23T05:15:27Z</time>
      </trkpt>
      <trkpt lat="46.50436" lon="5.32065">
        <ele>206.4</ele>
        <time>2022-06-23T05:15:28Z</time>
      </trkpt>
      <trkpt lat="46.50436" lon="5.32044">
        <ele>206.2</ele>
        <time>2022-06-23T05:15:30Z</time>
      </trkpt>
      <trkpt lat="46.50437" lon="5.31984">
        <ele>205.4</ele>
        <time>2022-06-23T05:15:35Z</time>
      </trkpt>
      <trkpt lat="46.50439" lon="5.31924">
        <ele>204.8</ele>
        <time>2022-06-23T05:15:40Z</time>
      </trkpt>
      <trkpt lat="46.50437" lon="5.31867">
        <ele>204.4</ele>
        <time>2022-06-23T05:15:45Z</time>
      </trkpt>
      <trkpt lat="46.50436" lon="5.31856">
        <ele>204.4</ele>
        <time>2022-06-23T05:15:46Z</time>
      </trkpt>
      <trkpt lat="46.50419" lon="5.31783">
        <ele>204</ele>
        <time>2022-06-23T05:15:53Z</time>
      </trkpt>
      <trkpt lat="46.50403" lon="5.31732">
        <ele>204</ele>
        <time>2022-06-23T05:15:58Z</time>
      </trkpt>
      <trkpt lat="46.50394" lon="5.31714">
        <ele>203.6</ele>
        <time>2022-06-23T05:16:00Z</time>
      </trkpt>
      <trkpt lat="46.50379" lon="5.31687">
        <ele>203.4</ele>
        <time>2022-06-23T05:16:03Z</time>
      </trkpt>
      <trkpt lat="46.50362" lon="5.31662">
        <ele>203.4</ele>
        <time>2022-06-23T05:16:06Z</time>
      </trkpt>
      <trkpt lat="46.50328" lon="5.31633">
        <ele>202.8</ele>
        <time>2022-06-23T05:16:11Z</time>
      </trkpt>
      <trkpt lat="46.50274" lon="5.31591">
        <ele>202.4</ele>
        <time>2022-06-23T05:16:19Z</time>
      </trkpt>
      <trkpt lat="46.50231" lon="5.31539">
        <ele>202.4</ele>
        <time>2022-06-23T05:16:27Z</time>
      </trkpt>
      <trkpt lat="46.50212" lon="5.315">
        <ele>202.8</ele>
        <time>2022-06-23T05:16:32Z</time>
      </trkpt>
      <trkpt lat="46.50208" lon="5.31486">
        <ele>203</ele>
        <time>2022-06-23T05:16:34Z</time>
      </trkpt>
      <trkpt lat="46.502" lon="5.31468">
        <ele>203.6</ele>
        <time>2022-06-23T05:16:37Z</time>
      </trkpt>
      <trkpt lat="46.50198" lon="5.31461">
        <ele>203.8</ele>
        <time>2022-06-23T05:16:38Z</time>
      </trkpt>
      <trkpt lat="46.50189" lon="5.31439">
        <ele>204.8</ele>
        <time>2022-06-23T05:16:42Z</time>
      </trkpt>
      <trkpt lat="46.50187" lon="5.31432">
        <ele>205</ele>
        <time>2022-06-23T05:16:43Z</time>
      </trkpt>
      <trkpt lat="46.50185" lon="5.31428">
        <ele>205.4</ele>
        <time>2022-06-23T05:16:44Z</time>
      </trkpt>
      <trkpt lat="46.50181" lon="5.31415">
        <ele>205.8</ele>
        <time>2022-06-23T05:16:46Z</time>
      </trkpt>
      <trkpt lat="46.50172" lon="5.31386">
        <ele>206.8</ele>
        <time>2022-06-23T05:16:51Z</time>
      </trkpt>
      <trkpt lat="46.5017" lon="5.31381">
        <ele>207</ele>
        <time>2022-06-23T05:16:52Z</time>
      </trkpt>
      <trkpt lat="46.50164" lon="5.31364">
        <ele>207.8</ele>
        <time>2022-06-23T05:16:55Z</time>
      </trkpt>
      <trkpt lat="46.50162" lon="5.31358">
        <ele>208.2</ele>
        <time>2022-06-23T05:16:56Z</time>
      </trkpt>
      <trkpt lat="46.50158" lon="5.31347">
        <ele>208.4</ele>
        <time>2022-06-23T05:16:58Z</time>
      </trkpt>
      <trkpt lat="46.50147" lon="5.31313">
        <ele>209.2</ele>
        <time>2022-06-23T05:17:03Z</time>
      </trkpt>
      <trkpt lat="46.5014" lon="5.31292">
        <ele>209.8</ele>
        <time>2022-06-23T05:17:06Z</time>
      </trkpt>
      <trkpt lat="46.50119" lon="5.31228">
        <ele>210.2</ele>
        <time>2022-06-23T05:17:14Z</time>
      </trkpt>
      <trkpt lat="46.50101" lon="5.31172">
        <ele>209.6</ele>
        <time>2022-06-23T05:17:20Z</time>
      </trkpt>
      <trkpt lat="46.50076" lon="5.31101">
        <ele>208.4</ele>
        <time>2022-06-23T05:17:27Z</time>
      </trkpt>
      <trkpt lat="46.50074" lon="5.31094">
        <ele>208.2</ele>
        <time>2022-06-23T05:17:28Z</time>
      </trkpt>
      <trkpt lat="46.5006" lon="5.31053">
        <ele>208</ele>
        <time>2022-06-23T05:17:33Z</time>
      </trkpt>
      <trkpt lat="46.50057" lon="5.31044">
        <ele>208.2</ele>
        <time>2022-06-23T05:17:34Z</time>
      </trkpt>
      <trkpt lat="46.50047" lon="5.31015">
        <ele>209</ele>
        <time>2022-06-23T05:17:39Z</time>
      </trkpt>
      <trkpt lat="46.50045" lon="5.31009">
        <ele>209.2</ele>
        <time>2022-06-23T05:17:40Z</time>
      </trkpt>
      <trkpt lat="46.50041" lon="5.30999">
        <ele>209.8</ele>
        <time>2022-06-23T05:17:42Z</time>
      </trkpt>
      <trkpt lat="46.50036" lon="5.30986">
        <ele>210.4</ele>
        <time>2022-06-23T05:17:44Z</time>
      </trkpt>
      <trkpt lat="46.50032" lon="5.30976">
        <ele>211</ele>
        <time>2022-06-23T05:17:46Z</time>
      </trkpt>
      <trkpt lat="46.50023" lon="5.30952">
        <ele>212</ele>
        <time>2022-06-23T05:17:50Z</time>
      </trkpt>
      <trkpt lat="46.50019" lon="5.30939">
        <ele>212.6</ele>
        <time>2022-06-23T05:17:52Z</time>
      </trkpt>
      <trkpt lat="46.50016" lon="5.30928">
        <ele>213.2</ele>
        <time>2022-06-23T05:17:54Z</time>
      </trkpt>
      <trkpt lat="46.50004" lon="5.30894">
        <ele>214.6</ele>
        <time>2022-06-23T05:18:00Z</time>
      </trkpt>
      <trkpt lat="46.49994" lon="5.30867">
        <ele>215.8</ele>
        <time>2022-06-23T05:18:05Z</time>
      </trkpt>
      <trkpt lat="46.4999" lon="5.30858">
        <ele>216.2</ele>
        <time>2022-06-23T05:18:07Z</time>
      </trkpt>
      <trkpt lat="46.49988" lon="5.30852">
        <ele>216.2</ele>
        <time>2022-06-23T05:18:08Z</time>
      </trkpt>
      <trkpt lat="46.49982" lon="5.30833">
        <ele>216.8</ele>
        <time>2022-06-23T05:18:11Z</time>
      </trkpt>
      <trkpt lat="46.49973" lon="5.30801">
        <ele>217.8</ele>
        <time>2022-06-23T05:18:16Z</time>
      </trkpt>
      <trkpt lat="46.49971" lon="5.30794">
        <ele>217.8</ele>
        <time>2022-06-23T05:18:17Z</time>
      </trkpt>
      <trkpt lat="46.49967" lon="5.30781">
        <ele>218.4</ele>
        <time>2022-06-23T05:18:19Z</time>
      </trkpt>
      <trkpt lat="46.49963" lon="5.30761">
        <ele>219</ele>
        <time>2022-06-23T05:18:22Z</time>
      </trkpt>
      <trkpt lat="46.49961" lon="5.30746">
        <ele>219.4</ele>
        <time>2022-06-23T05:18:24Z</time>
      </trkpt>
      <trkpt lat="46.49949" lon="5.30685">
        <ele>219.8</ele>
        <time>2022-06-23T05:18:32Z</time>
      </trkpt>
      <trkpt lat="46.49938" lon="5.30624">
        <ele>219.4</ele>
        <time>2022-06-23T05:18:38Z</time>
      </trkpt>
      <trkpt lat="46.49934" lon="5.30567">
        <ele>218</ele>
        <time>2022-06-23T05:18:43Z</time>
      </trkpt>
      <trkpt lat="46.49935" lon="5.30555">
        <ele>217.8</ele>
        <time>2022-06-23T05:18:44Z</time>
      </trkpt>
      <trkpt lat="46.49941" lon="5.30519">
        <ele>217.2</ele>
        <time>2022-06-23T05:18:47Z</time>
      </trkpt>
      <trkpt lat="46.49944" lon="5.3051">
        <ele>216.6</ele>
        <time>2022-06-23T05:18:48Z</time>
      </trkpt>
      <trkpt lat="46.49948" lon="5.30496">
        <ele>216.2</ele>
        <time>2022-06-23T05:18:49Z</time>
      </trkpt>
      <trkpt lat="46.49958" lon="5.30474">
        <ele>215.4</ele>
        <time>2022-06-23T05:18:51Z</time>
      </trkpt>
      <trkpt lat="46.49985" lon="5.30441">
        <ele>214.8</ele>
        <time>2022-06-23T05:18:55Z</time>
      </trkpt>
      <trkpt lat="46.50001" lon="5.30428">
        <ele>214.4</ele>
        <time>2022-06-23T05:18:57Z</time>
      </trkpt>
      <trkpt lat="46.50025" lon="5.30409">
        <ele>213</ele>
        <time>2022-06-23T05:19:00Z</time>
      </trkpt>
      <trkpt lat="46.5004" lon="5.30396">
        <ele>212.4</ele>
        <time>2022-06-23T05:19:02Z</time>
      </trkpt>
      <trkpt lat="46.50047" lon="5.30389">
        <ele>212.2</ele>
        <time>2022-06-23T05:19:03Z</time>
      </trkpt>
      <trkpt lat="46.50052" lon="5.30382">
        <ele>212</ele>
        <time>2022-06-23T05:19:04Z</time>
      </trkpt>
      <trkpt lat="46.50063" lon="5.30365">
        <ele>211.8</ele>
        <time>2022-06-23T05:19:06Z</time>
      </trkpt>
      <trkpt lat="46.50073" lon="5.30346">
        <ele>211.6</ele>
        <time>2022-06-23T05:19:08Z</time>
      </trkpt>
      <trkpt lat="46.50078" lon="5.30329">
        <ele>211.6</ele>
        <time>2022-06-23T05:19:10Z</time>
      </trkpt>
      <trkpt lat="46.50088" lon="5.30283">
        <ele>211.8</ele>
        <time>2022-06-23T05:19:15Z</time>
      </trkpt>
      <trkpt lat="46.50089" lon="5.3023">
        <ele>212.4</ele>
        <time>2022-06-23T05:19:21Z</time>
      </trkpt>
      <trkpt lat="46.50089" lon="5.30203">
        <ele>212.8</ele>
        <time>2022-06-23T05:19:24Z</time>
      </trkpt>
      <trkpt lat="46.50089" lon="5.30195">
        <ele>213</ele>
        <time>2022-06-23T05:19:25Z</time>
      </trkpt>
      <trkpt lat="46.50089" lon="5.30186">
        <ele>213.2</ele>
        <time>2022-06-23T05:19:26Z</time>
      </trkpt>
      <trkpt lat="46.50091" lon="5.3014">
        <ele>213.8</ele>
        <time>2022-06-23T05:19:31Z</time>
      </trkpt>
      <trkpt lat="46.50091" lon="5.3012">
        <ele>214</ele>
        <time>2022-06-23T05:19:33Z</time>
      </trkpt>
      <trkpt lat="46.50091" lon="5.30111">
        <ele>214.2</ele>
        <time>2022-06-23T05:19:34Z</time>
      </trkpt>
      <trkpt lat="46.5009" lon="5.30066">
        <ele>214.6</ele>
        <time>2022-06-23T05:19:39Z</time>
      </trkpt>
      <trkpt lat="46.50088" lon="5.30005">
        <ele>215.2</ele>
        <time>2022-06-23T05:19:46Z</time>
      </trkpt>
      <trkpt lat="46.50086" lon="5.29997">
        <ele>215.2</ele>
        <time>2022-06-23T05:19:47Z</time>
      </trkpt>
      <trkpt lat="46.50072" lon="5.29944">
        <ele>215.2</ele>
        <time>2022-06-23T05:19:53Z</time>
      </trkpt>
      <trkpt lat="46.50045" lon="5.29897">
        <ele>214.8</ele>
        <time>2022-06-23T05:19:59Z</time>
      </trkpt>
      <trkpt lat="46.50016" lon="5.29866">
        <ele>214.2</ele>
        <time>2022-06-23T05:20:04Z</time>
      </trkpt>
      <trkpt lat="46.5001" lon="5.29861">
        <ele>214.2</ele>
        <time>2022-06-23T05:20:05Z</time>
      </trkpt>
      <trkpt lat="46.50004" lon="5.29858">
        <ele>214</ele>
        <time>2022-06-23T05:20:06Z</time>
      </trkpt>
      <trkpt lat="46.49996" lon="5.29854">
        <ele>214</ele>
        <time>2022-06-23T05:20:07Z</time>
      </trkpt>
      <trkpt lat="46.49975" lon="5.29852">
        <ele>213.6</ele>
        <time>2022-06-23T05:20:10Z</time>
      </trkpt>
      <trkpt lat="46.49936" lon="5.29843">
        <ele>213.4</ele>
        <time>2022-06-23T05:20:16Z</time>
      </trkpt>
      <trkpt lat="46.49906" lon="5.29832">
        <ele>213.6</ele>
        <time>2022-06-23T05:20:21Z</time>
      </trkpt>
      <trkpt lat="46.49863" lon="5.29812">
        <ele>214.8</ele>
        <time>2022-06-23T05:20:29Z</time>
      </trkpt>
      <trkpt lat="46.49836" lon="5.29802">
        <ele>215.2</ele>
        <time>2022-06-23T05:20:34Z</time>
      </trkpt>
      <trkpt lat="46.49808" lon="5.29792">
        <ele>216</ele>
        <time>2022-06-23T05:20:39Z</time>
      </trkpt>
      <trkpt lat="46.4979" lon="5.29787">
        <ele>216.2</ele>
        <time>2022-06-23T05:20:42Z</time>
      </trkpt>
      <trkpt lat="46.49761" lon="5.29782">
        <ele>216.6</ele>
        <time>2022-06-23T05:20:47Z</time>
      </trkpt>
      <trkpt lat="46.49755" lon="5.2978">
        <ele>216.6</ele>
        <time>2022-06-23T05:20:48Z</time>
      </trkpt>
      <trkpt lat="46.49744" lon="5.29771">
        <ele>216.6</ele>
        <time>2022-06-23T05:20:50Z</time>
      </trkpt>
      <trkpt lat="46.49732" lon="5.2974">
        <ele>216.4</ele>
        <time>2022-06-23T05:20:54Z</time>
      </trkpt>
      <trkpt lat="46.497" lon="5.29685">
        <ele>216</ele>
        <time>2022-06-23T05:21:01Z</time>
      </trkpt>
      <trkpt lat="46.49665" lon="5.29621">
        <ele>216.4</ele>
        <time>2022-06-23T05:21:10Z</time>
      </trkpt>
      <trkpt lat="46.49661" lon="5.29614">
        <ele>216.4</ele>
        <time>2022-06-23T05:21:11Z</time>
      </trkpt>
      <trkpt lat="46.49626" lon="5.29552">
        <ele>217.4</ele>
        <time>2022-06-23T05:21:20Z</time>
      </trkpt>
      <trkpt lat="46.49615" lon="5.29531">
        <ele>217.6</ele>
        <time>2022-06-23T05:21:23Z</time>
      </trkpt>
      <trkpt lat="46.49595" lon="5.29495">
        <ele>217.6</ele>
        <time>2022-06-23T05:21:28Z</time>
      </trkpt>
      <trkpt lat="46.49561" lon="5.29434">
        <ele>217.8</ele>
        <time>2022-06-23T05:21:36Z</time>
      </trkpt>
      <trkpt lat="46.49526" lon="5.29367">
        <ele>216.8</ele>
        <time>2022-06-23T05:21:44Z</time>
      </trkpt>
      <trkpt lat="46.49519" lon="5.29344">
        <ele>216.6</ele>
        <time>2022-06-23T05:21:46Z</time>
      </trkpt>
      <trkpt lat="46.49516" lon="5.29329">
        <ele>216.4</ele>
        <time>2022-06-23T05:21:47Z</time>
      </trkpt>
      <trkpt lat="46.49514" lon="5.29316">
        <ele>216.4</ele>
        <time>2022-06-23T05:21:48Z</time>
      </trkpt>
      <trkpt lat="46.49513" lon="5.29288">
        <ele>215.8</ele>
        <time>2022-06-23T05:21:50Z</time>
      </trkpt>
      <trkpt lat="46.49513" lon="5.29273">
        <ele>214.8</ele>
        <time>2022-06-23T05:21:51Z</time>
      </trkpt>
      <trkpt lat="46.49516" lon="5.29259">
        <ele>214.4</ele>
        <time>2022-06-23T05:21:52Z</time>
      </trkpt>
      <trkpt lat="46.49523" lon="5.2923">
        <ele>213.4</ele>
        <time>2022-06-23T05:21:54Z</time>
      </trkpt>
      <trkpt lat="46.49528" lon="5.29217">
        <ele>213</ele>
        <time>2022-06-23T05:21:55Z</time>
      </trkpt>
      <trkpt lat="46.49534" lon="5.29204">
        <ele>212.2</ele>
        <time>2022-06-23T05:21:56Z</time>
      </trkpt>
      <trkpt lat="46.49547" lon="5.29178">
        <ele>210.8</ele>
        <time>2022-06-23T05:21:58Z</time>
      </trkpt>
      <trkpt lat="46.49559" lon="5.2915">
        <ele>209.6</ele>
        <time>2022-06-23T05:22:00Z</time>
      </trkpt>
      <trkpt lat="46.49567" lon="5.29119">
        <ele>208.6</ele>
        <time>2022-06-23T05:22:02Z</time>
      </trkpt>
      <trkpt lat="46.49573" lon="5.29088">
        <ele>207.8</ele>
        <time>2022-06-23T05:22:04Z</time>
      </trkpt>
      <trkpt lat="46.49576" lon="5.29071">
        <ele>207.2</ele>
        <time>2022-06-23T05:22:05Z</time>
      </trkpt>
      <trkpt lat="46.49582" lon="5.29038">
        <ele>205.4</ele>
        <time>2022-06-23T05:22:07Z</time>
      </trkpt>
      <trkpt lat="46.49588" lon="5.29005">
        <ele>204.4</ele>
        <time>2022-06-23T05:22:09Z</time>
      </trkpt>
      <trkpt lat="46.49594" lon="5.28972">
        <ele>202.8</ele>
        <time>2022-06-23T05:22:11Z</time>
      </trkpt>
      <trkpt lat="46.496" lon="5.28939">
        <ele>201.8</ele>
        <time>2022-06-23T05:22:13Z</time>
      </trkpt>
      <trkpt lat="46.49606" lon="5.28906">
        <ele>200.6</ele>
        <time>2022-06-23T05:22:15Z</time>
      </trkpt>
      <trkpt lat="46.49608" lon="5.28893">
        <ele>199.6</ele>
        <time>2022-06-23T05:22:16Z</time>
      </trkpt>
      <trkpt lat="46.49614" lon="5.28861">
        <ele>198.4</ele>
        <time>2022-06-23T05:22:18Z</time>
      </trkpt>
      <trkpt lat="46.49616" lon="5.28849">
        <ele>197.8</ele>
        <time>2022-06-23T05:22:19Z</time>
      </trkpt>
      <trkpt lat="46.49622" lon="5.28818">
        <ele>197.2</ele>
        <time>2022-06-23T05:22:21Z</time>
      </trkpt>
      <trkpt lat="46.49632" lon="5.28765">
        <ele>196.6</ele>
        <time>2022-06-23T05:22:25Z</time>
      </trkpt>
      <trkpt lat="46.49648" lon="5.28693">
        <ele>196.2</ele>
        <time>2022-06-23T05:22:31Z</time>
      </trkpt>
      <trkpt lat="46.49651" lon="5.28682">
        <ele>196</ele>
        <time>2022-06-23T05:22:32Z</time>
      </trkpt>
      <trkpt lat="46.49669" lon="5.28606">
        <ele>196</ele>
        <time>2022-06-23T05:22:39Z</time>
      </trkpt>
      <trkpt lat="46.4968" lon="5.28558">
        <ele>196.2</ele>
        <time>2022-06-23T05:22:44Z</time>
      </trkpt>
      <trkpt lat="46.49693" lon="5.28486">
        <ele>196.6</ele>
        <time>2022-06-23T05:22:51Z</time>
      </trkpt>
      <trkpt lat="46.49702" lon="5.28407">
        <ele>196.6</ele>
        <time>2022-06-23T05:22:58Z</time>
      </trkpt>
      <trkpt lat="46.49721" lon="5.28334">
        <ele>195.8</ele>
        <time>2022-06-23T05:23:05Z</time>
      </trkpt>
      <trkpt lat="46.49741" lon="5.28254">
        <ele>195.6</ele>
        <time>2022-06-23T05:23:13Z</time>
      </trkpt>
      <trkpt lat="46.49754" lon="5.28174">
        <ele>195.4</ele>
        <time>2022-06-23T05:23:21Z</time>
      </trkpt>
      <trkpt lat="46.49759" lon="5.28142">
        <ele>195.8</ele>
        <time>2022-06-23T05:23:24Z</time>
      </trkpt>
      <trkpt lat="46.49768" lon="5.28063">
        <ele>195.6</ele>
        <time>2022-06-23T05:23:32Z</time>
      </trkpt>
      <trkpt lat="46.49768" lon="5.28053">
        <ele>195.6</ele>
        <time>2022-06-23T05:23:33Z</time>
      </trkpt>
      <trkpt lat="46.49767" lon="5.27979">
        <ele>196</ele>
        <time>2022-06-23T05:23:41Z</time>
      </trkpt>
      <trkpt lat="46.49766" lon="5.27927">
        <ele>197.4</ele>
        <time>2022-06-23T05:23:47Z</time>
      </trkpt>
      <trkpt lat="46.49766" lon="5.27917">
        <ele>197.4</ele>
        <time>2022-06-23T05:23:48Z</time>
      </trkpt>
      <trkpt lat="46.49763" lon="5.2785">
        <ele>197.6</ele>
        <time>2022-06-23T05:23:56Z</time>
      </trkpt>
      <trkpt lat="46.49753" lon="5.27785">
        <ele>198</ele>
        <time>2022-06-23T05:24:04Z</time>
      </trkpt>
      <trkpt lat="46.49749" lon="5.27762">
        <ele>198.6</ele>
        <time>2022-06-23T05:24:07Z</time>
      </trkpt>
      <trkpt lat="46.4974" lon="5.27709">
        <ele>199.8</ele>
        <time>2022-06-23T05:24:14Z</time>
      </trkpt>
      <trkpt lat="46.49737" lon="5.27695">
        <ele>200</ele>
        <time>2022-06-23T05:24:16Z</time>
      </trkpt>
      <trkpt lat="46.49729" lon="5.27649">
        <ele>200.8</ele>
        <time>2022-06-23T05:24:23Z</time>
      </trkpt>
      <trkpt lat="46.49728" lon="5.27642">
        <ele>201.2</ele>
        <time>2022-06-23T05:24:24Z</time>
      </trkpt>
      <trkpt lat="46.49726" lon="5.27609">
        <ele>201.8</ele>
        <time>2022-06-23T05:24:29Z</time>
      </trkpt>
      <trkpt lat="46.49725" lon="5.27596">
        <ele>202.4</ele>
        <time>2022-06-23T05:24:31Z</time>
      </trkpt>
      <trkpt lat="46.49726" lon="5.27577">
        <ele>203</ele>
        <time>2022-06-23T05:24:34Z</time>
      </trkpt>
      <trkpt lat="46.49726" lon="5.27546">
        <ele>203.8</ele>
        <time>2022-06-23T05:24:39Z</time>
      </trkpt>
      <trkpt lat="46.49726" lon="5.27539">
        <ele>204.2</ele>
        <time>2022-06-23T05:24:40Z</time>
      </trkpt>
      <trkpt lat="46.49725" lon="5.27502">
        <ele>205.2</ele>
        <time>2022-06-23T05:24:46Z</time>
      </trkpt>
      <trkpt lat="46.49724" lon="5.27472">
        <ele>206.4</ele>
        <time>2022-06-23T05:24:51Z</time>
      </trkpt>
      <trkpt lat="46.49724" lon="5.27466">
        <ele>206.4</ele>
        <time>2022-06-23T05:24:52Z</time>
      </trkpt>
      <trkpt lat="46.49721" lon="5.27445">
        <ele>207.6</ele>
        <time>2022-06-23T05:24:56Z</time>
      </trkpt>
      <trkpt lat="46.49719" lon="5.27433">
        <ele>208.2</ele>
        <time>2022-06-23T05:24:58Z</time>
      </trkpt>
      <trkpt lat="46.49717" lon="5.27423">
        <ele>208.8</ele>
        <time>2022-06-23T05:25:00Z</time>
      </trkpt>
      <trkpt lat="46.49714" lon="5.27412">
        <ele>209.2</ele>
        <time>2022-06-23T05:25:02Z</time>
      </trkpt>
      <trkpt lat="46.4971" lon="5.27398">
        <ele>210</ele>
        <time>2022-06-23T05:25:05Z</time>
      </trkpt>
      <trkpt lat="46.49707" lon="5.27393">
        <ele>210.2</ele>
        <time>2022-06-23T05:25:06Z</time>
      </trkpt>
      <trkpt lat="46.49697" lon="5.2737">
        <ele>211</ele>
        <time>2022-06-23T05:25:11Z</time>
      </trkpt>
      <trkpt lat="46.49691" lon="5.27358">
        <ele>211.8</ele>
        <time>2022-06-23T05:25:14Z</time>
      </trkpt>
      <trkpt lat="46.49687" lon="5.27349">
        <ele>212.2</ele>
        <time>2022-06-23T05:25:16Z</time>
      </trkpt>
      <trkpt lat="46.49676" lon="5.27328">
        <ele>213.2</ele>
        <time>2022-06-23T05:25:21Z</time>
      </trkpt>
      <trkpt lat="46.49672" lon="5.27321">
        <ele>213.4</ele>
        <time>2022-06-23T05:25:23Z</time>
      </trkpt>
      <trkpt lat="46.49662" lon="5.273">
        <ele>214.6</ele>
        <time>2022-06-23T05:25:28Z</time>
      </trkpt>
      <trkpt lat="46.4965" lon="5.27266">
        <ele>215.4</ele>
        <time>2022-06-23T05:25:35Z</time>
      </trkpt>
      <trkpt lat="46.49644" lon="5.27242">
        <ele>216.6</ele>
        <time>2022-06-23T05:25:40Z</time>
      </trkpt>
      <trkpt lat="46.49642" lon="5.27232">
        <ele>216.8</ele>
        <time>2022-06-23T05:25:42Z</time>
      </trkpt>
      <trkpt lat="46.49639" lon="5.27211">
        <ele>217.6</ele>
        <time>2022-06-23T05:25:46Z</time>
      </trkpt>
      <trkpt lat="46.49638" lon="5.2719">
        <ele>218.4</ele>
        <time>2022-06-23T05:25:50Z</time>
      </trkpt>
      <trkpt lat="46.49638" lon="5.27184">
        <ele>218.6</ele>
        <time>2022-06-23T05:25:51Z</time>
      </trkpt>
      <trkpt lat="46.49641" lon="5.27148">
        <ele>219.8</ele>
        <time>2022-06-23T05:25:58Z</time>
      </trkpt>
      <trkpt lat="46.49642" lon="5.27142">
        <ele>219.8</ele>
        <time>2022-06-23T05:25:59Z</time>
      </trkpt>
      <trkpt lat="46.49655" lon="5.27092">
        <ele>220.6</ele>
        <time>2022-06-23T05:26:07Z</time>
      </trkpt>
      <trkpt lat="46.49659" lon="5.2708">
        <ele>220.8</ele>
        <time>2022-06-23T05:26:09Z</time>
      </trkpt>
      <trkpt lat="46.49676" lon="5.27024">
        <ele>221.2</ele>
        <time>2022-06-23T05:26:17Z</time>
      </trkpt>
      <trkpt lat="46.49693" lon="5.26971">
        <ele>221.2</ele>
        <time>2022-06-23T05:26:23Z</time>
      </trkpt>
      <trkpt lat="46.4971" lon="5.26918">
        <ele>220.4</ele>
        <time>2022-06-23T05:26:28Z</time>
      </trkpt>
      <trkpt lat="46.49721" lon="5.26883">
        <ele>219.4</ele>
        <time>2022-06-23T05:26:31Z</time>
      </trkpt>
      <trkpt lat="46.49733" lon="5.26841">
        <ele>218.8</ele>
        <time>2022-06-23T05:26:35Z</time>
      </trkpt>
      <trkpt lat="46.49741" lon="5.268">
        <ele>218.6</ele>
        <time>2022-06-23T05:26:39Z</time>
      </trkpt>
      <trkpt lat="46.49744" lon="5.26743">
        <ele>219</ele>
        <time>2022-06-23T05:26:45Z</time>
      </trkpt>
      <trkpt lat="46.49741" lon="5.267">
        <ele>219.2</ele>
        <time>2022-06-23T05:26:49Z</time>
      </trkpt>
      <trkpt lat="46.49738" lon="5.26682">
        <ele>219.2</ele>
        <time>2022-06-23T05:26:51Z</time>
      </trkpt>
      <trkpt lat="46.49721" lon="5.26623">
        <ele>218.8</ele>
        <time>2022-06-23T05:26:57Z</time>
      </trkpt>
      <trkpt lat="46.49712" lon="5.26601">
        <ele>218.6</ele>
        <time>2022-06-23T05:26:59Z</time>
      </trkpt>
      <trkpt lat="46.49705" lon="5.26583">
        <ele>218.4</ele>
        <time>2022-06-23T05:27:01Z</time>
      </trkpt>
      <trkpt lat="46.49686" lon="5.26538">
        <ele>217.2</ele>
        <time>2022-06-23T05:27:05Z</time>
      </trkpt>
      <trkpt lat="46.49675" lon="5.26514">
        <ele>216.4</ele>
        <time>2022-06-23T05:27:07Z</time>
      </trkpt>
      <trkpt lat="46.49668" lon="5.26499">
        <ele>215.8</ele>
        <time>2022-06-23T05:27:08Z</time>
      </trkpt>
      <trkpt lat="46.49659" lon="5.26477">
        <ele>214.8</ele>
        <time>2022-06-23T05:27:10Z</time>
      </trkpt>
      <trkpt lat="46.49655" lon="5.26463">
        <ele>214.6</ele>
        <time>2022-06-23T05:27:11Z</time>
      </trkpt>
      <trkpt lat="46.4965" lon="5.26446">
        <ele>214</ele>
        <time>2022-06-23T05:27:12Z</time>
      </trkpt>
      <trkpt lat="46.49643" lon="5.26415">
        <ele>213.2</ele>
        <time>2022-06-23T05:27:14Z</time>
      </trkpt>
      <trkpt lat="46.49638" lon="5.26386">
        <ele>212.2</ele>
        <time>2022-06-23T05:27:16Z</time>
      </trkpt>
      <trkpt lat="46.49635" lon="5.26351">
        <ele>211</ele>
        <time>2022-06-23T05:27:18Z</time>
      </trkpt>
      <trkpt lat="46.49631" lon="5.26303">
        <ele>209.6</ele>
        <time>2022-06-23T05:27:21Z</time>
      </trkpt>
      <trkpt lat="46.49629" lon="5.2627">
        <ele>208.6</ele>
        <time>2022-06-23T05:27:23Z</time>
      </trkpt>
      <trkpt lat="46.49628" lon="5.26257">
        <ele>207.6</ele>
        <time>2022-06-23T05:27:24Z</time>
      </trkpt>
      <trkpt lat="46.49626" lon="5.26224">
        <ele>206.2</ele>
        <time>2022-06-23T05:27:26Z</time>
      </trkpt>
      <trkpt lat="46.49624" lon="5.26198">
        <ele>205.2</ele>
        <time>2022-06-23T05:27:28Z</time>
      </trkpt>
      <trkpt lat="46.49621" lon="5.26168">
        <ele>204.6</ele>
        <time>2022-06-23T05:27:30Z</time>
      </trkpt>
      <trkpt lat="46.49615" lon="5.26133">
        <ele>204</ele>
        <time>2022-06-23T05:27:33Z</time>
      </trkpt>
      <trkpt lat="46.49609" lon="5.26108">
        <ele>203.8</ele>
        <time>2022-06-23T05:27:35Z</time>
      </trkpt>
      <trkpt lat="46.49588" lon="5.26061">
        <ele>203.6</ele>
        <time>2022-06-23T05:27:40Z</time>
      </trkpt>
      <trkpt lat="46.49551" lon="5.26009">
        <ele>203.4</ele>
        <time>2022-06-23T05:27:47Z</time>
      </trkpt>
      <trkpt lat="46.49539" lon="5.25997">
        <ele>203.4</ele>
        <time>2022-06-23T05:27:49Z</time>
      </trkpt>
      <trkpt lat="46.49509" lon="5.25967">
        <ele>203.8</ele>
        <time>2022-06-23T05:27:54Z</time>
      </trkpt>
      <trkpt lat="46.49464" lon="5.25924">
        <ele>203.8</ele>
        <time>2022-06-23T05:28:01Z</time>
      </trkpt>
      <trkpt lat="46.49445" lon="5.25905">
        <ele>203.4</ele>
        <time>2022-06-23T05:28:04Z</time>
      </trkpt>
      <trkpt lat="46.49396" lon="5.25856">
        <ele>203.2</ele>
        <time>2022-06-23T05:28:12Z</time>
      </trkpt>
      <trkpt lat="46.49377" lon="5.25838">
        <ele>202.8</ele>
        <time>2022-06-23T05:28:15Z</time>
      </trkpt>
      <trkpt lat="46.49329" lon="5.25789">
        <ele>202.8</ele>
        <time>2022-06-23T05:28:23Z</time>
      </trkpt>
      <trkpt lat="46.49281" lon="5.25744">
        <ele>202.8</ele>
        <time>2022-06-23T05:28:31Z</time>
      </trkpt>
      <trkpt lat="46.49238" lon="5.25706">
        <ele>202.6</ele>
        <time>2022-06-23T05:28:38Z</time>
      </trkpt>
      <trkpt lat="46.49201" lon="5.25673">
        <ele>202.6</ele>
        <time>2022-06-23T05:28:44Z</time>
      </trkpt>
      <trkpt lat="46.4916" lon="5.25632">
        <ele>202.8</ele>
        <time>2022-06-23T05:28:51Z</time>
      </trkpt>
      <trkpt lat="46.49113" lon="5.25583">
        <ele>203.4</ele>
        <time>2022-06-23T05:29:00Z</time>
      </trkpt>
      <trkpt lat="46.49109" lon="5.25579">
        <ele>203.6</ele>
        <time>2022-06-23T05:29:01Z</time>
      </trkpt>
      <trkpt lat="46.491" lon="5.25568">
        <ele>203.6</ele>
        <time>2022-06-23T05:29:03Z</time>
      </trkpt>
      <trkpt lat="46.49091" lon="5.25557">
        <ele>204</ele>
        <time>2022-06-23T05:29:05Z</time>
      </trkpt>
      <trkpt lat="46.49082" lon="5.25545">
        <ele>204.2</ele>
        <time>2022-06-23T05:29:07Z</time>
      </trkpt>
      <trkpt lat="46.49075" lon="5.2553">
        <ele>204.4</ele>
        <time>2022-06-23T05:29:09Z</time>
      </trkpt>
      <trkpt lat="46.4907" lon="5.25511">
        <ele>204.8</ele>
        <time>2022-06-23T05:29:12Z</time>
      </trkpt>
      <trkpt lat="46.49069" lon="5.25505">
        <ele>205</ele>
        <time>2022-06-23T05:29:13Z</time>
      </trkpt>
      <trkpt lat="46.49064" lon="5.2547">
        <ele>205.8</ele>
        <time>2022-06-23T05:29:18Z</time>
      </trkpt>
      <trkpt lat="46.49063" lon="5.25458">
        <ele>206.2</ele>
        <time>2022-06-23T05:29:20Z</time>
      </trkpt>
      <trkpt lat="46.4906" lon="5.25431">
        <ele>207</ele>
        <time>2022-06-23T05:29:24Z</time>
      </trkpt>
      <trkpt lat="46.4906" lon="5.25417">
        <ele>207.4</ele>
        <time>2022-06-23T05:29:26Z</time>
      </trkpt>
      <trkpt lat="46.49056" lon="5.25387">
        <ele>208.4</ele>
        <time>2022-06-23T05:29:30Z</time>
      </trkpt>
      <trkpt lat="46.49055" lon="5.2538">
        <ele>208.6</ele>
        <time>2022-06-23T05:29:31Z</time>
      </trkpt>
      <trkpt lat="46.49052" lon="5.25355">
        <ele>209</ele>
        <time>2022-06-23T05:29:34Z</time>
      </trkpt>
      <trkpt lat="46.4905" lon="5.25336">
        <ele>209.6</ele>
        <time>2022-06-23T05:29:36Z</time>
      </trkpt>
      <trkpt lat="46.49048" lon="5.25328">
        <ele>209.6</ele>
        <time>2022-06-23T05:29:37Z</time>
      </trkpt>
      <trkpt lat="46.49041" lon="5.25271">
        <ele>209.8</ele>
        <time>2022-06-23T05:29:43Z</time>
      </trkpt>
      <trkpt lat="46.49032" lon="5.252">
        <ele>209.2</ele>
        <time>2022-06-23T05:29:50Z</time>
      </trkpt>
      <trkpt lat="46.49026" lon="5.25155">
        <ele>208.6</ele>
        <time>2022-06-23T05:29:54Z</time>
      </trkpt>
      <trkpt lat="46.49021" lon="5.25115">
        <ele>208.2</ele>
        <time>2022-06-23T05:29:58Z</time>
      </trkpt>
      <trkpt lat="46.49014" lon="5.25067">
        <ele>208.4</ele>
        <time>2022-06-23T05:30:03Z</time>
      </trkpt>
      <trkpt lat="46.49009" lon="5.25024">
        <ele>209</ele>
        <time>2022-06-23T05:30:08Z</time>
      </trkpt>
      <trkpt lat="46.49004" lon="5.24988">
        <ele>209.6</ele>
        <time>2022-06-23T05:30:13Z</time>
      </trkpt>
      <trkpt lat="46.49003" lon="5.24981">
        <ele>209.6</ele>
        <time>2022-06-23T05:30:14Z</time>
      </trkpt>
      <trkpt lat="46.49002" lon="5.24974">
        <ele>210</ele>
        <time>2022-06-23T05:30:15Z</time>
      </trkpt>
      <trkpt lat="46.48997" lon="5.24947">
        <ele>210.6</ele>
        <time>2022-06-23T05:30:19Z</time>
      </trkpt>
      <trkpt lat="46.48996" lon="5.2494">
        <ele>211</ele>
        <time>2022-06-23T05:30:20Z</time>
      </trkpt>
      <trkpt lat="46.48994" lon="5.24933">
        <ele>211.2</ele>
        <time>2022-06-23T05:30:21Z</time>
      </trkpt>
      <trkpt lat="46.48989" lon="5.24921">
        <ele>211.4</ele>
        <time>2022-06-23T05:30:23Z</time>
      </trkpt>
      <trkpt lat="46.48987" lon="5.24914">
        <ele>211.8</ele>
        <time>2022-06-23T05:30:24Z</time>
      </trkpt>
      <trkpt lat="46.48976" lon="5.24891">
        <ele>212.4</ele>
        <time>2022-06-23T05:30:28Z</time>
      </trkpt>
      <trkpt lat="46.48972" lon="5.24884">
        <ele>213</ele>
        <time>2022-06-23T05:30:29Z</time>
      </trkpt>
      <trkpt lat="46.48952" lon="5.24856">
        <ele>214</ele>
        <time>2022-06-23T05:30:35Z</time>
      </trkpt>
      <trkpt lat="46.48923" lon="5.24824">
        <ele>215</ele>
        <time>2022-06-23T05:30:42Z</time>
      </trkpt>
      <trkpt lat="46.48885" lon="5.24777">
        <ele>216.2</ele>
        <time>2022-06-23T05:30:51Z</time>
      </trkpt>
      <trkpt lat="46.48872" lon="5.24762">
        <ele>216.4</ele>
        <time>2022-06-23T05:30:54Z</time>
      </trkpt>
      <trkpt lat="46.48845" lon="5.24733">
        <ele>216.6</ele>
        <time>2022-06-23T05:31:00Z</time>
      </trkpt>
      <trkpt lat="46.48804" lon="5.24691">
        <ele>217.2</ele>
        <time>2022-06-23T05:31:09Z</time>
      </trkpt>
      <trkpt lat="46.48799" lon="5.24687">
        <ele>217.4</ele>
        <time>2022-06-23T05:31:10Z</time>
      </trkpt>
      <trkpt lat="46.48771" lon="5.24658">
        <ele>217.4</ele>
        <time>2022-06-23T05:31:16Z</time>
      </trkpt>
      <trkpt lat="46.48767" lon="5.24653">
        <ele>217.4</ele>
        <time>2022-06-23T05:31:17Z</time>
      </trkpt>
      <trkpt lat="46.48765" lon="5.24641">
        <ele>217.4</ele>
        <time>2022-06-23T05:31:19Z</time>
      </trkpt>
      <trkpt lat="46.48764" lon="5.24631">
        <ele>217.4</ele>
        <time>2022-06-23T05:31:21Z</time>
      </trkpt>
      <trkpt lat="46.4876" lon="5.24628">
        <ele>217.2</ele>
        <time>2022-06-23T05:31:22Z</time>
      </trkpt>
      <trkpt lat="46.48756" lon="5.24626">
        <ele>217.2</ele>
        <time>2022-06-23T05:31:23Z</time>
      </trkpt>
      <trkpt lat="46.48744" lon="5.24627">
        <ele>217.2</ele>
        <time>2022-06-23T05:31:25Z</time>
      </trkpt>
      <trkpt lat="46.48717" lon="5.24622">
        <ele>216.8</ele>
        <time>2022-06-23T05:31:29Z</time>
      </trkpt>
      <trkpt lat="46.48669" lon="5.24598">
        <ele>216.4</ele>
        <time>2022-06-23T05:31:36Z</time>
      </trkpt>
      <trkpt lat="46.48663" lon="5.24595">
        <ele>216.4</ele>
        <time>2022-06-23T05:31:37Z</time>
      </trkpt>
      <trkpt lat="46.48627" lon="5.24576">
        <ele>216.2</ele>
        <time>2022-06-23T05:31:43Z</time>
      </trkpt>
      <trkpt lat="46.48581" lon="5.24546">
        <ele>217</ele>
        <time>2022-06-23T05:31:51Z</time>
      </trkpt>
      <trkpt lat="46.4854" lon="5.245">
        <ele>217</ele>
        <time>2022-06-23T05:31:59Z</time>
      </trkpt>
      <trkpt lat="46.48511" lon="5.24465">
        <ele>216.6</ele>
        <time>2022-06-23T05:32:04Z</time>
      </trkpt>
      <trkpt lat="46.48468" lon="5.24412">
        <ele>215.8</ele>
        <time>2022-06-23T05:32:11Z</time>
      </trkpt>
      <trkpt lat="46.48455" lon="5.24398">
        <ele>215.2</ele>
        <time>2022-06-23T05:32:13Z</time>
      </trkpt>
      <trkpt lat="46.48423" lon="5.24364">
        <ele>214.6</ele>
        <time>2022-06-23T05:32:18Z</time>
      </trkpt>
      <trkpt lat="46.48403" lon="5.2435">
        <ele>214.4</ele>
        <time>2022-06-23T05:32:21Z</time>
      </trkpt>
      <trkpt lat="46.4839" lon="5.24343">
        <ele>214.4</ele>
        <time>2022-06-23T05:32:23Z</time>
      </trkpt>
      <trkpt lat="46.48355" lon="5.24329">
        <ele>215</ele>
        <time>2022-06-23T05:32:29Z</time>
      </trkpt>
      <trkpt lat="46.48345" lon="5.24321">
        <ele>215.2</ele>
        <time>2022-06-23T05:32:31Z</time>
      </trkpt>
      <trkpt lat="46.48336" lon="5.2431">
        <ele>215.8</ele>
        <time>2022-06-23T05:32:33Z</time>
      </trkpt>
      <trkpt lat="46.48333" lon="5.24306">
        <ele>216</ele>
        <time>2022-06-23T05:32:34Z</time>
      </trkpt>
      <trkpt lat="46.48329" lon="5.243">
        <ele>216.2</ele>
        <time>2022-06-23T05:32:35Z</time>
      </trkpt>
      <trkpt lat="46.48317" lon="5.24282">
        <ele>217.4</ele>
        <time>2022-06-23T05:32:38Z</time>
      </trkpt>
      <trkpt lat="46.48306" lon="5.24274">
        <ele>218</ele>
        <time>2022-06-23T05:32:40Z</time>
      </trkpt>
      <trkpt lat="46.483" lon="5.24271">
        <ele>218.4</ele>
        <time>2022-06-23T05:32:41Z</time>
      </trkpt>
      <trkpt lat="46.48282" lon="5.24267">
        <ele>218.6</ele>
        <time>2022-06-23T05:32:44Z</time>
      </trkpt>
      <trkpt lat="46.48241" lon="5.24255">
        <ele>219</ele>
        <time>2022-06-23T05:32:51Z</time>
      </trkpt>
      <trkpt lat="46.48217" lon="5.24251">
        <ele>219.4</ele>
        <time>2022-06-23T05:32:55Z</time>
      </trkpt>
      <trkpt lat="46.48211" lon="5.24251">
        <ele>219.4</ele>
        <time>2022-06-23T05:32:56Z</time>
      </trkpt>
      <trkpt lat="46.48205" lon="5.24251">
        <ele>219.4</ele>
        <time>2022-06-23T05:32:57Z</time>
      </trkpt>
      <trkpt lat="46.48199" lon="5.24253">
        <ele>219.6</ele>
        <time>2022-06-23T05:32:58Z</time>
      </trkpt>
      <trkpt lat="46.48186" lon="5.24261">
        <ele>219.6</ele>
        <time>2022-06-23T05:33:00Z</time>
      </trkpt>
      <trkpt lat="46.48183" lon="5.24266">
        <ele>219.6</ele>
        <time>2022-06-23T05:33:01Z</time>
      </trkpt>
      <trkpt lat="46.48147" lon="5.24313">
        <ele>216.6</ele>
        <time>2022-06-23T05:33:08Z</time>
      </trkpt>
      <trkpt lat="46.48135" lon="5.24324">
        <ele>219.2</ele>
        <time>2022-06-23T05:33:10Z</time>
      </trkpt>
      <trkpt lat="46.48121" lon="5.24329">
        <ele>218.8</ele>
        <time>2022-06-23T05:33:12Z</time>
      </trkpt>
      <trkpt lat="46.48105" lon="5.24327">
        <ele>218.6</ele>
        <time>2022-06-23T05:33:14Z</time>
      </trkpt>
      <trkpt lat="46.48099" lon="5.24323">
        <ele>218.4</ele>
        <time>2022-06-23T05:33:15Z</time>
      </trkpt>
      <trkpt lat="46.48091" lon="5.24316">
        <ele>218.2</ele>
        <time>2022-06-23T05:33:16Z</time>
      </trkpt>
      <trkpt lat="46.48079" lon="5.24298">
        <ele>217.6</ele>
        <time>2022-06-23T05:33:18Z</time>
      </trkpt>
      <trkpt lat="46.48075" lon="5.24285">
        <ele>217.2</ele>
        <time>2022-06-23T05:33:19Z</time>
      </trkpt>
      <trkpt lat="46.48073" lon="5.2427">
        <ele>216.6</ele>
        <time>2022-06-23T05:33:20Z</time>
      </trkpt>
      <trkpt lat="46.48075" lon="5.24258">
        <ele>216</ele>
        <time>2022-06-23T05:33:21Z</time>
      </trkpt>
      <trkpt lat="46.48078" lon="5.24241">
        <ele>215.2</ele>
        <time>2022-06-23T05:33:22Z</time>
      </trkpt>
      <trkpt lat="46.48081" lon="5.2423">
        <ele>215</ele>
        <time>2022-06-23T05:33:23Z</time>
      </trkpt>
      <trkpt lat="46.48086" lon="5.24216">
        <ele>214.6</ele>
        <time>2022-06-23T05:33:24Z</time>
      </trkpt>
      <trkpt lat="46.48091" lon="5.24199">
        <ele>213.8</ele>
        <time>2022-06-23T05:33:25Z</time>
      </trkpt>
      <trkpt lat="46.48106" lon="5.24161">
        <ele>212.6</ele>
        <time>2022-06-23T05:33:28Z</time>
      </trkpt>
      <trkpt lat="46.48116" lon="5.24132">
        <ele>211.4</ele>
        <time>2022-06-23T05:33:30Z</time>
      </trkpt>
      <trkpt lat="46.48127" lon="5.24104">
        <ele>209.8</ele>
        <time>2022-06-23T05:33:32Z</time>
      </trkpt>
      <trkpt lat="46.48138" lon="5.24075">
        <ele>208.6</ele>
        <time>2022-06-23T05:33:34Z</time>
      </trkpt>
      <trkpt lat="46.48155" lon="5.24033">
        <ele>207.2</ele>
        <time>2022-06-23T05:33:37Z</time>
      </trkpt>
      <trkpt lat="46.48162" lon="5.24019">
        <ele>206.4</ele>
        <time>2022-06-23T05:33:38Z</time>
      </trkpt>
      <trkpt lat="46.48173" lon="5.23989">
        <ele>205.2</ele>
        <time>2022-06-23T05:33:40Z</time>
      </trkpt>
      <trkpt lat="46.48185" lon="5.23957">
        <ele>204</ele>
        <time>2022-06-23T05:33:42Z</time>
      </trkpt>
      <trkpt lat="46.48188" lon="5.23944">
        <ele>203</ele>
        <time>2022-06-23T05:33:43Z</time>
      </trkpt>
      <trkpt lat="46.48192" lon="5.23928">
        <ele>202.6</ele>
        <time>2022-06-23T05:33:44Z</time>
      </trkpt>
      <trkpt lat="46.48192" lon="5.23893">
        <ele>201.4</ele>
        <time>2022-06-23T05:33:46Z</time>
      </trkpt>
      <trkpt lat="46.48187" lon="5.23864">
        <ele>199.8</ele>
        <time>2022-06-23T05:33:48Z</time>
      </trkpt>
      <trkpt lat="46.48183" lon="5.23854">
        <ele>199.6</ele>
        <time>2022-06-23T05:33:49Z</time>
      </trkpt>
      <trkpt lat="46.48177" lon="5.23842">
        <ele>199</ele>
        <time>2022-06-23T05:33:50Z</time>
      </trkpt>
      <trkpt lat="46.48171" lon="5.23831">
        <ele>198.6</ele>
        <time>2022-06-23T05:33:51Z</time>
      </trkpt>
      <trkpt lat="46.48164" lon="5.23821">
        <ele>198.2</ele>
        <time>2022-06-23T05:33:52Z</time>
      </trkpt>
      <trkpt lat="46.48134" lon="5.23786">
        <ele>197.6</ele>
        <time>2022-06-23T05:33:56Z</time>
      </trkpt>
      <trkpt lat="46.48127" lon="5.23777">
        <ele>197.4</ele>
        <time>2022-06-23T05:33:57Z</time>
      </trkpt>
      <trkpt lat="46.48096" lon="5.23729">
        <ele>196.8</ele>
        <time>2022-06-23T05:34:02Z</time>
      </trkpt>
      <trkpt lat="46.48085" lon="5.23706">
        <ele>196.6</ele>
        <time>2022-06-23T05:34:04Z</time>
      </trkpt>
      <trkpt lat="46.48079" lon="5.23685">
        <ele>196.4</ele>
        <time>2022-06-23T05:34:06Z</time>
      </trkpt>
      <trkpt lat="46.48066" lon="5.23625">
        <ele>195.8</ele>
        <time>2022-06-23T05:34:11Z</time>
      </trkpt>
      <trkpt lat="46.48063" lon="5.23565">
        <ele>195.6</ele>
        <time>2022-06-23T05:34:16Z</time>
      </trkpt>
      <trkpt lat="46.48063" lon="5.23553">
        <ele>195.4</ele>
        <time>2022-06-23T05:34:17Z</time>
      </trkpt>
      <trkpt lat="46.4806" lon="5.23475">
        <ele>195.2</ele>
        <time>2022-06-23T05:34:24Z</time>
      </trkpt>
      <trkpt lat="46.4806" lon="5.23453">
        <ele>195.2</ele>
        <time>2022-06-23T05:34:26Z</time>
      </trkpt>
      <trkpt lat="46.48058" lon="5.23369">
        <ele>195.4</ele>
        <time>2022-06-23T05:34:34Z</time>
      </trkpt>
      <trkpt lat="46.48057" lon="5.23358">
        <ele>195.4</ele>
        <time>2022-06-23T05:34:35Z</time>
      </trkpt>
      <trkpt lat="46.48056" lon="5.23277">
        <ele>195.8</ele>
        <time>2022-06-23T05:34:43Z</time>
      </trkpt>
      <trkpt lat="46.48055" lon="5.23238">
        <ele>195.8</ele>
        <time>2022-06-23T05:34:47Z</time>
      </trkpt>
      <trkpt lat="46.48053" lon="5.23156">
        <ele>196.2</ele>
        <time>2022-06-23T05:34:56Z</time>
      </trkpt>
      <trkpt lat="46.48053" lon="5.23148">
        <ele>196.4</ele>
        <time>2022-06-23T05:34:57Z</time>
      </trkpt>
      <trkpt lat="46.48052" lon="5.23133">
        <ele>196.6</ele>
        <time>2022-06-23T05:34:59Z</time>
      </trkpt>
      <trkpt lat="46.48052" lon="5.23087">
        <ele>197.8</ele>
        <time>2022-06-23T05:35:05Z</time>
      </trkpt>
      <trkpt lat="46.48051" lon="5.23044">
        <ele>199</ele>
        <time>2022-06-23T05:35:11Z</time>
      </trkpt>
      <trkpt lat="46.48051" lon="5.2303">
        <ele>199.2</ele>
        <time>2022-06-23T05:35:13Z</time>
      </trkpt>
      <trkpt lat="46.48049" lon="5.22989">
        <ele>200</ele>
        <time>2022-06-23T05:35:19Z</time>
      </trkpt>
      <trkpt lat="46.48048" lon="5.2296">
        <ele>200.8</ele>
        <time>2022-06-23T05:35:23Z</time>
      </trkpt>
      <trkpt lat="46.48046" lon="5.22946">
        <ele>201</ele>
        <time>2022-06-23T05:35:25Z</time>
      </trkpt>
      <trkpt lat="46.48044" lon="5.22932">
        <ele>201.4</ele>
        <time>2022-06-23T05:35:27Z</time>
      </trkpt>
      <trkpt lat="46.48036" lon="5.22907">
        <ele>202</ele>
        <time>2022-06-23T05:35:31Z</time>
      </trkpt>
      <trkpt lat="46.48026" lon="5.22877">
        <ele>203.2</ele>
        <time>2022-06-23T05:35:36Z</time>
      </trkpt>
      <trkpt lat="46.48017" lon="5.22852">
        <ele>203.6</ele>
        <time>2022-06-23T05:35:40Z</time>
      </trkpt>
      <trkpt lat="46.48002" lon="5.22812">
        <ele>204.4</ele>
        <time>2022-06-23T05:35:46Z</time>
      </trkpt>
      <trkpt lat="46.47993" lon="5.22788">
        <ele>205</ele>
        <time>2022-06-23T05:35:50Z</time>
      </trkpt>
      <trkpt lat="46.47986" lon="5.22769">
        <ele>205.4</ele>
        <time>2022-06-23T05:35:53Z</time>
      </trkpt>
      <trkpt lat="46.47972" lon="5.2274">
        <ele>206.2</ele>
        <time>2022-06-23T05:35:58Z</time>
      </trkpt>
      <trkpt lat="46.47961" lon="5.22725">
        <ele>206.4</ele>
        <time>2022-06-23T05:36:01Z</time>
      </trkpt>
      <trkpt lat="46.4795" lon="5.2271">
        <ele>206.8</ele>
        <time>2022-06-23T05:36:04Z</time>
      </trkpt>
      <trkpt lat="46.47942" lon="5.22701">
        <ele>207</ele>
        <time>2022-06-23T05:36:06Z</time>
      </trkpt>
      <trkpt lat="46.47925" lon="5.22682">
        <ele>207.6</ele>
        <time>2022-06-23T05:36:11Z</time>
      </trkpt>
      <trkpt lat="46.4791" lon="5.22667">
        <ele>208.4</ele>
        <time>2022-06-23T05:36:15Z</time>
      </trkpt>
      <trkpt lat="46.47906" lon="5.22663">
        <ele>208.8</ele>
        <time>2022-06-23T05:36:16Z</time>
      </trkpt>
      <trkpt lat="46.47892" lon="5.22646">
        <ele>209.8</ele>
        <time>2022-06-23T05:36:20Z</time>
      </trkpt>
      <trkpt lat="46.47874" lon="5.22628">
        <ele>210.6</ele>
        <time>2022-06-23T05:36:25Z</time>
      </trkpt>
      <trkpt lat="46.47867" lon="5.2262">
        <ele>211</ele>
        <time>2022-06-23T05:36:27Z</time>
      </trkpt>
      <trkpt lat="46.47851" lon="5.22601">
        <ele>211.8</ele>
        <time>2022-06-23T05:36:32Z</time>
      </trkpt>
      <trkpt lat="46.47843" lon="5.22593">
        <ele>212.2</ele>
        <time>2022-06-23T05:36:34Z</time>
      </trkpt>
      <trkpt lat="46.47831" lon="5.2258">
        <ele>213.4</ele>
        <time>2022-06-23T05:36:38Z</time>
      </trkpt>
      <trkpt lat="46.47828" lon="5.22576">
        <ele>213.6</ele>
        <time>2022-06-23T05:36:39Z</time>
      </trkpt>
      <trkpt lat="46.4782" lon="5.22563">
        <ele>214.4</ele>
        <time>2022-06-23T05:36:42Z</time>
      </trkpt>
      <trkpt lat="46.47807" lon="5.22529">
        <ele>215.6</ele>
        <time>2022-06-23T05:36:48Z</time>
      </trkpt>
      <trkpt lat="46.47805" lon="5.22523">
        <ele>215.6</ele>
        <time>2022-06-23T05:36:49Z</time>
      </trkpt>
      <trkpt lat="46.47797" lon="5.22483">
        <ele>216.6</ele>
        <time>2022-06-23T05:36:55Z</time>
      </trkpt>
      <trkpt lat="46.47791" lon="5.22455">
        <ele>216.8</ele>
        <time>2022-06-23T05:36:59Z</time>
      </trkpt>
      <trkpt lat="46.47777" lon="5.2239">
        <ele>216.8</ele>
        <time>2022-06-23T05:37:08Z</time>
      </trkpt>
      <trkpt lat="46.47769" lon="5.22338">
        <ele>216.6</ele>
        <time>2022-06-23T05:37:14Z</time>
      </trkpt>
      <trkpt lat="46.47762" lon="5.22258">
        <ele>216.2</ele>
        <time>2022-06-23T05:37:22Z</time>
      </trkpt>
      <trkpt lat="46.47756" lon="5.22193">
        <ele>215.4</ele>
        <time>2022-06-23T05:37:28Z</time>
      </trkpt>
      <trkpt lat="46.47754" lon="5.22171">
        <ele>215</ele>
        <time>2022-06-23T05:37:30Z</time>
      </trkpt>
      <trkpt lat="46.47747" lon="5.22084">
        <ele>214.4</ele>
        <time>2022-06-23T05:37:38Z</time>
      </trkpt>
      <trkpt lat="46.47746" lon="5.22073">
        <ele>214.4</ele>
        <time>2022-06-23T05:37:39Z</time>
      </trkpt>
      <trkpt lat="46.4774" lon="5.21996">
        <ele>213.4</ele>
        <time>2022-06-23T05:37:46Z</time>
      </trkpt>
      <trkpt lat="46.47737" lon="5.2196">
        <ele>213.2</ele>
        <time>2022-06-23T05:37:49Z</time>
      </trkpt>
      <trkpt lat="46.47731" lon="5.21883">
        <ele>212.4</ele>
        <time>2022-06-23T05:37:56Z</time>
      </trkpt>
      <trkpt lat="46.47728" lon="5.21854">
        <ele>212.4</ele>
        <time>2022-06-23T05:37:59Z</time>
      </trkpt>
      <trkpt lat="46.47723" lon="5.218">
        <ele>212.6</ele>
        <time>2022-06-23T05:38:05Z</time>
      </trkpt>
      <trkpt lat="46.4772" lon="5.21767">
        <ele>213.4</ele>
        <time>2022-06-23T05:38:09Z</time>
      </trkpt>
      <trkpt lat="46.47718" lon="5.21743">
        <ele>213.8</ele>
        <time>2022-06-23T05:38:12Z</time>
      </trkpt>
      <trkpt lat="46.47718" lon="5.21694">
        <ele>214.2</ele>
        <time>2022-06-23T05:38:18Z</time>
      </trkpt>
      <trkpt lat="46.4772" lon="5.21685">
        <ele>214.2</ele>
        <time>2022-06-23T05:38:19Z</time>
      </trkpt>
      <trkpt lat="46.47733" lon="5.2164">
        <ele>214.2</ele>
        <time>2022-06-23T05:38:24Z</time>
      </trkpt>
      <trkpt lat="46.47755" lon="5.21564">
        <ele>213.2</ele>
        <time>2022-06-23T05:38:31Z</time>
      </trkpt>
      <trkpt lat="46.47766" lon="5.21527">
        <ele>212.4</ele>
        <time>2022-06-23T05:38:34Z</time>
      </trkpt>
      <trkpt lat="46.47779" lon="5.21483">
        <ele>211.4</ele>
        <time>2022-06-23T05:38:38Z</time>
      </trkpt>
      <trkpt lat="46.47788" lon="5.2145">
        <ele>210.2</ele>
        <time>2022-06-23T05:38:41Z</time>
      </trkpt>
      <trkpt lat="46.47803" lon="5.21398">
        <ele>209.6</ele>
        <time>2022-06-23T05:38:46Z</time>
      </trkpt>
      <trkpt lat="46.4782" lon="5.21337">
        <ele>211</ele>
        <time>2022-06-23T05:38:53Z</time>
      </trkpt>
      <trkpt lat="46.47825" lon="5.21321">
        <ele>211.4</ele>
        <time>2022-06-23T05:38:55Z</time>
      </trkpt>
      <trkpt lat="46.47834" lon="5.2129">
        <ele>211.4</ele>
        <time>2022-06-23T05:38:59Z</time>
      </trkpt>
      <trkpt lat="46.47853" lon="5.21217">
        <ele>211.4</ele>
        <time>2022-06-23T05:39:07Z</time>
      </trkpt>
      <trkpt lat="46.47868" lon="5.2115">
        <ele>210.4</ele>
        <time>2022-06-23T05:39:13Z</time>
      </trkpt>
      <trkpt lat="46.47871" lon="5.21138">
        <ele>210</ele>
        <time>2022-06-23T05:39:14Z</time>
      </trkpt>
      <trkpt lat="46.47882" lon="5.21088">
        <ele>208.8</ele>
        <time>2022-06-23T05:39:18Z</time>
      </trkpt>
      <trkpt lat="46.47888" lon="5.2106">
        <ele>208.2</ele>
        <time>2022-06-23T05:39:20Z</time>
      </trkpt>
      <trkpt lat="46.4789" lon="5.21049">
        <ele>207.8</ele>
        <time>2022-06-23T05:39:21Z</time>
      </trkpt>
      <trkpt lat="46.47898" lon="5.2101">
        <ele>206.2</ele>
        <time>2022-06-23T05:39:24Z</time>
      </trkpt>
      <trkpt lat="46.47906" lon="5.2097">
        <ele>205</ele>
        <time>2022-06-23T05:39:27Z</time>
      </trkpt>
      <trkpt lat="46.47913" lon="5.2094">
        <ele>204</ele>
        <time>2022-06-23T05:39:29Z</time>
      </trkpt>
      <trkpt lat="46.47915" lon="5.2093">
        <ele>203.6</ele>
        <time>2022-06-23T05:39:30Z</time>
      </trkpt>
      <trkpt lat="46.47921" lon="5.2089">
        <ele>203</ele>
        <time>2022-06-23T05:39:33Z</time>
      </trkpt>
      <trkpt lat="46.47922" lon="5.20865">
        <ele>202.8</ele>
        <time>2022-06-23T05:39:35Z</time>
      </trkpt>
      <trkpt lat="46.47918" lon="5.20806">
        <ele>202.6</ele>
        <time>2022-06-23T05:39:40Z</time>
      </trkpt>
      <trkpt lat="46.47914" lon="5.20759">
        <ele>203.2</ele>
        <time>2022-06-23T05:39:45Z</time>
      </trkpt>
      <trkpt lat="46.47911" lon="5.20712">
        <ele>203.8</ele>
        <time>2022-06-23T05:39:51Z</time>
      </trkpt>
      <trkpt lat="46.4791" lon="5.20704">
        <ele>204.2</ele>
        <time>2022-06-23T05:39:52Z</time>
      </trkpt>
      <trkpt lat="46.4791" lon="5.20682">
        <ele>205.4</ele>
        <time>2022-06-23T05:39:55Z</time>
      </trkpt>
      <trkpt lat="46.47909" lon="5.20675">
        <ele>205.6</ele>
        <time>2022-06-23T05:39:56Z</time>
      </trkpt>
      <trkpt lat="46.47908" lon="5.20668">
        <ele>205.6</ele>
        <time>2022-06-23T05:39:57Z</time>
      </trkpt>
      <trkpt lat="46.47907" lon="5.20647">
        <ele>206.4</ele>
        <time>2022-06-23T05:40:00Z</time>
      </trkpt>
      <trkpt lat="46.47906" lon="5.20627">
        <ele>207.4</ele>
        <time>2022-06-23T05:40:03Z</time>
      </trkpt>
      <trkpt lat="46.47906" lon="5.2062">
        <ele>207.6</ele>
        <time>2022-06-23T05:40:04Z</time>
      </trkpt>
      <trkpt lat="46.47904" lon="5.20585">
        <ele>208.8</ele>
        <time>2022-06-23T05:40:09Z</time>
      </trkpt>
      <trkpt lat="46.47901" lon="5.2056">
        <ele>209.8</ele>
        <time>2022-06-23T05:40:13Z</time>
      </trkpt>
      <trkpt lat="46.47899" lon="5.20544">
        <ele>210.8</ele>
        <time>2022-06-23T05:40:16Z</time>
      </trkpt>
      <trkpt lat="46.47896" lon="5.20518">
        <ele>211.6</ele>
        <time>2022-06-23T05:40:20Z</time>
      </trkpt>
      <trkpt lat="46.47896" lon="5.20512">
        <ele>211.8</ele>
        <time>2022-06-23T05:40:21Z</time>
      </trkpt>
      <trkpt lat="46.47891" lon="5.20466">
        <ele>212.8</ele>
        <time>2022-06-23T05:40:27Z</time>
      </trkpt>
      <trkpt lat="46.47891" lon="5.2046">
        <ele>212.8</ele>
        <time>2022-06-23T05:40:28Z</time>
      </trkpt>
      <trkpt lat="46.47884" lon="5.20412">
        <ele>213.4</ele>
        <time>2022-06-23T05:40:34Z</time>
      </trkpt>
      <trkpt lat="46.47878" lon="5.2035">
        <ele>213.6</ele>
        <time>2022-06-23T05:40:41Z</time>
      </trkpt>
      <trkpt lat="46.47868" lon="5.20271">
        <ele>213</ele>
        <time>2022-06-23T05:40:49Z</time>
      </trkpt>
      <trkpt lat="46.4786" lon="5.20197">
        <ele>212.6</ele>
        <time>2022-06-23T05:40:57Z</time>
      </trkpt>
      <trkpt lat="46.47854" lon="5.20155">
        <ele>213</ele>
        <time>2022-06-23T05:41:02Z</time>
      </trkpt>
      <trkpt lat="46.47849" lon="5.20109">
        <ele>213.6</ele>
        <time>2022-06-23T05:41:08Z</time>
      </trkpt>
      <trkpt lat="46.47848" lon="5.20103">
        <ele>213.8</ele>
        <time>2022-06-23T05:41:09Z</time>
      </trkpt>
      <trkpt lat="46.47848" lon="5.20096">
        <ele>213.8</ele>
        <time>2022-06-23T05:41:10Z</time>
      </trkpt>
      <trkpt lat="46.47842" lon="5.20045">
        <ele>214.4</ele>
        <time>2022-06-23T05:41:16Z</time>
      </trkpt>
      <trkpt lat="46.4784" lon="5.20009">
        <ele>215</ele>
        <time>2022-06-23T05:41:20Z</time>
      </trkpt>
      <trkpt lat="46.47838" lon="5.19992">
        <ele>215.2</ele>
        <time>2022-06-23T05:41:22Z</time>
      </trkpt>
      <trkpt lat="46.47832" lon="5.19912">
        <ele>215.2</ele>
        <time>2022-06-23T05:41:30Z</time>
      </trkpt>
      <trkpt lat="46.47824" lon="5.19834">
        <ele>215</ele>
        <time>2022-06-23T05:41:38Z</time>
      </trkpt>
      <trkpt lat="46.47824" lon="5.19826">
        <ele>215</ele>
        <time>2022-06-23T05:41:39Z</time>
      </trkpt>
      <trkpt lat="46.47816" lon="5.19744">
        <ele>215.6</ele>
        <time>2022-06-23T05:41:48Z</time>
      </trkpt>
      <trkpt lat="46.47815" lon="5.19735">
        <ele>215.6</ele>
        <time>2022-06-23T05:41:49Z</time>
      </trkpt>
      <trkpt lat="46.47808" lon="5.19659">
        <ele>215.2</ele>
        <time>2022-06-23T05:41:57Z</time>
      </trkpt>
      <trkpt lat="46.47802" lon="5.19579">
        <ele>215.8</ele>
        <time>2022-06-23T05:42:06Z</time>
      </trkpt>
      <trkpt lat="46.47801" lon="5.19563">
        <ele>216</ele>
        <time>2022-06-23T05:42:08Z</time>
      </trkpt>
      <trkpt lat="46.47797" lon="5.19528">
        <ele>216.2</ele>
        <time>2022-06-23T05:42:12Z</time>
      </trkpt>
      <trkpt lat="46.47794" lon="5.19493">
        <ele>216.2</ele>
        <time>2022-06-23T05:42:16Z</time>
      </trkpt>
      <trkpt lat="46.47787" lon="5.19409">
        <ele>216.4</ele>
        <time>2022-06-23T05:42:25Z</time>
      </trkpt>
      <trkpt lat="46.47784" lon="5.19377">
        <ele>216.4</ele>
        <time>2022-06-23T05:42:28Z</time>
      </trkpt>
      <trkpt lat="46.47778" lon="5.19305">
        <ele>216.4</ele>
        <time>2022-06-23T05:42:35Z</time>
      </trkpt>
      <trkpt lat="46.4777" lon="5.19222">
        <ele>215.2</ele>
        <time>2022-06-23T05:42:42Z</time>
      </trkpt>
      <trkpt lat="46.47769" lon="5.19209">
        <ele>215</ele>
        <time>2022-06-23T05:42:43Z</time>
      </trkpt>
      <trkpt lat="46.47764" lon="5.19156">
        <ele>213.8</ele>
        <time>2022-06-23T05:42:47Z</time>
      </trkpt>
      <trkpt lat="46.47761" lon="5.19126">
        <ele>213.4</ele>
        <time>2022-06-23T05:42:49Z</time>
      </trkpt>
      <trkpt lat="46.47758" lon="5.19088">
        <ele>212.4</ele>
        <time>2022-06-23T05:42:52Z</time>
      </trkpt>
      <trkpt lat="46.47754" lon="5.19044">
        <ele>211.4</ele>
        <time>2022-06-23T05:42:55Z</time>
      </trkpt>
      <trkpt lat="46.47752" lon="5.19019">
        <ele>210.4</ele>
        <time>2022-06-23T05:42:57Z</time>
      </trkpt>
      <trkpt lat="46.47746" lon="5.18964">
        <ele>209.2</ele>
        <time>2022-06-23T05:43:01Z</time>
      </trkpt>
      <trkpt lat="46.47743" lon="5.1892">
        <ele>208.2</ele>
        <time>2022-06-23T05:43:04Z</time>
      </trkpt>
      <trkpt lat="46.4774" lon="5.18891">
        <ele>207.4</ele>
        <time>2022-06-23T05:43:06Z</time>
      </trkpt>
      <trkpt lat="46.47739" lon="5.18877">
        <ele>207</ele>
        <time>2022-06-23T05:43:07Z</time>
      </trkpt>
      <trkpt lat="46.47735" lon="5.18835">
        <ele>206</ele>
        <time>2022-06-23T05:43:10Z</time>
      </trkpt>
      <trkpt lat="46.4773" lon="5.18781">
        <ele>204.8</ele>
        <time>2022-06-23T05:43:14Z</time>
      </trkpt>
      <trkpt lat="46.47728" lon="5.18755">
        <ele>204.6</ele>
        <time>2022-06-23T05:43:16Z</time>
      </trkpt>
      <trkpt lat="46.47722" lon="5.18691">
        <ele>203.8</ele>
        <time>2022-06-23T05:43:21Z</time>
      </trkpt>
      <trkpt lat="46.47715" lon="5.18603">
        <ele>203</ele>
        <time>2022-06-23T05:43:29Z</time>
      </trkpt>
      <trkpt lat="46.47708" lon="5.1853">
        <ele>203</ele>
        <time>2022-06-23T05:43:36Z</time>
      </trkpt>
      <trkpt lat="46.47702" lon="5.18457">
        <ele>203.2</ele>
        <time>2022-06-23T05:43:43Z</time>
      </trkpt>
      <trkpt lat="46.47696" lon="5.18391">
        <ele>203.4</ele>
        <time>2022-06-23T05:43:50Z</time>
      </trkpt>
      <trkpt lat="46.47689" lon="5.1831">
        <ele>203.4</ele>
        <time>2022-06-23T05:43:59Z</time>
      </trkpt>
      <trkpt lat="46.47687" lon="5.18292">
        <ele>203.4</ele>
        <time>2022-06-23T05:44:01Z</time>
      </trkpt>
      <trkpt lat="46.47682" lon="5.18228">
        <ele>204.4</ele>
        <time>2022-06-23T05:44:09Z</time>
      </trkpt>
      <trkpt lat="46.47677" lon="5.18178">
        <ele>205</ele>
        <time>2022-06-23T05:44:15Z</time>
      </trkpt>
      <trkpt lat="46.47674" lon="5.18156">
        <ele>205.2</ele>
        <time>2022-06-23T05:44:18Z</time>
      </trkpt>
      <trkpt lat="46.47671" lon="5.18114">
        <ele>206</ele>
        <time>2022-06-23T05:44:23Z</time>
      </trkpt>
      <trkpt lat="46.47668" lon="5.18078">
        <ele>207</ele>
        <time>2022-06-23T05:44:28Z</time>
      </trkpt>
      <trkpt lat="46.47668" lon="5.18072">
        <ele>207.2</ele>
        <time>2022-06-23T05:44:29Z</time>
      </trkpt>
      <trkpt lat="46.47665" lon="5.18039">
        <ele>208.4</ele>
        <time>2022-06-23T05:44:34Z</time>
      </trkpt>
      <trkpt lat="46.47664" lon="5.18026">
        <ele>209</ele>
        <time>2022-06-23T05:44:36Z</time>
      </trkpt>
      <trkpt lat="46.47664" lon="5.18007">
        <ele>209.6</ele>
        <time>2022-06-23T05:44:39Z</time>
      </trkpt>
      <trkpt lat="46.47662" lon="5.1798">
        <ele>211</ele>
        <time>2022-06-23T05:44:43Z</time>
      </trkpt>
      <trkpt lat="46.47662" lon="5.17972">
        <ele>211</ele>
        <time>2022-06-23T05:44:44Z</time>
      </trkpt>
      <trkpt lat="46.47658" lon="5.17938">
        <ele>212</ele>
        <time>2022-06-23T05:44:49Z</time>
      </trkpt>
      <trkpt lat="46.47656" lon="5.17911">
        <ele>212.8</ele>
        <time>2022-06-23T05:44:53Z</time>
      </trkpt>
      <trkpt lat="46.47654" lon="5.17895">
        <ele>213.2</ele>
        <time>2022-06-23T05:44:55Z</time>
      </trkpt>
      <trkpt lat="46.47651" lon="5.17863">
        <ele>214</ele>
        <time>2022-06-23T05:44:59Z</time>
      </trkpt>
      <trkpt lat="46.47648" lon="5.1783">
        <ele>214.6</ele>
        <time>2022-06-23T05:45:03Z</time>
      </trkpt>
      <trkpt lat="46.47645" lon="5.17794">
        <ele>215</ele>
        <time>2022-06-23T05:45:07Z</time>
      </trkpt>
      <trkpt lat="46.4764" lon="5.17736">
        <ele>214.8</ele>
        <time>2022-06-23T05:45:13Z</time>
      </trkpt>
      <trkpt lat="46.47633" lon="5.17656">
        <ele>213.6</ele>
        <time>2022-06-23T05:45:20Z</time>
      </trkpt>
      <trkpt lat="46.47628" lon="5.17609">
        <ele>212.6</ele>
        <time>2022-06-23T05:45:24Z</time>
      </trkpt>
      <trkpt lat="46.47624" lon="5.17564">
        <ele>212.2</ele>
        <time>2022-06-23T05:45:28Z</time>
      </trkpt>
      <trkpt lat="46.47617" lon="5.17484">
        <ele>211.8</ele>
        <time>2022-06-23T05:45:36Z</time>
      </trkpt>
      <trkpt lat="46.47611" lon="5.17417">
        <ele>212.8</ele>
        <time>2022-06-23T05:45:44Z</time>
      </trkpt>
      <trkpt lat="46.47609" lon="5.17392">
        <ele>213.6</ele>
        <time>2022-06-23T05:45:47Z</time>
      </trkpt>
      <trkpt lat="46.47606" lon="5.17354">
        <ele>214.4</ele>
        <time>2022-06-23T05:45:52Z</time>
      </trkpt>
      <trkpt lat="46.47603" lon="5.17331">
        <ele>214.6</ele>
        <time>2022-06-23T05:45:55Z</time>
      </trkpt>
      <trkpt lat="46.47598" lon="5.17276">
        <ele>215.2</ele>
        <time>2022-06-23T05:46:02Z</time>
      </trkpt>
      <trkpt lat="46.47596" lon="5.17252">
        <ele>215.6</ele>
        <time>2022-06-23T05:46:05Z</time>
      </trkpt>
      <trkpt lat="46.47591" lon="5.17204">
        <ele>216</ele>
        <time>2022-06-23T05:46:11Z</time>
      </trkpt>
      <trkpt lat="46.47589" lon="5.17187">
        <ele>216.2</ele>
        <time>2022-06-23T05:46:13Z</time>
      </trkpt>
      <trkpt lat="46.47588" lon="5.17171">
        <ele>216.2</ele>
        <time>2022-06-23T05:46:15Z</time>
      </trkpt>
      <trkpt lat="46.47585" lon="5.17134">
        <ele>216.6</ele>
        <time>2022-06-23T05:46:20Z</time>
      </trkpt>
      <trkpt lat="46.47584" lon="5.17127">
        <ele>216.6</ele>
        <time>2022-06-23T05:46:21Z</time>
      </trkpt>
      <trkpt lat="46.47577" lon="5.17055">
        <ele>217.4</ele>
        <time>2022-06-23T05:46:30Z</time>
      </trkpt>
      <trkpt lat="46.47573" lon="5.17023">
        <ele>217.8</ele>
        <time>2022-06-23T05:46:34Z</time>
      </trkpt>
      <trkpt lat="46.47568" lon="5.16972">
        <ele>218.2</ele>
        <time>2022-06-23T05:46:40Z</time>
      </trkpt>
      <trkpt lat="46.4756" lon="5.16894">
        <ele>218.4</ele>
        <time>2022-06-23T05:46:49Z</time>
      </trkpt>
      <trkpt lat="46.47552" lon="5.16814">
        <ele>218.4</ele>
        <time>2022-06-23T05:46:58Z</time>
      </trkpt>
      <trkpt lat="46.47545" lon="5.16743">
        <ele>219</ele>
        <time>2022-06-23T05:47:06Z</time>
      </trkpt>
      <trkpt lat="46.47537" lon="5.16669">
        <ele>219.2</ele>
        <time>2022-06-23T05:47:14Z</time>
      </trkpt>
      <trkpt lat="46.4753" lon="5.166">
        <ele>219.2</ele>
        <time>2022-06-23T05:47:21Z</time>
      </trkpt>
      <trkpt lat="46.47522" lon="5.16515">
        <ele>219</ele>
        <time>2022-06-23T05:47:29Z</time>
      </trkpt>
      <trkpt lat="46.4752" lon="5.16497">
        <ele>219</ele>
        <time>2022-06-23T05:47:31Z</time>
      </trkpt>
      <trkpt lat="46.47511" lon="5.16415">
        <ele>219</ele>
        <time>2022-06-23T05:47:39Z</time>
      </trkpt>
      <trkpt lat="46.47508" lon="5.16385">
        <ele>219</ele>
        <time>2022-06-23T05:47:42Z</time>
      </trkpt>
      <trkpt lat="46.475" lon="5.16301">
        <ele>219</ele>
        <time>2022-06-23T05:47:50Z</time>
      </trkpt>
      <trkpt lat="46.47498" lon="5.16291">
        <ele>219</ele>
        <time>2022-06-23T05:47:51Z</time>
      </trkpt>
      <trkpt lat="46.47491" lon="5.16208">
        <ele>218.2</ele>
        <time>2022-06-23T05:47:59Z</time>
      </trkpt>
      <trkpt lat="46.47488" lon="5.1618">
        <ele>218</ele>
        <time>2022-06-23T05:48:02Z</time>
      </trkpt>
      <trkpt lat="46.47479" lon="5.16097">
        <ele>218.4</ele>
        <time>2022-06-23T05:48:11Z</time>
      </trkpt>
      <trkpt lat="46.47478" lon="5.16078">
        <ele>218.4</ele>
        <time>2022-06-23T05:48:13Z</time>
      </trkpt>
      <trkpt lat="46.47475" lon="5.16054">
        <ele>218.6</ele>
        <time>2022-06-23T05:48:16Z</time>
      </trkpt>
      <trkpt lat="46.47468" lon="5.15997">
        <ele>218.8</ele>
        <time>2022-06-23T05:48:22Z</time>
      </trkpt>
      <trkpt lat="46.47469" lon="5.15991">
        <ele>218.8</ele>
        <time>2022-06-23T05:48:23Z</time>
      </trkpt>
      <trkpt lat="46.47471" lon="5.15983">
        <ele>218.8</ele>
        <time>2022-06-23T05:48:24Z</time>
      </trkpt>
      <trkpt lat="46.47477" lon="5.15978">
        <ele>218.8</ele>
        <time>2022-06-23T05:48:26Z</time>
      </trkpt>
      <trkpt lat="46.47491" lon="5.15993">
        <ele>218.6</ele>
        <time>2022-06-23T05:48:29Z</time>
      </trkpt>
      <trkpt lat="46.47496" lon="5.16001">
        <ele>218.6</ele>
        <time>2022-06-23T05:48:30Z</time>
      </trkpt>
      <trkpt lat="46.475" lon="5.1601">
        <ele>218.4</ele>
        <time>2022-06-23T05:48:31Z</time>
      </trkpt>
      <trkpt lat="46.47511" lon="5.16042">
        <ele>218.2</ele>
        <time>2022-06-23T05:48:34Z</time>
      </trkpt>
      <trkpt lat="46.47515" lon="5.16055">
        <ele>218</ele>
        <time>2022-06-23T05:48:35Z</time>
      </trkpt>
      <trkpt lat="46.47517" lon="5.16063">
        <ele>218</ele>
        <time>2022-06-23T05:48:36Z</time>
      </trkpt>
      <trkpt lat="46.47524" lon="5.16085">
        <ele>217.8</ele>
        <time>2022-06-23T05:48:38Z</time>
      </trkpt>
      <trkpt lat="46.4754" lon="5.16129">
        <ele>217</ele>
        <time>2022-06-23T05:48:42Z</time>
      </trkpt>
      <trkpt lat="46.47543" lon="5.16136">
        <ele>216.6</ele>
        <time>2022-06-23T05:48:43Z</time>
      </trkpt>
      <trkpt lat="46.47554" lon="5.16157">
        <ele>216.4</ele>
        <time>2022-06-23T05:48:45Z</time>
      </trkpt>
      <trkpt lat="46.47572" lon="5.16181">
        <ele>216.2</ele>
        <time>2022-06-23T05:48:48Z</time>
      </trkpt>
      <trkpt lat="46.47578" lon="5.16189">
        <ele>216</ele>
        <time>2022-06-23T05:48:49Z</time>
      </trkpt>
      <trkpt lat="46.4759" lon="5.16199">
        <ele>216</ele>
        <time>2022-06-23T05:48:51Z</time>
      </trkpt>
      <trkpt lat="46.47598" lon="5.16204">
        <ele>216</ele>
        <time>2022-06-23T05:48:52Z</time>
      </trkpt>
      <trkpt lat="46.47613" lon="5.16213">
        <ele>215.8</ele>
        <time>2022-06-23T05:48:54Z</time>
      </trkpt>
      <trkpt lat="46.4762" lon="5.16217">
        <ele>215.8</ele>
        <time>2022-06-23T05:48:55Z</time>
      </trkpt>
      <trkpt lat="46.47634" lon="5.1622">
        <ele>215.8</ele>
        <time>2022-06-23T05:48:57Z</time>
      </trkpt>
      <trkpt lat="46.47692" lon="5.16235">
        <ele>215</ele>
        <time>2022-06-23T05:49:04Z</time>
      </trkpt>
      <trkpt lat="46.47709" lon="5.16239">
        <ele>214.8</ele>
        <time>2022-06-23T05:49:06Z</time>
      </trkpt>
      <trkpt lat="46.47717" lon="5.16242">
        <ele>214.8</ele>
        <time>2022-06-23T05:49:07Z</time>
      </trkpt>
      <trkpt lat="46.47734" lon="5.1625">
        <ele>214.6</ele>
        <time>2022-06-23T05:49:09Z</time>
      </trkpt>
      <trkpt lat="46.47757" lon="5.16267">
        <ele>214.2</ele>
        <time>2022-06-23T05:49:12Z</time>
      </trkpt>
      <trkpt lat="46.47796" lon="5.16308">
        <ele>213.8</ele>
        <time>2022-06-23T05:49:18Z</time>
      </trkpt>
      <trkpt lat="46.47802" lon="5.16315">
        <ele>213.8</ele>
        <time>2022-06-23T05:49:19Z</time>
      </trkpt>
      <trkpt lat="46.4781" lon="5.16323">
        <ele>213.8</ele>
        <time>2022-06-23T05:49:20Z</time>
      </trkpt>
      <trkpt lat="46.47829" lon="5.16342">
        <ele>213.2</ele>
        <time>2022-06-23T05:49:23Z</time>
      </trkpt>
      <trkpt lat="46.47877" lon="5.16395">
        <ele>212.8</ele>
        <time>2022-06-23T05:49:30Z</time>
      </trkpt>
      <trkpt lat="46.47889" lon="5.16408">
        <ele>212.8</ele>
        <time>2022-06-23T05:49:32Z</time>
      </trkpt>
      <trkpt lat="46.47936" lon="5.16453">
        <ele>212.8</ele>
        <time>2022-06-23T05:49:39Z</time>
      </trkpt>
      <trkpt lat="46.47975" lon="5.16481">
        <ele>213</ele>
        <time>2022-06-23T05:49:45Z</time>
      </trkpt>
      <trkpt lat="46.4801" lon="5.16507">
        <ele>213.8</ele>
        <time>2022-06-23T05:49:51Z</time>
      </trkpt>
      <trkpt lat="46.48017" lon="5.16511">
        <ele>213.8</ele>
        <time>2022-06-23T05:49:52Z</time>
      </trkpt>
      <trkpt lat="46.48041" lon="5.16529">
        <ele>214.4</ele>
        <time>2022-06-23T05:49:56Z</time>
      </trkpt>
      <trkpt lat="46.48089" lon="5.1657">
        <ele>214.8</ele>
        <time>2022-06-23T05:50:05Z</time>
      </trkpt>
      <trkpt lat="46.48125" lon="5.166">
        <ele>215.4</ele>
        <time>2022-06-23T05:50:12Z</time>
      </trkpt>
      <trkpt lat="46.48161" lon="5.16624">
        <ele>215.8</ele>
        <time>2022-06-23T05:50:18Z</time>
      </trkpt>
      <trkpt lat="46.48173" lon="5.1663">
        <ele>216</ele>
        <time>2022-06-23T05:50:20Z</time>
      </trkpt>
      <trkpt lat="46.48217" lon="5.1665">
        <ele>216.2</ele>
        <time>2022-06-23T05:50:27Z</time>
      </trkpt>
      <trkpt lat="46.4827" lon="5.16674">
        <ele>216.2</ele>
        <time>2022-06-23T05:50:35Z</time>
      </trkpt>
      <trkpt lat="46.48284" lon="5.16681">
        <ele>216.2</ele>
        <time>2022-06-23T05:50:37Z</time>
      </trkpt>
      <trkpt lat="46.48331" lon="5.16709">
        <ele>216.2</ele>
        <time>2022-06-23T05:50:44Z</time>
      </trkpt>
      <trkpt lat="46.48384" lon="5.16745">
        <ele>215.8</ele>
        <time>2022-06-23T05:50:52Z</time>
      </trkpt>
      <trkpt lat="46.48401" lon="5.16755">
        <ele>215.8</ele>
        <time>2022-06-23T05:50:54Z</time>
      </trkpt>
      <trkpt lat="46.48452" lon="5.16788">
        <ele>214.8</ele>
        <time>2022-06-23T05:51:01Z</time>
      </trkpt>
      <trkpt lat="46.4846" lon="5.16793">
        <ele>214.6</ele>
        <time>2022-06-23T05:51:02Z</time>
      </trkpt>
      <trkpt lat="46.48475" lon="5.16804">
        <ele>214.2</ele>
        <time>2022-06-23T05:51:04Z</time>
      </trkpt>
      <trkpt lat="46.48526" lon="5.16834">
        <ele>213.4</ele>
        <time>2022-06-23T05:51:10Z</time>
      </trkpt>
      <trkpt lat="46.48543" lon="5.16842">
        <ele>212.8</ele>
        <time>2022-06-23T05:51:12Z</time>
      </trkpt>
      <trkpt lat="46.48559" lon="5.16848">
        <ele>212.2</ele>
        <time>2022-06-23T05:51:14Z</time>
      </trkpt>
      <trkpt lat="46.48584" lon="5.16852">
        <ele>211.8</ele>
        <time>2022-06-23T05:51:17Z</time>
      </trkpt>
      <trkpt lat="46.48632" lon="5.16853">
        <ele>211.4</ele>
        <time>2022-06-23T05:51:23Z</time>
      </trkpt>
      <trkpt lat="46.48693" lon="5.16845">
        <ele>211.2</ele>
        <time>2022-06-23T05:51:31Z</time>
      </trkpt>
      <trkpt lat="46.48752" lon="5.16836">
        <ele>211.4</ele>
        <time>2022-06-23T05:51:39Z</time>
      </trkpt>
      <trkpt lat="46.48759" lon="5.16835">
        <ele>211.4</ele>
        <time>2022-06-23T05:51:40Z</time>
      </trkpt>
      <trkpt lat="46.48809" lon="5.16823">
        <ele>211.4</ele>
        <time>2022-06-23T05:51:47Z</time>
      </trkpt>
      <trkpt lat="46.4886" lon="5.16794">
        <ele>211.6</ele>
        <time>2022-06-23T05:51:54Z</time>
      </trkpt>
      <trkpt lat="46.48875" lon="5.16785">
        <ele>211.6</ele>
        <time>2022-06-23T05:51:56Z</time>
      </trkpt>
      <trkpt lat="46.48929" lon="5.16755">
        <ele>211</ele>
        <time>2022-06-23T05:52:03Z</time>
      </trkpt>
      <trkpt lat="46.48937" lon="5.16751">
        <ele>211</ele>
        <time>2022-06-23T05:52:04Z</time>
      </trkpt>
      <trkpt lat="46.48977" lon="5.1673">
        <ele>210</ele>
        <time>2022-06-23T05:52:09Z</time>
      </trkpt>
      <trkpt lat="46.49009" lon="5.16716">
        <ele>209.6</ele>
        <time>2022-06-23T05:52:13Z</time>
      </trkpt>
      <trkpt lat="46.49056" lon="5.16697">
        <ele>209</ele>
        <time>2022-06-23T05:52:19Z</time>
      </trkpt>
      <trkpt lat="46.49087" lon="5.16686">
        <ele>208.8</ele>
        <time>2022-06-23T05:52:23Z</time>
      </trkpt>
      <trkpt lat="46.49142" lon="5.16666">
        <ele>208.2</ele>
        <time>2022-06-23T05:52:30Z</time>
      </trkpt>
      <trkpt lat="46.49174" lon="5.16654">
        <ele>208.2</ele>
        <time>2022-06-23T05:52:34Z</time>
      </trkpt>
      <trkpt lat="46.49197" lon="5.16645">
        <ele>208</ele>
        <time>2022-06-23T05:52:37Z</time>
      </trkpt>
      <trkpt lat="46.49227" lon="5.16636">
        <ele>208</ele>
        <time>2022-06-23T05:52:41Z</time>
      </trkpt>
      <trkpt lat="46.49263" lon="5.16632">
        <ele>208</ele>
        <time>2022-06-23T05:52:46Z</time>
      </trkpt>
      <trkpt lat="46.49305" lon="5.16633">
        <ele>208.4</ele>
        <time>2022-06-23T05:52:52Z</time>
      </trkpt>
      <trkpt lat="46.49353" lon="5.16633">
        <ele>209</ele>
        <time>2022-06-23T05:52:59Z</time>
      </trkpt>
      <trkpt lat="46.4938" lon="5.16634">
        <ele>209.2</ele>
        <time>2022-06-23T05:53:03Z</time>
      </trkpt>
      <trkpt lat="46.49435" lon="5.16634">
        <ele>210</ele>
        <time>2022-06-23T05:53:11Z</time>
      </trkpt>
      <trkpt lat="46.49442" lon="5.16634">
        <ele>210</ele>
        <time>2022-06-23T05:53:12Z</time>
      </trkpt>
      <trkpt lat="46.49482" lon="5.1663">
        <ele>210</ele>
        <time>2022-06-23T05:53:18Z</time>
      </trkpt>
      <trkpt lat="46.49494" lon="5.16626">
        <ele>210.2</ele>
        <time>2022-06-23T05:53:20Z</time>
      </trkpt>
      <trkpt lat="46.49537" lon="5.1661">
        <ele>211.2</ele>
        <time>2022-06-23T05:53:27Z</time>
      </trkpt>
      <trkpt lat="46.49543" lon="5.16607">
        <ele>211.2</ele>
        <time>2022-06-23T05:53:28Z</time>
      </trkpt>
      <trkpt lat="46.49596" lon="5.16588">
        <ele>211.8</ele>
        <time>2022-06-23T05:53:36Z</time>
      </trkpt>
      <trkpt lat="46.49611" lon="5.16583">
        <ele>211.8</ele>
        <time>2022-06-23T05:53:38Z</time>
      </trkpt>
      <trkpt lat="46.49667" lon="5.1656">
        <ele>211.2</ele>
        <time>2022-06-23T05:53:45Z</time>
      </trkpt>
      <trkpt lat="46.49713" lon="5.1655">
        <ele>209.8</ele>
        <time>2022-06-23T05:53:50Z</time>
      </trkpt>
      <trkpt lat="46.49743" lon="5.1655">
        <ele>208.6</ele>
        <time>2022-06-23T05:53:53Z</time>
      </trkpt>
      <trkpt lat="46.49763" lon="5.16553">
        <ele>207.8</ele>
        <time>2022-06-23T05:53:55Z</time>
      </trkpt>
      <trkpt lat="46.49773" lon="5.16555">
        <ele>207.4</ele>
        <time>2022-06-23T05:53:56Z</time>
      </trkpt>
      <trkpt lat="46.49802" lon="5.1656">
        <ele>206.4</ele>
        <time>2022-06-23T05:53:59Z</time>
      </trkpt>
      <trkpt lat="46.49831" lon="5.16565">
        <ele>205.2</ele>
        <time>2022-06-23T05:54:02Z</time>
      </trkpt>
      <trkpt lat="46.49859" lon="5.16569">
        <ele>204.4</ele>
        <time>2022-06-23T05:54:05Z</time>
      </trkpt>
      <trkpt lat="46.49868" lon="5.16571">
        <ele>204.2</ele>
        <time>2022-06-23T05:54:06Z</time>
      </trkpt>
      <trkpt lat="46.49923" lon="5.1658">
        <ele>203.6</ele>
        <time>2022-06-23T05:54:12Z</time>
      </trkpt>
      <trkpt lat="46.49941" lon="5.16584">
        <ele>203.4</ele>
        <time>2022-06-23T05:54:14Z</time>
      </trkpt>
      <trkpt lat="46.4995" lon="5.16587">
        <ele>203.2</ele>
        <time>2022-06-23T05:54:15Z</time>
      </trkpt>
      <trkpt lat="46.49994" lon="5.16601">
        <ele>202.2</ele>
        <time>2022-06-23T05:54:20Z</time>
      </trkpt>
      <trkpt lat="46.50048" lon="5.16617">
        <ele>201.6</ele>
        <time>2022-06-23T05:54:26Z</time>
      </trkpt>
      <trkpt lat="46.50066" lon="5.16623">
        <ele>201.2</ele>
        <time>2022-06-23T05:54:28Z</time>
      </trkpt>
      <trkpt lat="46.50075" lon="5.16625">
        <ele>201</ele>
        <time>2022-06-23T05:54:29Z</time>
      </trkpt>
      <trkpt lat="46.50132" lon="5.16633">
        <ele>200.2</ele>
        <time>2022-06-23T05:54:35Z</time>
      </trkpt>
      <trkpt lat="46.50142" lon="5.16632">
        <ele>199.8</ele>
        <time>2022-06-23T05:54:36Z</time>
      </trkpt>
      <trkpt lat="46.50162" lon="5.16632">
        <ele>199.2</ele>
        <time>2022-06-23T05:54:38Z</time>
      </trkpt>
      <trkpt lat="46.50191" lon="5.1663">
        <ele>198.8</ele>
        <time>2022-06-23T05:54:41Z</time>
      </trkpt>
      <trkpt lat="46.50219" lon="5.16628">
        <ele>198.4</ele>
        <time>2022-06-23T05:54:44Z</time>
      </trkpt>
      <trkpt lat="46.50248" lon="5.16626">
        <ele>197.8</ele>
        <time>2022-06-23T05:54:47Z</time>
      </trkpt>
      <trkpt lat="46.50277" lon="5.16626">
        <ele>197.6</ele>
        <time>2022-06-23T05:54:50Z</time>
      </trkpt>
      <trkpt lat="46.50286" lon="5.16629">
        <ele>197.2</ele>
        <time>2022-06-23T05:54:51Z</time>
      </trkpt>
      <trkpt lat="46.50295" lon="5.16634">
        <ele>197</ele>
        <time>2022-06-23T05:54:52Z</time>
      </trkpt>
      <trkpt lat="46.5031" lon="5.1665">
        <ele>196.6</ele>
        <time>2022-06-23T05:54:54Z</time>
      </trkpt>
      <trkpt lat="46.50339" lon="5.16682">
        <ele>196.4</ele>
        <time>2022-06-23T05:54:58Z</time>
      </trkpt>
      <trkpt lat="46.50347" lon="5.16687">
        <ele>196.4</ele>
        <time>2022-06-23T05:54:59Z</time>
      </trkpt>
      <trkpt lat="46.50382" lon="5.16701">
        <ele>196.4</ele>
        <time>2022-06-23T05:55:03Z</time>
      </trkpt>
      <trkpt lat="46.50438" lon="5.16715">
        <ele>196.8</ele>
        <time>2022-06-23T05:55:10Z</time>
      </trkpt>
      <trkpt lat="46.50446" lon="5.16715">
        <ele>196.8</ele>
        <time>2022-06-23T05:55:11Z</time>
      </trkpt>
      <trkpt lat="46.50462" lon="5.16712">
        <ele>196.8</ele>
        <time>2022-06-23T05:55:13Z</time>
      </trkpt>
      <trkpt lat="46.50469" lon="5.16709">
        <ele>197</ele>
        <time>2022-06-23T05:55:14Z</time>
      </trkpt>
      <trkpt lat="46.50516" lon="5.1668">
        <ele>197.8</ele>
        <time>2022-06-23T05:55:21Z</time>
      </trkpt>
      <trkpt lat="46.50523" lon="5.16676">
        <ele>198</ele>
        <time>2022-06-23T05:55:22Z</time>
      </trkpt>
      <trkpt lat="46.50575" lon="5.16643">
        <ele>198.6</ele>
        <time>2022-06-23T05:55:30Z</time>
      </trkpt>
      <trkpt lat="46.50582" lon="5.16638">
        <ele>198.6</ele>
        <time>2022-06-23T05:55:31Z</time>
      </trkpt>
      <trkpt lat="46.50607" lon="5.16621">
        <ele>199</ele>
        <time>2022-06-23T05:55:35Z</time>
      </trkpt>
      <trkpt lat="46.50627" lon="5.16606">
        <ele>199</ele>
        <time>2022-06-23T05:55:38Z</time>
      </trkpt>
      <trkpt lat="46.50666" lon="5.16573">
        <ele>198.8</ele>
        <time>2022-06-23T05:55:44Z</time>
      </trkpt>
      <trkpt lat="46.50715" lon="5.16542">
        <ele>198</ele>
        <time>2022-06-23T05:55:51Z</time>
      </trkpt>
      <trkpt lat="46.50754" lon="5.16533">
        <ele>197.8</ele>
        <time>2022-06-23T05:55:56Z</time>
      </trkpt>
      <trkpt lat="46.50761" lon="5.16534">
        <ele>197.8</ele>
        <time>2022-06-23T05:55:57Z</time>
      </trkpt>
      <trkpt lat="46.50804" lon="5.16546">
        <ele>197.8</ele>
        <time>2022-06-23T05:56:03Z</time>
      </trkpt>
      <trkpt lat="46.50859" lon="5.16565">
        <ele>197.4</ele>
        <time>2022-06-23T05:56:11Z</time>
      </trkpt>
      <trkpt lat="46.50866" lon="5.16567">
        <ele>197.4</ele>
        <time>2022-06-23T05:56:12Z</time>
      </trkpt>
      <trkpt lat="46.50908" lon="5.16569">
        <ele>197.4</ele>
        <time>2022-06-23T05:56:18Z</time>
      </trkpt>
      <trkpt lat="46.5096" lon="5.1656">
        <ele>197.6</ele>
        <time>2022-06-23T05:56:26Z</time>
      </trkpt>
      <trkpt lat="46.50985" lon="5.16565">
        <ele>197.6</ele>
        <time>2022-06-23T05:56:30Z</time>
      </trkpt>
      <trkpt lat="46.50991" lon="5.16568">
        <ele>197.6</ele>
        <time>2022-06-23T05:56:31Z</time>
      </trkpt>
      <trkpt lat="46.50997" lon="5.16571">
        <ele>197.6</ele>
        <time>2022-06-23T05:56:32Z</time>
      </trkpt>
      <trkpt lat="46.51013" lon="5.16587">
        <ele>198</ele>
        <time>2022-06-23T05:56:35Z</time>
      </trkpt>
      <trkpt lat="46.51035" lon="5.16604">
        <ele>198.4</ele>
        <time>2022-06-23T05:56:39Z</time>
      </trkpt>
      <trkpt lat="46.51041" lon="5.16606">
        <ele>198.4</ele>
        <time>2022-06-23T05:56:40Z</time>
      </trkpt>
      <trkpt lat="46.51093" lon="5.16625">
        <ele>198.4</ele>
        <time>2022-06-23T05:56:48Z</time>
      </trkpt>
      <trkpt lat="46.51121" lon="5.16651">
        <ele>198.2</ele>
        <time>2022-06-23T05:56:53Z</time>
      </trkpt>
      <trkpt lat="46.5115" lon="5.16689">
        <ele>198.6</ele>
        <time>2022-06-23T05:56:59Z</time>
      </trkpt>
      <trkpt lat="46.51186" lon="5.16737">
        <ele>199</ele>
        <time>2022-06-23T05:57:07Z</time>
      </trkpt>
      <trkpt lat="46.51195" lon="5.16749">
        <ele>199.2</ele>
        <time>2022-06-23T05:57:09Z</time>
      </trkpt>
      <trkpt lat="46.51215" lon="5.16769">
        <ele>199.6</ele>
        <time>2022-06-23T05:57:13Z</time>
      </trkpt>
      <trkpt lat="46.51221" lon="5.16773">
        <ele>199.8</ele>
        <time>2022-06-23T05:57:14Z</time>
      </trkpt>
      <trkpt lat="46.51233" lon="5.16778">
        <ele>200</ele>
        <time>2022-06-23T05:57:16Z</time>
      </trkpt>
      <trkpt lat="46.51239" lon="5.16779">
        <ele>200</ele>
        <time>2022-06-23T05:57:17Z</time>
      </trkpt>
      <trkpt lat="46.51245" lon="5.1678">
        <ele>200</ele>
        <time>2022-06-23T05:57:18Z</time>
      </trkpt>
      <trkpt lat="46.51258" lon="5.1678">
        <ele>200.4</ele>
        <time>2022-06-23T05:57:20Z</time>
      </trkpt>
      <trkpt lat="46.5127" lon="5.16776">
        <ele>200.6</ele>
        <time>2022-06-23T05:57:22Z</time>
      </trkpt>
      <trkpt lat="46.51294" lon="5.16762">
        <ele>201</ele>
        <time>2022-06-23T05:57:26Z</time>
      </trkpt>
      <trkpt lat="46.51311" lon="5.16751">
        <ele>201.4</ele>
        <time>2022-06-23T05:57:29Z</time>
      </trkpt>
      <trkpt lat="46.51348" lon="5.16727">
        <ele>202.2</ele>
        <time>2022-06-23T05:57:35Z</time>
      </trkpt>
      <trkpt lat="46.51365" lon="5.16712">
        <ele>202.4</ele>
        <time>2022-06-23T05:57:38Z</time>
      </trkpt>
      <trkpt lat="46.51411" lon="5.16676">
        <ele>203</ele>
        <time>2022-06-23T05:57:46Z</time>
      </trkpt>
      <trkpt lat="46.51424" lon="5.16672">
        <ele>202.8</ele>
        <time>2022-06-23T05:57:48Z</time>
      </trkpt>
      <trkpt lat="46.51438" lon="5.16671">
        <ele>202.8</ele>
        <time>2022-06-23T05:57:50Z</time>
      </trkpt>
      <trkpt lat="46.51488" lon="5.16679">
        <ele>202.8</ele>
        <time>2022-06-23T05:57:57Z</time>
      </trkpt>
      <trkpt lat="46.51542" lon="5.16701">
        <ele>202.8</ele>
        <time>2022-06-23T05:58:05Z</time>
      </trkpt>
      <trkpt lat="46.51556" lon="5.167">
        <ele>202.8</ele>
        <time>2022-06-23T05:58:07Z</time>
      </trkpt>
      <trkpt lat="46.51562" lon="5.16697">
        <ele>202.8</ele>
        <time>2022-06-23T05:58:08Z</time>
      </trkpt>
      <trkpt lat="46.51568" lon="5.16694">
        <ele>202.8</ele>
        <time>2022-06-23T05:58:09Z</time>
      </trkpt>
      <trkpt lat="46.51592" lon="5.16676">
        <ele>203</ele>
        <time>2022-06-23T05:58:13Z</time>
      </trkpt>
      <trkpt lat="46.51615" lon="5.16662">
        <ele>203.4</ele>
        <time>2022-06-23T05:58:17Z</time>
      </trkpt>
      <trkpt lat="46.51628" lon="5.16657">
        <ele>203.8</ele>
        <time>2022-06-23T05:58:19Z</time>
      </trkpt>
      <trkpt lat="46.51667" lon="5.16652">
        <ele>204.6</ele>
        <time>2022-06-23T05:58:25Z</time>
      </trkpt>
      <trkpt lat="46.51681" lon="5.16648">
        <ele>204.6</ele>
        <time>2022-06-23T05:58:27Z</time>
      </trkpt>
      <trkpt lat="46.51694" lon="5.16639">
        <ele>204.6</ele>
        <time>2022-06-23T05:58:29Z</time>
      </trkpt>
      <trkpt lat="46.51726" lon="5.16606">
        <ele>204.4</ele>
        <time>2022-06-23T05:58:34Z</time>
      </trkpt>
      <trkpt lat="46.5174" lon="5.16591">
        <ele>204</ele>
        <time>2022-06-23T05:58:36Z</time>
      </trkpt>
      <trkpt lat="46.51756" lon="5.1658">
        <ele>203.8</ele>
        <time>2022-06-23T05:58:38Z</time>
      </trkpt>
      <trkpt lat="46.51765" lon="5.16578">
        <ele>203.4</ele>
        <time>2022-06-23T05:58:39Z</time>
      </trkpt>
      <trkpt lat="46.51783" lon="5.16576">
        <ele>202.8</ele>
        <time>2022-06-23T05:58:41Z</time>
      </trkpt>
      <trkpt lat="46.51792" lon="5.16577">
        <ele>202.2</ele>
        <time>2022-06-23T05:58:42Z</time>
      </trkpt>
      <trkpt lat="46.51841" lon="5.1658">
        <ele>201.4</ele>
        <time>2022-06-23T05:58:48Z</time>
      </trkpt>
      <trkpt lat="46.51877" lon="5.16577">
        <ele>201.6</ele>
        <time>2022-06-23T05:58:53Z</time>
      </trkpt>
      <trkpt lat="46.51914" lon="5.16571">
        <ele>202.6</ele>
        <time>2022-06-23T05:58:59Z</time>
      </trkpt>
      <trkpt lat="46.51937" lon="5.16567">
        <ele>203.4</ele>
        <time>2022-06-23T05:59:03Z</time>
      </trkpt>
      <trkpt lat="46.51953" lon="5.16564">
        <ele>203.8</ele>
        <time>2022-06-23T05:59:06Z</time>
      </trkpt>
      <trkpt lat="46.51968" lon="5.16561">
        <ele>204.4</ele>
        <time>2022-06-23T05:59:09Z</time>
      </trkpt>
      <trkpt lat="46.51984" lon="5.16557">
        <ele>205.6</ele>
        <time>2022-06-23T05:59:12Z</time>
      </trkpt>
      <trkpt lat="46.51999" lon="5.16554">
        <ele>206.2</ele>
        <time>2022-06-23T05:59:15Z</time>
      </trkpt>
      <trkpt lat="46.52009" lon="5.1655">
        <ele>206.6</ele>
        <time>2022-06-23T05:59:17Z</time>
      </trkpt>
      <trkpt lat="46.52042" lon="5.16546">
        <ele>207.4</ele>
        <time>2022-06-23T05:59:23Z</time>
      </trkpt>
      <trkpt lat="46.52047" lon="5.16546">
        <ele>207.8</ele>
        <time>2022-06-23T05:59:24Z</time>
      </trkpt>
      <trkpt lat="46.52073" lon="5.16552">
        <ele>208.6</ele>
        <time>2022-06-23T05:59:29Z</time>
      </trkpt>
      <trkpt lat="46.52083" lon="5.16557">
        <ele>209</ele>
        <time>2022-06-23T05:59:31Z</time>
      </trkpt>
      <trkpt lat="46.52123" lon="5.16579">
        <ele>209.8</ele>
        <time>2022-06-23T05:59:39Z</time>
      </trkpt>
      <trkpt lat="46.52128" lon="5.16581">
        <ele>210</ele>
        <time>2022-06-23T05:59:40Z</time>
      </trkpt>
      <trkpt lat="46.5217" lon="5.16605">
        <ele>210.8</ele>
        <time>2022-06-23T05:59:48Z</time>
      </trkpt>
      <trkpt lat="46.52219" lon="5.16633">
        <ele>210.4</ele>
        <time>2022-06-23T05:59:56Z</time>
      </trkpt>
      <trkpt lat="46.52238" lon="5.16644">
        <ele>210.2</ele>
        <time>2022-06-23T05:59:59Z</time>
      </trkpt>
      <trkpt lat="46.52253" lon="5.16661">
        <ele>210.2</ele>
        <time>2022-06-23T06:00:02Z</time>
      </trkpt>
      <trkpt lat="46.52272" lon="5.16697">
        <ele>210.2</ele>
        <time>2022-06-23T06:00:07Z</time>
      </trkpt>
      <trkpt lat="46.52277" lon="5.16715">
        <ele>210.4</ele>
        <time>2022-06-23T06:00:09Z</time>
      </trkpt>
      <trkpt lat="46.52279" lon="5.16736">
        <ele>210.8</ele>
        <time>2022-06-23T06:00:11Z</time>
      </trkpt>
      <trkpt lat="46.52279" lon="5.16746">
        <ele>211</ele>
        <time>2022-06-23T06:00:12Z</time>
      </trkpt>
      <trkpt lat="46.52278" lon="5.16821">
        <ele>210</ele>
        <time>2022-06-23T06:00:19Z</time>
      </trkpt>
      <trkpt lat="46.52277" lon="5.16902">
        <ele>209.2</ele>
        <time>2022-06-23T06:00:26Z</time>
      </trkpt>
      <trkpt lat="46.52278" lon="5.16914">
        <ele>209.2</ele>
        <time>2022-06-23T06:00:27Z</time>
      </trkpt>
      <trkpt lat="46.52279" lon="5.16925">
        <ele>209</ele>
        <time>2022-06-23T06:00:28Z</time>
      </trkpt>
      <trkpt lat="46.52287" lon="5.16959">
        <ele>208.6</ele>
        <time>2022-06-23T06:00:31Z</time>
      </trkpt>
      <trkpt lat="46.5229" lon="5.1697">
        <ele>208.6</ele>
        <time>2022-06-23T06:00:32Z</time>
      </trkpt>
      <trkpt lat="46.523" lon="5.16989">
        <ele>208.4</ele>
        <time>2022-06-23T06:00:34Z</time>
      </trkpt>
      <trkpt lat="46.52305" lon="5.16997">
        <ele>208.4</ele>
        <time>2022-06-23T06:00:35Z</time>
      </trkpt>
      <trkpt lat="46.5234" lon="5.17038">
        <ele>208.2</ele>
        <time>2022-06-23T06:00:41Z</time>
      </trkpt>
      <trkpt lat="46.52384" lon="5.17088">
        <ele>208.8</ele>
        <time>2022-06-23T06:00:49Z</time>
      </trkpt>
      <trkpt lat="46.52395" lon="5.17101">
        <ele>209</ele>
        <time>2022-06-23T06:00:51Z</time>
      </trkpt>
      <trkpt lat="46.52437" lon="5.17153">
        <ele>209.2</ele>
        <time>2022-06-23T06:00:59Z</time>
      </trkpt>
      <trkpt lat="46.52453" lon="5.17173">
        <ele>209.4</ele>
        <time>2022-06-23T06:01:02Z</time>
      </trkpt>
      <trkpt lat="46.52498" lon="5.17223">
        <ele>209.4</ele>
        <time>2022-06-23T06:01:10Z</time>
      </trkpt>
      <trkpt lat="46.52521" lon="5.17249">
        <ele>209.2</ele>
        <time>2022-06-23T06:01:14Z</time>
      </trkpt>
      <trkpt lat="46.52561" lon="5.17293">
        <ele>208.6</ele>
        <time>2022-06-23T06:01:21Z</time>
      </trkpt>
      <trkpt lat="46.52571" lon="5.17302">
        <ele>208</ele>
        <time>2022-06-23T06:01:24Z</time>
      </trkpt>
      <trkpt lat="46.52572" lon="5.17302">
        <ele>207.6</ele>
        <time>2022-06-23T06:01:27Z</time>
      </trkpt>
      <trkpt lat="46.52577" lon="5.17307">
        <ele>206.8</ele>
        <time>2022-06-23T06:02:10Z</time>
      </trkpt>
      <trkpt lat="46.52584" lon="5.17315">
        <ele>206.6</ele>
        <time>2022-06-23T06:02:12Z</time>
      </trkpt>
      <trkpt lat="46.52605" lon="5.17337">
        <ele>206.4</ele>
        <time>2022-06-23T06:02:16Z</time>
      </trkpt>
      <trkpt lat="46.52632" lon="5.17367">
        <ele>205.6</ele>
        <time>2022-06-23T06:02:20Z</time>
      </trkpt>
      <trkpt lat="46.52639" lon="5.17375">
        <ele>205.6</ele>
        <time>2022-06-23T06:02:21Z</time>
      </trkpt>
      <trkpt lat="46.52663" lon="5.17402">
        <ele>204.2</ele>
        <time>2022-06-23T06:02:24Z</time>
      </trkpt>
      <trkpt lat="46.52678" lon="5.17418">
        <ele>203.6</ele>
        <time>2022-06-23T06:02:26Z</time>
      </trkpt>
      <trkpt lat="46.52688" lon="5.17429">
        <ele>203</ele>
        <time>2022-06-23T06:02:27Z</time>
      </trkpt>
      <trkpt lat="46.52711" lon="5.17456">
        <ele>202</ele>
        <time>2022-06-23T06:02:30Z</time>
      </trkpt>
      <trkpt lat="46.52727" lon="5.17476">
        <ele>200.8</ele>
        <time>2022-06-23T06:02:32Z</time>
      </trkpt>
      <trkpt lat="46.52741" lon="5.17499">
        <ele>199.4</ele>
        <time>2022-06-23T06:02:34Z</time>
      </trkpt>
      <trkpt lat="46.52761" lon="5.17531">
        <ele>198.2</ele>
        <time>2022-06-23T06:02:37Z</time>
      </trkpt>
      <trkpt lat="46.52767" lon="5.17542">
        <ele>197.6</ele>
        <time>2022-06-23T06:02:38Z</time>
      </trkpt>
      <trkpt lat="46.52778" lon="5.17562">
        <ele>196.6</ele>
        <time>2022-06-23T06:02:40Z</time>
      </trkpt>
      <trkpt lat="46.52807" lon="5.17609">
        <ele>196.2</ele>
        <time>2022-06-23T06:02:45Z</time>
      </trkpt>
      <trkpt lat="46.52824" lon="5.17637">
        <ele>196.2</ele>
        <time>2022-06-23T06:02:49Z</time>
      </trkpt>
      <trkpt lat="46.52831" lon="5.17643">
        <ele>196.2</ele>
        <time>2022-06-23T06:02:50Z</time>
      </trkpt>
      <trkpt lat="46.52836" lon="5.17646">
        <ele>196.2</ele>
        <time>2022-06-23T06:02:51Z</time>
      </trkpt>
      <trkpt lat="46.52858" lon="5.17654">
        <ele>196.2</ele>
        <time>2022-06-23T06:02:54Z</time>
      </trkpt>
      <trkpt lat="46.52903" lon="5.17676">
        <ele>197.2</ele>
        <time>2022-06-23T06:03:01Z</time>
      </trkpt>
      <trkpt lat="46.5291" lon="5.17679">
        <ele>197.4</ele>
        <time>2022-06-23T06:03:02Z</time>
      </trkpt>
      <trkpt lat="46.52936" lon="5.1769">
        <ele>197.8</ele>
        <time>2022-06-23T06:03:06Z</time>
      </trkpt>
      <trkpt lat="46.52988" lon="5.17713">
        <ele>198.8</ele>
        <time>2022-06-23T06:03:14Z</time>
      </trkpt>
      <trkpt lat="46.52996" lon="5.17716">
        <ele>198.8</ele>
        <time>2022-06-23T06:03:15Z</time>
      </trkpt>
      <trkpt lat="46.53008" lon="5.17721">
        <ele>198.8</ele>
        <time>2022-06-23T06:03:17Z</time>
      </trkpt>
      <trkpt lat="46.53028" lon="5.17728">
        <ele>199</ele>
        <time>2022-06-23T06:03:20Z</time>
      </trkpt>
      <trkpt lat="46.53074" lon="5.17735">
        <ele>200</ele>
        <time>2022-06-23T06:03:27Z</time>
      </trkpt>
      <trkpt lat="46.5308" lon="5.17736">
        <ele>200.2</ele>
        <time>2022-06-23T06:03:28Z</time>
      </trkpt>
      <trkpt lat="46.53109" lon="5.17739">
        <ele>201.2</ele>
        <time>2022-06-23T06:03:33Z</time>
      </trkpt>
      <trkpt lat="46.5313" lon="5.17743">
        <ele>202.2</ele>
        <time>2022-06-23T06:03:37Z</time>
      </trkpt>
      <trkpt lat="46.53142" lon="5.17744">
        <ele>202.6</ele>
        <time>2022-06-23T06:03:39Z</time>
      </trkpt>
      <trkpt lat="46.53164" lon="5.17748">
        <ele>203.4</ele>
        <time>2022-06-23T06:03:43Z</time>
      </trkpt>
      <trkpt lat="46.53192" lon="5.17754">
        <ele>204</ele>
        <time>2022-06-23T06:03:48Z</time>
      </trkpt>
      <trkpt lat="46.53215" lon="5.1776">
        <ele>204.6</ele>
        <time>2022-06-23T06:03:52Z</time>
      </trkpt>
      <trkpt lat="46.53253" lon="5.17765">
        <ele>205.4</ele>
        <time>2022-06-23T06:03:58Z</time>
      </trkpt>
      <trkpt lat="46.53286" lon="5.17765">
        <ele>205.2</ele>
        <time>2022-06-23T06:04:03Z</time>
      </trkpt>
      <trkpt lat="46.5334" lon="5.17758">
        <ele>204.6</ele>
        <time>2022-06-23T06:04:10Z</time>
      </trkpt>
      <trkpt lat="46.53348" lon="5.17755">
        <ele>204.2</ele>
        <time>2022-06-23T06:04:11Z</time>
      </trkpt>
      <trkpt lat="46.53368" lon="5.17742">
        <ele>203.6</ele>
        <time>2022-06-23T06:04:14Z</time>
      </trkpt>
      <trkpt lat="46.53411" lon="5.1771">
        <ele>204</ele>
        <time>2022-06-23T06:04:21Z</time>
      </trkpt>
      <trkpt lat="46.53458" lon="5.17676">
        <ele>204.6</ele>
        <time>2022-06-23T06:04:29Z</time>
      </trkpt>
      <trkpt lat="46.53508" lon="5.17637">
        <ele>205.2</ele>
        <time>2022-06-23T06:04:38Z</time>
      </trkpt>
      <trkpt lat="46.5355" lon="5.17611">
        <ele>205.6</ele>
        <time>2022-06-23T06:04:45Z</time>
      </trkpt>
      <trkpt lat="46.53557" lon="5.17609">
        <ele>205.6</ele>
        <time>2022-06-23T06:04:46Z</time>
      </trkpt>
      <trkpt lat="46.53612" lon="5.17595">
        <ele>205.2</ele>
        <time>2022-06-23T06:04:54Z</time>
      </trkpt>
      <trkpt lat="46.53667" lon="5.17582">
        <ele>204.8</ele>
        <time>2022-06-23T06:05:02Z</time>
      </trkpt>
      <trkpt lat="46.53689" lon="5.17578">
        <ele>204.8</ele>
        <time>2022-06-23T06:05:05Z</time>
      </trkpt>
      <trkpt lat="46.53743" lon="5.17566">
        <ele>205.4</ele>
        <time>2022-06-23T06:05:13Z</time>
      </trkpt>
      <trkpt lat="46.53764" lon="5.17562">
        <ele>205.4</ele>
        <time>2022-06-23T06:05:16Z</time>
      </trkpt>
      <trkpt lat="46.53822" lon="5.17549">
        <ele>204.6</ele>
        <time>2022-06-23T06:05:24Z</time>
      </trkpt>
      <trkpt lat="46.5383" lon="5.17548">
        <ele>204.8</ele>
        <time>2022-06-23T06:05:25Z</time>
      </trkpt>
      <trkpt lat="46.53845" lon="5.17544">
        <ele>204.6</ele>
        <time>2022-06-23T06:05:27Z</time>
      </trkpt>
      <trkpt lat="46.53882" lon="5.17529">
        <ele>204</ele>
        <time>2022-06-23T06:05:32Z</time>
      </trkpt>
      <trkpt lat="46.53896" lon="5.1752">
        <ele>203.8</ele>
        <time>2022-06-23T06:05:34Z</time>
      </trkpt>
      <trkpt lat="46.53927" lon="5.17496">
        <ele>203.4</ele>
        <time>2022-06-23T06:05:39Z</time>
      </trkpt>
      <trkpt lat="46.53961" lon="5.1747">
        <ele>204</ele>
        <time>2022-06-23T06:05:45Z</time>
      </trkpt>
      <trkpt lat="46.54013" lon="5.17431">
        <ele>204.6</ele>
        <time>2022-06-23T06:05:54Z</time>
      </trkpt>
      <trkpt lat="46.54042" lon="5.17409">
        <ele>204.8</ele>
        <time>2022-06-23T06:05:59Z</time>
      </trkpt>
      <trkpt lat="46.54053" lon="5.17399">
        <ele>204.8</ele>
        <time>2022-06-23T06:06:01Z</time>
      </trkpt>
      <trkpt lat="46.54059" lon="5.17395">
        <ele>204.8</ele>
        <time>2022-06-23T06:06:02Z</time>
      </trkpt>
      <trkpt lat="46.54096" lon="5.17368">
        <ele>205</ele>
        <time>2022-06-23T06:06:08Z</time>
      </trkpt>
      <trkpt lat="46.54142" lon="5.17334">
        <ele>204.6</ele>
        <time>2022-06-23T06:06:15Z</time>
      </trkpt>
      <trkpt lat="46.54175" lon="5.17309">
        <ele>203.4</ele>
        <time>2022-06-23T06:06:19Z</time>
      </trkpt>
      <trkpt lat="46.54198" lon="5.17291">
        <ele>202.4</ele>
        <time>2022-06-23T06:06:22Z</time>
      </trkpt>
      <trkpt lat="46.54207" lon="5.17285">
        <ele>201.8</ele>
        <time>2022-06-23T06:06:23Z</time>
      </trkpt>
      <trkpt lat="46.54231" lon="5.17266">
        <ele>200.4</ele>
        <time>2022-06-23T06:06:26Z</time>
      </trkpt>
      <trkpt lat="46.54269" lon="5.17238">
        <ele>199.4</ele>
        <time>2022-06-23T06:06:31Z</time>
      </trkpt>
      <trkpt lat="46.54299" lon="5.17215">
        <ele>199.4</ele>
        <time>2022-06-23T06:06:36Z</time>
      </trkpt>
      <trkpt lat="46.54345" lon="5.17182">
        <ele>201</ele>
        <time>2022-06-23T06:06:44Z</time>
      </trkpt>
      <trkpt lat="46.54357" lon="5.17173">
        <ele>201.4</ele>
        <time>2022-06-23T06:06:46Z</time>
      </trkpt>
      <trkpt lat="46.54383" lon="5.17151">
        <ele>202.6</ele>
        <time>2022-06-23T06:06:51Z</time>
      </trkpt>
      <trkpt lat="46.54411" lon="5.17137">
        <ele>203.2</ele>
        <time>2022-06-23T06:06:56Z</time>
      </trkpt>
      <trkpt lat="46.54417" lon="5.17136">
        <ele>203.4</ele>
        <time>2022-06-23T06:06:57Z</time>
      </trkpt>
      <trkpt lat="46.54436" lon="5.17135">
        <ele>203.8</ele>
        <time>2022-06-23T06:07:00Z</time>
      </trkpt>
      <trkpt lat="46.5447" lon="5.17136">
        <ele>203.8</ele>
        <time>2022-06-23T06:07:05Z</time>
      </trkpt>
      <trkpt lat="46.54529" lon="5.17136">
        <ele>203</ele>
        <time>2022-06-23T06:07:13Z</time>
      </trkpt>
      <trkpt lat="46.54536" lon="5.17136">
        <ele>202.8</ele>
        <time>2022-06-23T06:07:14Z</time>
      </trkpt>
      <trkpt lat="46.54558" lon="5.17136">
        <ele>202.6</ele>
        <time>2022-06-23T06:07:17Z</time>
      </trkpt>
      <trkpt lat="46.54594" lon="5.17136">
        <ele>202</ele>
        <time>2022-06-23T06:07:22Z</time>
      </trkpt>
      <trkpt lat="46.54617" lon="5.17136">
        <ele>201.6</ele>
        <time>2022-06-23T06:07:25Z</time>
      </trkpt>
      <trkpt lat="46.54664" lon="5.17137">
        <ele>201</ele>
        <time>2022-06-23T06:07:31Z</time>
      </trkpt>
      <trkpt lat="46.54681" lon="5.17138">
        <ele>200.4</ele>
        <time>2022-06-23T06:07:33Z</time>
      </trkpt>
      <trkpt lat="46.54731" lon="5.17147">
        <ele>199.2</ele>
        <time>2022-06-23T06:07:39Z</time>
      </trkpt>
      <trkpt lat="46.54774" lon="5.17155">
        <ele>198</ele>
        <time>2022-06-23T06:07:44Z</time>
      </trkpt>
      <trkpt lat="46.54793" lon="5.17158">
        <ele>197.2</ele>
        <time>2022-06-23T06:07:46Z</time>
      </trkpt>
      <trkpt lat="46.54803" lon="5.1716">
        <ele>196.8</ele>
        <time>2022-06-23T06:07:47Z</time>
      </trkpt>
      <trkpt lat="46.54833" lon="5.17162">
        <ele>195.6</ele>
        <time>2022-06-23T06:07:50Z</time>
      </trkpt>
      <trkpt lat="46.54853" lon="5.1716">
        <ele>194.8</ele>
        <time>2022-06-23T06:07:52Z</time>
      </trkpt>
      <trkpt lat="46.54862" lon="5.17156">
        <ele>194.2</ele>
        <time>2022-06-23T06:07:53Z</time>
      </trkpt>
      <trkpt lat="46.54871" lon="5.1715">
        <ele>194</ele>
        <time>2022-06-23T06:07:54Z</time>
      </trkpt>
      <trkpt lat="46.54879" lon="5.17144">
        <ele>193.8</ele>
        <time>2022-06-23T06:07:55Z</time>
      </trkpt>
      <trkpt lat="46.54886" lon="5.17136">
        <ele>193.2</ele>
        <time>2022-06-23T06:07:56Z</time>
      </trkpt>
      <trkpt lat="46.54906" lon="5.17111">
        <ele>192.6</ele>
        <time>2022-06-23T06:07:59Z</time>
      </trkpt>
      <trkpt lat="46.54919" lon="5.17097">
        <ele>192.4</ele>
        <time>2022-06-23T06:08:01Z</time>
      </trkpt>
      <trkpt lat="46.54935" lon="5.17088">
        <ele>192.4</ele>
        <time>2022-06-23T06:08:03Z</time>
      </trkpt>
      <trkpt lat="46.54949" lon="5.17087">
        <ele>192.4</ele>
        <time>2022-06-23T06:08:05Z</time>
      </trkpt>
      <trkpt lat="46.54956" lon="5.17088">
        <ele>192.4</ele>
        <time>2022-06-23T06:08:06Z</time>
      </trkpt>
      <trkpt lat="46.54963" lon="5.17088">
        <ele>192.4</ele>
        <time>2022-06-23T06:08:07Z</time>
      </trkpt>
      <trkpt lat="46.54977" lon="5.17082">
        <ele>192.4</ele>
        <time>2022-06-23T06:08:09Z</time>
      </trkpt>
      <trkpt lat="46.54986" lon="5.17076">
        <ele>192.6</ele>
        <time>2022-06-23T06:08:11Z</time>
      </trkpt>
      <trkpt lat="46.55" lon="5.17076">
        <ele>192.8</ele>
        <time>2022-06-23T06:08:13Z</time>
      </trkpt>
      <trkpt lat="46.55017" lon="5.17081">
        <ele>193.2</ele>
        <time>2022-06-23T06:08:16Z</time>
      </trkpt>
      <trkpt lat="46.55018" lon="5.17089">
        <ele>193.2</ele>
        <time>2022-06-23T06:08:17Z</time>
      </trkpt>
      <trkpt lat="46.55017" lon="5.17117">
        <ele>193</ele>
        <time>2022-06-23T06:08:20Z</time>
      </trkpt>
      <trkpt lat="46.55013" lon="5.1714">
        <ele>193</ele>
        <time>2022-06-23T06:08:22Z</time>
      </trkpt>
      <trkpt lat="46.55002" lon="5.17181">
        <ele>192.8</ele>
        <time>2022-06-23T06:08:25Z</time>
      </trkpt>
      <trkpt lat="46.54993" lon="5.17207">
        <ele>192.8</ele>
        <time>2022-06-23T06:08:27Z</time>
      </trkpt>
      <trkpt lat="46.54989" lon="5.17244">
        <ele>192.8</ele>
        <time>2022-06-23T06:08:30Z</time>
      </trkpt>
      <trkpt lat="46.54986" lon="5.17324">
        <ele>193</ele>
        <time>2022-06-23T06:08:37Z</time>
      </trkpt>
      <trkpt lat="46.54984" lon="5.17341">
        <ele>193.2</ele>
        <time>2022-06-23T06:08:39Z</time>
      </trkpt>
      <trkpt lat="46.5498" lon="5.17361">
        <ele>193.4</ele>
        <time>2022-06-23T06:08:41Z</time>
      </trkpt>
      <trkpt lat="46.54978" lon="5.17367">
        <ele>193.6</ele>
        <time>2022-06-23T06:08:42Z</time>
      </trkpt>
      <trkpt lat="46.54974" lon="5.17375">
        <ele>193.6</ele>
        <time>2022-06-23T06:08:43Z</time>
      </trkpt>
      <trkpt lat="46.54966" lon="5.17388">
        <ele>193.8</ele>
        <time>2022-06-23T06:08:45Z</time>
      </trkpt>
      <trkpt lat="46.54953" lon="5.17396">
        <ele>194</ele>
        <time>2022-06-23T06:08:47Z</time>
      </trkpt>
      <trkpt lat="46.54947" lon="5.17399">
        <ele>194.2</ele>
        <time>2022-06-23T06:08:48Z</time>
      </trkpt>
      <trkpt lat="46.54939" lon="5.17402">
        <ele>194.4</ele>
        <time>2022-06-23T06:08:49Z</time>
      </trkpt>
      <trkpt lat="46.54905" lon="5.17413">
        <ele>194.4</ele>
        <time>2022-06-23T06:08:54Z</time>
      </trkpt>
      <trkpt lat="46.54859" lon="5.17427">
        <ele>194.2</ele>
        <time>2022-06-23T06:09:01Z</time>
      </trkpt>
      <trkpt lat="46.54852" lon="5.17431">
        <ele>194.2</ele>
        <time>2022-06-23T06:09:02Z</time>
      </trkpt>
      <trkpt lat="46.54841" lon="5.17439">
        <ele>194.2</ele>
        <time>2022-06-23T06:09:04Z</time>
      </trkpt>
      <trkpt lat="46.5483" lon="5.17451">
        <ele>194.2</ele>
        <time>2022-06-23T06:09:06Z</time>
      </trkpt>
      <trkpt lat="46.54827" lon="5.17457">
        <ele>194.2</ele>
        <time>2022-06-23T06:09:07Z</time>
      </trkpt>
      <trkpt lat="46.54816" lon="5.17483">
        <ele>194.4</ele>
        <time>2022-06-23T06:09:11Z</time>
      </trkpt>
      <trkpt lat="46.54814" lon="5.17489">
        <ele>194.6</ele>
        <time>2022-06-23T06:09:12Z</time>
      </trkpt>
      <trkpt lat="46.54809" lon="5.17509">
        <ele>195.6</ele>
        <time>2022-06-23T06:09:15Z</time>
      </trkpt>
      <trkpt lat="46.54808" lon="5.17514">
        <ele>195.8</ele>
        <time>2022-06-23T06:09:16Z</time>
      </trkpt>
      <trkpt lat="46.54805" lon="5.17525">
        <ele>196.2</ele>
        <time>2022-06-23T06:09:18Z</time>
      </trkpt>
      <trkpt lat="46.54803" lon="5.17531">
        <ele>196.8</ele>
        <time>2022-06-23T06:09:19Z</time>
      </trkpt>
      <trkpt lat="46.54799" lon="5.17548">
        <ele>197.6</ele>
        <time>2022-06-23T06:09:22Z</time>
      </trkpt>
      <trkpt lat="46.54798" lon="5.17554">
        <ele>198</ele>
        <time>2022-06-23T06:09:23Z</time>
      </trkpt>
      <trkpt lat="46.54796" lon="5.17571">
        <ele>199</ele>
        <time>2022-06-23T06:09:26Z</time>
      </trkpt>
      <trkpt lat="46.54791" lon="5.17588">
        <ele>199.8</ele>
        <time>2022-06-23T06:09:29Z</time>
      </trkpt>
      <trkpt lat="46.54787" lon="5.17599">
        <ele>200.2</ele>
        <time>2022-06-23T06:09:31Z</time>
      </trkpt>
      <trkpt lat="46.54785" lon="5.17604">
        <ele>200.4</ele>
        <time>2022-06-23T06:09:32Z</time>
      </trkpt>
      <trkpt lat="46.54779" lon="5.17622">
        <ele>201.4</ele>
        <time>2022-06-23T06:09:35Z</time>
      </trkpt>
      <trkpt lat="46.54773" lon="5.17646">
        <ele>202.6</ele>
        <time>2022-06-23T06:09:39Z</time>
      </trkpt>
      <trkpt lat="46.54768" lon="5.17664">
        <ele>203.4</ele>
        <time>2022-06-23T06:09:42Z</time>
      </trkpt>
      <trkpt lat="46.54764" lon="5.17677">
        <ele>203.8</ele>
        <time>2022-06-23T06:09:44Z</time>
      </trkpt>
      <trkpt lat="46.54754" lon="5.17712">
        <ele>204.6</ele>
        <time>2022-06-23T06:09:49Z</time>
      </trkpt>
      <trkpt lat="46.5475" lon="5.17727">
        <ele>204.8</ele>
        <time>2022-06-23T06:09:51Z</time>
      </trkpt>
      <trkpt lat="46.54736" lon="5.17773">
        <ele>205.6</ele>
        <time>2022-06-23T06:09:57Z</time>
      </trkpt>
      <trkpt lat="46.54714" lon="5.17848">
        <ele>205.8</ele>
        <time>2022-06-23T06:10:06Z</time>
      </trkpt>
      <trkpt lat="46.54705" lon="5.17884">
        <ele>206</ele>
        <time>2022-06-23T06:10:10Z</time>
      </trkpt>
      <trkpt lat="46.54704" lon="5.17894">
        <ele>206</ele>
        <time>2022-06-23T06:10:11Z</time>
      </trkpt>
      <trkpt lat="46.54703" lon="5.17913">
        <ele>206</ele>
        <time>2022-06-23T06:10:13Z</time>
      </trkpt>
      <trkpt lat="46.54704" lon="5.17932">
        <ele>206</ele>
        <time>2022-06-23T06:10:15Z</time>
      </trkpt>
      <trkpt lat="46.54709" lon="5.17962">
        <ele>206</ele>
        <time>2022-06-23T06:10:18Z</time>
      </trkpt>
      <trkpt lat="46.54725" lon="5.18031">
        <ele>205.8</ele>
        <time>2022-06-23T06:10:25Z</time>
      </trkpt>
      <trkpt lat="46.54737" lon="5.18081">
        <ele>205.6</ele>
        <time>2022-06-23T06:10:30Z</time>
      </trkpt>
      <trkpt lat="46.54741" lon="5.18101">
        <ele>205.6</ele>
        <time>2022-06-23T06:10:32Z</time>
      </trkpt>
      <trkpt lat="46.54756" lon="5.18174">
        <ele>206.4</ele>
        <time>2022-06-23T06:10:40Z</time>
      </trkpt>
      <trkpt lat="46.54769" lon="5.1824">
        <ele>207</ele>
        <time>2022-06-23T06:10:47Z</time>
      </trkpt>
      <trkpt lat="46.54771" lon="5.18249">
        <ele>207</ele>
        <time>2022-06-23T06:10:48Z</time>
      </trkpt>
      <trkpt lat="46.54786" lon="5.18331">
        <ele>207.6</ele>
        <time>2022-06-23T06:10:57Z</time>
      </trkpt>
      <trkpt lat="46.54792" lon="5.18388">
        <ele>207.8</ele>
        <time>2022-06-23T06:11:03Z</time>
      </trkpt>
      <trkpt lat="46.54792" lon="5.18398">
        <ele>207.8</ele>
        <time>2022-06-23T06:11:04Z</time>
      </trkpt>
      <trkpt lat="46.54791" lon="5.18408">
        <ele>207.8</ele>
        <time>2022-06-23T06:11:05Z</time>
      </trkpt>
      <trkpt lat="46.54786" lon="5.18428">
        <ele>207.6</ele>
        <time>2022-06-23T06:11:07Z</time>
      </trkpt>
      <trkpt lat="46.54783" lon="5.18438">
        <ele>207.6</ele>
        <time>2022-06-23T06:11:08Z</time>
      </trkpt>
      <trkpt lat="46.54779" lon="5.18447">
        <ele>207.6</ele>
        <time>2022-06-23T06:11:09Z</time>
      </trkpt>
      <trkpt lat="46.54769" lon="5.18464">
        <ele>207.6</ele>
        <time>2022-06-23T06:11:11Z</time>
      </trkpt>
      <trkpt lat="46.54762" lon="5.18472">
        <ele>207.4</ele>
        <time>2022-06-23T06:11:12Z</time>
      </trkpt>
      <trkpt lat="46.54747" lon="5.18485">
        <ele>207.4</ele>
        <time>2022-06-23T06:11:14Z</time>
      </trkpt>
      <trkpt lat="46.5473" lon="5.18494">
        <ele>207.2</ele>
        <time>2022-06-23T06:11:16Z</time>
      </trkpt>
      <trkpt lat="46.54682" lon="5.18516">
        <ele>205.8</ele>
        <time>2022-06-23T06:11:21Z</time>
      </trkpt>
      <trkpt lat="46.54664" lon="5.18526">
        <ele>205.2</ele>
        <time>2022-06-23T06:11:23Z</time>
      </trkpt>
      <trkpt lat="46.54654" lon="5.18533">
        <ele>204.6</ele>
        <time>2022-06-23T06:11:24Z</time>
      </trkpt>
      <trkpt lat="46.54627" lon="5.18555">
        <ele>203.6</ele>
        <time>2022-06-23T06:11:27Z</time>
      </trkpt>
      <trkpt lat="46.54618" lon="5.18563">
        <ele>203</ele>
        <time>2022-06-23T06:11:28Z</time>
      </trkpt>
      <trkpt lat="46.54609" lon="5.18571">
        <ele>202.4</ele>
        <time>2022-06-23T06:11:29Z</time>
      </trkpt>
      <trkpt lat="46.54572" lon="5.18605">
        <ele>201</ele>
        <time>2022-06-23T06:11:33Z</time>
      </trkpt>
      <trkpt lat="46.54563" lon="5.18612">
        <ele>200.8</ele>
        <time>2022-06-23T06:11:34Z</time>
      </trkpt>
      <trkpt lat="46.54546" lon="5.18628">
        <ele>200</ele>
        <time>2022-06-23T06:11:36Z</time>
      </trkpt>
      <trkpt lat="46.54523" lon="5.18648">
        <ele>199.6</ele>
        <time>2022-06-23T06:11:39Z</time>
      </trkpt>
      <trkpt lat="46.54498" lon="5.18671">
        <ele>199.6</ele>
        <time>2022-06-23T06:11:43Z</time>
      </trkpt>
      <trkpt lat="46.54493" lon="5.18678">
        <ele>199.6</ele>
        <time>2022-06-23T06:11:44Z</time>
      </trkpt>
      <trkpt lat="46.54484" lon="5.18692">
        <ele>200.6</ele>
        <time>2022-06-23T06:11:46Z</time>
      </trkpt>
      <trkpt lat="46.54478" lon="5.1871">
        <ele>201</ele>
        <time>2022-06-23T06:11:48Z</time>
      </trkpt>
      <trkpt lat="46.54475" lon="5.1872">
        <ele>201.2</ele>
        <time>2022-06-23T06:11:49Z</time>
      </trkpt>
      <trkpt lat="46.54461" lon="5.18782">
        <ele>202</ele>
        <time>2022-06-23T06:11:55Z</time>
      </trkpt>
      <trkpt lat="46.54454" lon="5.18815">
        <ele>202.4</ele>
        <time>2022-06-23T06:11:58Z</time>
      </trkpt>
      <trkpt lat="46.54447" lon="5.18847">
        <ele>202.4</ele>
        <time>2022-06-23T06:12:01Z</time>
      </trkpt>
      <trkpt lat="46.54433" lon="5.18923">
        <ele>202.4</ele>
        <time>2022-06-23T06:12:08Z</time>
      </trkpt>
      <trkpt lat="46.54431" lon="5.18946">
        <ele>202.4</ele>
        <time>2022-06-23T06:12:10Z</time>
      </trkpt>
      <trkpt lat="46.54428" lon="5.19028">
        <ele>202</ele>
        <time>2022-06-23T06:12:17Z</time>
      </trkpt>
      <trkpt lat="46.54428" lon="5.1904">
        <ele>202</ele>
        <time>2022-06-23T06:12:18Z</time>
      </trkpt>
      <trkpt lat="46.54428" lon="5.19087">
        <ele>201.4</ele>
        <time>2022-06-23T06:12:22Z</time>
      </trkpt>
      <trkpt lat="46.5443" lon="5.19165">
        <ele>200.4</ele>
        <time>2022-06-23T06:12:29Z</time>
      </trkpt>
      <trkpt lat="46.54438" lon="5.19233">
        <ele>200.2</ele>
        <time>2022-06-23T06:12:35Z</time>
      </trkpt>
      <trkpt lat="46.5444" lon="5.19242">
        <ele>200.2</ele>
        <time>2022-06-23T06:12:36Z</time>
      </trkpt>
      <trkpt lat="46.54447" lon="5.19306">
        <ele>199.8</ele>
        <time>2022-06-23T06:12:41Z</time>
      </trkpt>
      <trkpt lat="46.54447" lon="5.19332">
        <ele>198.8</ele>
        <time>2022-06-23T06:12:43Z</time>
      </trkpt>
      <trkpt lat="46.54445" lon="5.19358">
        <ele>198.2</ele>
        <time>2022-06-23T06:12:45Z</time>
      </trkpt>
      <trkpt lat="46.54443" lon="5.19371">
        <ele>198.2</ele>
        <time>2022-06-23T06:12:46Z</time>
      </trkpt>
      <trkpt lat="46.54437" lon="5.19395">
        <ele>197.8</ele>
        <time>2022-06-23T06:12:48Z</time>
      </trkpt>
      <trkpt lat="46.54433" lon="5.19406">
        <ele>197.6</ele>
        <time>2022-06-23T06:12:49Z</time>
      </trkpt>
      <trkpt lat="46.54429" lon="5.19417">
        <ele>197.4</ele>
        <time>2022-06-23T06:12:50Z</time>
      </trkpt>
      <trkpt lat="46.54419" lon="5.19435">
        <ele>197.2</ele>
        <time>2022-06-23T06:12:52Z</time>
      </trkpt>
      <trkpt lat="46.54411" lon="5.19444">
        <ele>197</ele>
        <time>2022-06-23T06:12:53Z</time>
      </trkpt>
      <trkpt lat="46.54399" lon="5.19454">
        <ele>197</ele>
        <time>2022-06-23T06:12:55Z</time>
      </trkpt>
      <trkpt lat="46.54384" lon="5.19463">
        <ele>197</ele>
        <time>2022-06-23T06:12:57Z</time>
      </trkpt>
      <trkpt lat="46.54344" lon="5.19474">
        <ele>197.4</ele>
        <time>2022-06-23T06:13:03Z</time>
      </trkpt>
      <trkpt lat="46.54301" lon="5.19484">
        <ele>198.8</ele>
        <time>2022-06-23T06:13:09Z</time>
      </trkpt>
      <trkpt lat="46.54288" lon="5.19487">
        <ele>198.8</ele>
        <time>2022-06-23T06:13:11Z</time>
      </trkpt>
      <trkpt lat="46.54257" lon="5.19493">
        <ele>199.6</ele>
        <time>2022-06-23T06:13:15Z</time>
      </trkpt>
      <trkpt lat="46.54206" lon="5.19505">
        <ele>200</ele>
        <time>2022-06-23T06:13:22Z</time>
      </trkpt>
      <trkpt lat="46.54191" lon="5.19509">
        <ele>200.2</ele>
        <time>2022-06-23T06:13:24Z</time>
      </trkpt>
      <trkpt lat="46.54131" lon="5.19523">
        <ele>200.2</ele>
        <time>2022-06-23T06:13:32Z</time>
      </trkpt>
      <trkpt lat="46.54123" lon="5.19525">
        <ele>200.2</ele>
        <time>2022-06-23T06:13:33Z</time>
      </trkpt>
      <trkpt lat="46.5408" lon="5.19547">
        <ele>200.2</ele>
        <time>2022-06-23T06:13:39Z</time>
      </trkpt>
      <trkpt lat="46.54041" lon="5.19578">
        <ele>199.6</ele>
        <time>2022-06-23T06:13:45Z</time>
      </trkpt>
      <trkpt lat="46.54035" lon="5.19586">
        <ele>199.6</ele>
        <time>2022-06-23T06:13:46Z</time>
      </trkpt>
      <trkpt lat="46.54025" lon="5.19605">
        <ele>199.6</ele>
        <time>2022-06-23T06:13:48Z</time>
      </trkpt>
      <trkpt lat="46.54021" lon="5.19613">
        <ele>199.6</ele>
        <time>2022-06-23T06:13:49Z</time>
      </trkpt>
      <trkpt lat="46.53996" lon="5.19682">
        <ele>199.4</ele>
        <time>2022-06-23T06:13:56Z</time>
      </trkpt>
      <trkpt lat="46.53983" lon="5.19717">
        <ele>199</ele>
        <time>2022-06-23T06:13:59Z</time>
      </trkpt>
      <trkpt lat="46.53972" lon="5.19748">
        <ele>198.8</ele>
        <time>2022-06-23T06:14:02Z</time>
      </trkpt>
      <trkpt lat="46.53967" lon="5.19761">
        <ele>198.4</ele>
        <time>2022-06-23T06:14:03Z</time>
      </trkpt>
      <trkpt lat="46.53955" lon="5.19791">
        <ele>198</ele>
        <time>2022-06-23T06:14:06Z</time>
      </trkpt>
      <trkpt lat="46.53941" lon="5.19827">
        <ele>197.6</ele>
        <time>2022-06-23T06:14:10Z</time>
      </trkpt>
      <trkpt lat="46.53919" lon="5.19868">
        <ele>198</ele>
        <time>2022-06-23T06:14:15Z</time>
      </trkpt>
      <trkpt lat="46.53899" lon="5.19898">
        <ele>198.4</ele>
        <time>2022-06-23T06:14:20Z</time>
      </trkpt>
      <trkpt lat="46.53878" lon="5.19926">
        <ele>199</ele>
        <time>2022-06-23T06:14:25Z</time>
      </trkpt>
      <trkpt lat="46.53867" lon="5.19941">
        <ele>199.6</ele>
        <time>2022-06-23T06:14:28Z</time>
      </trkpt>
      <trkpt lat="46.53859" lon="5.19951">
        <ele>200.2</ele>
        <time>2022-06-23T06:14:30Z</time>
      </trkpt>
      <trkpt lat="46.53846" lon="5.1997">
        <ele>201.2</ele>
        <time>2022-06-23T06:14:34Z</time>
      </trkpt>
      <trkpt lat="46.53839" lon="5.1998">
        <ele>201.8</ele>
        <time>2022-06-23T06:14:36Z</time>
      </trkpt>
      <trkpt lat="46.53832" lon="5.1999">
        <ele>202.4</ele>
        <time>2022-06-23T06:14:38Z</time>
      </trkpt>
      <trkpt lat="46.53818" lon="5.2001">
        <ele>203.4</ele>
        <time>2022-06-23T06:14:42Z</time>
      </trkpt>
      <trkpt lat="46.53803" lon="5.20032">
        <ele>204.4</ele>
        <time>2022-06-23T06:14:46Z</time>
      </trkpt>
      <trkpt lat="46.538" lon="5.20037">
        <ele>204.8</ele>
        <time>2022-06-23T06:14:47Z</time>
      </trkpt>
      <trkpt lat="46.53782" lon="5.20064">
        <ele>206</ele>
        <time>2022-06-23T06:14:52Z</time>
      </trkpt>
      <trkpt lat="46.53763" lon="5.20096">
        <ele>206.6</ele>
        <time>2022-06-23T06:14:57Z</time>
      </trkpt>
      <trkpt lat="46.53739" lon="5.20138">
        <ele>206.6</ele>
        <time>2022-06-23T06:15:03Z</time>
      </trkpt>
      <trkpt lat="46.53706" lon="5.20194">
        <ele>206.6</ele>
        <time>2022-06-23T06:15:11Z</time>
      </trkpt>
      <trkpt lat="46.53671" lon="5.20255">
        <ele>206.2</ele>
        <time>2022-06-23T06:15:19Z</time>
      </trkpt>
      <trkpt lat="46.53636" lon="5.20315">
        <ele>205.6</ele>
        <time>2022-06-23T06:15:26Z</time>
      </trkpt>
      <trkpt lat="46.53625" lon="5.20333">
        <ele>205.4</ele>
        <time>2022-06-23T06:15:28Z</time>
      </trkpt>
      <trkpt lat="46.53606" lon="5.20359">
        <ele>204.6</ele>
        <time>2022-06-23T06:15:31Z</time>
      </trkpt>
      <trkpt lat="46.53585" lon="5.20387">
        <ele>204</ele>
        <time>2022-06-23T06:15:34Z</time>
      </trkpt>
      <trkpt lat="46.53571" lon="5.20406">
        <ele>203.2</ele>
        <time>2022-06-23T06:15:36Z</time>
      </trkpt>
      <trkpt lat="46.53544" lon="5.20443">
        <ele>202.2</ele>
        <time>2022-06-23T06:15:40Z</time>
      </trkpt>
      <trkpt lat="46.53531" lon="5.2046">
        <ele>201.4</ele>
        <time>2022-06-23T06:15:42Z</time>
      </trkpt>
      <trkpt lat="46.53524" lon="5.20469">
        <ele>201</ele>
        <time>2022-06-23T06:15:43Z</time>
      </trkpt>
      <trkpt lat="46.53501" lon="5.20501">
        <ele>200.6</ele>
        <time>2022-06-23T06:15:47Z</time>
      </trkpt>
      <trkpt lat="46.53464" lon="5.2055">
        <ele>201</ele>
        <time>2022-06-23T06:15:54Z</time>
      </trkpt>
      <trkpt lat="46.5346" lon="5.20556">
        <ele>201.2</ele>
        <time>2022-06-23T06:15:55Z</time>
      </trkpt>
      <trkpt lat="46.53441" lon="5.2058">
        <ele>201.8</ele>
        <time>2022-06-23T06:15:59Z</time>
      </trkpt>
      <trkpt lat="46.53436" lon="5.20586">
        <ele>202</ele>
        <time>2022-06-23T06:16:00Z</time>
      </trkpt>
      <trkpt lat="46.53419" lon="5.20611">
        <ele>203</ele>
        <time>2022-06-23T06:16:04Z</time>
      </trkpt>
      <trkpt lat="46.53408" lon="5.20632">
        <ele>203.6</ele>
        <time>2022-06-23T06:16:07Z</time>
      </trkpt>
      <trkpt lat="46.53404" lon="5.2064">
        <ele>203.8</ele>
        <time>2022-06-23T06:16:08Z</time>
      </trkpt>
      <trkpt lat="46.53401" lon="5.20658">
        <ele>203.8</ele>
        <time>2022-06-23T06:16:10Z</time>
      </trkpt>
      <trkpt lat="46.53403" lon="5.20666">
        <ele>204</ele>
        <time>2022-06-23T06:16:11Z</time>
      </trkpt>
      <trkpt lat="46.53407" lon="5.20672">
        <ele>204</ele>
        <time>2022-06-23T06:16:12Z</time>
      </trkpt>
      <trkpt lat="46.53443" lon="5.20711">
        <ele>204.6</ele>
        <time>2022-06-23T06:16:19Z</time>
      </trkpt>
      <trkpt lat="46.53463" lon="5.20734">
        <ele>205</ele>
        <time>2022-06-23T06:16:23Z</time>
      </trkpt>
      <trkpt lat="46.53487" lon="5.20761">
        <ele>205.6</ele>
        <time>2022-06-23T06:16:28Z</time>
      </trkpt>
      <trkpt lat="46.53502" lon="5.20775">
        <ele>206.4</ele>
        <time>2022-06-23T06:16:31Z</time>
      </trkpt>
      <trkpt lat="46.53512" lon="5.20785">
        <ele>206.8</ele>
        <time>2022-06-23T06:16:33Z</time>
      </trkpt>
      <trkpt lat="46.53529" lon="5.20796">
        <ele>207.2</ele>
        <time>2022-06-23T06:16:36Z</time>
      </trkpt>
      <trkpt lat="46.53541" lon="5.20804">
        <ele>207.2</ele>
        <time>2022-06-23T06:16:38Z</time>
      </trkpt>
      <trkpt lat="46.53564" lon="5.20825">
        <ele>207.2</ele>
        <time>2022-06-23T06:16:42Z</time>
      </trkpt>
      <trkpt lat="46.53569" lon="5.20832">
        <ele>207.4</ele>
        <time>2022-06-23T06:16:43Z</time>
      </trkpt>
      <trkpt lat="46.53573" lon="5.2084">
        <ele>207.4</ele>
        <time>2022-06-23T06:16:44Z</time>
      </trkpt>
      <trkpt lat="46.53579" lon="5.20858">
        <ele>207.4</ele>
        <time>2022-06-23T06:16:46Z</time>
      </trkpt>
      <trkpt lat="46.53582" lon="5.20877">
        <ele>207.8</ele>
        <time>2022-06-23T06:16:48Z</time>
      </trkpt>
      <trkpt lat="46.53591" lon="5.20933">
        <ele>208.4</ele>
        <time>2022-06-23T06:16:54Z</time>
      </trkpt>
      <trkpt lat="46.53592" lon="5.20963">
        <ele>208.4</ele>
        <time>2022-06-23T06:16:57Z</time>
      </trkpt>
      <trkpt lat="46.5359" lon="5.21021">
        <ele>208.2</ele>
        <time>2022-06-23T06:17:03Z</time>
      </trkpt>
      <trkpt lat="46.53594" lon="5.21039">
        <ele>208.4</ele>
        <time>2022-06-23T06:17:05Z</time>
      </trkpt>
      <trkpt lat="46.53598" lon="5.21048">
        <ele>208.4</ele>
        <time>2022-06-23T06:17:06Z</time>
      </trkpt>
      <trkpt lat="46.53605" lon="5.21064">
        <ele>208.4</ele>
        <time>2022-06-23T06:17:08Z</time>
      </trkpt>
      <trkpt lat="46.53623" lon="5.21094">
        <ele>208.6</ele>
        <time>2022-06-23T06:17:12Z</time>
      </trkpt>
      <trkpt lat="46.53634" lon="5.21107">
        <ele>208.6</ele>
        <time>2022-06-23T06:17:14Z</time>
      </trkpt>
      <trkpt lat="46.53651" lon="5.21122">
        <ele>208.6</ele>
        <time>2022-06-23T06:17:17Z</time>
      </trkpt>
      <trkpt lat="46.53696" lon="5.21168">
        <ele>209.2</ele>
        <time>2022-06-23T06:17:25Z</time>
      </trkpt>
      <trkpt lat="46.53723" lon="5.21198">
        <ele>209.2</ele>
        <time>2022-06-23T06:17:30Z</time>
      </trkpt>
      <trkpt lat="46.53734" lon="5.21209">
        <ele>209.4</ele>
        <time>2022-06-23T06:17:32Z</time>
      </trkpt>
      <trkpt lat="46.53749" lon="5.21225">
        <ele>209.6</ele>
        <time>2022-06-23T06:17:35Z</time>
      </trkpt>
      <trkpt lat="46.53781" lon="5.2126">
        <ele>209.8</ele>
        <time>2022-06-23T06:17:40Z</time>
      </trkpt>
      <trkpt lat="46.53809" lon="5.21307">
        <ele>210.2</ele>
        <time>2022-06-23T06:17:46Z</time>
      </trkpt>
      <trkpt lat="46.53831" lon="5.21346">
        <ele>210.4</ele>
        <time>2022-06-23T06:17:51Z</time>
      </trkpt>
      <trkpt lat="46.53845" lon="5.21368">
        <ele>210</ele>
        <time>2022-06-23T06:17:54Z</time>
      </trkpt>
      <trkpt lat="46.53875" lon="5.21419">
        <ele>209</ele>
        <time>2022-06-23T06:18:00Z</time>
      </trkpt>
      <trkpt lat="46.53886" lon="5.21436">
        <ele>208.8</ele>
        <time>2022-06-23T06:18:02Z</time>
      </trkpt>
      <trkpt lat="46.53929" lon="5.21499">
        <ele>208.2</ele>
        <time>2022-06-23T06:18:10Z</time>
      </trkpt>
      <trkpt lat="46.53967" lon="5.21538">
        <ele>208</ele>
        <time>2022-06-23T06:18:16Z</time>
      </trkpt>
      <trkpt lat="46.5398" lon="5.21551">
        <ele>208</ele>
        <time>2022-06-23T06:18:18Z</time>
      </trkpt>
      <trkpt lat="46.54028" lon="5.21596">
        <ele>207.4</ele>
        <time>2022-06-23T06:18:25Z</time>
      </trkpt>
      <trkpt lat="46.54048" lon="5.21616">
        <ele>207.2</ele>
        <time>2022-06-23T06:18:28Z</time>
      </trkpt>
      <trkpt lat="46.54061" lon="5.21628">
        <ele>206.8</ele>
        <time>2022-06-23T06:18:30Z</time>
      </trkpt>
      <trkpt lat="46.54097" lon="5.21668">
        <ele>207</ele>
        <time>2022-06-23T06:18:36Z</time>
      </trkpt>
      <trkpt lat="46.54107" lon="5.21683">
        <ele>207</ele>
        <time>2022-06-23T06:18:38Z</time>
      </trkpt>
      <trkpt lat="46.54118" lon="5.2171">
        <ele>207</ele>
        <time>2022-06-23T06:18:41Z</time>
      </trkpt>
      <trkpt lat="46.54135" lon="5.21768">
        <ele>207.2</ele>
        <time>2022-06-23T06:18:47Z</time>
      </trkpt>
      <trkpt lat="46.54138" lon="5.21777">
        <ele>207.4</ele>
        <time>2022-06-23T06:18:48Z</time>
      </trkpt>
      <trkpt lat="46.54153" lon="5.21815">
        <ele>207.8</ele>
        <time>2022-06-23T06:18:52Z</time>
      </trkpt>
      <trkpt lat="46.54156" lon="5.21823">
        <ele>207.8</ele>
        <time>2022-06-23T06:18:53Z</time>
      </trkpt>
      <trkpt lat="46.5416" lon="5.21832">
        <ele>208</ele>
        <time>2022-06-23T06:18:54Z</time>
      </trkpt>
      <trkpt lat="46.54168" lon="5.2186">
        <ele>208.4</ele>
        <time>2022-06-23T06:18:57Z</time>
      </trkpt>
      <trkpt lat="46.5417" lon="5.21871">
        <ele>208.4</ele>
        <time>2022-06-23T06:18:58Z</time>
      </trkpt>
      <trkpt lat="46.54178" lon="5.21891">
        <ele>208.4</ele>
        <time>2022-06-23T06:19:00Z</time>
      </trkpt>
      <trkpt lat="46.54197" lon="5.21943">
        <ele>208.2</ele>
        <time>2022-06-23T06:19:05Z</time>
      </trkpt>
      <trkpt lat="46.54224" lon="5.22004">
        <ele>206.6</ele>
        <time>2022-06-23T06:19:11Z</time>
      </trkpt>
      <trkpt lat="46.54228" lon="5.22015">
        <ele>206.4</ele>
        <time>2022-06-23T06:19:12Z</time>
      </trkpt>
      <trkpt lat="46.5426" lon="5.2208">
        <ele>205.8</ele>
        <time>2022-06-23T06:19:18Z</time>
      </trkpt>
      <trkpt lat="46.54265" lon="5.22091">
        <ele>205.6</ele>
        <time>2022-06-23T06:19:19Z</time>
      </trkpt>
      <trkpt lat="46.54273" lon="5.22114">
        <ele>204.4</ele>
        <time>2022-06-23T06:19:21Z</time>
      </trkpt>
      <trkpt lat="46.54276" lon="5.22126">
        <ele>204.2</ele>
        <time>2022-06-23T06:19:22Z</time>
      </trkpt>
      <trkpt lat="46.54279" lon="5.22138">
        <ele>203.8</ele>
        <time>2022-06-23T06:19:23Z</time>
      </trkpt>
      <trkpt lat="46.54281" lon="5.22164">
        <ele>203.6</ele>
        <time>2022-06-23T06:19:25Z</time>
      </trkpt>
      <trkpt lat="46.5428" lon="5.22176">
        <ele>203.4</ele>
        <time>2022-06-23T06:19:26Z</time>
      </trkpt>
      <trkpt lat="46.54279" lon="5.22188">
        <ele>203</ele>
        <time>2022-06-23T06:19:27Z</time>
      </trkpt>
      <trkpt lat="46.54276" lon="5.22273">
        <ele>202.6</ele>
        <time>2022-06-23T06:19:34Z</time>
      </trkpt>
      <trkpt lat="46.54274" lon="5.22326">
        <ele>203</ele>
        <time>2022-06-23T06:19:39Z</time>
      </trkpt>
      <trkpt lat="46.54271" lon="5.22379">
        <ele>203.8</ele>
        <time>2022-06-23T06:19:45Z</time>
      </trkpt>
      <trkpt lat="46.54272" lon="5.22403">
        <ele>204.6</ele>
        <time>2022-06-23T06:19:48Z</time>
      </trkpt>
      <trkpt lat="46.5427" lon="5.22434">
        <ele>205.6</ele>
        <time>2022-06-23T06:19:52Z</time>
      </trkpt>
      <trkpt lat="46.5427" lon="5.22441">
        <ele>205.8</ele>
        <time>2022-06-23T06:19:53Z</time>
      </trkpt>
      <trkpt lat="46.54268" lon="5.22478">
        <ele>207</ele>
        <time>2022-06-23T06:19:58Z</time>
      </trkpt>
      <trkpt lat="46.54268" lon="5.22494">
        <ele>207.6</ele>
        <time>2022-06-23T06:20:00Z</time>
      </trkpt>
      <trkpt lat="46.54271" lon="5.22519">
        <ele>208</ele>
        <time>2022-06-23T06:20:03Z</time>
      </trkpt>
      <trkpt lat="46.54274" lon="5.22528">
        <ele>208.2</ele>
        <time>2022-06-23T06:20:04Z</time>
      </trkpt>
      <trkpt lat="46.54278" lon="5.22535">
        <ele>208.4</ele>
        <time>2022-06-23T06:20:05Z</time>
      </trkpt>
      <trkpt lat="46.54287" lon="5.22548">
        <ele>208.8</ele>
        <time>2022-06-23T06:20:07Z</time>
      </trkpt>
      <trkpt lat="46.54292" lon="5.22554">
        <ele>208.8</ele>
        <time>2022-06-23T06:20:08Z</time>
      </trkpt>
      <trkpt lat="46.54319" lon="5.22581">
        <ele>209.2</ele>
        <time>2022-06-23T06:20:13Z</time>
      </trkpt>
      <trkpt lat="46.54353" lon="5.22615">
        <ele>209.4</ele>
        <time>2022-06-23T06:20:19Z</time>
      </trkpt>
      <trkpt lat="46.544" lon="5.22662">
        <ele>209.2</ele>
        <time>2022-06-23T06:20:27Z</time>
      </trkpt>
      <trkpt lat="46.54418" lon="5.22679">
        <ele>209.2</ele>
        <time>2022-06-23T06:20:30Z</time>
      </trkpt>
      <trkpt lat="46.54454" lon="5.22718">
        <ele>209.4</ele>
        <time>2022-06-23T06:20:37Z</time>
      </trkpt>
      <trkpt lat="46.54482" lon="5.22765">
        <ele>210.2</ele>
        <time>2022-06-23T06:20:44Z</time>
      </trkpt>
      <trkpt lat="46.54486" lon="5.22772">
        <ele>210.2</ele>
        <time>2022-06-23T06:20:45Z</time>
      </trkpt>
      <trkpt lat="46.54521" lon="5.22839">
        <ele>210.8</ele>
        <time>2022-06-23T06:20:54Z</time>
      </trkpt>
      <trkpt lat="46.54526" lon="5.22846">
        <ele>210.8</ele>
        <time>2022-06-23T06:20:55Z</time>
      </trkpt>
      <trkpt lat="46.54532" lon="5.22851">
        <ele>210.8</ele>
        <time>2022-06-23T06:20:56Z</time>
      </trkpt>
      <trkpt lat="46.5455" lon="5.22862">
        <ele>210.6</ele>
        <time>2022-06-23T06:20:59Z</time>
      </trkpt>
      <trkpt lat="46.546" lon="5.22889">
        <ele>210.8</ele>
        <time>2022-06-23T06:21:07Z</time>
      </trkpt>
      <trkpt lat="46.54642" lon="5.22911">
        <ele>210.8</ele>
        <time>2022-06-23T06:21:13Z</time>
      </trkpt>
      <trkpt lat="46.54679" lon="5.22931">
        <ele>210.6</ele>
        <time>2022-06-23T06:21:18Z</time>
      </trkpt>
      <trkpt lat="46.54722" lon="5.2296">
        <ele>210</ele>
        <time>2022-06-23T06:21:24Z</time>
      </trkpt>
      <trkpt lat="46.54761" lon="5.22999">
        <ele>209.2</ele>
        <time>2022-06-23T06:21:30Z</time>
      </trkpt>
      <trkpt lat="46.54774" lon="5.23012">
        <ele>209</ele>
        <time>2022-06-23T06:21:32Z</time>
      </trkpt>
      <trkpt lat="46.5482" lon="5.23059">
        <ele>209.4</ele>
        <time>2022-06-23T06:21:40Z</time>
      </trkpt>
      <trkpt lat="46.54868" lon="5.23105">
        <ele>209</ele>
        <time>2022-06-23T06:21:47Z</time>
      </trkpt>
      <trkpt lat="46.54891" lon="5.23128">
        <ele>208</ele>
        <time>2022-06-23T06:21:50Z</time>
      </trkpt>
      <trkpt lat="46.54915" lon="5.23152">
        <ele>206.8</ele>
        <time>2022-06-23T06:21:53Z</time>
      </trkpt>
      <trkpt lat="46.5494" lon="5.23176">
        <ele>205.4</ele>
        <time>2022-06-23T06:21:56Z</time>
      </trkpt>
      <trkpt lat="46.54957" lon="5.23193">
        <ele>204.4</ele>
        <time>2022-06-23T06:21:58Z</time>
      </trkpt>
      <trkpt lat="46.54973" lon="5.23212">
        <ele>203.6</ele>
        <time>2022-06-23T06:22:00Z</time>
      </trkpt>
      <trkpt lat="46.5498" lon="5.23224">
        <ele>203</ele>
        <time>2022-06-23T06:22:01Z</time>
      </trkpt>
      <trkpt lat="46.54993" lon="5.23249">
        <ele>201.8</ele>
        <time>2022-06-23T06:22:03Z</time>
      </trkpt>
      <trkpt lat="46.54997" lon="5.23264">
        <ele>201.6</ele>
        <time>2022-06-23T06:22:04Z</time>
      </trkpt>
      <trkpt lat="46.55001" lon="5.23278">
        <ele>200.8</ele>
        <time>2022-06-23T06:22:05Z</time>
      </trkpt>
      <trkpt lat="46.55014" lon="5.23321">
        <ele>199.8</ele>
        <time>2022-06-23T06:22:08Z</time>
      </trkpt>
      <trkpt lat="46.55023" lon="5.2335">
        <ele>198.6</ele>
        <time>2022-06-23T06:22:10Z</time>
      </trkpt>
      <trkpt lat="46.55032" lon="5.23376">
        <ele>197.8</ele>
        <time>2022-06-23T06:22:12Z</time>
      </trkpt>
      <trkpt lat="46.55038" lon="5.23388">
        <ele>197.4</ele>
        <time>2022-06-23T06:22:13Z</time>
      </trkpt>
      <trkpt lat="46.55057" lon="5.23419">
        <ele>196.6</ele>
        <time>2022-06-23T06:22:16Z</time>
      </trkpt>
      <trkpt lat="46.55095" lon="5.23468">
        <ele>196.8</ele>
        <time>2022-06-23T06:22:22Z</time>
      </trkpt>
      <trkpt lat="46.55134" lon="5.23509">
        <ele>197.2</ele>
        <time>2022-06-23T06:22:28Z</time>
      </trkpt>
      <trkpt lat="46.5517" lon="5.23539">
        <ele>197.4</ele>
        <time>2022-06-23T06:22:33Z</time>
      </trkpt>
      <trkpt lat="46.55198" lon="5.23562">
        <ele>197.6</ele>
        <time>2022-06-23T06:22:37Z</time>
      </trkpt>
      <trkpt lat="46.55248" lon="5.23602">
        <ele>197.6</ele>
        <time>2022-06-23T06:22:44Z</time>
      </trkpt>
      <trkpt lat="46.55269" lon="5.23619">
        <ele>197.4</ele>
        <time>2022-06-23T06:22:47Z</time>
      </trkpt>
      <trkpt lat="46.55319" lon="5.23659">
        <ele>197.4</ele>
        <time>2022-06-23T06:22:54Z</time>
      </trkpt>
      <trkpt lat="46.55332" lon="5.2367">
        <ele>197.4</ele>
        <time>2022-06-23T06:22:56Z</time>
      </trkpt>
      <trkpt lat="46.55381" lon="5.23706">
        <ele>197.4</ele>
        <time>2022-06-23T06:23:03Z</time>
      </trkpt>
      <trkpt lat="46.55388" lon="5.23711">
        <ele>197.4</ele>
        <time>2022-06-23T06:23:04Z</time>
      </trkpt>
      <trkpt lat="46.55435" lon="5.23742">
        <ele>197.4</ele>
        <time>2022-06-23T06:23:11Z</time>
      </trkpt>
      <trkpt lat="46.55464" lon="5.23764">
        <ele>198</ele>
        <time>2022-06-23T06:23:16Z</time>
      </trkpt>
      <trkpt lat="46.55473" lon="5.2377">
        <ele>198.4</ele>
        <time>2022-06-23T06:23:18Z</time>
      </trkpt>
      <trkpt lat="46.55495" lon="5.23786">
        <ele>199.4</ele>
        <time>2022-06-23T06:23:23Z</time>
      </trkpt>
      <trkpt lat="46.55501" lon="5.2379">
        <ele>200</ele>
        <time>2022-06-23T06:23:24Z</time>
      </trkpt>
      <trkpt lat="46.55522" lon="5.238">
        <ele>200.8</ele>
        <time>2022-06-23T06:23:28Z</time>
      </trkpt>
      <trkpt lat="46.55527" lon="5.23802">
        <ele>201</ele>
        <time>2022-06-23T06:23:29Z</time>
      </trkpt>
      <trkpt lat="46.55538" lon="5.23806">
        <ele>201.8</ele>
        <time>2022-06-23T06:23:32Z</time>
      </trkpt>
      <trkpt lat="46.55544" lon="5.23808">
        <ele>202</ele>
        <time>2022-06-23T06:23:33Z</time>
      </trkpt>
      <trkpt lat="46.55559" lon="5.23815">
        <ele>202.8</ele>
        <time>2022-06-23T06:23:36Z</time>
      </trkpt>
      <trkpt lat="46.55565" lon="5.23815">
        <ele>203.2</ele>
        <time>2022-06-23T06:23:37Z</time>
      </trkpt>
      <trkpt lat="46.55569" lon="5.23816">
        <ele>203.4</ele>
        <time>2022-06-23T06:23:38Z</time>
      </trkpt>
      <trkpt lat="46.55582" lon="5.23815">
        <ele>204.2</ele>
        <time>2022-06-23T06:23:41Z</time>
      </trkpt>
      <trkpt lat="46.55592" lon="5.23817">
        <ele>204.8</ele>
        <time>2022-06-23T06:23:43Z</time>
      </trkpt>
      <trkpt lat="46.55596" lon="5.23817">
        <ele>205.4</ele>
        <time>2022-06-23T06:23:44Z</time>
      </trkpt>
      <trkpt lat="46.55609" lon="5.23817">
        <ele>206</ele>
        <time>2022-06-23T06:23:47Z</time>
      </trkpt>
      <trkpt lat="46.55613" lon="5.23816">
        <ele>206.2</ele>
        <time>2022-06-23T06:23:48Z</time>
      </trkpt>
      <trkpt lat="46.55618" lon="5.23816">
        <ele>206.4</ele>
        <time>2022-06-23T06:23:49Z</time>
      </trkpt>
      <trkpt lat="46.55622" lon="5.23817">
        <ele>206.6</ele>
        <time>2022-06-23T06:23:50Z</time>
      </trkpt>
      <trkpt lat="46.5563" lon="5.23816">
        <ele>207.4</ele>
        <time>2022-06-23T06:23:52Z</time>
      </trkpt>
      <trkpt lat="46.55633" lon="5.23815">
        <ele>207.6</ele>
        <time>2022-06-23T06:23:53Z</time>
      </trkpt>
      <trkpt lat="46.5564" lon="5.23812">
        <ele>208</ele>
        <time>2022-06-23T06:23:55Z</time>
      </trkpt>
      <trkpt lat="46.55649" lon="5.23815">
        <ele>208.4</ele>
        <time>2022-06-23T06:23:56Z</time>
      </trkpt>
      <trkpt lat="46.55665" lon="5.2382">
        <ele>209.4</ele>
        <time>2022-06-23T06:23:59Z</time>
      </trkpt>
      <trkpt lat="46.55667" lon="5.23821">
        <ele>209.6</ele>
        <time>2022-06-23T06:24:00Z</time>
      </trkpt>
      <trkpt lat="46.55683" lon="5.23822">
        <ele>210.2</ele>
        <time>2022-06-23T06:24:03Z</time>
      </trkpt>
      <trkpt lat="46.55691" lon="5.23819">
        <ele>210.8</ele>
        <time>2022-06-23T06:24:05Z</time>
      </trkpt>
      <trkpt lat="46.55696" lon="5.23819">
        <ele>211</ele>
        <time>2022-06-23T06:24:06Z</time>
      </trkpt>
      <trkpt lat="46.557" lon="5.2382">
        <ele>211.2</ele>
        <time>2022-06-23T06:24:07Z</time>
      </trkpt>
      <trkpt lat="46.55713" lon="5.23824">
        <ele>211.8</ele>
        <time>2022-06-23T06:24:10Z</time>
      </trkpt>
      <trkpt lat="46.55718" lon="5.23825">
        <ele>212</ele>
        <time>2022-06-23T06:24:11Z</time>
      </trkpt>
      <trkpt lat="46.55722" lon="5.23827">
        <ele>212</ele>
        <time>2022-06-23T06:24:12Z</time>
      </trkpt>
      <trkpt lat="46.5574" lon="5.23839">
        <ele>212.6</ele>
        <time>2022-06-23T06:24:16Z</time>
      </trkpt>
      <trkpt lat="46.55759" lon="5.23854">
        <ele>212.6</ele>
        <time>2022-06-23T06:24:20Z</time>
      </trkpt>
      <trkpt lat="46.55766" lon="5.23857">
        <ele>212.8</ele>
        <time>2022-06-23T06:24:21Z</time>
      </trkpt>
      <trkpt lat="46.55785" lon="5.23871">
        <ele>212.6</ele>
        <time>2022-06-23T06:24:24Z</time>
      </trkpt>
      <trkpt lat="46.5579" lon="5.23874">
        <ele>212.6</ele>
        <time>2022-06-23T06:24:25Z</time>
      </trkpt>
      <trkpt lat="46.558" lon="5.23882">
        <ele>212.6</ele>
        <time>2022-06-23T06:24:27Z</time>
      </trkpt>
      <trkpt lat="46.55807" lon="5.23886">
        <ele>212.6</ele>
        <time>2022-06-23T06:24:28Z</time>
      </trkpt>
      <trkpt lat="46.55826" lon="5.23899">
        <ele>212.4</ele>
        <time>2022-06-23T06:24:31Z</time>
      </trkpt>
      <trkpt lat="46.55839" lon="5.2391">
        <ele>212.2</ele>
        <time>2022-06-23T06:24:33Z</time>
      </trkpt>
      <trkpt lat="46.55857" lon="5.23925">
        <ele>212.2</ele>
        <time>2022-06-23T06:24:36Z</time>
      </trkpt>
      <trkpt lat="46.55874" lon="5.23945">
        <ele>212.4</ele>
        <time>2022-06-23T06:24:39Z</time>
      </trkpt>
      <trkpt lat="46.55888" lon="5.23971">
        <ele>212.4</ele>
        <time>2022-06-23T06:24:42Z</time>
      </trkpt>
      <trkpt lat="46.55889" lon="5.2399">
        <ele>212.6</ele>
        <time>2022-06-23T06:24:44Z</time>
      </trkpt>
      <trkpt lat="46.5589" lon="5.23997">
        <ele>212.6</ele>
        <time>2022-06-23T06:24:45Z</time>
      </trkpt>
      <trkpt lat="46.55897" lon="5.24013">
        <ele>212.6</ele>
        <time>2022-06-23T06:24:47Z</time>
      </trkpt>
      <trkpt lat="46.5591" lon="5.24049">
        <ele>212.6</ele>
        <time>2022-06-23T06:24:51Z</time>
      </trkpt>
      <trkpt lat="46.55922" lon="5.24086">
        <ele>212.8</ele>
        <time>2022-06-23T06:24:55Z</time>
      </trkpt>
      <trkpt lat="46.55925" lon="5.24096">
        <ele>212.8</ele>
        <time>2022-06-23T06:24:56Z</time>
      </trkpt>
      <trkpt lat="46.55928" lon="5.24106">
        <ele>212.8</ele>
        <time>2022-06-23T06:24:57Z</time>
      </trkpt>
      <trkpt lat="46.55945" lon="5.24174">
        <ele>212.6</ele>
        <time>2022-06-23T06:25:04Z</time>
      </trkpt>
      <trkpt lat="46.55949" lon="5.24195">
        <ele>212.6</ele>
        <time>2022-06-23T06:25:06Z</time>
      </trkpt>
      <trkpt lat="46.55951" lon="5.24216">
        <ele>212.6</ele>
        <time>2022-06-23T06:25:08Z</time>
      </trkpt>
      <trkpt lat="46.55954" lon="5.24243">
        <ele>212</ele>
        <time>2022-06-23T06:25:11Z</time>
      </trkpt>
      <trkpt lat="46.55956" lon="5.24262">
        <ele>211.8</ele>
        <time>2022-06-23T06:25:13Z</time>
      </trkpt>
      <trkpt lat="46.55958" lon="5.24287">
        <ele>211.4</ele>
        <time>2022-06-23T06:25:16Z</time>
      </trkpt>
      <trkpt lat="46.5596" lon="5.24293">
        <ele>211.2</ele>
        <time>2022-06-23T06:25:17Z</time>
      </trkpt>
      <trkpt lat="46.55962" lon="5.24297">
        <ele>211.2</ele>
        <time>2022-06-23T06:25:18Z</time>
      </trkpt>
      <trkpt lat="46.55971" lon="5.24305">
        <ele>211</ele>
        <time>2022-06-23T06:25:20Z</time>
      </trkpt>
      <trkpt lat="46.55995" lon="5.2431">
        <ele>211</ele>
        <time>2022-06-23T06:25:24Z</time>
      </trkpt>
      <trkpt lat="46.56037" lon="5.24321">
        <ele>210.6</ele>
        <time>2022-06-23T06:25:30Z</time>
      </trkpt>
      <trkpt lat="46.56092" lon="5.2434">
        <ele>212.2</ele>
        <time>2022-06-23T06:25:38Z</time>
      </trkpt>
      <trkpt lat="46.56119" lon="5.24349">
        <ele>212.6</ele>
        <time>2022-06-23T06:25:42Z</time>
      </trkpt>
      <trkpt lat="46.56161" lon="5.24364">
        <ele>212.8</ele>
        <time>2022-06-23T06:25:48Z</time>
      </trkpt>
      <trkpt lat="46.56214" lon="5.24382">
        <ele>212.4</ele>
        <time>2022-06-23T06:25:56Z</time>
      </trkpt>
      <trkpt lat="46.5622" lon="5.24384">
        <ele>212.4</ele>
        <time>2022-06-23T06:25:57Z</time>
      </trkpt>
      <trkpt lat="46.56275" lon="5.24403">
        <ele>212.4</ele>
        <time>2022-06-23T06:26:05Z</time>
      </trkpt>
      <trkpt lat="46.5633" lon="5.24422">
        <ele>212.8</ele>
        <time>2022-06-23T06:26:13Z</time>
      </trkpt>
      <trkpt lat="46.5639" lon="5.24442">
        <ele>212</ele>
        <time>2022-06-23T06:26:21Z</time>
      </trkpt>
      <trkpt lat="46.56414" lon="5.2445">
        <ele>211.6</ele>
        <time>2022-06-23T06:26:24Z</time>
      </trkpt>
      <trkpt lat="46.56455" lon="5.24464">
        <ele>210.6</ele>
        <time>2022-06-23T06:26:29Z</time>
      </trkpt>
      <trkpt lat="46.56463" lon="5.24467">
        <ele>210.4</ele>
        <time>2022-06-23T06:26:30Z</time>
      </trkpt>
      <trkpt lat="46.56488" lon="5.24475">
        <ele>209.4</ele>
        <time>2022-06-23T06:26:33Z</time>
      </trkpt>
      <trkpt lat="46.56522" lon="5.24487">
        <ele>208.8</ele>
        <time>2022-06-23T06:26:37Z</time>
      </trkpt>
      <trkpt lat="46.56547" lon="5.24496">
        <ele>208.2</ele>
        <time>2022-06-23T06:26:40Z</time>
      </trkpt>
      <trkpt lat="46.56589" lon="5.24511">
        <ele>207.2</ele>
        <time>2022-06-23T06:26:45Z</time>
      </trkpt>
      <trkpt lat="46.56597" lon="5.24514">
        <ele>207</ele>
        <time>2022-06-23T06:26:46Z</time>
      </trkpt>
      <trkpt lat="46.56651" lon="5.24532">
        <ele>206</ele>
        <time>2022-06-23T06:26:52Z</time>
      </trkpt>
      <trkpt lat="46.56669" lon="5.24538">
        <ele>205.4</ele>
        <time>2022-06-23T06:26:54Z</time>
      </trkpt>
      <trkpt lat="46.56688" lon="5.24545">
        <ele>204.8</ele>
        <time>2022-06-23T06:26:56Z</time>
      </trkpt>
      <trkpt lat="46.56717" lon="5.24555">
        <ele>203.6</ele>
        <time>2022-06-23T06:26:59Z</time>
      </trkpt>
      <trkpt lat="46.56746" lon="5.24565">
        <ele>202.4</ele>
        <time>2022-06-23T06:27:02Z</time>
      </trkpt>
      <trkpt lat="46.56755" lon="5.24568">
        <ele>202.2</ele>
        <time>2022-06-23T06:27:03Z</time>
      </trkpt>
      <trkpt lat="46.56775" lon="5.24575">
        <ele>201.2</ele>
        <time>2022-06-23T06:27:05Z</time>
      </trkpt>
      <trkpt lat="46.56812" lon="5.24588">
        <ele>200.2</ele>
        <time>2022-06-23T06:27:09Z</time>
      </trkpt>
      <trkpt lat="46.56838" lon="5.24597">
        <ele>199.2</ele>
        <time>2022-06-23T06:27:12Z</time>
      </trkpt>
      <trkpt lat="46.5688" lon="5.24613">
        <ele>198</ele>
        <time>2022-06-23T06:27:17Z</time>
      </trkpt>
      <trkpt lat="46.56904" lon="5.24621">
        <ele>197.6</ele>
        <time>2022-06-23T06:27:20Z</time>
      </trkpt>
      <trkpt lat="46.56928" lon="5.24629">
        <ele>197</ele>
        <time>2022-06-23T06:27:23Z</time>
      </trkpt>
      <trkpt lat="46.56957" lon="5.24638">
        <ele>196.4</ele>
        <time>2022-06-23T06:27:27Z</time>
      </trkpt>
      <trkpt lat="46.56963" lon="5.24641">
        <ele>196.4</ele>
        <time>2022-06-23T06:27:28Z</time>
      </trkpt>
      <trkpt lat="46.56969" lon="5.24652">
        <ele>196</ele>
        <time>2022-06-23T06:27:30Z</time>
      </trkpt>
      <trkpt lat="46.56969" lon="5.2466">
        <ele>195.8</ele>
        <time>2022-06-23T06:27:31Z</time>
      </trkpt>
      <trkpt lat="46.56967" lon="5.24669">
        <ele>195.6</ele>
        <time>2022-06-23T06:27:32Z</time>
      </trkpt>
      <trkpt lat="46.56959" lon="5.24689">
        <ele>194.6</ele>
        <time>2022-06-23T06:27:34Z</time>
      </trkpt>
      <trkpt lat="46.56955" lon="5.24699">
        <ele>194.6</ele>
        <time>2022-06-23T06:27:35Z</time>
      </trkpt>
      <trkpt lat="46.56941" lon="5.24733">
        <ele>193.4</ele>
        <time>2022-06-23T06:27:38Z</time>
      </trkpt>
      <trkpt lat="46.56928" lon="5.24767">
        <ele>192.4</ele>
        <time>2022-06-23T06:27:41Z</time>
      </trkpt>
      <trkpt lat="46.56919" lon="5.24791">
        <ele>192.2</ele>
        <time>2022-06-23T06:27:43Z</time>
      </trkpt>
      <trkpt lat="46.56894" lon="5.24858">
        <ele>191.8</ele>
        <time>2022-06-23T06:27:49Z</time>
      </trkpt>
      <trkpt lat="46.56871" lon="5.24907">
        <ele>191.6</ele>
        <time>2022-06-23T06:27:54Z</time>
      </trkpt>
      <trkpt lat="46.56844" lon="5.24943">
        <ele>191.8</ele>
        <time>2022-06-23T06:27:59Z</time>
      </trkpt>
      <trkpt lat="46.56824" lon="5.24973">
        <ele>192.4</ele>
        <time>2022-06-23T06:28:03Z</time>
      </trkpt>
      <trkpt lat="46.5682" lon="5.24981">
        <ele>192.4</ele>
        <time>2022-06-23T06:28:04Z</time>
      </trkpt>
      <trkpt lat="46.56812" lon="5.25">
        <ele>192.6</ele>
        <time>2022-06-23T06:28:06Z</time>
      </trkpt>
      <trkpt lat="46.5681" lon="5.2501">
        <ele>192.6</ele>
        <time>2022-06-23T06:28:07Z</time>
      </trkpt>
      <trkpt lat="46.56807" lon="5.25031">
        <ele>192.6</ele>
        <time>2022-06-23T06:28:09Z</time>
      </trkpt>
      <trkpt lat="46.56807" lon="5.25042">
        <ele>192.6</ele>
        <time>2022-06-23T06:28:10Z</time>
      </trkpt>
      <trkpt lat="46.56803" lon="5.2511">
        <ele>192.2</ele>
        <time>2022-06-23T06:28:16Z</time>
      </trkpt>
      <trkpt lat="46.56801" lon="5.25122">
        <ele>192.2</ele>
        <time>2022-06-23T06:28:17Z</time>
      </trkpt>
      <trkpt lat="46.5679" lon="5.25165">
        <ele>191.6</ele>
        <time>2022-06-23T06:28:21Z</time>
      </trkpt>
      <trkpt lat="46.56783" lon="5.25198">
        <ele>191.4</ele>
        <time>2022-06-23T06:28:24Z</time>
      </trkpt>
      <trkpt lat="46.56782" lon="5.2521">
        <ele>191.2</ele>
        <time>2022-06-23T06:28:25Z</time>
      </trkpt>
      <trkpt lat="46.56781" lon="5.25222">
        <ele>191.2</ele>
        <time>2022-06-23T06:28:26Z</time>
      </trkpt>
      <trkpt lat="46.56782" lon="5.25258">
        <ele>190.8</ele>
        <time>2022-06-23T06:28:29Z</time>
      </trkpt>
      <trkpt lat="46.56784" lon="5.25269">
        <ele>190.6</ele>
        <time>2022-06-23T06:28:30Z</time>
      </trkpt>
      <trkpt lat="46.56788" lon="5.25292">
        <ele>190.4</ele>
        <time>2022-06-23T06:28:32Z</time>
      </trkpt>
      <trkpt lat="46.56796" lon="5.25326">
        <ele>190.2</ele>
        <time>2022-06-23T06:28:35Z</time>
      </trkpt>
      <trkpt lat="46.56799" lon="5.25337">
        <ele>190.2</ele>
        <time>2022-06-23T06:28:36Z</time>
      </trkpt>
      <trkpt lat="46.56811" lon="5.25404">
        <ele>189.8</ele>
        <time>2022-06-23T06:28:42Z</time>
      </trkpt>
      <trkpt lat="46.5681" lon="5.25449">
        <ele>189.4</ele>
        <time>2022-06-23T06:28:46Z</time>
      </trkpt>
      <trkpt lat="46.56795" lon="5.25499">
        <ele>189.4</ele>
        <time>2022-06-23T06:28:51Z</time>
      </trkpt>
      <trkpt lat="46.56787" lon="5.25518">
        <ele>189.4</ele>
        <time>2022-06-23T06:28:53Z</time>
      </trkpt>
      <trkpt lat="46.56778" lon="5.25542">
        <ele>189.4</ele>
        <time>2022-06-23T06:28:56Z</time>
      </trkpt>
      <trkpt lat="46.56773" lon="5.25552">
        <ele>189.4</ele>
        <time>2022-06-23T06:28:57Z</time>
      </trkpt>
      <trkpt lat="46.56758" lon="5.25584">
        <ele>189.8</ele>
        <time>2022-06-23T06:29:01Z</time>
      </trkpt>
      <trkpt lat="46.56725" lon="5.25634">
        <ele>190.2</ele>
        <time>2022-06-23T06:29:08Z</time>
      </trkpt>
      <trkpt lat="46.56678" lon="5.25689">
        <ele>190.8</ele>
        <time>2022-06-23T06:29:16Z</time>
      </trkpt>
      <trkpt lat="46.56649" lon="5.25721">
        <ele>191.4</ele>
        <time>2022-06-23T06:29:21Z</time>
      </trkpt>
      <trkpt lat="46.56632" lon="5.25742">
        <ele>191.8</ele>
        <time>2022-06-23T06:29:24Z</time>
      </trkpt>
      <trkpt lat="46.56587" lon="5.25795">
        <ele>192.2</ele>
        <time>2022-06-23T06:29:32Z</time>
      </trkpt>
      <trkpt lat="46.56581" lon="5.25802">
        <ele>192.2</ele>
        <time>2022-06-23T06:29:33Z</time>
      </trkpt>
      <trkpt lat="46.56557" lon="5.25827">
        <ele>192.4</ele>
        <time>2022-06-23T06:29:37Z</time>
      </trkpt>
      <trkpt lat="46.56532" lon="5.25852">
        <ele>192.6</ele>
        <time>2022-06-23T06:29:41Z</time>
      </trkpt>
      <trkpt lat="46.56526" lon="5.25858">
        <ele>192.6</ele>
        <time>2022-06-23T06:29:42Z</time>
      </trkpt>
      <trkpt lat="46.56475" lon="5.25907">
        <ele>192.6</ele>
        <time>2022-06-23T06:29:50Z</time>
      </trkpt>
      <trkpt lat="46.56429" lon="5.2595">
        <ele>192.8</ele>
        <time>2022-06-23T06:29:57Z</time>
      </trkpt>
      <trkpt lat="46.5641" lon="5.25969">
        <ele>192.8</ele>
        <time>2022-06-23T06:30:00Z</time>
      </trkpt>
      <trkpt lat="46.56359" lon="5.26018">
        <ele>192.8</ele>
        <time>2022-06-23T06:30:08Z</time>
      </trkpt>
      <trkpt lat="46.56346" lon="5.2603">
        <ele>192.8</ele>
        <time>2022-06-23T06:30:10Z</time>
      </trkpt>
      <trkpt lat="46.56301" lon="5.26072">
        <ele>193</ele>
        <time>2022-06-23T06:30:17Z</time>
      </trkpt>
      <trkpt lat="46.56251" lon="5.2612">
        <ele>193.6</ele>
        <time>2022-06-23T06:30:25Z</time>
      </trkpt>
      <trkpt lat="46.56244" lon="5.26126">
        <ele>193.6</ele>
        <time>2022-06-23T06:30:26Z</time>
      </trkpt>
      <trkpt lat="46.56202" lon="5.26166">
        <ele>194.2</ele>
        <time>2022-06-23T06:30:33Z</time>
      </trkpt>
      <trkpt lat="46.56177" lon="5.2619">
        <ele>194.6</ele>
        <time>2022-06-23T06:30:37Z</time>
      </trkpt>
      <trkpt lat="46.56159" lon="5.26204">
        <ele>194.8</ele>
        <time>2022-06-23T06:30:40Z</time>
      </trkpt>
      <trkpt lat="46.56146" lon="5.26211">
        <ele>194.8</ele>
        <time>2022-06-23T06:30:42Z</time>
      </trkpt>
      <trkpt lat="46.56139" lon="5.26214">
        <ele>194.8</ele>
        <time>2022-06-23T06:30:43Z</time>
      </trkpt>
      <trkpt lat="46.56125" lon="5.26215">
        <ele>194.8</ele>
        <time>2022-06-23T06:30:45Z</time>
      </trkpt>
      <trkpt lat="46.56116" lon="5.26213">
        <ele>195</ele>
        <time>2022-06-23T06:30:46Z</time>
      </trkpt>
      <trkpt lat="46.56066" lon="5.26202">
        <ele>195.6</ele>
        <time>2022-06-23T06:30:53Z</time>
      </trkpt>
      <trkpt lat="46.56061" lon="5.26201">
        <ele>195.8</ele>
        <time>2022-06-23T06:30:54Z</time>
      </trkpt>
      <trkpt lat="46.56025" lon="5.26198">
        <ele>196.6</ele>
        <time>2022-06-23T06:31:00Z</time>
      </trkpt>
      <trkpt lat="46.55999" lon="5.26198">
        <ele>198</ele>
        <time>2022-06-23T06:31:05Z</time>
      </trkpt>
      <trkpt lat="46.55989" lon="5.26198">
        <ele>198.2</ele>
        <time>2022-06-23T06:31:07Z</time>
      </trkpt>
      <trkpt lat="46.55978" lon="5.26197">
        <ele>198.6</ele>
        <time>2022-06-23T06:31:09Z</time>
      </trkpt>
      <trkpt lat="46.55969" lon="5.26196">
        <ele>199</ele>
        <time>2022-06-23T06:31:11Z</time>
      </trkpt>
      <trkpt lat="46.55954" lon="5.26196">
        <ele>199.4</ele>
        <time>2022-06-23T06:31:14Z</time>
      </trkpt>
      <trkpt lat="46.55945" lon="5.26196">
        <ele>200</ele>
        <time>2022-06-23T06:31:16Z</time>
      </trkpt>
      <trkpt lat="46.55922" lon="5.26197">
        <ele>201.4</ele>
        <time>2022-06-23T06:31:21Z</time>
      </trkpt>
      <trkpt lat="46.55918" lon="5.26198">
        <ele>201.6</ele>
        <time>2022-06-23T06:31:22Z</time>
      </trkpt>
      <trkpt lat="46.5591" lon="5.26197">
        <ele>202</ele>
        <time>2022-06-23T06:31:24Z</time>
      </trkpt>
      <trkpt lat="46.55904" lon="5.26198">
        <ele>202.4</ele>
        <time>2022-06-23T06:31:25Z</time>
      </trkpt>
      <trkpt lat="46.55894" lon="5.26199">
        <ele>203.4</ele>
        <time>2022-06-23T06:31:28Z</time>
      </trkpt>
      <trkpt lat="46.55889" lon="5.26199">
        <ele>203.4</ele>
        <time>2022-06-23T06:31:29Z</time>
      </trkpt>
      <trkpt lat="46.55877" lon="5.262">
        <ele>204.6</ele>
        <time>2022-06-23T06:31:32Z</time>
      </trkpt>
      <trkpt lat="46.55869" lon="5.26201">
        <ele>205.2</ele>
        <time>2022-06-23T06:31:34Z</time>
      </trkpt>
      <trkpt lat="46.55865" lon="5.26201">
        <ele>205.6</ele>
        <time>2022-06-23T06:31:35Z</time>
      </trkpt>
      <trkpt lat="46.55843" lon="5.26203">
        <ele>206.8</ele>
        <time>2022-06-23T06:31:40Z</time>
      </trkpt>
      <trkpt lat="46.55835" lon="5.26204">
        <ele>207.4</ele>
        <time>2022-06-23T06:31:42Z</time>
      </trkpt>
      <trkpt lat="46.55826" lon="5.26205">
        <ele>208</ele>
        <time>2022-06-23T06:31:44Z</time>
      </trkpt>
      <trkpt lat="46.55793" lon="5.26206">
        <ele>209</ele>
        <time>2022-06-23T06:31:51Z</time>
      </trkpt>
      <trkpt lat="46.55788" lon="5.26206">
        <ele>209</ele>
        <time>2022-06-23T06:31:52Z</time>
      </trkpt>
      <trkpt lat="46.55753" lon="5.26207">
        <ele>209.6</ele>
        <time>2022-06-23T06:31:58Z</time>
      </trkpt>
      <trkpt lat="46.55711" lon="5.26209">
        <ele>209.2</ele>
        <time>2022-06-23T06:32:05Z</time>
      </trkpt>
      <trkpt lat="46.55667" lon="5.26212">
        <ele>209</ele>
        <time>2022-06-23T06:32:12Z</time>
      </trkpt>
      <trkpt lat="46.55618" lon="5.26216">
        <ele>208.8</ele>
        <time>2022-06-23T06:32:20Z</time>
      </trkpt>
      <trkpt lat="46.55578" lon="5.26209">
        <ele>208.6</ele>
        <time>2022-06-23T06:32:26Z</time>
      </trkpt>
      <trkpt lat="46.5554" lon="5.26206">
        <ele>208.8</ele>
        <time>2022-06-23T06:32:32Z</time>
      </trkpt>
      <trkpt lat="46.55491" lon="5.26214">
        <ele>208.6</ele>
        <time>2022-06-23T06:32:39Z</time>
      </trkpt>
      <trkpt lat="46.55484" lon="5.26213">
        <ele>208.6</ele>
        <time>2022-06-23T06:32:40Z</time>
      </trkpt>
      <trkpt lat="46.5547" lon="5.2621">
        <ele>208.4</ele>
        <time>2022-06-23T06:32:42Z</time>
      </trkpt>
      <trkpt lat="46.5545" lon="5.26201">
        <ele>208.2</ele>
        <time>2022-06-23T06:32:45Z</time>
      </trkpt>
      <trkpt lat="46.55398" lon="5.26163">
        <ele>208.4</ele>
        <time>2022-06-23T06:32:54Z</time>
      </trkpt>
      <trkpt lat="46.55361" lon="5.26138">
        <ele>208.6</ele>
        <time>2022-06-23T06:33:00Z</time>
      </trkpt>
      <trkpt lat="46.55325" lon="5.26126">
        <ele>208.6</ele>
        <time>2022-06-23T06:33:05Z</time>
      </trkpt>
      <trkpt lat="46.55281" lon="5.26121">
        <ele>208.4</ele>
        <time>2022-06-23T06:33:11Z</time>
      </trkpt>
      <trkpt lat="46.55247" lon="5.26134">
        <ele>208.6</ele>
        <time>2022-06-23T06:33:16Z</time>
      </trkpt>
      <trkpt lat="46.5524" lon="5.26136">
        <ele>208.8</ele>
        <time>2022-06-23T06:33:17Z</time>
      </trkpt>
      <trkpt lat="46.55226" lon="5.26136">
        <ele>209</ele>
        <time>2022-06-23T06:33:19Z</time>
      </trkpt>
      <trkpt lat="46.55219" lon="5.26134">
        <ele>209</ele>
        <time>2022-06-23T06:33:20Z</time>
      </trkpt>
      <trkpt lat="46.55213" lon="5.26132">
        <ele>209</ele>
        <time>2022-06-23T06:33:21Z</time>
      </trkpt>
      <trkpt lat="46.55189" lon="5.26117">
        <ele>209.4</ele>
        <time>2022-06-23T06:33:25Z</time>
      </trkpt>
      <trkpt lat="46.5514" lon="5.26086">
        <ele>209.6</ele>
        <time>2022-06-23T06:33:32Z</time>
      </trkpt>
      <trkpt lat="46.55092" lon="5.26061">
        <ele>208.8</ele>
        <time>2022-06-23T06:33:38Z</time>
      </trkpt>
      <trkpt lat="46.55066" lon="5.26052">
        <ele>208</ele>
        <time>2022-06-23T06:33:41Z</time>
      </trkpt>
      <trkpt lat="46.5504" lon="5.26046">
        <ele>206.8</ele>
        <time>2022-06-23T06:33:44Z</time>
      </trkpt>
      <trkpt lat="46.5503" lon="5.26045">
        <ele>206.8</ele>
        <time>2022-06-23T06:33:45Z</time>
      </trkpt>
      <trkpt lat="46.55011" lon="5.26043">
        <ele>205.8</ele>
        <time>2022-06-23T06:33:47Z</time>
      </trkpt>
      <trkpt lat="46.54979" lon="5.2604">
        <ele>204.6</ele>
        <time>2022-06-23T06:33:50Z</time>
      </trkpt>
      <trkpt lat="46.54968" lon="5.26039">
        <ele>204.2</ele>
        <time>2022-06-23T06:33:51Z</time>
      </trkpt>
      <trkpt lat="46.54945" lon="5.26038">
        <ele>203</ele>
        <time>2022-06-23T06:33:53Z</time>
      </trkpt>
      <trkpt lat="46.5491" lon="5.26035">
        <ele>201.2</ele>
        <time>2022-06-23T06:33:56Z</time>
      </trkpt>
      <trkpt lat="46.54887" lon="5.26033">
        <ele>199.8</ele>
        <time>2022-06-23T06:33:58Z</time>
      </trkpt>
      <trkpt lat="46.54875" lon="5.26032">
        <ele>199.2</ele>
        <time>2022-06-23T06:33:59Z</time>
      </trkpt>
      <trkpt lat="46.54863" lon="5.2603">
        <ele>198.4</ele>
        <time>2022-06-23T06:34:00Z</time>
      </trkpt>
      <trkpt lat="46.54841" lon="5.26024">
        <ele>196.8</ele>
        <time>2022-06-23T06:34:02Z</time>
      </trkpt>
      <trkpt lat="46.5482" lon="5.26016">
        <ele>195.6</ele>
        <time>2022-06-23T06:34:04Z</time>
      </trkpt>
      <trkpt lat="46.54789" lon="5.26004">
        <ele>194.4</ele>
        <time>2022-06-23T06:34:07Z</time>
      </trkpt>
      <trkpt lat="46.54769" lon="5.25997">
        <ele>193.8</ele>
        <time>2022-06-23T06:34:09Z</time>
      </trkpt>
      <trkpt lat="46.54742" lon="5.2599">
        <ele>193.4</ele>
        <time>2022-06-23T06:34:12Z</time>
      </trkpt>
      <trkpt lat="46.54725" lon="5.25988">
        <ele>193.6</ele>
        <time>2022-06-23T06:34:14Z</time>
      </trkpt>
      <trkpt lat="46.54692" lon="5.25994">
        <ele>194</ele>
        <time>2022-06-23T06:34:18Z</time>
      </trkpt>
      <trkpt lat="46.54654" lon="5.25998">
        <ele>195</ele>
        <time>2022-06-23T06:34:23Z</time>
      </trkpt>
      <trkpt lat="46.54646" lon="5.25999">
        <ele>195.2</ele>
        <time>2022-06-23T06:34:24Z</time>
      </trkpt>
      <trkpt lat="46.54598" lon="5.26006">
        <ele>196</ele>
        <time>2022-06-23T06:34:30Z</time>
      </trkpt>
      <trkpt lat="46.54574" lon="5.26009">
        <ele>196.4</ele>
        <time>2022-06-23T06:34:33Z</time>
      </trkpt>
      <trkpt lat="46.54525" lon="5.26027">
        <ele>195.8</ele>
        <time>2022-06-23T06:34:39Z</time>
      </trkpt>
      <trkpt lat="46.54473" lon="5.2606">
        <ele>195.2</ele>
        <time>2022-06-23T06:34:46Z</time>
      </trkpt>
      <trkpt lat="46.54439" lon="5.2609">
        <ele>194.8</ele>
        <time>2022-06-23T06:34:51Z</time>
      </trkpt>
      <trkpt lat="46.54425" lon="5.26103">
        <ele>194.6</ele>
        <time>2022-06-23T06:34:53Z</time>
      </trkpt>
      <trkpt lat="46.54379" lon="5.26143">
        <ele>194</ele>
        <time>2022-06-23T06:35:00Z</time>
      </trkpt>
      <trkpt lat="46.54335" lon="5.26168">
        <ele>194.8</ele>
        <time>2022-06-23T06:35:07Z</time>
      </trkpt>
      <trkpt lat="46.54301" lon="5.26185">
        <ele>195.8</ele>
        <time>2022-06-23T06:35:13Z</time>
      </trkpt>
      <trkpt lat="46.54296" lon="5.26187">
        <ele>196</ele>
        <time>2022-06-23T06:35:14Z</time>
      </trkpt>
      <trkpt lat="46.5429" lon="5.26189">
        <ele>196.2</ele>
        <time>2022-06-23T06:35:15Z</time>
      </trkpt>
      <trkpt lat="46.54274" lon="5.26193">
        <ele>196.8</ele>
        <time>2022-06-23T06:35:18Z</time>
      </trkpt>
      <trkpt lat="46.54269" lon="5.26194">
        <ele>197</ele>
        <time>2022-06-23T06:35:19Z</time>
      </trkpt>
      <trkpt lat="46.54258" lon="5.26194">
        <ele>197.4</ele>
        <time>2022-06-23T06:35:21Z</time>
      </trkpt>
      <trkpt lat="46.54247" lon="5.2619">
        <ele>197.8</ele>
        <time>2022-06-23T06:35:23Z</time>
      </trkpt>
      <trkpt lat="46.54235" lon="5.26181">
        <ele>198.2</ele>
        <time>2022-06-23T06:35:26Z</time>
      </trkpt>
      <trkpt lat="46.54232" lon="5.26178">
        <ele>198.4</ele>
        <time>2022-06-23T06:35:27Z</time>
      </trkpt>
      <trkpt lat="46.54223" lon="5.26164">
        <ele>199.8</ele>
        <time>2022-06-23T06:35:31Z</time>
      </trkpt>
      <trkpt lat="46.5422" lon="5.2616">
        <ele>200</ele>
        <time>2022-06-23T06:35:32Z</time>
      </trkpt>
      <trkpt lat="46.54207" lon="5.26147">
        <ele>200.8</ele>
        <time>2022-06-23T06:35:35Z</time>
      </trkpt>
      <trkpt lat="46.54202" lon="5.26144">
        <ele>201</ele>
        <time>2022-06-23T06:35:36Z</time>
      </trkpt>
      <trkpt lat="46.54198" lon="5.26141">
        <ele>201.4</ele>
        <time>2022-06-23T06:35:37Z</time>
      </trkpt>
      <trkpt lat="46.54194" lon="5.26139">
        <ele>201.8</ele>
        <time>2022-06-23T06:35:38Z</time>
      </trkpt>
      <trkpt lat="46.5419" lon="5.26137">
        <ele>202</ele>
        <time>2022-06-23T06:35:39Z</time>
      </trkpt>
      <trkpt lat="46.54182" lon="5.26136">
        <ele>202.8</ele>
        <time>2022-06-23T06:35:41Z</time>
      </trkpt>
      <trkpt lat="46.54177" lon="5.26136">
        <ele>203.2</ele>
        <time>2022-06-23T06:35:42Z</time>
      </trkpt>
      <trkpt lat="46.54154" lon="5.26139">
        <ele>204.6</ele>
        <time>2022-06-23T06:35:47Z</time>
      </trkpt>
      <trkpt lat="46.54141" lon="5.26141">
        <ele>204.8</ele>
        <time>2022-06-23T06:35:50Z</time>
      </trkpt>
      <trkpt lat="46.54132" lon="5.26145">
        <ele>205</ele>
        <time>2022-06-23T06:35:52Z</time>
      </trkpt>
      <trkpt lat="46.54124" lon="5.26152">
        <ele>205.6</ele>
        <time>2022-06-23T06:35:54Z</time>
      </trkpt>
      <trkpt lat="46.54121" lon="5.26157">
        <ele>205.6</ele>
        <time>2022-06-23T06:35:55Z</time>
      </trkpt>
      <trkpt lat="46.54114" lon="5.26168">
        <ele>205.6</ele>
        <time>2022-06-23T06:35:57Z</time>
      </trkpt>
      <trkpt lat="46.54105" lon="5.26178">
        <ele>205.8</ele>
        <time>2022-06-23T06:35:59Z</time>
      </trkpt>
      <trkpt lat="46.54094" lon="5.26181">
        <ele>205.4</ele>
        <time>2022-06-23T06:36:01Z</time>
      </trkpt>
      <trkpt lat="46.54088" lon="5.2618">
        <ele>205.4</ele>
        <time>2022-06-23T06:36:02Z</time>
      </trkpt>
      <trkpt lat="46.54082" lon="5.26178">
        <ele>205.4</ele>
        <time>2022-06-23T06:36:03Z</time>
      </trkpt>
      <trkpt lat="46.54072" lon="5.26169">
        <ele>205.4</ele>
        <time>2022-06-23T06:36:05Z</time>
      </trkpt>
      <trkpt lat="46.54039" lon="5.26156">
        <ele>205.2</ele>
        <time>2022-06-23T06:36:11Z</time>
      </trkpt>
      <trkpt lat="46.53991" lon="5.26144">
        <ele>205.6</ele>
        <time>2022-06-23T06:36:19Z</time>
      </trkpt>
      <trkpt lat="46.53933" lon="5.26129">
        <ele>205.8</ele>
        <time>2022-06-23T06:36:28Z</time>
      </trkpt>
      <trkpt lat="46.53874" lon="5.26112">
        <ele>206</ele>
        <time>2022-06-23T06:36:37Z</time>
      </trkpt>
      <trkpt lat="46.5384" lon="5.26091">
        <ele>206.4</ele>
        <time>2022-06-23T06:36:43Z</time>
      </trkpt>
      <trkpt lat="46.53836" lon="5.26087">
        <ele>206.6</ele>
        <time>2022-06-23T06:36:44Z</time>
      </trkpt>
      <trkpt lat="46.53792" lon="5.26055">
        <ele>207.4</ele>
        <time>2022-06-23T06:36:52Z</time>
      </trkpt>
      <trkpt lat="46.53773" lon="5.26048">
        <ele>207.6</ele>
        <time>2022-06-23T06:36:55Z</time>
      </trkpt>
      <trkpt lat="46.53746" lon="5.2604">
        <ele>207.8</ele>
        <time>2022-06-23T06:36:59Z</time>
      </trkpt>
      <trkpt lat="46.53691" lon="5.26034">
        <ele>207.6</ele>
        <time>2022-06-23T06:37:07Z</time>
      </trkpt>
      <trkpt lat="46.53683" lon="5.26032">
        <ele>207.6</ele>
        <time>2022-06-23T06:37:08Z</time>
      </trkpt>
      <trkpt lat="46.53662" lon="5.26024">
        <ele>207.4</ele>
        <time>2022-06-23T06:37:11Z</time>
      </trkpt>
      <trkpt lat="46.5365" lon="5.26014">
        <ele>207.4</ele>
        <time>2022-06-23T06:37:13Z</time>
      </trkpt>
      <trkpt lat="46.53638" lon="5.25998">
        <ele>207.2</ele>
        <time>2022-06-23T06:37:15Z</time>
      </trkpt>
      <trkpt lat="46.5363" lon="5.25983">
        <ele>207.2</ele>
        <time>2022-06-23T06:37:17Z</time>
      </trkpt>
      <trkpt lat="46.53605" lon="5.2594">
        <ele>207.6</ele>
        <time>2022-06-23T06:37:23Z</time>
      </trkpt>
      <trkpt lat="46.53572" lon="5.25891">
        <ele>208.4</ele>
        <time>2022-06-23T06:37:31Z</time>
      </trkpt>
      <trkpt lat="46.53562" lon="5.25878">
        <ele>208.8</ele>
        <time>2022-06-23T06:37:33Z</time>
      </trkpt>
      <trkpt lat="46.53552" lon="5.25867">
        <ele>209.2</ele>
        <time>2022-06-23T06:37:35Z</time>
      </trkpt>
      <trkpt lat="46.53543" lon="5.25859">
        <ele>209.4</ele>
        <time>2022-06-23T06:37:37Z</time>
      </trkpt>
      <trkpt lat="46.53537" lon="5.25855">
        <ele>209.4</ele>
        <time>2022-06-23T06:37:38Z</time>
      </trkpt>
      <trkpt lat="46.53511" lon="5.25846">
        <ele>209</ele>
        <time>2022-06-23T06:37:42Z</time>
      </trkpt>
      <trkpt lat="46.53462" lon="5.25837">
        <ele>208.6</ele>
        <time>2022-06-23T06:37:48Z</time>
      </trkpt>
      <trkpt lat="46.53422" lon="5.25827">
        <ele>208</ele>
        <time>2022-06-23T06:37:53Z</time>
      </trkpt>
      <trkpt lat="46.53409" lon="5.2582">
        <ele>207.6</ele>
        <time>2022-06-23T06:37:55Z</time>
      </trkpt>
      <trkpt lat="46.5338" lon="5.25802">
        <ele>207.4</ele>
        <time>2022-06-23T06:37:59Z</time>
      </trkpt>
      <trkpt lat="46.53345" lon="5.25776">
        <ele>207.4</ele>
        <time>2022-06-23T06:38:05Z</time>
      </trkpt>
      <trkpt lat="46.53317" lon="5.25741">
        <ele>208.2</ele>
        <time>2022-06-23T06:38:11Z</time>
      </trkpt>
      <trkpt lat="46.53297" lon="5.25712">
        <ele>208.8</ele>
        <time>2022-06-23T06:38:16Z</time>
      </trkpt>
      <trkpt lat="46.53285" lon="5.25697">
        <ele>209.4</ele>
        <time>2022-06-23T06:38:19Z</time>
      </trkpt>
      <trkpt lat="46.53275" lon="5.25687">
        <ele>209.8</ele>
        <time>2022-06-23T06:38:21Z</time>
      </trkpt>
      <trkpt lat="46.53255" lon="5.25671">
        <ele>210.6</ele>
        <time>2022-06-23T06:38:25Z</time>
      </trkpt>
      <trkpt lat="46.53246" lon="5.25666">
        <ele>210.8</ele>
        <time>2022-06-23T06:38:27Z</time>
      </trkpt>
      <trkpt lat="46.53214" lon="5.25646">
        <ele>211.8</ele>
        <time>2022-06-23T06:38:33Z</time>
      </trkpt>
      <trkpt lat="46.53205" lon="5.25639">
        <ele>212</ele>
        <time>2022-06-23T06:38:35Z</time>
      </trkpt>
      <trkpt lat="46.53178" lon="5.25627">
        <ele>212.2</ele>
        <time>2022-06-23T06:38:40Z</time>
      </trkpt>
      <trkpt lat="46.53167" lon="5.25624">
        <ele>212.6</ele>
        <time>2022-06-23T06:38:42Z</time>
      </trkpt>
      <trkpt lat="46.53149" lon="5.25624">
        <ele>212.8</ele>
        <time>2022-06-23T06:38:45Z</time>
      </trkpt>
      <trkpt lat="46.53142" lon="5.25625">
        <ele>212.8</ele>
        <time>2022-06-23T06:38:46Z</time>
      </trkpt>
      <trkpt lat="46.53137" lon="5.25625">
        <ele>213</ele>
        <time>2022-06-23T06:38:47Z</time>
      </trkpt>
      <trkpt lat="46.53106" lon="5.25627">
        <ele>212.8</ele>
        <time>2022-06-23T06:38:52Z</time>
      </trkpt>
      <trkpt lat="46.53071" lon="5.25618">
        <ele>212.6</ele>
        <time>2022-06-23T06:38:58Z</time>
      </trkpt>
      <trkpt lat="46.53028" lon="5.25597">
        <ele>212.8</ele>
        <time>2022-06-23T06:39:05Z</time>
      </trkpt>
      <trkpt lat="46.52979" lon="5.25573">
        <ele>213.2</ele>
        <time>2022-06-23T06:39:13Z</time>
      </trkpt>
      <trkpt lat="46.5293" lon="5.2555">
        <ele>213</ele>
        <time>2022-06-23T06:39:21Z</time>
      </trkpt>
      <trkpt lat="46.52881" lon="5.25525">
        <ele>213</ele>
        <time>2022-06-23T06:39:29Z</time>
      </trkpt>
      <trkpt lat="46.52837" lon="5.25505">
        <ele>213.2</ele>
        <time>2022-06-23T06:39:36Z</time>
      </trkpt>
      <trkpt lat="46.52779" lon="5.25486">
        <ele>213.4</ele>
        <time>2022-06-23T06:39:45Z</time>
      </trkpt>
      <trkpt lat="46.52739" lon="5.25473">
        <ele>213.4</ele>
        <time>2022-06-23T06:39:52Z</time>
      </trkpt>
      <trkpt lat="46.52732" lon="5.25473">
        <ele>213.4</ele>
        <time>2022-06-23T06:39:53Z</time>
      </trkpt>
      <trkpt lat="46.52729" lon="5.25475">
        <ele>213.4</ele>
        <time>2022-06-23T06:39:54Z</time>
      </trkpt>
      <trkpt lat="46.52722" lon="5.25484">
        <ele>213.4</ele>
        <time>2022-06-23T06:39:56Z</time>
      </trkpt>
      <trkpt lat="46.5272" lon="5.25512">
        <ele>213.4</ele>
        <time>2022-06-23T06:39:59Z</time>
      </trkpt>
      <trkpt lat="46.52716" lon="5.25589">
        <ele>213.2</ele>
        <time>2022-06-23T06:40:06Z</time>
      </trkpt>
      <trkpt lat="46.52714" lon="5.25663">
        <ele>212.8</ele>
        <time>2022-06-23T06:40:13Z</time>
      </trkpt>
      <trkpt lat="46.52708" lon="5.25725">
        <ele>212.4</ele>
        <time>2022-06-23T06:40:19Z</time>
      </trkpt>
      <trkpt lat="46.527" lon="5.25753">
        <ele>211.8</ele>
        <time>2022-06-23T06:40:22Z</time>
      </trkpt>
      <trkpt lat="46.52691" lon="5.25792">
        <ele>211.6</ele>
        <time>2022-06-23T06:40:26Z</time>
      </trkpt>
      <trkpt lat="46.5269" lon="5.2584">
        <ele>210.8</ele>
        <time>2022-06-23T06:40:31Z</time>
      </trkpt>
      <trkpt lat="46.52688" lon="5.25874">
        <ele>210.6</ele>
        <time>2022-06-23T06:40:34Z</time>
      </trkpt>
      <trkpt lat="46.52686" lon="5.25888">
        <ele>210.6</ele>
        <time>2022-06-23T06:40:35Z</time>
      </trkpt>
      <trkpt lat="46.5268" lon="5.2591">
        <ele>210.4</ele>
        <time>2022-06-23T06:40:37Z</time>
      </trkpt>
      <trkpt lat="46.52675" lon="5.25921">
        <ele>209.8</ele>
        <time>2022-06-23T06:40:38Z</time>
      </trkpt>
      <trkpt lat="46.52669" lon="5.25933">
        <ele>209.6</ele>
        <time>2022-06-23T06:40:39Z</time>
      </trkpt>
      <trkpt lat="46.52657" lon="5.25945">
        <ele>208.8</ele>
        <time>2022-06-23T06:40:41Z</time>
      </trkpt>
      <trkpt lat="46.52646" lon="5.25948">
        <ele>207.8</ele>
        <time>2022-06-23T06:40:42Z</time>
      </trkpt>
      <trkpt lat="46.52625" lon="5.25953">
        <ele>206.6</ele>
        <time>2022-06-23T06:40:44Z</time>
      </trkpt>
      <trkpt lat="46.52617" lon="5.25959">
        <ele>206</ele>
        <time>2022-06-23T06:40:45Z</time>
      </trkpt>
      <trkpt lat="46.52609" lon="5.25969">
        <ele>205.6</ele>
        <time>2022-06-23T06:40:46Z</time>
      </trkpt>
      <trkpt lat="46.52602" lon="5.25981">
        <ele>204.8</ele>
        <time>2022-06-23T06:40:47Z</time>
      </trkpt>
      <trkpt lat="46.52597" lon="5.25995">
        <ele>204.4</ele>
        <time>2022-06-23T06:40:48Z</time>
      </trkpt>
      <trkpt lat="46.5259" lon="5.26025">
        <ele>203.2</ele>
        <time>2022-06-23T06:40:50Z</time>
      </trkpt>
      <trkpt lat="46.52585" lon="5.26053">
        <ele>201.2</ele>
        <time>2022-06-23T06:40:52Z</time>
      </trkpt>
      <trkpt lat="46.52579" lon="5.2608">
        <ele>200.2</ele>
        <time>2022-06-23T06:40:54Z</time>
      </trkpt>
      <trkpt lat="46.52575" lon="5.26092">
        <ele>199.6</ele>
        <time>2022-06-23T06:40:55Z</time>
      </trkpt>
      <trkpt lat="46.52569" lon="5.26105">
        <ele>198.8</ele>
        <time>2022-06-23T06:40:56Z</time>
      </trkpt>
      <trkpt lat="46.52561" lon="5.26112">
        <ele>197.8</ele>
        <time>2022-06-23T06:40:57Z</time>
      </trkpt>
      <trkpt lat="46.52554" lon="5.26115">
        <ele>197.6</ele>
        <time>2022-06-23T06:40:58Z</time>
      </trkpt>
      <trkpt lat="46.52545" lon="5.26117">
        <ele>197</ele>
        <time>2022-06-23T06:40:59Z</time>
      </trkpt>
      <trkpt lat="46.52536" lon="5.26118">
        <ele>196.4</ele>
        <time>2022-06-23T06:41:00Z</time>
      </trkpt>
      <trkpt lat="46.52526" lon="5.26119">
        <ele>195</ele>
        <time>2022-06-23T06:41:01Z</time>
      </trkpt>
      <trkpt lat="46.5251" lon="5.26126">
        <ele>193.8</ele>
        <time>2022-06-23T06:41:03Z</time>
      </trkpt>
      <trkpt lat="46.52504" lon="5.26134">
        <ele>193.4</ele>
        <time>2022-06-23T06:41:04Z</time>
      </trkpt>
      <trkpt lat="46.525" lon="5.26144">
        <ele>193.2</ele>
        <time>2022-06-23T06:41:05Z</time>
      </trkpt>
      <trkpt lat="46.52495" lon="5.26155">
        <ele>192.8</ele>
        <time>2022-06-23T06:41:06Z</time>
      </trkpt>
      <trkpt lat="46.52487" lon="5.26176">
        <ele>192.4</ele>
        <time>2022-06-23T06:41:08Z</time>
      </trkpt>
      <trkpt lat="46.52459" lon="5.26251">
        <ele>192</ele>
        <time>2022-06-23T06:41:15Z</time>
      </trkpt>
      <trkpt lat="46.52451" lon="5.26272">
        <ele>191.8</ele>
        <time>2022-06-23T06:41:17Z</time>
      </trkpt>
      <trkpt lat="46.52425" lon="5.26343">
        <ele>191.8</ele>
        <time>2022-06-23T06:41:24Z</time>
      </trkpt>
      <trkpt lat="46.52414" lon="5.26372">
        <ele>191.8</ele>
        <time>2022-06-23T06:41:27Z</time>
      </trkpt>
      <trkpt lat="46.52387" lon="5.26436">
        <ele>192</ele>
        <time>2022-06-23T06:41:34Z</time>
      </trkpt>
      <trkpt lat="46.52382" lon="5.26443">
        <ele>192.2</ele>
        <time>2022-06-23T06:41:35Z</time>
      </trkpt>
      <trkpt lat="46.52376" lon="5.26449">
        <ele>192.4</ele>
        <time>2022-06-23T06:41:36Z</time>
      </trkpt>
      <trkpt lat="46.52364" lon="5.26459">
        <ele>192.6</ele>
        <time>2022-06-23T06:41:38Z</time>
      </trkpt>
      <trkpt lat="46.52358" lon="5.26462">
        <ele>192.8</ele>
        <time>2022-06-23T06:41:39Z</time>
      </trkpt>
      <trkpt lat="46.52322" lon="5.26478">
        <ele>193.2</ele>
        <time>2022-06-23T06:41:45Z</time>
      </trkpt>
      <trkpt lat="46.52295" lon="5.26491">
        <ele>194.2</ele>
        <time>2022-06-23T06:41:50Z</time>
      </trkpt>
      <trkpt lat="46.52284" lon="5.26496">
        <ele>194.6</ele>
        <time>2022-06-23T06:41:52Z</time>
      </trkpt>
      <trkpt lat="46.52264" lon="5.26505">
        <ele>195.6</ele>
        <time>2022-06-23T06:41:56Z</time>
      </trkpt>
      <trkpt lat="46.52244" lon="5.26514">
        <ele>196.4</ele>
        <time>2022-06-23T06:42:00Z</time>
      </trkpt>
      <trkpt lat="46.52239" lon="5.26516">
        <ele>196.6</ele>
        <time>2022-06-23T06:42:01Z</time>
      </trkpt>
      <trkpt lat="46.52214" lon="5.26528">
        <ele>197.6</ele>
        <time>2022-06-23T06:42:06Z</time>
      </trkpt>
      <trkpt lat="46.522" lon="5.26536">
        <ele>198</ele>
        <time>2022-06-23T06:42:09Z</time>
      </trkpt>
      <trkpt lat="46.52186" lon="5.26549">
        <ele>198.6</ele>
        <time>2022-06-23T06:42:12Z</time>
      </trkpt>
      <trkpt lat="46.5218" lon="5.26554">
        <ele>198.6</ele>
        <time>2022-06-23T06:42:13Z</time>
      </trkpt>
      <trkpt lat="46.52173" lon="5.26565">
        <ele>199</ele>
        <time>2022-06-23T06:42:15Z</time>
      </trkpt>
      <trkpt lat="46.52169" lon="5.26571">
        <ele>199</ele>
        <time>2022-06-23T06:42:16Z</time>
      </trkpt>
      <trkpt lat="46.52154" lon="5.26597">
        <ele>199.6</ele>
        <time>2022-06-23T06:42:20Z</time>
      </trkpt>
      <trkpt lat="46.52144" lon="5.26618">
        <ele>199.8</ele>
        <time>2022-06-23T06:42:23Z</time>
      </trkpt>
      <trkpt lat="46.52127" lon="5.26644">
        <ele>200.2</ele>
        <time>2022-06-23T06:42:27Z</time>
      </trkpt>
      <trkpt lat="46.52117" lon="5.26656">
        <ele>200.4</ele>
        <time>2022-06-23T06:42:29Z</time>
      </trkpt>
      <trkpt lat="46.52103" lon="5.2667">
        <ele>200.6</ele>
        <time>2022-06-23T06:42:32Z</time>
      </trkpt>
      <trkpt lat="46.52081" lon="5.26689">
        <ele>201.4</ele>
        <time>2022-06-23T06:42:37Z</time>
      </trkpt>
      <trkpt lat="46.52068" lon="5.267">
        <ele>202</ele>
        <time>2022-06-23T06:42:40Z</time>
      </trkpt>
      <trkpt lat="46.52055" lon="5.26711">
        <ele>203</ele>
        <time>2022-06-23T06:42:44Z</time>
      </trkpt>
      <trkpt lat="46.52051" lon="5.26714">
        <ele>203.2</ele>
        <time>2022-06-23T06:42:45Z</time>
      </trkpt>
      <trkpt lat="46.52032" lon="5.26731">
        <ele>204.6</ele>
        <time>2022-06-23T06:42:50Z</time>
      </trkpt>
      <trkpt lat="46.52009" lon="5.26749">
        <ele>205.6</ele>
        <time>2022-06-23T06:42:56Z</time>
      </trkpt>
      <trkpt lat="46.52002" lon="5.26756">
        <ele>206</ele>
        <time>2022-06-23T06:42:58Z</time>
      </trkpt>
      <trkpt lat="46.5199" lon="5.26767">
        <ele>206.8</ele>
        <time>2022-06-23T06:43:01Z</time>
      </trkpt>
      <trkpt lat="46.51977" lon="5.26776">
        <ele>207.4</ele>
        <time>2022-06-23T06:43:04Z</time>
      </trkpt>
      <trkpt lat="46.51971" lon="5.26786">
        <ele>208</ele>
        <time>2022-06-23T06:43:06Z</time>
      </trkpt>
      <trkpt lat="46.51965" lon="5.26794">
        <ele>208.4</ele>
        <time>2022-06-23T06:43:08Z</time>
      </trkpt>
      <trkpt lat="46.51955" lon="5.26808">
        <ele>209.2</ele>
        <time>2022-06-23T06:43:11Z</time>
      </trkpt>
      <trkpt lat="46.5195" lon="5.26823">
        <ele>209.8</ele>
        <time>2022-06-23T06:43:14Z</time>
      </trkpt>
      <trkpt lat="46.51949" lon="5.26828">
        <ele>210</ele>
        <time>2022-06-23T06:43:15Z</time>
      </trkpt>
      <trkpt lat="46.51947" lon="5.26838">
        <ele>210.4</ele>
        <time>2022-06-23T06:43:17Z</time>
      </trkpt>
      <trkpt lat="46.51946" lon="5.26854">
        <ele>211</ele>
        <time>2022-06-23T06:43:20Z</time>
      </trkpt>
      <trkpt lat="46.51947" lon="5.2686">
        <ele>211.2</ele>
        <time>2022-06-23T06:43:21Z</time>
      </trkpt>
      <trkpt lat="46.51954" lon="5.26888">
        <ele>212.4</ele>
        <time>2022-06-23T06:43:26Z</time>
      </trkpt>
      <trkpt lat="46.51956" lon="5.26893">
        <ele>212.6</ele>
        <time>2022-06-23T06:43:27Z</time>
      </trkpt>
      <trkpt lat="46.51962" lon="5.26909">
        <ele>213.4</ele>
        <time>2022-06-23T06:43:30Z</time>
      </trkpt>
      <trkpt lat="46.51968" lon="5.26926">
        <ele>214.2</ele>
        <time>2022-06-23T06:43:33Z</time>
      </trkpt>
      <trkpt lat="46.51973" lon="5.2694">
        <ele>214.6</ele>
        <time>2022-06-23T06:43:36Z</time>
      </trkpt>
      <trkpt lat="46.5198" lon="5.2697">
        <ele>214.8</ele>
        <time>2022-06-23T06:43:40Z</time>
      </trkpt>
      <trkpt lat="46.51984" lon="5.26995">
        <ele>214.8</ele>
        <time>2022-06-23T06:43:43Z</time>
      </trkpt>
      <trkpt lat="46.51986" lon="5.27013">
        <ele>214.8</ele>
        <time>2022-06-23T06:43:45Z</time>
      </trkpt>
      <trkpt lat="46.51992" lon="5.27076">
        <ele>214.2</ele>
        <time>2022-06-23T06:43:51Z</time>
      </trkpt>
      <trkpt lat="46.52002" lon="5.27148">
        <ele>213.2</ele>
        <time>2022-06-23T06:43:57Z</time>
      </trkpt>
      <trkpt lat="46.52005" lon="5.2717">
        <ele>212.4</ele>
        <time>2022-06-23T06:43:59Z</time>
      </trkpt>
      <trkpt lat="46.52008" lon="5.27184">
        <ele>212</ele>
        <time>2022-06-23T06:44:00Z</time>
      </trkpt>
      <trkpt lat="46.52021" lon="5.2723">
        <ele>210.6</ele>
        <time>2022-06-23T06:44:04Z</time>
      </trkpt>
      <trkpt lat="46.52025" lon="5.27241">
        <ele>210.2</ele>
        <time>2022-06-23T06:44:05Z</time>
      </trkpt>
      <trkpt lat="46.52037" lon="5.27263">
        <ele>209.2</ele>
        <time>2022-06-23T06:44:07Z</time>
      </trkpt>
      <trkpt lat="46.52044" lon="5.27272">
        <ele>209</ele>
        <time>2022-06-23T06:44:08Z</time>
      </trkpt>
      <trkpt lat="46.5206" lon="5.27286">
        <ele>208.6</ele>
        <time>2022-06-23T06:44:10Z</time>
      </trkpt>
      <trkpt lat="46.52069" lon="5.27291">
        <ele>208</ele>
        <time>2022-06-23T06:44:11Z</time>
      </trkpt>
      <trkpt lat="46.52096" lon="5.27305">
        <ele>207.4</ele>
        <time>2022-06-23T06:44:14Z</time>
      </trkpt>
      <trkpt lat="46.52106" lon="5.27314">
        <ele>207.2</ele>
        <time>2022-06-23T06:44:15Z</time>
      </trkpt>
      <trkpt lat="46.52112" lon="5.27322">
        <ele>206.6</ele>
        <time>2022-06-23T06:44:16Z</time>
      </trkpt>
      <trkpt lat="46.52124" lon="5.27347">
        <ele>205.8</ele>
        <time>2022-06-23T06:44:18Z</time>
      </trkpt>
      <trkpt lat="46.52125" lon="5.27376">
        <ele>205.2</ele>
        <time>2022-06-23T06:44:20Z</time>
      </trkpt>
      <trkpt lat="46.52119" lon="5.27407">
        <ele>204.2</ele>
        <time>2022-06-23T06:44:22Z</time>
      </trkpt>
      <trkpt lat="46.52115" lon="5.27418">
        <ele>203.6</ele>
        <time>2022-06-23T06:44:23Z</time>
      </trkpt>
      <trkpt lat="46.52099" lon="5.27454">
        <ele>202.6</ele>
        <time>2022-06-23T06:44:26Z</time>
      </trkpt>
      <trkpt lat="46.52084" lon="5.27478">
        <ele>201.4</ele>
        <time>2022-06-23T06:44:28Z</time>
      </trkpt>
      <trkpt lat="46.52059" lon="5.27508">
        <ele>200.4</ele>
        <time>2022-06-23T06:44:31Z</time>
      </trkpt>
      <trkpt lat="46.52036" lon="5.27535">
        <ele>199.2</ele>
        <time>2022-06-23T06:44:34Z</time>
      </trkpt>
      <trkpt lat="46.52028" lon="5.27545">
        <ele>198.8</ele>
        <time>2022-06-23T06:44:35Z</time>
      </trkpt>
      <trkpt lat="46.52012" lon="5.27565">
        <ele>198</ele>
        <time>2022-06-23T06:44:37Z</time>
      </trkpt>
      <trkpt lat="46.51982" lon="5.27603">
        <ele>196.8</ele>
        <time>2022-06-23T06:44:41Z</time>
      </trkpt>
      <trkpt lat="46.51961" lon="5.27631">
        <ele>196</ele>
        <time>2022-06-23T06:44:44Z</time>
      </trkpt>
      <trkpt lat="46.51929" lon="5.2767">
        <ele>195.8</ele>
        <time>2022-06-23T06:44:49Z</time>
      </trkpt>
      <trkpt lat="46.51895" lon="5.27707">
        <ele>196.6</ele>
        <time>2022-06-23T06:44:55Z</time>
      </trkpt>
      <trkpt lat="46.51885" lon="5.27717">
        <ele>196.8</ele>
        <time>2022-06-23T06:44:57Z</time>
      </trkpt>
      <trkpt lat="46.5186" lon="5.27741">
        <ele>198</ele>
        <time>2022-06-23T06:45:02Z</time>
      </trkpt>
      <trkpt lat="46.51855" lon="5.27746">
        <ele>198</ele>
        <time>2022-06-23T06:45:03Z</time>
      </trkpt>
      <trkpt lat="46.51833" lon="5.27771">
        <ele>199</ele>
        <time>2022-06-23T06:45:08Z</time>
      </trkpt>
      <trkpt lat="46.51828" lon="5.27776">
        <ele>199.4</ele>
        <time>2022-06-23T06:45:09Z</time>
      </trkpt>
      <trkpt lat="46.51815" lon="5.27789">
        <ele>200</ele>
        <time>2022-06-23T06:45:12Z</time>
      </trkpt>
      <trkpt lat="46.51793" lon="5.2781">
        <ele>201.2</ele>
        <time>2022-06-23T06:45:17Z</time>
      </trkpt>
      <trkpt lat="46.51789" lon="5.27814">
        <ele>201.4</ele>
        <time>2022-06-23T06:45:18Z</time>
      </trkpt>
      <trkpt lat="46.51774" lon="5.27832">
        <ele>202.4</ele>
        <time>2022-06-23T06:45:22Z</time>
      </trkpt>
      <trkpt lat="46.51753" lon="5.27852">
        <ele>203.2</ele>
        <time>2022-06-23T06:45:27Z</time>
      </trkpt>
      <trkpt lat="46.51749" lon="5.27856">
        <ele>203.4</ele>
        <time>2022-06-23T06:45:28Z</time>
      </trkpt>
      <trkpt lat="46.51729" lon="5.27877">
        <ele>204.4</ele>
        <time>2022-06-23T06:45:33Z</time>
      </trkpt>
      <trkpt lat="46.51708" lon="5.27898">
        <ele>205.6</ele>
        <time>2022-06-23T06:45:38Z</time>
      </trkpt>
      <trkpt lat="46.51685" lon="5.2792">
        <ele>206.6</ele>
        <time>2022-06-23T06:45:43Z</time>
      </trkpt>
      <trkpt lat="46.51659" lon="5.27948">
        <ele>207.6</ele>
        <time>2022-06-23T06:45:49Z</time>
      </trkpt>
      <trkpt lat="46.51618" lon="5.2799">
        <ele>208.4</ele>
        <time>2022-06-23T06:45:58Z</time>
      </trkpt>
      <trkpt lat="46.51594" lon="5.28028">
        <ele>208.6</ele>
        <time>2022-06-23T06:46:04Z</time>
      </trkpt>
      <trkpt lat="46.51587" lon="5.28046">
        <ele>208.6</ele>
        <time>2022-06-23T06:46:06Z</time>
      </trkpt>
      <trkpt lat="46.51577" lon="5.28075">
        <ele>208.2</ele>
        <time>2022-06-23T06:46:09Z</time>
      </trkpt>
      <trkpt lat="46.51562" lon="5.28128">
        <ele>207</ele>
        <time>2022-06-23T06:46:14Z</time>
      </trkpt>
      <trkpt lat="46.51555" lon="5.28151">
        <ele>206.6</ele>
        <time>2022-06-23T06:46:16Z</time>
      </trkpt>
      <trkpt lat="46.51536" lon="5.28208">
        <ele>205.2</ele>
        <time>2022-06-23T06:46:21Z</time>
      </trkpt>
      <trkpt lat="46.51532" lon="5.28219">
        <ele>205</ele>
        <time>2022-06-23T06:46:22Z</time>
      </trkpt>
      <trkpt lat="46.51518" lon="5.28254">
        <ele>203.8</ele>
        <time>2022-06-23T06:46:25Z</time>
      </trkpt>
      <trkpt lat="46.51506" lon="5.28276">
        <ele>203</ele>
        <time>2022-06-23T06:46:27Z</time>
      </trkpt>
      <trkpt lat="46.51495" lon="5.28297">
        <ele>202.2</ele>
        <time>2022-06-23T06:46:29Z</time>
      </trkpt>
      <trkpt lat="46.51477" lon="5.2833">
        <ele>201.2</ele>
        <time>2022-06-23T06:46:32Z</time>
      </trkpt>
      <trkpt lat="46.51461" lon="5.28364">
        <ele>200.4</ele>
        <time>2022-06-23T06:46:35Z</time>
      </trkpt>
      <trkpt lat="46.51454" lon="5.28378">
        <ele>200</ele>
        <time>2022-06-23T06:46:36Z</time>
      </trkpt>
      <trkpt lat="46.51437" lon="5.2841">
        <ele>198.6</ele>
        <time>2022-06-23T06:46:39Z</time>
      </trkpt>
      <trkpt lat="46.51432" lon="5.28421">
        <ele>198.2</ele>
        <time>2022-06-23T06:46:40Z</time>
      </trkpt>
      <trkpt lat="46.51421" lon="5.28447">
        <ele>197.6</ele>
        <time>2022-06-23T06:46:42Z</time>
      </trkpt>
      <trkpt lat="46.51418" lon="5.28457">
        <ele>197</ele>
        <time>2022-06-23T06:46:43Z</time>
      </trkpt>
      <trkpt lat="46.51416" lon="5.28471">
        <ele>196.6</ele>
        <time>2022-06-23T06:46:44Z</time>
      </trkpt>
      <trkpt lat="46.51417" lon="5.28487">
        <ele>196.6</ele>
        <time>2022-06-23T06:46:45Z</time>
      </trkpt>
      <trkpt lat="46.51419" lon="5.28501">
        <ele>196.2</ele>
        <time>2022-06-23T06:46:46Z</time>
      </trkpt>
      <trkpt lat="46.51431" lon="5.28536">
        <ele>195</ele>
        <time>2022-06-23T06:46:49Z</time>
      </trkpt>
      <trkpt lat="46.51443" lon="5.28571">
        <ele>194.4</ele>
        <time>2022-06-23T06:46:52Z</time>
      </trkpt>
      <trkpt lat="46.51456" lon="5.28608">
        <ele>194</ele>
        <time>2022-06-23T06:46:55Z</time>
      </trkpt>
      <trkpt lat="46.51471" lon="5.2865">
        <ele>193.6</ele>
        <time>2022-06-23T06:46:59Z</time>
      </trkpt>
      <trkpt lat="46.51495" lon="5.28725">
        <ele>193.2</ele>
        <time>2022-06-23T06:47:06Z</time>
      </trkpt>
      <trkpt lat="46.51506" lon="5.28776">
        <ele>193.2</ele>
        <time>2022-06-23T06:47:11Z</time>
      </trkpt>
      <trkpt lat="46.51508" lon="5.28821">
        <ele>193.2</ele>
        <time>2022-06-23T06:47:15Z</time>
      </trkpt>
      <trkpt lat="46.51507" lon="5.28835">
        <ele>193.4</ele>
        <time>2022-06-23T06:47:16Z</time>
      </trkpt>
      <trkpt lat="46.5149" lon="5.28921">
        <ele>193</ele>
        <time>2022-06-23T06:47:24Z</time>
      </trkpt>
      <trkpt lat="46.51477" lon="5.28994">
        <ele>193</ele>
        <time>2022-06-23T06:47:31Z</time>
      </trkpt>
      <trkpt lat="46.51464" lon="5.29071">
        <ele>194</ele>
        <time>2022-06-23T06:47:39Z</time>
      </trkpt>
      <trkpt lat="46.51462" lon="5.29081">
        <ele>194</ele>
        <time>2022-06-23T06:47:40Z</time>
      </trkpt>
      <trkpt lat="46.51448" lon="5.29164">
        <ele>194.6</ele>
        <time>2022-06-23T06:47:49Z</time>
      </trkpt>
      <trkpt lat="46.51446" lon="5.29174">
        <ele>194.8</ele>
        <time>2022-06-23T06:47:50Z</time>
      </trkpt>
      <trkpt lat="46.51441" lon="5.29201">
        <ele>195</ele>
        <time>2022-06-23T06:47:53Z</time>
      </trkpt>
      <trkpt lat="46.51442" lon="5.2921">
        <ele>195</ele>
        <time>2022-06-23T06:47:54Z</time>
      </trkpt>
      <trkpt lat="46.51444" lon="5.29216">
        <ele>195</ele>
        <time>2022-06-23T06:47:55Z</time>
      </trkpt>
      <trkpt lat="46.51449" lon="5.29215">
        <ele>195.2</ele>
        <time>2022-06-23T06:47:57Z</time>
      </trkpt>
      <trkpt lat="46.5147" lon="5.29194">
        <ele>195.8</ele>
        <time>2022-06-23T06:48:01Z</time>
      </trkpt>
      <trkpt lat="46.51476" lon="5.29189">
        <ele>196.2</ele>
        <time>2022-06-23T06:48:02Z</time>
      </trkpt>
      <trkpt lat="46.51496" lon="5.29172">
        <ele>197.2</ele>
        <time>2022-06-23T06:48:06Z</time>
      </trkpt>
      <trkpt lat="46.51506" lon="5.29164">
        <ele>197.6</ele>
        <time>2022-06-23T06:48:08Z</time>
      </trkpt>
      <trkpt lat="46.51519" lon="5.29153">
        <ele>198.4</ele>
        <time>2022-06-23T06:48:11Z</time>
      </trkpt>
      <trkpt lat="46.51536" lon="5.29137">
        <ele>199.4</ele>
        <time>2022-06-23T06:48:15Z</time>
      </trkpt>
      <trkpt lat="46.51541" lon="5.29132">
        <ele>199.6</ele>
        <time>2022-06-23T06:48:16Z</time>
      </trkpt>
      <trkpt lat="46.51555" lon="5.29121">
        <ele>200.6</ele>
        <time>2022-06-23T06:48:19Z</time>
      </trkpt>
      <trkpt lat="46.51575" lon="5.29107">
        <ele>201.8</ele>
        <time>2022-06-23T06:48:24Z</time>
      </trkpt>
      <trkpt lat="46.5159" lon="5.29094">
        <ele>202.6</ele>
        <time>2022-06-23T06:48:28Z</time>
      </trkpt>
      <trkpt lat="46.51597" lon="5.2909">
        <ele>203.2</ele>
        <time>2022-06-23T06:48:30Z</time>
      </trkpt>
      <trkpt lat="46.51603" lon="5.29093">
        <ele>203.8</ele>
        <time>2022-06-23T06:48:32Z</time>
      </trkpt>
      <trkpt lat="46.51604" lon="5.29097">
        <ele>204</ele>
        <time>2022-06-23T06:48:33Z</time>
      </trkpt>
      <trkpt lat="46.51605" lon="5.29107">
        <ele>205</ele>
        <time>2022-06-23T06:48:35Z</time>
      </trkpt>
      <trkpt lat="46.51604" lon="5.29119">
        <ele>205.8</ele>
        <time>2022-06-23T06:48:37Z</time>
      </trkpt>
      <trkpt lat="46.51604" lon="5.29126">
        <ele>206.2</ele>
        <time>2022-06-23T06:48:38Z</time>
      </trkpt>
      <trkpt lat="46.51605" lon="5.29139">
        <ele>206.8</ele>
        <time>2022-06-23T06:48:40Z</time>
      </trkpt>
      <trkpt lat="46.51606" lon="5.29146">
        <ele>207.2</ele>
        <time>2022-06-23T06:48:41Z</time>
      </trkpt>
      <trkpt lat="46.51607" lon="5.29153">
        <ele>207.4</ele>
        <time>2022-06-23T06:48:42Z</time>
      </trkpt>
      <trkpt lat="46.51612" lon="5.2918">
        <ele>208.4</ele>
        <time>2022-06-23T06:48:46Z</time>
      </trkpt>
      <trkpt lat="46.51613" lon="5.29193">
        <ele>208.6</ele>
        <time>2022-06-23T06:48:48Z</time>
      </trkpt>
      <trkpt lat="46.51612" lon="5.29233">
        <ele>209.4</ele>
        <time>2022-06-23T06:48:54Z</time>
      </trkpt>
      <trkpt lat="46.51611" lon="5.29247">
        <ele>210.4</ele>
        <time>2022-06-23T06:48:56Z</time>
      </trkpt>
      <trkpt lat="46.5161" lon="5.29254">
        <ele>210.6</ele>
        <time>2022-06-23T06:48:57Z</time>
      </trkpt>
      <trkpt lat="46.51604" lon="5.29295">
        <ele>211.6</ele>
        <time>2022-06-23T06:49:03Z</time>
      </trkpt>
      <trkpt lat="46.51602" lon="5.29316">
        <ele>212</ele>
        <time>2022-06-23T06:49:06Z</time>
      </trkpt>
      <trkpt lat="46.51599" lon="5.29352">
        <ele>212.8</ele>
        <time>2022-06-23T06:49:11Z</time>
      </trkpt>
      <trkpt lat="46.51599" lon="5.29359">
        <ele>213</ele>
        <time>2022-06-23T06:49:12Z</time>
      </trkpt>
      <trkpt lat="46.51598" lon="5.29368">
        <ele>213</ele>
        <time>2022-06-23T06:49:13Z</time>
      </trkpt>
      <trkpt lat="46.51597" lon="5.29421">
        <ele>213.4</ele>
        <time>2022-06-23T06:49:19Z</time>
      </trkpt>
      <trkpt lat="46.51599" lon="5.29481">
        <ele>213.4</ele>
        <time>2022-06-23T06:49:25Z</time>
      </trkpt>
      <trkpt lat="46.51596" lon="5.29511">
        <ele>213</ele>
        <time>2022-06-23T06:49:28Z</time>
      </trkpt>
      <trkpt lat="46.5159" lon="5.2954">
        <ele>212.8</ele>
        <time>2022-06-23T06:49:31Z</time>
      </trkpt>
      <trkpt lat="46.51574" lon="5.29603">
        <ele>211.8</ele>
        <time>2022-06-23T06:49:37Z</time>
      </trkpt>
      <trkpt lat="46.51573" lon="5.29614">
        <ele>211.6</ele>
        <time>2022-06-23T06:49:38Z</time>
      </trkpt>
      <trkpt lat="46.51573" lon="5.29626">
        <ele>211.4</ele>
        <time>2022-06-23T06:49:39Z</time>
      </trkpt>
      <trkpt lat="46.51572" lon="5.29664">
        <ele>210.6</ele>
        <time>2022-06-23T06:49:42Z</time>
      </trkpt>
      <trkpt lat="46.5157" lon="5.29675">
        <ele>210.6</ele>
        <time>2022-06-23T06:49:43Z</time>
      </trkpt>
      <trkpt lat="46.51567" lon="5.2969">
        <ele>210</ele>
        <time>2022-06-23T06:49:44Z</time>
      </trkpt>
      <trkpt lat="46.51559" lon="5.29715">
        <ele>209.4</ele>
        <time>2022-06-23T06:49:46Z</time>
      </trkpt>
      <trkpt lat="46.51551" lon="5.2974">
        <ele>208.4</ele>
        <time>2022-06-23T06:49:48Z</time>
      </trkpt>
      <trkpt lat="46.51544" lon="5.29765">
        <ele>207.4</ele>
        <time>2022-06-23T06:49:50Z</time>
      </trkpt>
      <trkpt lat="46.51534" lon="5.29797">
        <ele>206.4</ele>
        <time>2022-06-23T06:49:53Z</time>
      </trkpt>
      <trkpt lat="46.51523" lon="5.29837">
        <ele>206.4</ele>
        <time>2022-06-23T06:49:58Z</time>
      </trkpt>
      <trkpt lat="46.51513" lon="5.29871">
        <ele>208.2</ele>
        <time>2022-06-23T06:50:03Z</time>
      </trkpt>
      <trkpt lat="46.51503" lon="5.29895">
        <ele>208.4</ele>
        <time>2022-06-23T06:50:06Z</time>
      </trkpt>
      <trkpt lat="46.5149" lon="5.29928">
        <ele>208.8</ele>
        <time>2022-06-23T06:50:10Z</time>
      </trkpt>
      <trkpt lat="46.5147" lon="5.29992">
        <ele>209.2</ele>
        <time>2022-06-23T06:50:17Z</time>
      </trkpt>
      <trkpt lat="46.51446" lon="5.30072">
        <ele>209</ele>
        <time>2022-06-23T06:50:25Z</time>
      </trkpt>
      <trkpt lat="46.51428" lon="5.30132">
        <ele>207.2</ele>
        <time>2022-06-23T06:50:30Z</time>
      </trkpt>
      <trkpt lat="46.5142" lon="5.30158">
        <ele>206.6</ele>
        <time>2022-06-23T06:50:32Z</time>
      </trkpt>
      <trkpt lat="46.51416" lon="5.30171">
        <ele>205.8</ele>
        <time>2022-06-23T06:50:33Z</time>
      </trkpt>
      <trkpt lat="46.514" lon="5.3021">
        <ele>204.6</ele>
        <time>2022-06-23T06:50:36Z</time>
      </trkpt>
      <trkpt lat="46.51391" lon="5.30235">
        <ele>203.8</ele>
        <time>2022-06-23T06:50:38Z</time>
      </trkpt>
      <trkpt lat="46.51388" lon="5.30249">
        <ele>203.2</ele>
        <time>2022-06-23T06:50:39Z</time>
      </trkpt>
      <trkpt lat="46.51387" lon="5.30262">
        <ele>202.8</ele>
        <time>2022-06-23T06:50:40Z</time>
      </trkpt>
      <trkpt lat="46.51389" lon="5.30274">
        <ele>202.4</ele>
        <time>2022-06-23T06:50:41Z</time>
      </trkpt>
      <trkpt lat="46.51392" lon="5.30286">
        <ele>201.2</ele>
        <time>2022-06-23T06:50:42Z</time>
      </trkpt>
      <trkpt lat="46.51405" lon="5.30319">
        <ele>200.4</ele>
        <time>2022-06-23T06:50:45Z</time>
      </trkpt>
      <trkpt lat="46.51408" lon="5.3033">
        <ele>200.2</ele>
        <time>2022-06-23T06:50:46Z</time>
      </trkpt>
      <trkpt lat="46.51424" lon="5.30371">
        <ele>199.8</ele>
        <time>2022-06-23T06:50:50Z</time>
      </trkpt>
      <trkpt lat="46.51428" lon="5.30381">
        <ele>199.8</ele>
        <time>2022-06-23T06:50:51Z</time>
      </trkpt>
      <trkpt lat="46.51454" lon="5.30452">
        <ele>199.8</ele>
        <time>2022-06-23T06:50:58Z</time>
      </trkpt>
      <trkpt lat="46.51474" lon="5.30524">
        <ele>199.4</ele>
        <time>2022-06-23T06:51:05Z</time>
      </trkpt>
      <trkpt lat="46.51485" lon="5.30589">
        <ele>199.4</ele>
        <time>2022-06-23T06:51:11Z</time>
      </trkpt>
      <trkpt lat="46.51501" lon="5.30634">
        <ele>199.6</ele>
        <time>2022-06-23T06:51:16Z</time>
      </trkpt>
      <trkpt lat="46.51536" lon="5.30689">
        <ele>199.8</ele>
        <time>2022-06-23T06:51:23Z</time>
      </trkpt>
      <trkpt lat="46.51578" lon="5.30753">
        <ele>199.6</ele>
        <time>2022-06-23T06:51:31Z</time>
      </trkpt>
      <trkpt lat="46.51586" lon="5.30768">
        <ele>199.6</ele>
        <time>2022-06-23T06:51:33Z</time>
      </trkpt>
      <trkpt lat="46.516" lon="5.30792">
        <ele>199.6</ele>
        <time>2022-06-23T06:51:36Z</time>
      </trkpt>
      <trkpt lat="46.51621" lon="5.30844">
        <ele>199.6</ele>
        <time>2022-06-23T06:51:42Z</time>
      </trkpt>
      <trkpt lat="46.51633" lon="5.30888">
        <ele>200.4</ele>
        <time>2022-06-23T06:51:47Z</time>
      </trkpt>
      <trkpt lat="46.51635" lon="5.30904">
        <ele>200.8</ele>
        <time>2022-06-23T06:51:49Z</time>
      </trkpt>
      <trkpt lat="46.51638" lon="5.30922">
        <ele>201.2</ele>
        <time>2022-06-23T06:51:51Z</time>
      </trkpt>
      <trkpt lat="46.51638" lon="5.3093">
        <ele>201.2</ele>
        <time>2022-06-23T06:51:52Z</time>
      </trkpt>
      <trkpt lat="46.51641" lon="5.30946">
        <ele>201.6</ele>
        <time>2022-06-23T06:51:54Z</time>
      </trkpt>
      <trkpt lat="46.51645" lon="5.3097">
        <ele>202.4</ele>
        <time>2022-06-23T06:51:57Z</time>
      </trkpt>
      <trkpt lat="46.51651" lon="5.30999">
        <ele>203.4</ele>
        <time>2022-06-23T06:52:01Z</time>
      </trkpt>
      <trkpt lat="46.51652" lon="5.31007">
        <ele>203.4</ele>
        <time>2022-06-23T06:52:02Z</time>
      </trkpt>
      <trkpt lat="46.51656" lon="5.3103">
        <ele>204.6</ele>
        <time>2022-06-23T06:52:05Z</time>
      </trkpt>
      <trkpt lat="46.51662" lon="5.31067">
        <ele>205.6</ele>
        <time>2022-06-23T06:52:10Z</time>
      </trkpt>
      <trkpt lat="46.51665" lon="5.31081">
        <ele>206</ele>
        <time>2022-06-23T06:52:12Z</time>
      </trkpt>
      <trkpt lat="46.51667" lon="5.31093">
        <ele>206</ele>
        <time>2022-06-23T06:52:14Z</time>
      </trkpt>
      <trkpt lat="46.5167" lon="5.31107">
        <ele>206.4</ele>
        <time>2022-06-23T06:52:17Z</time>
      </trkpt>
      <trkpt lat="46.51672" lon="5.31108">
        <ele>206.4</ele>
        <time>2022-06-23T06:52:18Z</time>
      </trkpt>
      <trkpt lat="46.51674" lon="5.31104">
        <ele>206.4</ele>
        <time>2022-06-23T06:52:20Z</time>
      </trkpt>
      <trkpt lat="46.51669" lon="5.31098">
        <ele>206.4</ele>
        <time>2022-06-23T06:52:22Z</time>
      </trkpt>
      <trkpt lat="46.51664" lon="5.31097">
        <ele>206.4</ele>
        <time>2022-06-23T06:52:23Z</time>
      </trkpt>
      <trkpt lat="46.5166" lon="5.31097">
        <ele>206.4</ele>
        <time>2022-06-23T06:52:24Z</time>
      </trkpt>
      <trkpt lat="46.51644" lon="5.31102">
        <ele>206.4</ele>
        <time>2022-06-23T06:52:27Z</time>
      </trkpt>
      <trkpt lat="46.51632" lon="5.311">
        <ele>206.4</ele>
        <time>2022-06-23T06:52:29Z</time>
      </trkpt>
      <trkpt lat="46.51618" lon="5.31093">
        <ele>206.2</ele>
        <time>2022-06-23T06:52:31Z</time>
      </trkpt>
      <trkpt lat="46.51573" lon="5.31074">
        <ele>205.2</ele>
        <time>2022-06-23T06:52:37Z</time>
      </trkpt>
      <trkpt lat="46.51517" lon="5.31069">
        <ele>204.8</ele>
        <time>2022-06-23T06:52:44Z</time>
      </trkpt>
      <trkpt lat="46.5151" lon="5.31069">
        <ele>204.6</ele>
        <time>2022-06-23T06:52:45Z</time>
      </trkpt>
      <trkpt lat="46.51494" lon="5.31068">
        <ele>204.6</ele>
        <time>2022-06-23T06:52:47Z</time>
      </trkpt>
      <trkpt lat="46.51457" lon="5.31065">
        <ele>204.2</ele>
        <time>2022-06-23T06:52:52Z</time>
      </trkpt>
      <trkpt lat="46.51398" lon="5.31068">
        <ele>204.2</ele>
        <time>2022-06-23T06:53:00Z</time>
      </trkpt>
      <trkpt lat="46.51376" lon="5.31069">
        <ele>204</ele>
        <time>2022-06-23T06:53:03Z</time>
      </trkpt>
      <trkpt lat="46.51316" lon="5.31072">
        <ele>204</ele>
        <time>2022-06-23T06:53:11Z</time>
      </trkpt>
      <trkpt lat="46.51292" lon="5.31073">
        <ele>204</ele>
        <time>2022-06-23T06:53:14Z</time>
      </trkpt>
      <trkpt lat="46.51268" lon="5.31075">
        <ele>203.8</ele>
        <time>2022-06-23T06:53:17Z</time>
      </trkpt>
      <trkpt lat="46.51253" lon="5.3108">
        <ele>203.8</ele>
        <time>2022-06-23T06:53:19Z</time>
      </trkpt>
      <trkpt lat="46.51246" lon="5.31085">
        <ele>203.8</ele>
        <time>2022-06-23T06:53:20Z</time>
      </trkpt>
      <trkpt lat="46.51234" lon="5.31098">
        <ele>203.8</ele>
        <time>2022-06-23T06:53:22Z</time>
      </trkpt>
      <trkpt lat="46.51223" lon="5.31111">
        <ele>203.8</ele>
        <time>2022-06-23T06:53:24Z</time>
      </trkpt>
      <trkpt lat="46.51209" lon="5.3113">
        <ele>204</ele>
        <time>2022-06-23T06:53:27Z</time>
      </trkpt>
      <trkpt lat="46.51201" lon="5.31144">
        <ele>204.4</ele>
        <time>2022-06-23T06:53:29Z</time>
      </trkpt>
      <trkpt lat="46.51184" lon="5.31172">
        <ele>204.8</ele>
        <time>2022-06-23T06:53:33Z</time>
      </trkpt>
      <trkpt lat="46.5118" lon="5.31179">
        <ele>205</ele>
        <time>2022-06-23T06:53:34Z</time>
      </trkpt>
      <trkpt lat="46.51174" lon="5.31186">
        <ele>205.2</ele>
        <time>2022-06-23T06:53:35Z</time>
      </trkpt>
      <trkpt lat="46.51158" lon="5.31202">
        <ele>205.6</ele>
        <time>2022-06-23T06:53:38Z</time>
      </trkpt>
      <trkpt lat="46.51153" lon="5.31209">
        <ele>205.6</ele>
        <time>2022-06-23T06:53:39Z</time>
      </trkpt>
      <trkpt lat="46.51149" lon="5.31216">
        <ele>205.8</ele>
        <time>2022-06-23T06:53:40Z</time>
      </trkpt>
      <trkpt lat="46.51133" lon="5.31234">
        <ele>206.2</ele>
        <time>2022-06-23T06:53:43Z</time>
      </trkpt>
      <trkpt lat="46.51111" lon="5.31261">
        <ele>206.4</ele>
        <time>2022-06-23T06:53:48Z</time>
      </trkpt>
      <trkpt lat="46.51104" lon="5.31267">
        <ele>206.6</ele>
        <time>2022-06-23T06:53:49Z</time>
      </trkpt>
      <trkpt lat="46.51099" lon="5.31274">
        <ele>206.6</ele>
        <time>2022-06-23T06:53:50Z</time>
      </trkpt>
      <trkpt lat="46.51089" lon="5.31285">
        <ele>207</ele>
        <time>2022-06-23T06:53:52Z</time>
      </trkpt>
      <trkpt lat="46.51068" lon="5.31312">
        <ele>207.4</ele>
        <time>2022-06-23T06:53:56Z</time>
      </trkpt>
      <trkpt lat="46.51066" lon="5.31319">
        <ele>207.6</ele>
        <time>2022-06-23T06:53:57Z</time>
      </trkpt>
      <trkpt lat="46.51065" lon="5.31326">
        <ele>207.8</ele>
        <time>2022-06-23T06:53:58Z</time>
      </trkpt>
      <trkpt lat="46.51065" lon="5.31352">
        <ele>208.8</ele>
        <time>2022-06-23T06:54:01Z</time>
      </trkpt>
      <trkpt lat="46.51066" lon="5.3136">
        <ele>209</ele>
        <time>2022-06-23T06:54:02Z</time>
      </trkpt>
      <trkpt lat="46.51066" lon="5.31376">
        <ele>209.4</ele>
        <time>2022-06-23T06:54:04Z</time>
      </trkpt>
      <trkpt lat="46.51066" lon="5.31393">
        <ele>210</ele>
        <time>2022-06-23T06:54:06Z</time>
      </trkpt>
      <trkpt lat="46.51059" lon="5.3144">
        <ele>210.8</ele>
        <time>2022-06-23T06:54:12Z</time>
      </trkpt>
      <trkpt lat="46.51058" lon="5.31447">
        <ele>211.2</ele>
        <time>2022-06-23T06:54:13Z</time>
      </trkpt>
      <trkpt lat="46.51053" lon="5.31468">
        <ele>211.6</ele>
        <time>2022-06-23T06:54:16Z</time>
      </trkpt>
      <trkpt lat="46.51051" lon="5.31476">
        <ele>211.8</ele>
        <time>2022-06-23T06:54:17Z</time>
      </trkpt>
      <trkpt lat="46.51048" lon="5.3149">
        <ele>212.4</ele>
        <time>2022-06-23T06:54:19Z</time>
      </trkpt>
      <trkpt lat="46.51037" lon="5.31532">
        <ele>213.4</ele>
        <time>2022-06-23T06:54:25Z</time>
      </trkpt>
      <trkpt lat="46.51035" lon="5.31538">
        <ele>213.6</ele>
        <time>2022-06-23T06:54:26Z</time>
      </trkpt>
      <trkpt lat="46.51032" lon="5.31545">
        <ele>213.8</ele>
        <time>2022-06-23T06:54:27Z</time>
      </trkpt>
      <trkpt lat="46.51025" lon="5.31556">
        <ele>214.6</ele>
        <time>2022-06-23T06:54:29Z</time>
      </trkpt>
      <trkpt lat="46.51012" lon="5.31571">
        <ele>215</ele>
        <time>2022-06-23T06:54:32Z</time>
      </trkpt>
      <trkpt lat="46.50984" lon="5.31599">
        <ele>215.6</ele>
        <time>2022-06-23T06:54:37Z</time>
      </trkpt>
      <trkpt lat="46.50942" lon="5.31643">
        <ele>215</ele>
        <time>2022-06-23T06:54:44Z</time>
      </trkpt>
      <trkpt lat="46.50904" lon="5.31684">
        <ele>214.8</ele>
        <time>2022-06-23T06:54:51Z</time>
      </trkpt>
      <trkpt lat="46.50894" lon="5.31694">
        <ele>215.2</ele>
        <time>2022-06-23T06:54:53Z</time>
      </trkpt>
      <trkpt lat="46.5088" lon="5.3171">
        <ele>215.8</ele>
        <time>2022-06-23T06:54:56Z</time>
      </trkpt>
      <trkpt lat="46.50853" lon="5.31736">
        <ele>216.4</ele>
        <time>2022-06-23T06:55:01Z</time>
      </trkpt>
      <trkpt lat="46.50847" lon="5.3174">
        <ele>216.4</ele>
        <time>2022-06-23T06:55:02Z</time>
      </trkpt>
      <trkpt lat="46.5084" lon="5.31742">
        <ele>216.6</ele>
        <time>2022-06-23T06:55:03Z</time>
      </trkpt>
      <trkpt lat="46.50824" lon="5.31741">
        <ele>216.6</ele>
        <time>2022-06-23T06:55:05Z</time>
      </trkpt>
      <trkpt lat="46.50803" lon="5.31727">
        <ele>216.4</ele>
        <time>2022-06-23T06:55:08Z</time>
      </trkpt>
      <trkpt lat="46.50775" lon="5.31706">
        <ele>216.2</ele>
        <time>2022-06-23T06:55:12Z</time>
      </trkpt>
      <trkpt lat="46.50767" lon="5.31703">
        <ele>216</ele>
        <time>2022-06-23T06:55:13Z</time>
      </trkpt>
      <trkpt lat="46.5076" lon="5.31702">
        <ele>216</ele>
        <time>2022-06-23T06:55:14Z</time>
      </trkpt>
      <trkpt lat="46.50736" lon="5.31702">
        <ele>215.6</ele>
        <time>2022-06-23T06:55:17Z</time>
      </trkpt>
      <trkpt lat="46.50676" lon="5.31708">
        <ele>215.4</ele>
        <time>2022-06-23T06:55:25Z</time>
      </trkpt>
      <trkpt lat="46.50669" lon="5.31709">
        <ele>215.4</ele>
        <time>2022-06-23T06:55:26Z</time>
      </trkpt>
      <trkpt lat="46.50655" lon="5.31717">
        <ele>215.4</ele>
        <time>2022-06-23T06:55:28Z</time>
      </trkpt>
      <trkpt lat="46.50649" lon="5.31723">
        <ele>215.4</ele>
        <time>2022-06-23T06:55:29Z</time>
      </trkpt>
      <trkpt lat="46.50644" lon="5.31731">
        <ele>215.4</ele>
        <time>2022-06-23T06:55:30Z</time>
      </trkpt>
      <trkpt lat="46.50632" lon="5.31758">
        <ele>215.4</ele>
        <time>2022-06-23T06:55:33Z</time>
      </trkpt>
      <trkpt lat="46.50611" lon="5.31818">
        <ele>215</ele>
        <time>2022-06-23T06:55:39Z</time>
      </trkpt>
      <trkpt lat="46.50588" lon="5.31883">
        <ele>214.6</ele>
        <time>2022-06-23T06:55:45Z</time>
      </trkpt>
      <trkpt lat="46.50584" lon="5.31895">
        <ele>214.6</ele>
        <time>2022-06-23T06:55:46Z</time>
      </trkpt>
      <trkpt lat="46.50566" lon="5.31944">
        <ele>213.2</ele>
        <time>2022-06-23T06:55:50Z</time>
      </trkpt>
      <trkpt lat="46.50557" lon="5.31969">
        <ele>212.4</ele>
        <time>2022-06-23T06:55:52Z</time>
      </trkpt>
      <trkpt lat="46.50546" lon="5.31995">
        <ele>211.6</ele>
        <time>2022-06-23T06:55:54Z</time>
      </trkpt>
      <trkpt lat="46.50531" lon="5.32017">
        <ele>210.6</ele>
        <time>2022-06-23T06:55:56Z</time>
      </trkpt>
      <trkpt lat="46.50523" lon="5.32028">
        <ele>210</ele>
        <time>2022-06-23T06:55:57Z</time>
      </trkpt>
      <trkpt lat="46.50503" lon="5.3206">
        <ele>208.8</ele>
        <time>2022-06-23T06:56:00Z</time>
      </trkpt>
      <trkpt lat="46.50497" lon="5.32072">
        <ele>208.2</ele>
        <time>2022-06-23T06:56:01Z</time>
      </trkpt>
      <trkpt lat="46.50487" lon="5.32094">
        <ele>207.6</ele>
        <time>2022-06-23T06:56:03Z</time>
      </trkpt>
      <trkpt lat="46.50475" lon="5.32127">
        <ele>207.2</ele>
        <time>2022-06-23T06:56:06Z</time>
      </trkpt>
      <trkpt lat="46.50458" lon="5.32178">
        <ele>207</ele>
        <time>2022-06-23T06:56:11Z</time>
      </trkpt>
      <trkpt lat="46.50448" lon="5.32188">
        <ele>206.8</ele>
        <time>2022-06-23T06:56:13Z</time>
      </trkpt>
      <trkpt lat="46.50444" lon="5.32191">
        <ele>206.8</ele>
        <time>2022-06-23T06:56:14Z</time>
      </trkpt>
      <trkpt lat="46.5044" lon="5.32193">
        <ele>206.8</ele>
        <time>2022-06-23T06:56:15Z</time>
      </trkpt>
      <trkpt lat="46.50434" lon="5.32195">
        <ele>206.6</ele>
        <time>2022-06-23T06:56:17Z</time>
      </trkpt>
      <trkpt lat="46.5043" lon="5.32201">
        <ele>206.4</ele>
        <time>2022-06-23T06:56:19Z</time>
      </trkpt>
      <trkpt lat="46.50429" lon="5.32213">
        <ele>206.4</ele>
        <time>2022-06-23T06:56:21Z</time>
      </trkpt>
      <trkpt lat="46.50429" lon="5.32247">
        <ele>206.4</ele>
        <time>2022-06-23T06:56:25Z</time>
      </trkpt>
      <trkpt lat="46.50433" lon="5.32298">
        <ele>206.8</ele>
        <time>2022-06-23T06:56:30Z</time>
      </trkpt>
      <trkpt lat="46.5045" lon="5.32379">
        <ele>207.2</ele>
        <time>2022-06-23T06:56:38Z</time>
      </trkpt>
      <trkpt lat="46.50465" lon="5.32461">
        <ele>207.2</ele>
        <time>2022-06-23T06:56:46Z</time>
      </trkpt>
      <trkpt lat="46.50471" lon="5.3254">
        <ele>207.4</ele>
        <time>2022-06-23T06:56:54Z</time>
      </trkpt>
      <trkpt lat="46.50472" lon="5.32559">
        <ele>207.8</ele>
        <time>2022-06-23T06:56:56Z</time>
      </trkpt>
      <trkpt lat="46.50474" lon="5.32606">
        <ele>208.2</ele>
        <time>2022-06-23T06:57:01Z</time>
      </trkpt>
      <trkpt lat="46.50474" lon="5.32661">
        <ele>208.8</ele>
        <time>2022-06-23T06:57:07Z</time>
      </trkpt>
      <trkpt lat="46.50474" lon="5.3267">
        <ele>209</ele>
        <time>2022-06-23T06:57:08Z</time>
      </trkpt>
      <trkpt lat="46.50472" lon="5.3275">
        <ele>209.8</ele>
        <time>2022-06-23T06:57:17Z</time>
      </trkpt>
      <trkpt lat="46.50472" lon="5.32768">
        <ele>210</ele>
        <time>2022-06-23T06:57:19Z</time>
      </trkpt>
      <trkpt lat="46.50472" lon="5.32848">
        <ele>210.6</ele>
        <time>2022-06-23T06:57:28Z</time>
      </trkpt>
      <trkpt lat="46.50472" lon="5.32857">
        <ele>210.8</ele>
        <time>2022-06-23T06:57:29Z</time>
      </trkpt>
      <trkpt lat="46.5047" lon="5.32888">
        <ele>211.2</ele>
        <time>2022-06-23T06:57:33Z</time>
      </trkpt>
      <trkpt lat="46.5047" lon="5.32896">
        <ele>211.4</ele>
        <time>2022-06-23T06:57:34Z</time>
      </trkpt>
      <trkpt lat="46.5047" lon="5.32932">
        <ele>212.2</ele>
        <time>2022-06-23T06:57:39Z</time>
      </trkpt>
      <trkpt lat="46.5047" lon="5.32955">
        <ele>212.8</ele>
        <time>2022-06-23T06:57:42Z</time>
      </trkpt>
      <trkpt lat="46.5047" lon="5.32969">
        <ele>213.4</ele>
        <time>2022-06-23T06:57:44Z</time>
      </trkpt>
      <trkpt lat="46.5047" lon="5.32997">
        <ele>214.4</ele>
        <time>2022-06-23T06:57:48Z</time>
      </trkpt>
      <trkpt lat="46.5047" lon="5.3301">
        <ele>214.8</ele>
        <time>2022-06-23T06:57:50Z</time>
      </trkpt>
      <trkpt lat="46.5047" lon="5.33024">
        <ele>215.4</ele>
        <time>2022-06-23T06:57:52Z</time>
      </trkpt>
      <trkpt lat="46.5047" lon="5.33031">
        <ele>215.6</ele>
        <time>2022-06-23T06:57:53Z</time>
      </trkpt>
      <trkpt lat="46.50469" lon="5.33052">
        <ele>216.4</ele>
        <time>2022-06-23T06:57:56Z</time>
      </trkpt>
      <trkpt lat="46.50468" lon="5.33059">
        <ele>216.6</ele>
        <time>2022-06-23T06:57:57Z</time>
      </trkpt>
      <trkpt lat="46.50468" lon="5.33073">
        <ele>217</ele>
        <time>2022-06-23T06:57:59Z</time>
      </trkpt>
      <trkpt lat="46.50468" lon="5.33086">
        <ele>217.6</ele>
        <time>2022-06-23T06:58:01Z</time>
      </trkpt>
      <trkpt lat="46.50467" lon="5.33092">
        <ele>217.8</ele>
        <time>2022-06-23T06:58:02Z</time>
      </trkpt>
      <trkpt lat="46.50467" lon="5.33098">
        <ele>218.2</ele>
        <time>2022-06-23T06:58:03Z</time>
      </trkpt>
      <trkpt lat="46.50466" lon="5.33105">
        <ele>218.6</ele>
        <time>2022-06-23T06:58:04Z</time>
      </trkpt>
      <trkpt lat="46.50464" lon="5.33136">
        <ele>219.4</ele>
        <time>2022-06-23T06:58:09Z</time>
      </trkpt>
      <trkpt lat="46.50463" lon="5.33143">
        <ele>220</ele>
        <time>2022-06-23T06:58:10Z</time>
      </trkpt>
      <trkpt lat="46.50463" lon="5.3315">
        <ele>220.4</ele>
        <time>2022-06-23T06:58:11Z</time>
      </trkpt>
      <trkpt lat="46.50463" lon="5.33162">
        <ele>220.8</ele>
        <time>2022-06-23T06:58:13Z</time>
      </trkpt>
      <trkpt lat="46.50462" lon="5.33174">
        <ele>221.2</ele>
        <time>2022-06-23T06:58:15Z</time>
      </trkpt>
      <trkpt lat="46.50462" lon="5.33193">
        <ele>222</ele>
        <time>2022-06-23T06:58:18Z</time>
      </trkpt>
      <trkpt lat="46.50462" lon="5.33207">
        <ele>222.2</ele>
        <time>2022-06-23T06:58:20Z</time>
      </trkpt>
      <trkpt lat="46.50462" lon="5.33214">
        <ele>222.4</ele>
        <time>2022-06-23T06:58:21Z</time>
      </trkpt>
      <trkpt lat="46.50463" lon="5.33238">
        <ele>222.6</ele>
        <time>2022-06-23T06:58:24Z</time>
      </trkpt>
      <trkpt lat="46.50463" lon="5.33297">
        <ele>223</ele>
        <time>2022-06-23T06:58:31Z</time>
      </trkpt>
      <trkpt lat="46.50459" lon="5.33352">
        <ele>222.8</ele>
        <time>2022-06-23T06:58:37Z</time>
      </trkpt>
      <trkpt lat="46.50457" lon="5.33372">
        <ele>222.8</ele>
        <time>2022-06-23T06:58:39Z</time>
      </trkpt>
      <trkpt lat="46.50452" lon="5.334">
        <ele>222.6</ele>
        <time>2022-06-23T06:58:42Z</time>
      </trkpt>
      <trkpt lat="46.50447" lon="5.33417">
        <ele>222.4</ele>
        <time>2022-06-23T06:58:44Z</time>
      </trkpt>
      <trkpt lat="46.50439" lon="5.33432">
        <ele>222.2</ele>
        <time>2022-06-23T06:58:46Z</time>
      </trkpt>
      <trkpt lat="46.50409" lon="5.33466">
        <ele>222.4</ele>
        <time>2022-06-23T06:58:52Z</time>
      </trkpt>
      <trkpt lat="46.50379" lon="5.33497">
        <ele>223</ele>
        <time>2022-06-23T06:58:58Z</time>
      </trkpt>
      <trkpt lat="46.50375" lon="5.33502">
        <ele>223.2</ele>
        <time>2022-06-23T06:58:59Z</time>
      </trkpt>
      <trkpt lat="46.50371" lon="5.33507">
        <ele>223.2</ele>
        <time>2022-06-23T06:59:00Z</time>
      </trkpt>
      <trkpt lat="46.5035" lon="5.33528">
        <ele>224</ele>
        <time>2022-06-23T06:59:04Z</time>
      </trkpt>
      <trkpt lat="46.5034" lon="5.33538">
        <ele>224.2</ele>
        <time>2022-06-23T06:59:06Z</time>
      </trkpt>
      <trkpt lat="46.50318" lon="5.33559">
        <ele>224.6</ele>
        <time>2022-06-23T06:59:10Z</time>
      </trkpt>
      <trkpt lat="46.50313" lon="5.33565">
        <ele>224.6</ele>
        <time>2022-06-23T06:59:11Z</time>
      </trkpt>
      <trkpt lat="46.50267" lon="5.33615">
        <ele>225</ele>
        <time>2022-06-23T06:59:20Z</time>
      </trkpt>
      <trkpt lat="46.50262" lon="5.3362">
        <ele>225.2</ele>
        <time>2022-06-23T06:59:21Z</time>
      </trkpt>
      <trkpt lat="46.50257" lon="5.33626">
        <ele>225.2</ele>
        <time>2022-06-23T06:59:22Z</time>
      </trkpt>
      <trkpt lat="46.50228" lon="5.33656">
        <ele>225.8</ele>
        <time>2022-06-23T06:59:28Z</time>
      </trkpt>
      <trkpt lat="46.50208" lon="5.33678">
        <ele>226.2</ele>
        <time>2022-06-23T06:59:32Z</time>
      </trkpt>
      <trkpt lat="46.50189" lon="5.33697">
        <ele>226.2</ele>
        <time>2022-06-23T06:59:36Z</time>
      </trkpt>
      <trkpt lat="46.50156" lon="5.33733">
        <ele>226.2</ele>
        <time>2022-06-23T06:59:42Z</time>
      </trkpt>
      <trkpt lat="46.5012" lon="5.33772">
        <ele>226</ele>
        <time>2022-06-23T06:59:48Z</time>
      </trkpt>
      <trkpt lat="46.50083" lon="5.3381">
        <ele>225.8</ele>
        <time>2022-06-23T06:59:54Z</time>
      </trkpt>
      <trkpt lat="46.5004" lon="5.33857">
        <ele>226.2</ele>
        <time>2022-06-23T07:00:02Z</time>
      </trkpt>
      <trkpt lat="46.50035" lon="5.33863">
        <ele>226.2</ele>
        <time>2022-06-23T07:00:03Z</time>
      </trkpt>
      <trkpt lat="46.50017" lon="5.33883">
        <ele>227.2</ele>
        <time>2022-06-23T07:00:07Z</time>
      </trkpt>
      <trkpt lat="46.50007" lon="5.33893">
        <ele>227.6</ele>
        <time>2022-06-23T07:00:09Z</time>
      </trkpt>
      <trkpt lat="46.49979" lon="5.33926">
        <ele>228.2</ele>
        <time>2022-06-23T07:00:15Z</time>
      </trkpt>
      <trkpt lat="46.49969" lon="5.33938">
        <ele>228.4</ele>
        <time>2022-06-23T07:00:17Z</time>
      </trkpt>
      <trkpt lat="46.49939" lon="5.3397">
        <ele>228.4</ele>
        <time>2022-06-23T07:00:22Z</time>
      </trkpt>
      <trkpt lat="46.499" lon="5.34012">
        <ele>227.8</ele>
        <time>2022-06-23T07:00:28Z</time>
      </trkpt>
      <trkpt lat="46.49872" lon="5.34043">
        <ele>227</ele>
        <time>2022-06-23T07:00:32Z</time>
      </trkpt>
      <trkpt lat="46.49853" lon="5.34067">
        <ele>226.2</ele>
        <time>2022-06-23T07:00:35Z</time>
      </trkpt>
      <trkpt lat="46.49836" lon="5.34091">
        <ele>225.8</ele>
        <time>2022-06-23T07:00:38Z</time>
      </trkpt>
      <trkpt lat="46.49816" lon="5.34123">
        <ele>225.6</ele>
        <time>2022-06-23T07:00:42Z</time>
      </trkpt>
      <trkpt lat="46.49802" lon="5.34148">
        <ele>226</ele>
        <time>2022-06-23T07:00:45Z</time>
      </trkpt>
      <trkpt lat="46.49798" lon="5.34156">
        <ele>226</ele>
        <time>2022-06-23T07:00:46Z</time>
      </trkpt>
      <trkpt lat="46.49789" lon="5.34173">
        <ele>226</ele>
        <time>2022-06-23T07:00:48Z</time>
      </trkpt>
      <trkpt lat="46.49754" lon="5.34232">
        <ele>226</ele>
        <time>2022-06-23T07:00:55Z</time>
      </trkpt>
      <trkpt lat="46.49743" lon="5.34249">
        <ele>225.6</ele>
        <time>2022-06-23T07:00:57Z</time>
      </trkpt>
      <trkpt lat="46.49723" lon="5.34283">
        <ele>225.4</ele>
        <time>2022-06-23T07:01:01Z</time>
      </trkpt>
      <trkpt lat="46.49715" lon="5.343">
        <ele>225.4</ele>
        <time>2022-06-23T07:01:03Z</time>
      </trkpt>
      <trkpt lat="46.49708" lon="5.34318">
        <ele>225.4</ele>
        <time>2022-06-23T07:01:05Z</time>
      </trkpt>
      <trkpt lat="46.49698" lon="5.34347">
        <ele>225.4</ele>
        <time>2022-06-23T07:01:08Z</time>
      </trkpt>
      <trkpt lat="46.49678" lon="5.34423">
        <ele>224.6</ele>
        <time>2022-06-23T07:01:15Z</time>
      </trkpt>
      <trkpt lat="46.49675" lon="5.34434">
        <ele>224.4</ele>
        <time>2022-06-23T07:01:16Z</time>
      </trkpt>
      <trkpt lat="46.49663" lon="5.34479">
        <ele>223.6</ele>
        <time>2022-06-23T07:01:20Z</time>
      </trkpt>
      <trkpt lat="46.4965" lon="5.34523">
        <ele>222.6</ele>
        <time>2022-06-23T07:01:24Z</time>
      </trkpt>
      <trkpt lat="46.49645" lon="5.34532">
        <ele>222.4</ele>
        <time>2022-06-23T07:01:25Z</time>
      </trkpt>
      <trkpt lat="46.4964" lon="5.34541">
        <ele>222.2</ele>
        <time>2022-06-23T07:01:26Z</time>
      </trkpt>
      <trkpt lat="46.49633" lon="5.34548">
        <ele>221.8</ele>
        <time>2022-06-23T07:01:27Z</time>
      </trkpt>
      <trkpt lat="46.49613" lon="5.34568">
        <ele>221.4</ele>
        <time>2022-06-23T07:01:30Z</time>
      </trkpt>
      <trkpt lat="46.49598" lon="5.34582">
        <ele>221</ele>
        <time>2022-06-23T07:01:32Z</time>
      </trkpt>
      <trkpt lat="46.4959" lon="5.34588">
        <ele>220.8</ele>
        <time>2022-06-23T07:01:33Z</time>
      </trkpt>
      <trkpt lat="46.49579" lon="5.34602">
        <ele>220.6</ele>
        <time>2022-06-23T07:01:35Z</time>
      </trkpt>
      <trkpt lat="46.49576" lon="5.34609">
        <ele>220.2</ele>
        <time>2022-06-23T07:01:36Z</time>
      </trkpt>
      <trkpt lat="46.4955" lon="5.34649">
        <ele>220.4</ele>
        <time>2022-06-23T07:01:42Z</time>
      </trkpt>
      <trkpt lat="46.49535" lon="5.34668">
        <ele>221.4</ele>
        <time>2022-06-23T07:01:46Z</time>
      </trkpt>
      <trkpt lat="46.49532" lon="5.34672">
        <ele>221.6</ele>
        <time>2022-06-23T07:01:47Z</time>
      </trkpt>
      <trkpt lat="46.49528" lon="5.34675">
        <ele>221.8</ele>
        <time>2022-06-23T07:01:48Z</time>
      </trkpt>
      <trkpt lat="46.49515" lon="5.34692">
        <ele>222.6</ele>
        <time>2022-06-23T07:01:52Z</time>
      </trkpt>
      <trkpt lat="46.49498" lon="5.34714">
        <ele>223.8</ele>
        <time>2022-06-23T07:01:57Z</time>
      </trkpt>
      <trkpt lat="46.49491" lon="5.34721">
        <ele>224.2</ele>
        <time>2022-06-23T07:01:59Z</time>
      </trkpt>
      <trkpt lat="46.49481" lon="5.3473">
        <ele>225</ele>
        <time>2022-06-23T07:02:02Z</time>
      </trkpt>
      <trkpt lat="46.49475" lon="5.34736">
        <ele>225.6</ele>
        <time>2022-06-23T07:02:04Z</time>
      </trkpt>
      <trkpt lat="46.4947" lon="5.34744">
        <ele>226.2</ele>
        <time>2022-06-23T07:02:06Z</time>
      </trkpt>
      <trkpt lat="46.49459" lon="5.34758">
        <ele>227.2</ele>
        <time>2022-06-23T07:02:10Z</time>
      </trkpt>
      <trkpt lat="46.49455" lon="5.34761">
        <ele>227.6</ele>
        <time>2022-06-23T07:02:11Z</time>
      </trkpt>
      <trkpt lat="46.49448" lon="5.34766">
        <ele>228.2</ele>
        <time>2022-06-23T07:02:13Z</time>
      </trkpt>
      <trkpt lat="46.49438" lon="5.3478">
        <ele>229.2</ele>
        <time>2022-06-23T07:02:16Z</time>
      </trkpt>
      <trkpt lat="46.49434" lon="5.34784">
        <ele>229.4</ele>
        <time>2022-06-23T07:02:17Z</time>
      </trkpt>
      <trkpt lat="46.49423" lon="5.34791">
        <ele>229.8</ele>
        <time>2022-06-23T07:02:20Z</time>
      </trkpt>
      <trkpt lat="46.49414" lon="5.34795">
        <ele>230.2</ele>
        <time>2022-06-23T07:02:22Z</time>
      </trkpt>
      <trkpt lat="46.4939" lon="5.34809">
        <ele>231.2</ele>
        <time>2022-06-23T07:02:27Z</time>
      </trkpt>
      <trkpt lat="46.49385" lon="5.34811">
        <ele>231.4</ele>
        <time>2022-06-23T07:02:28Z</time>
      </trkpt>
      <trkpt lat="46.49353" lon="5.34819">
        <ele>232</ele>
        <time>2022-06-23T07:02:34Z</time>
      </trkpt>
      <trkpt lat="46.49307" lon="5.34824">
        <ele>232</ele>
        <time>2022-06-23T07:02:42Z</time>
      </trkpt>
      <trkpt lat="46.49276" lon="5.34847">
        <ele>232</ele>
        <time>2022-06-23T07:02:48Z</time>
      </trkpt>
      <trkpt lat="46.49254" lon="5.34873">
        <ele>232</ele>
        <time>2022-06-23T07:02:53Z</time>
      </trkpt>
      <trkpt lat="46.49246" lon="5.34886">
        <ele>232</ele>
        <time>2022-06-23T07:02:55Z</time>
      </trkpt>
      <trkpt lat="46.49238" lon="5.34896">
        <ele>232</ele>
        <time>2022-06-23T07:02:57Z</time>
      </trkpt>
      <trkpt lat="46.49231" lon="5.34906">
        <ele>232.4</ele>
        <time>2022-06-23T07:02:59Z</time>
      </trkpt>
      <trkpt lat="46.4922" lon="5.34927">
        <ele>232.2</ele>
        <time>2022-06-23T07:03:02Z</time>
      </trkpt>
      <trkpt lat="46.49217" lon="5.34931">
        <ele>232.2</ele>
        <time>2022-06-23T07:03:03Z</time>
      </trkpt>
      <trkpt lat="46.49211" lon="5.34938">
        <ele>232.2</ele>
        <time>2022-06-23T07:03:04Z</time>
      </trkpt>
      <trkpt lat="46.492" lon="5.3495">
        <ele>232.2</ele>
        <time>2022-06-23T07:03:06Z</time>
      </trkpt>
      <trkpt lat="46.49196" lon="5.34954">
        <ele>232.2</ele>
        <time>2022-06-23T07:03:07Z</time>
      </trkpt>
      <trkpt lat="46.49193" lon="5.34964">
        <ele>232.2</ele>
        <time>2022-06-23T07:03:08Z</time>
      </trkpt>
      <trkpt lat="46.49178" lon="5.34985">
        <ele>232.2</ele>
        <time>2022-06-23T07:03:12Z</time>
      </trkpt>
      <trkpt lat="46.49167" lon="5.34998">
        <ele>232.4</ele>
        <time>2022-06-23T07:03:14Z</time>
      </trkpt>
      <trkpt lat="46.4916" lon="5.35002">
        <ele>232.6</ele>
        <time>2022-06-23T07:03:16Z</time>
      </trkpt>
      <trkpt lat="46.49155" lon="5.35004">
        <ele>232.6</ele>
        <time>2022-06-23T07:03:17Z</time>
      </trkpt>
      <trkpt lat="46.49141" lon="5.35017">
        <ele>233.2</ele>
        <time>2022-06-23T07:03:20Z</time>
      </trkpt>
      <trkpt lat="46.49107" lon="5.35046">
        <ele>233.6</ele>
        <time>2022-06-23T07:03:26Z</time>
      </trkpt>
      <trkpt lat="46.49091" lon="5.35056">
        <ele>233.8</ele>
        <time>2022-06-23T07:03:29Z</time>
      </trkpt>
      <trkpt lat="46.49073" lon="5.35073">
        <ele>234.2</ele>
        <time>2022-06-23T07:03:33Z</time>
      </trkpt>
      <trkpt lat="46.4907" lon="5.35077">
        <ele>234.4</ele>
        <time>2022-06-23T07:03:34Z</time>
      </trkpt>
      <trkpt lat="46.49066" lon="5.35081">
        <ele>234.4</ele>
        <time>2022-06-23T07:03:35Z</time>
      </trkpt>
      <trkpt lat="46.49053" lon="5.35091">
        <ele>234.8</ele>
        <time>2022-06-23T07:03:38Z</time>
      </trkpt>
      <trkpt lat="46.49038" lon="5.35117">
        <ele>235.2</ele>
        <time>2022-06-23T07:03:42Z</time>
      </trkpt>
      <trkpt lat="46.4903" lon="5.3513">
        <ele>235.4</ele>
        <time>2022-06-23T07:03:44Z</time>
      </trkpt>
      <trkpt lat="46.49027" lon="5.35137">
        <ele>235.6</ele>
        <time>2022-06-23T07:03:45Z</time>
      </trkpt>
      <trkpt lat="46.49024" lon="5.35144">
        <ele>235.8</ele>
        <time>2022-06-23T07:03:46Z</time>
      </trkpt>
      <trkpt lat="46.4902" lon="5.35151">
        <ele>235.8</ele>
        <time>2022-06-23T07:03:47Z</time>
      </trkpt>
      <trkpt lat="46.49012" lon="5.35163">
        <ele>235.8</ele>
        <time>2022-06-23T07:03:49Z</time>
      </trkpt>
      <trkpt lat="46.49005" lon="5.35178">
        <ele>235.8</ele>
        <time>2022-06-23T07:03:51Z</time>
      </trkpt>
      <trkpt lat="46.48995" lon="5.35199">
        <ele>235.8</ele>
        <time>2022-06-23T07:03:54Z</time>
      </trkpt>
      <trkpt lat="46.48984" lon="5.35225">
        <ele>235.6</ele>
        <time>2022-06-23T07:03:57Z</time>
      </trkpt>
      <trkpt lat="46.48969" lon="5.35261">
        <ele>235.6</ele>
        <time>2022-06-23T07:04:01Z</time>
      </trkpt>
      <trkpt lat="46.48965" lon="5.35269">
        <ele>235.6</ele>
        <time>2022-06-23T07:04:02Z</time>
      </trkpt>
      <trkpt lat="46.48955" lon="5.35288">
        <ele>235.2</ele>
        <time>2022-06-23T07:04:04Z</time>
      </trkpt>
      <trkpt lat="46.48945" lon="5.35304">
        <ele>234.6</ele>
        <time>2022-06-23T07:04:06Z</time>
      </trkpt>
      <trkpt lat="46.48941" lon="5.35312">
        <ele>234.2</ele>
        <time>2022-06-23T07:04:07Z</time>
      </trkpt>
      <trkpt lat="46.48937" lon="5.35322">
        <ele>234</ele>
        <time>2022-06-23T07:04:08Z</time>
      </trkpt>
      <trkpt lat="46.4893" lon="5.35344">
        <ele>233.8</ele>
        <time>2022-06-23T07:04:10Z</time>
      </trkpt>
      <trkpt lat="46.48924" lon="5.35362">
        <ele>233.6</ele>
        <time>2022-06-23T07:04:12Z</time>
      </trkpt>
      <trkpt lat="46.48921" lon="5.35372">
        <ele>233.6</ele>
        <time>2022-06-23T07:04:13Z</time>
      </trkpt>
      <trkpt lat="46.48915" lon="5.35381">
        <ele>233.6</ele>
        <time>2022-06-23T07:04:14Z</time>
      </trkpt>
      <trkpt lat="46.48907" lon="5.35396">
        <ele>233.6</ele>
        <time>2022-06-23T07:04:16Z</time>
      </trkpt>
      <trkpt lat="46.48895" lon="5.35427">
        <ele>233.8</ele>
        <time>2022-06-23T07:04:20Z</time>
      </trkpt>
      <trkpt lat="46.48888" lon="5.3544">
        <ele>234</ele>
        <time>2022-06-23T07:04:22Z</time>
      </trkpt>
      <trkpt lat="46.48885" lon="5.35447">
        <ele>234</ele>
        <time>2022-06-23T07:04:23Z</time>
      </trkpt>
      <trkpt lat="46.48877" lon="5.35467">
        <ele>234.4</ele>
        <time>2022-06-23T07:04:25Z</time>
      </trkpt>
      <trkpt lat="46.48874" lon="5.35477">
        <ele>234.6</ele>
        <time>2022-06-23T07:04:26Z</time>
      </trkpt>
      <trkpt lat="46.48865" lon="5.35501">
        <ele>234.8</ele>
        <time>2022-06-23T07:04:29Z</time>
      </trkpt>
      <trkpt lat="46.48862" lon="5.35508">
        <ele>234.8</ele>
        <time>2022-06-23T07:04:30Z</time>
      </trkpt>
      <trkpt lat="46.48851" lon="5.35529">
        <ele>235</ele>
        <time>2022-06-23T07:04:33Z</time>
      </trkpt>
      <trkpt lat="46.48849" lon="5.35537">
        <ele>235</ele>
        <time>2022-06-23T07:04:34Z</time>
      </trkpt>
      <trkpt lat="46.4885" lon="5.35554">
        <ele>235.2</ele>
        <time>2022-06-23T07:04:36Z</time>
      </trkpt>
      <trkpt lat="46.48855" lon="5.35558">
        <ele>235.2</ele>
        <time>2022-06-23T07:04:37Z</time>
      </trkpt>
      <trkpt lat="46.48861" lon="5.35561">
        <ele>235.2</ele>
        <time>2022-06-23T07:04:38Z</time>
      </trkpt>
      <trkpt lat="46.48882" lon="5.35561">
        <ele>234.8</ele>
        <time>2022-06-23T07:04:42Z</time>
      </trkpt>
      <trkpt lat="46.48919" lon="5.35557">
        <ele>234.2</ele>
        <time>2022-06-23T07:04:47Z</time>
      </trkpt>
      <trkpt lat="46.48967" lon="5.35557">
        <ele>233.4</ele>
        <time>2022-06-23T07:04:52Z</time>
      </trkpt>
      <trkpt lat="46.48976" lon="5.35556">
        <ele>233.2</ele>
        <time>2022-06-23T07:04:53Z</time>
      </trkpt>
      <trkpt lat="46.49" lon="5.35555">
        <ele>232.6</ele>
        <time>2022-06-23T07:04:56Z</time>
      </trkpt>
      <trkpt lat="46.49024" lon="5.35554">
        <ele>232.4</ele>
        <time>2022-06-23T07:04:59Z</time>
      </trkpt>
      <trkpt lat="46.4904" lon="5.35554">
        <ele>232.2</ele>
        <time>2022-06-23T07:05:01Z</time>
      </trkpt>
      <trkpt lat="46.49055" lon="5.35554">
        <ele>232.2</ele>
        <time>2022-06-23T07:05:03Z</time>
      </trkpt>
      <trkpt lat="46.49088" lon="5.35555">
        <ele>232.6</ele>
        <time>2022-06-23T07:05:08Z</time>
      </trkpt>
      <trkpt lat="46.49094" lon="5.35554">
        <ele>232.8</ele>
        <time>2022-06-23T07:05:09Z</time>
      </trkpt>
      <trkpt lat="46.49104" lon="5.35552">
        <ele>233</ele>
        <time>2022-06-23T07:05:11Z</time>
      </trkpt>
      <trkpt lat="46.4911" lon="5.35551">
        <ele>233</ele>
        <time>2022-06-23T07:05:12Z</time>
      </trkpt>
      <trkpt lat="46.49132" lon="5.35548">
        <ele>233.4</ele>
        <time>2022-06-23T07:05:16Z</time>
      </trkpt>
      <trkpt lat="46.49152" lon="5.35546">
        <ele>233.8</ele>
        <time>2022-06-23T07:05:20Z</time>
      </trkpt>
      <trkpt lat="46.49163" lon="5.35544">
        <ele>234.4</ele>
        <time>2022-06-23T07:05:22Z</time>
      </trkpt>
      <trkpt lat="46.49187" lon="5.35542">
        <ele>235</ele>
        <time>2022-06-23T07:05:26Z</time>
      </trkpt>
      <trkpt lat="46.49194" lon="5.35541">
        <ele>235.2</ele>
        <time>2022-06-23T07:05:27Z</time>
      </trkpt>
      <trkpt lat="46.4921" lon="5.35541">
        <ele>235.4</ele>
        <time>2022-06-23T07:05:29Z</time>
      </trkpt>
      <trkpt lat="46.49218" lon="5.3554">
        <ele>235.6</ele>
        <time>2022-06-23T07:05:30Z</time>
      </trkpt>
      <trkpt lat="46.49267" lon="5.35538">
        <ele>236.2</ele>
        <time>2022-06-23T07:05:36Z</time>
      </trkpt>
      <trkpt lat="46.49313" lon="5.35536">
        <ele>236.4</ele>
        <time>2022-06-23T07:05:42Z</time>
      </trkpt>
      <trkpt lat="46.49345" lon="5.35533">
        <ele>236.2</ele>
        <time>2022-06-23T07:05:46Z</time>
      </trkpt>
      <trkpt lat="46.49387" lon="5.35537">
        <ele>235.6</ele>
        <time>2022-06-23T07:05:51Z</time>
      </trkpt>
      <trkpt lat="46.49442" lon="5.35557">
        <ele>234.4</ele>
        <time>2022-06-23T07:05:58Z</time>
      </trkpt>
      <trkpt lat="46.49451" lon="5.3556">
        <ele>234.2</ele>
        <time>2022-06-23T07:05:59Z</time>
      </trkpt>
      <trkpt lat="46.49504" lon="5.35583">
        <ele>233.6</ele>
        <time>2022-06-23T07:06:06Z</time>
      </trkpt>
      <trkpt lat="46.49512" lon="5.35586">
        <ele>233.6</ele>
        <time>2022-06-23T07:06:07Z</time>
      </trkpt>
      <trkpt lat="46.49559" lon="5.35603">
        <ele>233.2</ele>
        <time>2022-06-23T07:06:13Z</time>
      </trkpt>
      <trkpt lat="46.49583" lon="5.35611">
        <ele>232.8</ele>
        <time>2022-06-23T07:06:16Z</time>
      </trkpt>
      <trkpt lat="46.49627" lon="5.35626">
        <ele>232</ele>
        <time>2022-06-23T07:06:22Z</time>
      </trkpt>
      <trkpt lat="46.49649" lon="5.35632">
        <ele>231.4</ele>
        <time>2022-06-23T07:06:25Z</time>
      </trkpt>
      <trkpt lat="46.49677" lon="5.3564">
        <ele>231</ele>
        <time>2022-06-23T07:06:29Z</time>
      </trkpt>
      <trkpt lat="46.49688" lon="5.35643">
        <ele>230.4</ele>
        <time>2022-06-23T07:06:31Z</time>
      </trkpt>
      <trkpt lat="46.49692" lon="5.35646">
        <ele>230.2</ele>
        <time>2022-06-23T07:06:32Z</time>
      </trkpt>
      <trkpt lat="46.49695" lon="5.3565">
        <ele>230</ele>
        <time>2022-06-23T07:06:33Z</time>
      </trkpt>
      <trkpt lat="46.49696" lon="5.35656">
        <ele>229.6</ele>
        <time>2022-06-23T07:06:34Z</time>
      </trkpt>
      <trkpt lat="46.49696" lon="5.35663">
        <ele>229.4</ele>
        <time>2022-06-23T07:06:35Z</time>
      </trkpt>
      <trkpt lat="46.4969" lon="5.35697">
        <ele>228.6</ele>
        <time>2022-06-23T07:06:39Z</time>
      </trkpt>
      <trkpt lat="46.49684" lon="5.35716">
        <ele>228.2</ele>
        <time>2022-06-23T07:06:41Z</time>
      </trkpt>
      <trkpt lat="46.49677" lon="5.35734">
        <ele>227.8</ele>
        <time>2022-06-23T07:06:43Z</time>
      </trkpt>
      <trkpt lat="46.49665" lon="5.35761">
        <ele>227.6</ele>
        <time>2022-06-23T07:06:46Z</time>
      </trkpt>
      <trkpt lat="46.49644" lon="5.35809">
        <ele>226.4</ele>
        <time>2022-06-23T07:06:51Z</time>
      </trkpt>
      <trkpt lat="46.49637" lon="5.35844">
        <ele>225.8</ele>
        <time>2022-06-23T07:06:54Z</time>
      </trkpt>
      <trkpt lat="46.49636" lon="5.35857">
        <ele>225.6</ele>
        <time>2022-06-23T07:06:55Z</time>
      </trkpt>
      <trkpt lat="46.49636" lon="5.35884">
        <ele>225.4</ele>
        <time>2022-06-23T07:06:57Z</time>
      </trkpt>
      <trkpt lat="46.49638" lon="5.35923">
        <ele>223.8</ele>
        <time>2022-06-23T07:07:00Z</time>
      </trkpt>
      <trkpt lat="46.49643" lon="5.35998">
        <ele>222.8</ele>
        <time>2022-06-23T07:07:06Z</time>
      </trkpt>
      <trkpt lat="46.49645" lon="5.36021">
        <ele>222.6</ele>
        <time>2022-06-23T07:07:08Z</time>
      </trkpt>
      <trkpt lat="46.49653" lon="5.3609">
        <ele>222.4</ele>
        <time>2022-06-23T07:07:14Z</time>
      </trkpt>
      <trkpt lat="46.49664" lon="5.36118">
        <ele>222.4</ele>
        <time>2022-06-23T07:07:17Z</time>
      </trkpt>
      <trkpt lat="46.49672" lon="5.36135">
        <ele>222.8</ele>
        <time>2022-06-23T07:07:19Z</time>
      </trkpt>
      <trkpt lat="46.49701" lon="5.3618">
        <ele>222.8</ele>
        <time>2022-06-23T07:07:25Z</time>
      </trkpt>
      <trkpt lat="46.4971" lon="5.36194">
        <ele>222.8</ele>
        <time>2022-06-23T07:07:27Z</time>
      </trkpt>
      <trkpt lat="46.49722" lon="5.36219">
        <ele>222.8</ele>
        <time>2022-06-23T07:07:30Z</time>
      </trkpt>
      <trkpt lat="46.49745" lon="5.36273">
        <ele>222.8</ele>
        <time>2022-06-23T07:07:37Z</time>
      </trkpt>
      <trkpt lat="46.49766" lon="5.36323">
        <ele>223.8</ele>
        <time>2022-06-23T07:07:44Z</time>
      </trkpt>
      <trkpt lat="46.49768" lon="5.3633">
        <ele>224.2</ele>
        <time>2022-06-23T07:07:45Z</time>
      </trkpt>
      <trkpt lat="46.49782" lon="5.36362">
        <ele>224.8</ele>
        <time>2022-06-23T07:07:50Z</time>
      </trkpt>
      <trkpt lat="46.49788" lon="5.36375">
        <ele>225.2</ele>
        <time>2022-06-23T07:07:52Z</time>
      </trkpt>
      <trkpt lat="46.49802" lon="5.36409">
        <ele>226.4</ele>
        <time>2022-06-23T07:07:57Z</time>
      </trkpt>
      <trkpt lat="46.49811" lon="5.36429">
        <ele>226.8</ele>
        <time>2022-06-23T07:08:00Z</time>
      </trkpt>
      <trkpt lat="46.49823" lon="5.36455">
        <ele>227.2</ele>
        <time>2022-06-23T07:08:04Z</time>
      </trkpt>
      <trkpt lat="46.49826" lon="5.36461">
        <ele>227.4</ele>
        <time>2022-06-23T07:08:05Z</time>
      </trkpt>
      <trkpt lat="46.49837" lon="5.36479">
        <ele>227.8</ele>
        <time>2022-06-23T07:08:08Z</time>
      </trkpt>
      <trkpt lat="46.49855" lon="5.36507">
        <ele>228.2</ele>
        <time>2022-06-23T07:08:13Z</time>
      </trkpt>
      <trkpt lat="46.49863" lon="5.36518">
        <ele>228.4</ele>
        <time>2022-06-23T07:08:15Z</time>
      </trkpt>
      <trkpt lat="46.49889" lon="5.36557">
        <ele>229.6</ele>
        <time>2022-06-23T07:08:22Z</time>
      </trkpt>
      <trkpt lat="46.49896" lon="5.36569">
        <ele>229.6</ele>
        <time>2022-06-23T07:08:24Z</time>
      </trkpt>
      <trkpt lat="46.49903" lon="5.3658">
        <ele>229.8</ele>
        <time>2022-06-23T07:08:26Z</time>
      </trkpt>
      <trkpt lat="46.49914" lon="5.366">
        <ele>230.2</ele>
        <time>2022-06-23T07:08:29Z</time>
      </trkpt>
      <trkpt lat="46.49917" lon="5.36606">
        <ele>230.4</ele>
        <time>2022-06-23T07:08:30Z</time>
      </trkpt>
      <trkpt lat="46.49919" lon="5.36613">
        <ele>230.4</ele>
        <time>2022-06-23T07:08:31Z</time>
      </trkpt>
      <trkpt lat="46.49924" lon="5.36624">
        <ele>230.4</ele>
        <time>2022-06-23T07:08:33Z</time>
      </trkpt>
      <trkpt lat="46.49927" lon="5.36626">
        <ele>230.6</ele>
        <time>2022-06-23T07:08:34Z</time>
      </trkpt>
      <trkpt lat="46.49933" lon="5.3662">
        <ele>231</ele>
        <time>2022-06-23T07:08:36Z</time>
      </trkpt>
      <trkpt lat="46.49936" lon="5.36614">
        <ele>231.2</ele>
        <time>2022-06-23T07:08:37Z</time>
      </trkpt>
      <trkpt lat="46.49942" lon="5.366">
        <ele>231.2</ele>
        <time>2022-06-23T07:08:39Z</time>
      </trkpt>
      <trkpt lat="46.49951" lon="5.36588">
        <ele>231.2</ele>
        <time>2022-06-23T07:08:41Z</time>
      </trkpt>
      <trkpt lat="46.49962" lon="5.36581">
        <ele>231.2</ele>
        <time>2022-06-23T07:08:43Z</time>
      </trkpt>
      <trkpt lat="46.49968" lon="5.3658">
        <ele>231.2</ele>
        <time>2022-06-23T07:08:44Z</time>
      </trkpt>
      <trkpt lat="46.49974" lon="5.3658">
        <ele>231.2</ele>
        <time>2022-06-23T07:08:45Z</time>
      </trkpt>
      <trkpt lat="46.50002" lon="5.3658">
        <ele>231.8</ele>
        <time>2022-06-23T07:08:50Z</time>
      </trkpt>
      <trkpt lat="46.50008" lon="5.36579">
        <ele>231.8</ele>
        <time>2022-06-23T07:08:51Z</time>
      </trkpt>
      <trkpt lat="46.50017" lon="5.36572">
        <ele>232.2</ele>
        <time>2022-06-23T07:08:53Z</time>
      </trkpt>
      <trkpt lat="46.50021" lon="5.36568">
        <ele>232.2</ele>
        <time>2022-06-23T07:08:54Z</time>
      </trkpt>
      <trkpt lat="46.50036" lon="5.36553">
        <ele>232.6</ele>
        <time>2022-06-23T07:08:57Z</time>
      </trkpt>
      <trkpt lat="46.5004" lon="5.36547">
        <ele>232.6</ele>
        <time>2022-06-23T07:08:58Z</time>
      </trkpt>
      <trkpt lat="46.50044" lon="5.36542">
        <ele>232.8</ele>
        <time>2022-06-23T07:08:59Z</time>
      </trkpt>
      <trkpt lat="46.50048" lon="5.36535">
        <ele>233</ele>
        <time>2022-06-23T07:09:00Z</time>
      </trkpt>
      <trkpt lat="46.50058" lon="5.36518">
        <ele>233.2</ele>
        <time>2022-06-23T07:09:03Z</time>
      </trkpt>
      <trkpt lat="46.5007" lon="5.36499">
        <ele>233.8</ele>
        <time>2022-06-23T07:09:06Z</time>
      </trkpt>
      <trkpt lat="46.50079" lon="5.36486">
        <ele>234</ele>
        <time>2022-06-23T07:09:08Z</time>
      </trkpt>
      <trkpt lat="46.50084" lon="5.36478">
        <ele>234</ele>
        <time>2022-06-23T07:09:09Z</time>
      </trkpt>
      <trkpt lat="46.50108" lon="5.36438">
        <ele>233.8</ele>
        <time>2022-06-23T07:09:14Z</time>
      </trkpt>
      <trkpt lat="46.50141" lon="5.36381">
        <ele>233</ele>
        <time>2022-06-23T07:09:21Z</time>
      </trkpt>
      <trkpt lat="46.50151" lon="5.36365">
        <ele>232.6</ele>
        <time>2022-06-23T07:09:23Z</time>
      </trkpt>
      <trkpt lat="46.50187" lon="5.36306">
        <ele>232.6</ele>
        <time>2022-06-23T07:09:31Z</time>
      </trkpt>
      <trkpt lat="46.50196" lon="5.36293">
        <ele>232.6</ele>
        <time>2022-06-23T07:09:33Z</time>
      </trkpt>
      <trkpt lat="46.50207" lon="5.36284">
        <ele>232.8</ele>
        <time>2022-06-23T07:09:35Z</time>
      </trkpt>
      <trkpt lat="46.50213" lon="5.3628">
        <ele>232.8</ele>
        <time>2022-06-23T07:09:36Z</time>
      </trkpt>
      <trkpt lat="46.50251" lon="5.36265">
        <ele>233</ele>
        <time>2022-06-23T07:09:42Z</time>
      </trkpt>
      <trkpt lat="46.50295" lon="5.36248">
        <ele>232.6</ele>
        <time>2022-06-23T07:09:48Z</time>
      </trkpt>
      <trkpt lat="46.50318" lon="5.3623">
        <ele>231.6</ele>
        <time>2022-06-23T07:09:51Z</time>
      </trkpt>
      <trkpt lat="46.50326" lon="5.36222">
        <ele>231.2</ele>
        <time>2022-06-23T07:09:52Z</time>
      </trkpt>
      <trkpt lat="46.50342" lon="5.36206">
        <ele>230.6</ele>
        <time>2022-06-23T07:09:54Z</time>
      </trkpt>
      <trkpt lat="46.50349" lon="5.36197">
        <ele>230</ele>
        <time>2022-06-23T07:09:55Z</time>
      </trkpt>
      <trkpt lat="46.50356" lon="5.36188">
        <ele>229.6</ele>
        <time>2022-06-23T07:09:56Z</time>
      </trkpt>
      <trkpt lat="46.50369" lon="5.3617">
        <ele>228.6</ele>
        <time>2022-06-23T07:09:58Z</time>
      </trkpt>
      <trkpt lat="46.50399" lon="5.36125">
        <ele>227.6</ele>
        <time>2022-06-23T07:10:03Z</time>
      </trkpt>
      <trkpt lat="46.50409" lon="5.36109">
        <ele>227.4</ele>
        <time>2022-06-23T07:10:05Z</time>
      </trkpt>
      <trkpt lat="46.50428" lon="5.36078">
        <ele>227.4</ele>
        <time>2022-06-23T07:10:09Z</time>
      </trkpt>
      <trkpt lat="46.50439" lon="5.36075">
        <ele>227.4</ele>
        <time>2022-06-23T07:10:11Z</time>
      </trkpt>
      <trkpt lat="46.50444" lon="5.36085">
        <ele>227.4</ele>
        <time>2022-06-23T07:10:13Z</time>
      </trkpt>
      <trkpt lat="46.50443" lon="5.36107">
        <ele>227.6</ele>
        <time>2022-06-23T07:10:16Z</time>
      </trkpt>
      <trkpt lat="46.5044" lon="5.36159">
        <ele>227.6</ele>
        <time>2022-06-23T07:10:21Z</time>
      </trkpt>
      <trkpt lat="46.50433" lon="5.36228">
        <ele>227.8</ele>
        <time>2022-06-23T07:10:28Z</time>
      </trkpt>
      <trkpt lat="46.50428" lon="5.36246">
        <ele>227.8</ele>
        <time>2022-06-23T07:10:30Z</time>
      </trkpt>
      <trkpt lat="46.50415" lon="5.36284">
        <ele>228</ele>
        <time>2022-06-23T07:10:34Z</time>
      </trkpt>
      <trkpt lat="46.50395" lon="5.36333">
        <ele>228.2</ele>
        <time>2022-06-23T07:10:40Z</time>
      </trkpt>
      <trkpt lat="46.5039" lon="5.36348">
        <ele>228.4</ele>
        <time>2022-06-23T07:10:42Z</time>
      </trkpt>
      <trkpt lat="46.50371" lon="5.36397">
        <ele>229.2</ele>
        <time>2022-06-23T07:10:48Z</time>
      </trkpt>
      <trkpt lat="46.50356" lon="5.36442">
        <ele>229.6</ele>
        <time>2022-06-23T07:10:54Z</time>
      </trkpt>
      <trkpt lat="46.50344" lon="5.36479">
        <ele>230.4</ele>
        <time>2022-06-23T07:10:59Z</time>
      </trkpt>
      <trkpt lat="46.50342" lon="5.36486">
        <ele>230.6</ele>
        <time>2022-06-23T07:11:00Z</time>
      </trkpt>
      <trkpt lat="46.50332" lon="5.3653">
        <ele>231.8</ele>
        <time>2022-06-23T07:11:06Z</time>
      </trkpt>
      <trkpt lat="46.50323" lon="5.36576">
        <ele>232.8</ele>
        <time>2022-06-23T07:11:12Z</time>
      </trkpt>
      <trkpt lat="46.50321" lon="5.36583">
        <ele>233</ele>
        <time>2022-06-23T07:11:13Z</time>
      </trkpt>
      <trkpt lat="46.50314" lon="5.36624">
        <ele>234</ele>
        <time>2022-06-23T07:11:18Z</time>
      </trkpt>
      <trkpt lat="46.50312" lon="5.36644">
        <ele>234.2</ele>
        <time>2022-06-23T07:11:20Z</time>
      </trkpt>
      <trkpt lat="46.50312" lon="5.36651">
        <ele>234.6</ele>
        <time>2022-06-23T07:11:21Z</time>
      </trkpt>
      <trkpt lat="46.50313" lon="5.36671">
        <ele>234.8</ele>
        <time>2022-06-23T07:11:23Z</time>
      </trkpt>
      <trkpt lat="46.50317" lon="5.36688">
        <ele>234.8</ele>
        <time>2022-06-23T07:11:25Z</time>
      </trkpt>
      <trkpt lat="46.50326" lon="5.36715">
        <ele>234.8</ele>
        <time>2022-06-23T07:11:28Z</time>
      </trkpt>
      <trkpt lat="46.50336" lon="5.3674">
        <ele>234.8</ele>
        <time>2022-06-23T07:11:31Z</time>
      </trkpt>
      <trkpt lat="46.50338" lon="5.36759">
        <ele>234.8</ele>
        <time>2022-06-23T07:11:33Z</time>
      </trkpt>
      <trkpt lat="46.50336" lon="5.36778">
        <ele>234.8</ele>
        <time>2022-06-23T07:11:35Z</time>
      </trkpt>
      <trkpt lat="46.50325" lon="5.3683">
        <ele>234.8</ele>
        <time>2022-06-23T07:11:41Z</time>
      </trkpt>
      <trkpt lat="46.50318" lon="5.36866">
        <ele>235</ele>
        <time>2022-06-23T07:11:45Z</time>
      </trkpt>
      <trkpt lat="46.50315" lon="5.36904">
        <ele>235.4</ele>
        <time>2022-06-23T07:11:49Z</time>
      </trkpt>
      <trkpt lat="46.50307" lon="5.36989">
        <ele>236</ele>
        <time>2022-06-23T07:11:58Z</time>
      </trkpt>
      <trkpt lat="46.50294" lon="5.3705">
        <ele>236.2</ele>
        <time>2022-06-23T07:12:05Z</time>
      </trkpt>
      <trkpt lat="46.50291" lon="5.3706">
        <ele>236.2</ele>
        <time>2022-06-23T07:12:06Z</time>
      </trkpt>
      <trkpt lat="46.50272" lon="5.37135">
        <ele>236.8</ele>
        <time>2022-06-23T07:12:15Z</time>
      </trkpt>
      <trkpt lat="46.5027" lon="5.37143">
        <ele>237</ele>
        <time>2022-06-23T07:12:16Z</time>
      </trkpt>
      <trkpt lat="46.50264" lon="5.37168">
        <ele>237.4</ele>
        <time>2022-06-23T07:12:19Z</time>
      </trkpt>
      <trkpt lat="46.5025" lon="5.37228">
        <ele>238</ele>
        <time>2022-06-23T07:12:26Z</time>
      </trkpt>
      <trkpt lat="46.50239" lon="5.3728">
        <ele>238.2</ele>
        <time>2022-06-23T07:12:32Z</time>
      </trkpt>
      <trkpt lat="46.50233" lon="5.37305">
        <ele>238.4</ele>
        <time>2022-06-23T07:12:35Z</time>
      </trkpt>
      <trkpt lat="46.50226" lon="5.37343">
        <ele>238.6</ele>
        <time>2022-06-23T07:12:39Z</time>
      </trkpt>
      <trkpt lat="46.50224" lon="5.3735">
        <ele>238.6</ele>
        <time>2022-06-23T07:12:40Z</time>
      </trkpt>
      <trkpt lat="46.50214" lon="5.37404">
        <ele>239.4</ele>
        <time>2022-06-23T07:12:46Z</time>
      </trkpt>
      <trkpt lat="46.50199" lon="5.37485">
        <ele>240</ele>
        <time>2022-06-23T07:12:55Z</time>
      </trkpt>
      <trkpt lat="46.50195" lon="5.375">
        <ele>240.2</ele>
        <time>2022-06-23T07:12:57Z</time>
      </trkpt>
      <trkpt lat="46.50192" lon="5.37516">
        <ele>240.6</ele>
        <time>2022-06-23T07:12:59Z</time>
      </trkpt>
      <trkpt lat="46.50184" lon="5.37558">
        <ele>241</ele>
        <time>2022-06-23T07:13:04Z</time>
      </trkpt>
      <trkpt lat="46.50182" lon="5.3759">
        <ele>241.6</ele>
        <time>2022-06-23T07:13:08Z</time>
      </trkpt>
      <trkpt lat="46.50183" lon="5.37605">
        <ele>241.8</ele>
        <time>2022-06-23T07:13:10Z</time>
      </trkpt>
      <trkpt lat="46.5019" lon="5.37641">
        <ele>242.6</ele>
        <time>2022-06-23T07:13:15Z</time>
      </trkpt>
      <trkpt lat="46.50192" lon="5.37649">
        <ele>243</ele>
        <time>2022-06-23T07:13:16Z</time>
      </trkpt>
      <trkpt lat="46.50193" lon="5.37661">
        <ele>243.6</ele>
        <time>2022-06-23T07:13:18Z</time>
      </trkpt>
      <trkpt lat="46.50192" lon="5.37668">
        <ele>243.8</ele>
        <time>2022-06-23T07:13:19Z</time>
      </trkpt>
      <trkpt lat="46.50191" lon="5.37675">
        <ele>243.8</ele>
        <time>2022-06-23T07:13:20Z</time>
      </trkpt>
      <trkpt lat="46.50182" lon="5.37698">
        <ele>244.6</ele>
        <time>2022-06-23T07:13:24Z</time>
      </trkpt>
      <trkpt lat="46.5018" lon="5.37701">
        <ele>244.8</ele>
        <time>2022-06-23T07:13:25Z</time>
      </trkpt>
      <trkpt lat="46.50175" lon="5.37716">
        <ele>245.6</ele>
        <time>2022-06-23T07:13:28Z</time>
      </trkpt>
      <trkpt lat="46.50173" lon="5.37722">
        <ele>245.6</ele>
        <time>2022-06-23T07:13:29Z</time>
      </trkpt>
      <trkpt lat="46.50172" lon="5.37728">
        <ele>246</ele>
        <time>2022-06-23T07:13:30Z</time>
      </trkpt>
      <trkpt lat="46.50174" lon="5.37746">
        <ele>247</ele>
        <time>2022-06-23T07:13:33Z</time>
      </trkpt>
      <trkpt lat="46.50181" lon="5.37753">
        <ele>247.6</ele>
        <time>2022-06-23T07:13:35Z</time>
      </trkpt>
      <trkpt lat="46.50186" lon="5.37756">
        <ele>247.8</ele>
        <time>2022-06-23T07:13:36Z</time>
      </trkpt>
      <trkpt lat="46.5019" lon="5.37758">
        <ele>248.2</ele>
        <time>2022-06-23T07:13:37Z</time>
      </trkpt>
      <trkpt lat="46.50214" lon="5.37771">
        <ele>249</ele>
        <time>2022-06-23T07:13:41Z</time>
      </trkpt>
      <trkpt lat="46.50223" lon="5.37778">
        <ele>249.2</ele>
        <time>2022-06-23T07:13:43Z</time>
      </trkpt>
      <trkpt lat="46.50228" lon="5.37782">
        <ele>249.2</ele>
        <time>2022-06-23T07:13:44Z</time>
      </trkpt>
      <trkpt lat="46.50238" lon="5.37789">
        <ele>249.4</ele>
        <time>2022-06-23T07:13:46Z</time>
      </trkpt>
      <trkpt lat="46.50259" lon="5.37806">
        <ele>249.8</ele>
        <time>2022-06-23T07:13:50Z</time>
      </trkpt>
      <trkpt lat="46.50269" lon="5.37814">
        <ele>250</ele>
        <time>2022-06-23T07:13:52Z</time>
      </trkpt>
      <trkpt lat="46.50273" lon="5.37818">
        <ele>250.2</ele>
        <time>2022-06-23T07:13:53Z</time>
      </trkpt>
      <trkpt lat="46.50283" lon="5.37828">
        <ele>250.4</ele>
        <time>2022-06-23T07:13:55Z</time>
      </trkpt>
      <trkpt lat="46.5032" lon="5.37866">
        <ele>250.8</ele>
        <time>2022-06-23T07:14:02Z</time>
      </trkpt>
      <trkpt lat="46.50346" lon="5.37895">
        <ele>250.8</ele>
        <time>2022-06-23T07:14:07Z</time>
      </trkpt>
      <trkpt lat="46.50351" lon="5.37902">
        <ele>250.8</ele>
        <time>2022-06-23T07:14:08Z</time>
      </trkpt>
      <trkpt lat="46.50354" lon="5.3791">
        <ele>250.8</ele>
        <time>2022-06-23T07:14:09Z</time>
      </trkpt>
      <trkpt lat="46.50359" lon="5.37927">
        <ele>250.8</ele>
        <time>2022-06-23T07:14:11Z</time>
      </trkpt>
      <trkpt lat="46.5036" lon="5.37935">
        <ele>251</ele>
        <time>2022-06-23T07:14:12Z</time>
      </trkpt>
      <trkpt lat="46.50361" lon="5.37952">
        <ele>251</ele>
        <time>2022-06-23T07:14:14Z</time>
      </trkpt>
      <trkpt lat="46.50359" lon="5.3798">
        <ele>251.2</ele>
        <time>2022-06-23T07:14:17Z</time>
      </trkpt>
      <trkpt lat="46.50358" lon="5.37989">
        <ele>251.2</ele>
        <time>2022-06-23T07:14:18Z</time>
      </trkpt>
      <trkpt lat="46.50356" lon="5.38017">
        <ele>251.4</ele>
        <time>2022-06-23T07:14:21Z</time>
      </trkpt>
      <trkpt lat="46.50359" lon="5.38033">
        <ele>251.2</ele>
        <time>2022-06-23T07:14:23Z</time>
      </trkpt>
      <trkpt lat="46.50366" lon="5.38044">
        <ele>250.8</ele>
        <time>2022-06-23T07:14:26Z</time>
      </trkpt>
      <trkpt lat="46.50369" lon="5.38046">
        <ele>250.8</ele>
        <time>2022-06-23T07:14:28Z</time>
      </trkpt>
      <trkpt lat="46.50373" lon="5.38048">
        <ele>250.6</ele>
        <time>2022-06-23T07:14:30Z</time>
      </trkpt>
      <trkpt lat="46.50383" lon="5.38045">
        <ele>250.4</ele>
        <time>2022-06-23T07:14:33Z</time>
      </trkpt>
      <trkpt lat="46.50387" lon="5.38041">
        <ele>250.4</ele>
        <time>2022-06-23T07:14:34Z</time>
      </trkpt>
      <trkpt lat="46.50391" lon="5.38035">
        <ele>250.4</ele>
        <time>2022-06-23T07:14:35Z</time>
      </trkpt>
      <trkpt lat="46.50399" lon="5.38022">
        <ele>250.2</ele>
        <time>2022-06-23T07:14:37Z</time>
      </trkpt>
      <trkpt lat="46.50403" lon="5.38015">
        <ele>250</ele>
        <time>2022-06-23T07:14:38Z</time>
      </trkpt>
      <trkpt lat="46.50431" lon="5.37964">
        <ele>249</ele>
        <time>2022-06-23T07:14:44Z</time>
      </trkpt>
      <trkpt lat="46.50448" lon="5.37935">
        <ele>248.4</ele>
        <time>2022-06-23T07:14:47Z</time>
      </trkpt>
      <trkpt lat="46.50453" lon="5.37925">
        <ele>247.8</ele>
        <time>2022-06-23T07:14:48Z</time>
      </trkpt>
      <trkpt lat="46.50459" lon="5.37915">
        <ele>247.2</ele>
        <time>2022-06-23T07:14:49Z</time>
      </trkpt>
      <trkpt lat="46.50472" lon="5.37896">
        <ele>246.4</ele>
        <time>2022-06-23T07:14:51Z</time>
      </trkpt>
      <trkpt lat="46.50498" lon="5.37858">
        <ele>245.2</ele>
        <time>2022-06-23T07:14:55Z</time>
      </trkpt>
      <trkpt lat="46.50517" lon="5.37828">
        <ele>244.2</ele>
        <time>2022-06-23T07:14:58Z</time>
      </trkpt>
      <trkpt lat="46.50543" lon="5.37789">
        <ele>242.8</ele>
        <time>2022-06-23T07:15:02Z</time>
      </trkpt>
      <trkpt lat="46.50549" lon="5.3778">
        <ele>242.4</ele>
        <time>2022-06-23T07:15:03Z</time>
      </trkpt>
      <trkpt lat="46.50564" lon="5.37758">
        <ele>241.8</ele>
        <time>2022-06-23T07:15:05Z</time>
      </trkpt>
      <trkpt lat="46.50576" lon="5.37738">
        <ele>240.6</ele>
        <time>2022-06-23T07:15:07Z</time>
      </trkpt>
      <trkpt lat="46.50601" lon="5.377">
        <ele>239.6</ele>
        <time>2022-06-23T07:15:11Z</time>
      </trkpt>
      <trkpt lat="46.50615" lon="5.37678">
        <ele>238.8</ele>
        <time>2022-06-23T07:15:13Z</time>
      </trkpt>
      <trkpt lat="46.50622" lon="5.37669">
        <ele>238.2</ele>
        <time>2022-06-23T07:15:14Z</time>
      </trkpt>
      <trkpt lat="46.50645" lon="5.37631">
        <ele>236.6</ele>
        <time>2022-06-23T07:15:18Z</time>
      </trkpt>
      <trkpt lat="46.50651" lon="5.37623">
        <ele>236.2</ele>
        <time>2022-06-23T07:15:19Z</time>
      </trkpt>
      <trkpt lat="46.50663" lon="5.37604">
        <ele>235.6</ele>
        <time>2022-06-23T07:15:21Z</time>
      </trkpt>
      <trkpt lat="46.50674" lon="5.37587">
        <ele>235.4</ele>
        <time>2022-06-23T07:15:23Z</time>
      </trkpt>
      <trkpt lat="46.50678" lon="5.37578">
        <ele>235.4</ele>
        <time>2022-06-23T07:15:24Z</time>
      </trkpt>
      <trkpt lat="46.50683" lon="5.3757">
        <ele>235.2</ele>
        <time>2022-06-23T07:15:25Z</time>
      </trkpt>
      <trkpt lat="46.50695" lon="5.37563">
        <ele>235</ele>
        <time>2022-06-23T07:15:27Z</time>
      </trkpt>
      <trkpt lat="46.50708" lon="5.37571">
        <ele>234.8</ele>
        <time>2022-06-23T07:15:29Z</time>
      </trkpt>
      <trkpt lat="46.50719" lon="5.37587">
        <ele>234.6</ele>
        <time>2022-06-23T07:15:31Z</time>
      </trkpt>
      <trkpt lat="46.50731" lon="5.3761">
        <ele>234.4</ele>
        <time>2022-06-23T07:15:34Z</time>
      </trkpt>
      <trkpt lat="46.50738" lon="5.37647">
        <ele>234.4</ele>
        <time>2022-06-23T07:15:38Z</time>
      </trkpt>
      <trkpt lat="46.50742" lon="5.37695">
        <ele>235.8</ele>
        <time>2022-06-23T07:15:44Z</time>
      </trkpt>
      <trkpt lat="46.50742" lon="5.37702">
        <ele>236</ele>
        <time>2022-06-23T07:15:45Z</time>
      </trkpt>
      <trkpt lat="46.50743" lon="5.37725">
        <ele>237.2</ele>
        <time>2022-06-23T07:15:48Z</time>
      </trkpt>
      <trkpt lat="46.50749" lon="5.37768">
        <ele>238.2</ele>
        <time>2022-06-23T07:15:53Z</time>
      </trkpt>
      <trkpt lat="46.5075" lon="5.37776">
        <ele>238.4</ele>
        <time>2022-06-23T07:15:54Z</time>
      </trkpt>
      <trkpt lat="46.50758" lon="5.37806">
        <ele>239</ele>
        <time>2022-06-23T07:15:58Z</time>
      </trkpt>
      <trkpt lat="46.50764" lon="5.37821">
        <ele>239.4</ele>
        <time>2022-06-23T07:16:00Z</time>
      </trkpt>
      <trkpt lat="46.50767" lon="5.37828">
        <ele>239.4</ele>
        <time>2022-06-23T07:16:01Z</time>
      </trkpt>
      <trkpt lat="46.50779" lon="5.37849">
        <ele>239.8</ele>
        <time>2022-06-23T07:16:04Z</time>
      </trkpt>
      <trkpt lat="46.50811" lon="5.37889">
        <ele>240.4</ele>
        <time>2022-06-23T07:16:11Z</time>
      </trkpt>
      <trkpt lat="46.50817" lon="5.37893">
        <ele>240.4</ele>
        <time>2022-06-23T07:16:12Z</time>
      </trkpt>
      <trkpt lat="46.50836" lon="5.379">
        <ele>240.6</ele>
        <time>2022-06-23T07:16:15Z</time>
      </trkpt>
      <trkpt lat="46.50882" lon="5.37904">
        <ele>240.8</ele>
        <time>2022-06-23T07:16:22Z</time>
      </trkpt>
      <trkpt lat="46.50922" lon="5.37901">
        <ele>240.8</ele>
        <time>2022-06-23T07:16:28Z</time>
      </trkpt>
      <trkpt lat="46.50974" lon="5.37885">
        <ele>241</ele>
        <time>2022-06-23T07:16:36Z</time>
      </trkpt>
      <trkpt lat="46.51029" lon="5.37875">
        <ele>240.2</ele>
        <time>2022-06-23T07:16:44Z</time>
      </trkpt>
      <trkpt lat="46.51038" lon="5.37873">
        <ele>240.2</ele>
        <time>2022-06-23T07:16:45Z</time>
      </trkpt>
      <trkpt lat="46.51094" lon="5.37865">
        <ele>239.6</ele>
        <time>2022-06-23T07:16:52Z</time>
      </trkpt>
      <trkpt lat="46.51101" lon="5.37862">
        <ele>239.4</ele>
        <time>2022-06-23T07:16:53Z</time>
      </trkpt>
      <trkpt lat="46.51131" lon="5.37845">
        <ele>238.2</ele>
        <time>2022-06-23T07:16:57Z</time>
      </trkpt>
      <trkpt lat="46.51145" lon="5.37834">
        <ele>237.6</ele>
        <time>2022-06-23T07:16:59Z</time>
      </trkpt>
      <trkpt lat="46.51152" lon="5.37829">
        <ele>237</ele>
        <time>2022-06-23T07:17:00Z</time>
      </trkpt>
      <trkpt lat="46.51172" lon="5.37815">
        <ele>236.4</ele>
        <time>2022-06-23T07:17:03Z</time>
      </trkpt>
      <trkpt lat="46.51187" lon="5.37809">
        <ele>236</ele>
        <time>2022-06-23T07:17:05Z</time>
      </trkpt>
      <trkpt lat="46.51203" lon="5.37806">
        <ele>235.8</ele>
        <time>2022-06-23T07:17:07Z</time>
      </trkpt>
      <trkpt lat="46.51235" lon="5.37801">
        <ele>235.4</ele>
        <time>2022-06-23T07:17:11Z</time>
      </trkpt>
      <trkpt lat="46.51259" lon="5.37794">
        <ele>234.8</ele>
        <time>2022-06-23T07:17:14Z</time>
      </trkpt>
      <trkpt lat="46.51274" lon="5.37786">
        <ele>234.2</ele>
        <time>2022-06-23T07:17:16Z</time>
      </trkpt>
      <trkpt lat="46.51289" lon="5.37779">
        <ele>233.4</ele>
        <time>2022-06-23T07:17:18Z</time>
      </trkpt>
      <trkpt lat="46.51317" lon="5.37765">
        <ele>232.8</ele>
        <time>2022-06-23T07:17:22Z</time>
      </trkpt>
      <trkpt lat="46.51346" lon="5.3775">
        <ele>232.2</ele>
        <time>2022-06-23T07:17:26Z</time>
      </trkpt>
      <trkpt lat="46.51381" lon="5.37732">
        <ele>231.2</ele>
        <time>2022-06-23T07:17:31Z</time>
      </trkpt>
      <trkpt lat="46.51388" lon="5.37728">
        <ele>231</ele>
        <time>2022-06-23T07:17:32Z</time>
      </trkpt>
      <trkpt lat="46.51409" lon="5.37719">
        <ele>230.2</ele>
        <time>2022-06-23T07:17:35Z</time>
      </trkpt>
      <trkpt lat="46.51425" lon="5.37715">
        <ele>230</ele>
        <time>2022-06-23T07:17:37Z</time>
      </trkpt>
      <trkpt lat="46.51478" lon="5.37701">
        <ele>229</ele>
        <time>2022-06-23T07:17:44Z</time>
      </trkpt>
      <trkpt lat="46.51519" lon="5.37693">
        <ele>228</ele>
        <time>2022-06-23T07:17:49Z</time>
      </trkpt>
      <trkpt lat="46.5157" lon="5.37683">
        <ele>227</ele>
        <time>2022-06-23T07:17:55Z</time>
      </trkpt>
      <trkpt lat="46.5158" lon="5.37681">
        <ele>226.8</ele>
        <time>2022-06-23T07:17:56Z</time>
      </trkpt>
      <trkpt lat="46.51624" lon="5.37673">
        <ele>225.8</ele>
        <time>2022-06-23T07:18:01Z</time>
      </trkpt>
      <trkpt lat="46.51632" lon="5.3767">
        <ele>225.6</ele>
        <time>2022-06-23T07:18:02Z</time>
      </trkpt>
      <trkpt lat="46.5167" lon="5.37651">
        <ele>224.8</ele>
        <time>2022-06-23T07:18:07Z</time>
      </trkpt>
      <trkpt lat="46.51677" lon="5.37646">
        <ele>224.6</ele>
        <time>2022-06-23T07:18:08Z</time>
      </trkpt>
      <trkpt lat="46.51692" lon="5.37633">
        <ele>224.6</ele>
        <time>2022-06-23T07:18:10Z</time>
      </trkpt>
      <trkpt lat="46.517" lon="5.3763">
        <ele>224.4</ele>
        <time>2022-06-23T07:18:11Z</time>
      </trkpt>
      <trkpt lat="46.51708" lon="5.37629">
        <ele>224.4</ele>
        <time>2022-06-23T07:18:12Z</time>
      </trkpt>
      <trkpt lat="46.51724" lon="5.37632">
        <ele>224.4</ele>
        <time>2022-06-23T07:18:14Z</time>
      </trkpt>
      <trkpt lat="46.51766" lon="5.37645">
        <ele>224.8</ele>
        <time>2022-06-23T07:18:20Z</time>
      </trkpt>
      <trkpt lat="46.51805" lon="5.3765">
        <ele>225.4</ele>
        <time>2022-06-23T07:18:26Z</time>
      </trkpt>
      <trkpt lat="46.51817" lon="5.3765">
        <ele>226</ele>
        <time>2022-06-23T07:18:28Z</time>
      </trkpt>
      <trkpt lat="46.51854" lon="5.37647">
        <ele>226.8</ele>
        <time>2022-06-23T07:18:34Z</time>
      </trkpt>
      <trkpt lat="46.51859" lon="5.37647">
        <ele>227</ele>
        <time>2022-06-23T07:18:35Z</time>
      </trkpt>
      <trkpt lat="46.51899" lon="5.37646">
        <ele>227.6</ele>
        <time>2022-06-23T07:18:41Z</time>
      </trkpt>
      <trkpt lat="46.51913" lon="5.37644">
        <ele>227.6</ele>
        <time>2022-06-23T07:18:43Z</time>
      </trkpt>
      <trkpt lat="46.51958" lon="5.37637">
        <ele>227.8</ele>
        <time>2022-06-23T07:18:49Z</time>
      </trkpt>
      <trkpt lat="46.52003" lon="5.3763">
        <ele>227.6</ele>
        <time>2022-06-23T07:18:56Z</time>
      </trkpt>
      <trkpt lat="46.52007" lon="5.3763">
        <ele>227.6</ele>
        <time>2022-06-23T07:18:57Z</time>
      </trkpt>
      <trkpt lat="46.52015" lon="5.37632">
        <ele>227.6</ele>
        <time>2022-06-23T07:18:59Z</time>
      </trkpt>
      <trkpt lat="46.52019" lon="5.3763">
        <ele>227.6</ele>
        <time>2022-06-23T07:19:00Z</time>
      </trkpt>
      <trkpt lat="46.52021" lon="5.37626">
        <ele>227.4</ele>
        <time>2022-06-23T07:19:01Z</time>
      </trkpt>
      <trkpt lat="46.52026" lon="5.37613">
        <ele>227.4</ele>
        <time>2022-06-23T07:19:03Z</time>
      </trkpt>
      <trkpt lat="46.52035" lon="5.37569">
        <ele>227.2</ele>
        <time>2022-06-23T07:19:08Z</time>
      </trkpt>
      <trkpt lat="46.52053" lon="5.37493">
        <ele>227.2</ele>
        <time>2022-06-23T07:19:16Z</time>
      </trkpt>
      <trkpt lat="46.52071" lon="5.37412">
        <ele>227.4</ele>
        <time>2022-06-23T07:19:25Z</time>
      </trkpt>
      <trkpt lat="46.52086" lon="5.37358">
        <ele>227.4</ele>
        <time>2022-06-23T07:19:31Z</time>
      </trkpt>
      <trkpt lat="46.5209" lon="5.3735">
        <ele>227.2</ele>
        <time>2022-06-23T07:19:32Z</time>
      </trkpt>
      <trkpt lat="46.52096" lon="5.37343">
        <ele>227.2</ele>
        <time>2022-06-23T07:19:33Z</time>
      </trkpt>
      <trkpt lat="46.52117" lon="5.37325">
        <ele>226.6</ele>
        <time>2022-06-23T07:19:36Z</time>
      </trkpt>
      <trkpt lat="46.52141" lon="5.37309">
        <ele>225.8</ele>
        <time>2022-06-23T07:19:39Z</time>
      </trkpt>
      <trkpt lat="46.52157" lon="5.37297">
        <ele>224.6</ele>
        <time>2022-06-23T07:19:41Z</time>
      </trkpt>
      <trkpt lat="46.52174" lon="5.37285">
        <ele>223.6</ele>
        <time>2022-06-23T07:19:43Z</time>
      </trkpt>
      <trkpt lat="46.52183" lon="5.37279">
        <ele>223.2</ele>
        <time>2022-06-23T07:19:44Z</time>
      </trkpt>
      <trkpt lat="46.52191" lon="5.37273">
        <ele>223</ele>
        <time>2022-06-23T07:19:45Z</time>
      </trkpt>
      <trkpt lat="46.52216" lon="5.37253">
        <ele>222.2</ele>
        <time>2022-06-23T07:19:48Z</time>
      </trkpt>
      <trkpt lat="46.52224" lon="5.37246">
        <ele>222</ele>
        <time>2022-06-23T07:19:49Z</time>
      </trkpt>
      <trkpt lat="46.5224" lon="5.37231">
        <ele>220.6</ele>
        <time>2022-06-23T07:19:51Z</time>
      </trkpt>
      <trkpt lat="46.52255" lon="5.37215">
        <ele>219.4</ele>
        <time>2022-06-23T07:19:53Z</time>
      </trkpt>
      <trkpt lat="46.52286" lon="5.37182">
        <ele>218.4</ele>
        <time>2022-06-23T07:19:57Z</time>
      </trkpt>
      <trkpt lat="46.5231" lon="5.37157">
        <ele>216.8</ele>
        <time>2022-06-23T07:20:00Z</time>
      </trkpt>
      <trkpt lat="46.52342" lon="5.37123">
        <ele>215.8</ele>
        <time>2022-06-23T07:20:04Z</time>
      </trkpt>
      <trkpt lat="46.52366" lon="5.37097">
        <ele>214.2</ele>
        <time>2022-06-23T07:20:07Z</time>
      </trkpt>
      <trkpt lat="46.52375" lon="5.37089">
        <ele>213.8</ele>
        <time>2022-06-23T07:20:08Z</time>
      </trkpt>
      <trkpt lat="46.52383" lon="5.3708">
        <ele>213.2</ele>
        <time>2022-06-23T07:20:09Z</time>
      </trkpt>
      <trkpt lat="46.5241" lon="5.37042">
        <ele>212.2</ele>
        <time>2022-06-23T07:20:13Z</time>
      </trkpt>
      <trkpt lat="46.52427" lon="5.3701">
        <ele>211</ele>
        <time>2022-06-23T07:20:16Z</time>
      </trkpt>
      <trkpt lat="46.52436" lon="5.36988">
        <ele>210.8</ele>
        <time>2022-06-23T07:20:18Z</time>
      </trkpt>
      <trkpt lat="46.52448" lon="5.36941">
        <ele>210.4</ele>
        <time>2022-06-23T07:20:22Z</time>
      </trkpt>
      <trkpt lat="46.52453" lon="5.36904">
        <ele>210</ele>
        <time>2022-06-23T07:20:25Z</time>
      </trkpt>
      <trkpt lat="46.52463" lon="5.36834">
        <ele>209.2</ele>
        <time>2022-06-23T07:20:31Z</time>
      </trkpt>
      <trkpt lat="46.52466" lon="5.36754">
        <ele>209.4</ele>
        <time>2022-06-23T07:20:38Z</time>
      </trkpt>
      <trkpt lat="46.52469" lon="5.36673">
        <ele>209.2</ele>
        <time>2022-06-23T07:20:45Z</time>
      </trkpt>
      <trkpt lat="46.52472" lon="5.36615">
        <ele>208.8</ele>
        <time>2022-06-23T07:20:50Z</time>
      </trkpt>
      <trkpt lat="46.52474" lon="5.36582">
        <ele>209</ele>
        <time>2022-06-23T07:20:53Z</time>
      </trkpt>
      <trkpt lat="46.52481" lon="5.36503">
        <ele>208.8</ele>
        <time>2022-06-23T07:21:00Z</time>
      </trkpt>
      <trkpt lat="46.52482" lon="5.36492">
        <ele>208.6</ele>
        <time>2022-06-23T07:21:01Z</time>
      </trkpt>
      <trkpt lat="46.52491" lon="5.36413">
        <ele>208.2</ele>
        <time>2022-06-23T07:21:08Z</time>
      </trkpt>
      <trkpt lat="46.52494" lon="5.36392">
        <ele>207.8</ele>
        <time>2022-06-23T07:21:10Z</time>
      </trkpt>
      <trkpt lat="46.52499" lon="5.3637">
        <ele>207.6</ele>
        <time>2022-06-23T07:21:12Z</time>
      </trkpt>
      <trkpt lat="46.52508" lon="5.36341">
        <ele>207.4</ele>
        <time>2022-06-23T07:21:15Z</time>
      </trkpt>
      <trkpt lat="46.52513" lon="5.36333">
        <ele>207.4</ele>
        <time>2022-06-23T07:21:16Z</time>
      </trkpt>
      <trkpt lat="46.52519" lon="5.36326">
        <ele>207.2</ele>
        <time>2022-06-23T07:21:17Z</time>
      </trkpt>
      <trkpt lat="46.52534" lon="5.36317">
        <ele>207</ele>
        <time>2022-06-23T07:21:19Z</time>
      </trkpt>
      <trkpt lat="46.52549" lon="5.36313">
        <ele>207</ele>
        <time>2022-06-23T07:21:21Z</time>
      </trkpt>
      <trkpt lat="46.52563" lon="5.36314">
        <ele>207</ele>
        <time>2022-06-23T07:21:23Z</time>
      </trkpt>
      <trkpt lat="46.52576" lon="5.36311">
        <ele>207</ele>
        <time>2022-06-23T07:21:25Z</time>
      </trkpt>
      <trkpt lat="46.52581" lon="5.36306">
        <ele>207</ele>
        <time>2022-06-23T07:21:26Z</time>
      </trkpt>
      <trkpt lat="46.52592" lon="5.36293">
        <ele>206.8</ele>
        <time>2022-06-23T07:21:28Z</time>
      </trkpt>
      <trkpt lat="46.52605" lon="5.36281">
        <ele>206.8</ele>
        <time>2022-06-23T07:21:30Z</time>
      </trkpt>
      <trkpt lat="46.52646" lon="5.36254">
        <ele>206.4</ele>
        <time>2022-06-23T07:21:36Z</time>
      </trkpt>
      <trkpt lat="46.52687" lon="5.36225">
        <ele>206.6</ele>
        <time>2022-06-23T07:21:42Z</time>
      </trkpt>
      <trkpt lat="46.52699" lon="5.36213">
        <ele>206.4</ele>
        <time>2022-06-23T07:21:44Z</time>
      </trkpt>
      <trkpt lat="46.52709" lon="5.36198">
        <ele>206.2</ele>
        <time>2022-06-23T07:21:46Z</time>
      </trkpt>
      <trkpt lat="46.52724" lon="5.36152">
        <ele>206.2</ele>
        <time>2022-06-23T07:21:51Z</time>
      </trkpt>
      <trkpt lat="46.52746" lon="5.36083">
        <ele>206.6</ele>
        <time>2022-06-23T07:21:59Z</time>
      </trkpt>
      <trkpt lat="46.52756" lon="5.36058">
        <ele>207</ele>
        <time>2022-06-23T07:22:02Z</time>
      </trkpt>
      <trkpt lat="46.52767" lon="5.36046">
        <ele>207.2</ele>
        <time>2022-06-23T07:22:04Z</time>
      </trkpt>
      <trkpt lat="46.52777" lon="5.36044">
        <ele>207.2</ele>
        <time>2022-06-23T07:22:06Z</time>
      </trkpt>
      <trkpt lat="46.52784" lon="5.36046">
        <ele>207.6</ele>
        <time>2022-06-23T07:22:07Z</time>
      </trkpt>
      <trkpt lat="46.52811" lon="5.36055">
        <ele>208</ele>
        <time>2022-06-23T07:22:12Z</time>
      </trkpt>
      <trkpt lat="46.52819" lon="5.36058">
        <ele>208.2</ele>
        <time>2022-06-23T07:22:14Z</time>
      </trkpt>
      <trkpt lat="46.52832" lon="5.36064">
        <ele>209</ele>
        <time>2022-06-23T07:22:18Z</time>
      </trkpt>
      <trkpt lat="46.52834" lon="5.36065">
        <ele>209.2</ele>
        <time>2022-06-23T07:22:19Z</time>
      </trkpt>
      <trkpt lat="46.52843" lon="5.36064">
        <ele>209.8</ele>
        <time>2022-06-23T07:22:22Z</time>
      </trkpt>
      <trkpt lat="46.52854" lon="5.36065">
        <ele>210.2</ele>
        <time>2022-06-23T07:22:24Z</time>
      </trkpt>
      <trkpt lat="46.52858" lon="5.36066">
        <ele>210.4</ele>
        <time>2022-06-23T07:22:25Z</time>
      </trkpt>
      <trkpt lat="46.52863" lon="5.36067">
        <ele>210.4</ele>
        <time>2022-06-23T07:22:26Z</time>
      </trkpt>
      <trkpt lat="46.52898" lon="5.36071">
        <ele>211</ele>
        <time>2022-06-23T07:22:33Z</time>
      </trkpt>
      <trkpt lat="46.52917" lon="5.36073">
        <ele>211.4</ele>
        <time>2022-06-23T07:22:37Z</time>
      </trkpt>
      <trkpt lat="46.52927" lon="5.36075">
        <ele>211.8</ele>
        <time>2022-06-23T07:22:39Z</time>
      </trkpt>
      <trkpt lat="46.52937" lon="5.36078">
        <ele>212</ele>
        <time>2022-06-23T07:22:41Z</time>
      </trkpt>
      <trkpt lat="46.52946" lon="5.36082">
        <ele>212.2</ele>
        <time>2022-06-23T07:22:43Z</time>
      </trkpt>
      <trkpt lat="46.5295" lon="5.36085">
        <ele>212.6</ele>
        <time>2022-06-23T07:22:44Z</time>
      </trkpt>
      <trkpt lat="46.52954" lon="5.36089">
        <ele>212.8</ele>
        <time>2022-06-23T07:22:45Z</time>
      </trkpt>
      <trkpt lat="46.5296" lon="5.36098">
        <ele>213.2</ele>
        <time>2022-06-23T07:22:47Z</time>
      </trkpt>
      <trkpt lat="46.52965" lon="5.36108">
        <ele>213.6</ele>
        <time>2022-06-23T07:22:49Z</time>
      </trkpt>
      <trkpt lat="46.52968" lon="5.36113">
        <ele>213.6</ele>
        <time>2022-06-23T07:22:50Z</time>
      </trkpt>
      <trkpt lat="46.52978" lon="5.36128">
        <ele>214.6</ele>
        <time>2022-06-23T07:22:53Z</time>
      </trkpt>
      <trkpt lat="46.52986" lon="5.36136">
        <ele>214.8</ele>
        <time>2022-06-23T07:22:55Z</time>
      </trkpt>
      <trkpt lat="46.52997" lon="5.36139">
        <ele>215.2</ele>
        <time>2022-06-23T07:22:57Z</time>
      </trkpt>
      <trkpt lat="46.53006" lon="5.3614">
        <ele>215.6</ele>
        <time>2022-06-23T07:22:59Z</time>
      </trkpt>
      <trkpt lat="46.5301" lon="5.3614">
        <ele>215.4</ele>
        <time>2022-06-23T07:23:00Z</time>
      </trkpt>
      <trkpt lat="46.53019" lon="5.36141">
        <ele>215.8</ele>
        <time>2022-06-23T07:23:02Z</time>
      </trkpt>
      <trkpt lat="46.53029" lon="5.36143">
        <ele>216.4</ele>
        <time>2022-06-23T07:23:04Z</time>
      </trkpt>
      <trkpt lat="46.53034" lon="5.36144">
        <ele>217</ele>
        <time>2022-06-23T07:23:05Z</time>
      </trkpt>
      <trkpt lat="46.53058" lon="5.36139">
        <ele>217.6</ele>
        <time>2022-06-23T07:23:10Z</time>
      </trkpt>
      <trkpt lat="46.53066" lon="5.36133">
        <ele>218</ele>
        <time>2022-06-23T07:23:12Z</time>
      </trkpt>
      <trkpt lat="46.53081" lon="5.36118">
        <ele>218.4</ele>
        <time>2022-06-23T07:23:16Z</time>
      </trkpt>
      <trkpt lat="46.53088" lon="5.36109">
        <ele>219</ele>
        <time>2022-06-23T07:23:18Z</time>
      </trkpt>
      <trkpt lat="46.53091" lon="5.36104">
        <ele>219.2</ele>
        <time>2022-06-23T07:23:19Z</time>
      </trkpt>
      <trkpt lat="46.53096" lon="5.36095">
        <ele>219.4</ele>
        <time>2022-06-23T07:23:21Z</time>
      </trkpt>
      <trkpt lat="46.53102" lon="5.36084">
        <ele>219.6</ele>
        <time>2022-06-23T07:23:23Z</time>
      </trkpt>
      <trkpt lat="46.53107" lon="5.36073">
        <ele>220.6</ele>
        <time>2022-06-23T07:23:25Z</time>
      </trkpt>
      <trkpt lat="46.53122" lon="5.36044">
        <ele>221.4</ele>
        <time>2022-06-23T07:23:30Z</time>
      </trkpt>
      <trkpt lat="46.53125" lon="5.36039">
        <ele>221.6</ele>
        <time>2022-06-23T07:23:31Z</time>
      </trkpt>
      <trkpt lat="46.5315" lon="5.36">
        <ele>222.6</ele>
        <time>2022-06-23T07:23:38Z</time>
      </trkpt>
      <trkpt lat="46.53171" lon="5.35957">
        <ele>224</ele>
        <time>2022-06-23T07:23:45Z</time>
      </trkpt>
      <trkpt lat="46.53177" lon="5.35946">
        <ele>224.2</ele>
        <time>2022-06-23T07:23:47Z</time>
      </trkpt>
      <trkpt lat="46.53185" lon="5.35934">
        <ele>224.6</ele>
        <time>2022-06-23T07:23:49Z</time>
      </trkpt>
      <trkpt lat="46.53194" lon="5.35926">
        <ele>224.8</ele>
        <time>2022-06-23T07:23:51Z</time>
      </trkpt>
      <trkpt lat="46.53224" lon="5.35914">
        <ele>225</ele>
        <time>2022-06-23T07:23:56Z</time>
      </trkpt>
      <trkpt lat="46.53276" lon="5.35892">
        <ele>224.6</ele>
        <time>2022-06-23T07:24:04Z</time>
      </trkpt>
      <trkpt lat="46.53332" lon="5.35869">
        <ele>224.6</ele>
        <time>2022-06-23T07:24:13Z</time>
      </trkpt>
      <trkpt lat="46.53367" lon="5.35863">
        <ele>225.4</ele>
        <time>2022-06-23T07:24:19Z</time>
      </trkpt>
      <trkpt lat="46.53407" lon="5.35867">
        <ele>226</ele>
        <time>2022-06-23T07:24:26Z</time>
      </trkpt>
      <trkpt lat="46.53412" lon="5.35868">
        <ele>226</ele>
        <time>2022-06-23T07:24:27Z</time>
      </trkpt>
      <trkpt lat="46.53439" lon="5.35871">
        <ele>227.2</ele>
        <time>2022-06-23T07:24:32Z</time>
      </trkpt>
      <trkpt lat="46.53459" lon="5.35872">
        <ele>227.4</ele>
        <time>2022-06-23T07:24:36Z</time>
      </trkpt>
      <trkpt lat="46.53464" lon="5.3587">
        <ele>227.8</ele>
        <time>2022-06-23T07:24:37Z</time>
      </trkpt>
      <trkpt lat="46.53474" lon="5.35866">
        <ele>228</ele>
        <time>2022-06-23T07:24:39Z</time>
      </trkpt>
      <trkpt lat="46.53479" lon="5.35864">
        <ele>228</ele>
        <time>2022-06-23T07:24:40Z</time>
      </trkpt>
      <trkpt lat="46.53485" lon="5.35861">
        <ele>228.2</ele>
        <time>2022-06-23T07:24:41Z</time>
      </trkpt>
      <trkpt lat="46.53499" lon="5.35855">
        <ele>228.6</ele>
        <time>2022-06-23T07:24:44Z</time>
      </trkpt>
      <trkpt lat="46.53505" lon="5.35854">
        <ele>228.6</ele>
        <time>2022-06-23T07:24:45Z</time>
      </trkpt>
      <trkpt lat="46.53511" lon="5.35853">
        <ele>228.8</ele>
        <time>2022-06-23T07:24:46Z</time>
      </trkpt>
      <trkpt lat="46.53529" lon="5.35854">
        <ele>229.4</ele>
        <time>2022-06-23T07:24:49Z</time>
      </trkpt>
      <trkpt lat="46.53535" lon="5.35855">
        <ele>229.6</ele>
        <time>2022-06-23T07:24:50Z</time>
      </trkpt>
      <trkpt lat="46.53584" lon="5.35865">
        <ele>230</ele>
        <time>2022-06-23T07:24:58Z</time>
      </trkpt>
      <trkpt lat="46.53627" lon="5.3588">
        <ele>229.8</ele>
        <time>2022-06-23T07:25:05Z</time>
      </trkpt>
      <trkpt lat="46.53635" lon="5.35884">
        <ele>229.6</ele>
        <time>2022-06-23T07:25:07Z</time>
      </trkpt>
      <trkpt lat="46.53643" lon="5.35882">
        <ele>229.4</ele>
        <time>2022-06-23T07:25:09Z</time>
      </trkpt>
      <trkpt lat="46.53646" lon="5.3588">
        <ele>229.2</ele>
        <time>2022-06-23T07:25:10Z</time>
      </trkpt>
      <trkpt lat="46.53658" lon="5.3587">
        <ele>228.8</ele>
        <time>2022-06-23T07:25:12Z</time>
      </trkpt>
      <trkpt lat="46.53663" lon="5.35863">
        <ele>228.8</ele>
        <time>2022-06-23T07:25:13Z</time>
      </trkpt>
      <trkpt lat="46.53674" lon="5.35847">
        <ele>228.4</ele>
        <time>2022-06-23T07:25:15Z</time>
      </trkpt>
      <trkpt lat="46.53686" lon="5.35828">
        <ele>227.8</ele>
        <time>2022-06-23T07:25:17Z</time>
      </trkpt>
      <trkpt lat="46.53691" lon="5.3582">
        <ele>227.2</ele>
        <time>2022-06-23T07:25:18Z</time>
      </trkpt>
      <trkpt lat="46.53711" lon="5.35792">
        <ele>226</ele>
        <time>2022-06-23T07:25:21Z</time>
      </trkpt>
      <trkpt lat="46.53723" lon="5.35772">
        <ele>225.2</ele>
        <time>2022-06-23T07:25:23Z</time>
      </trkpt>
      <trkpt lat="46.53729" lon="5.35762">
        <ele>225</ele>
        <time>2022-06-23T07:25:24Z</time>
      </trkpt>
      <trkpt lat="46.53734" lon="5.3575">
        <ele>224.4</ele>
        <time>2022-06-23T07:25:25Z</time>
      </trkpt>
      <trkpt lat="46.53742" lon="5.35727">
        <ele>223.8</ele>
        <time>2022-06-23T07:25:27Z</time>
      </trkpt>
      <trkpt lat="46.53755" lon="5.35668">
        <ele>223.4</ele>
        <time>2022-06-23T07:25:32Z</time>
      </trkpt>
      <trkpt lat="46.53754" lon="5.35609">
        <ele>223</ele>
        <time>2022-06-23T07:25:37Z</time>
      </trkpt>
      <trkpt lat="46.53742" lon="5.35564">
        <ele>222.8</ele>
        <time>2022-06-23T07:25:41Z</time>
      </trkpt>
      <trkpt lat="46.53728" lon="5.355">
        <ele>222.6</ele>
        <time>2022-06-23T07:25:47Z</time>
      </trkpt>
      <trkpt lat="46.53726" lon="5.35445">
        <ele>222.8</ele>
        <time>2022-06-23T07:25:52Z</time>
      </trkpt>
      <trkpt lat="46.53731" lon="5.35398">
        <ele>223.4</ele>
        <time>2022-06-23T07:25:57Z</time>
      </trkpt>
      <trkpt lat="46.53743" lon="5.3534">
        <ele>224.2</ele>
        <time>2022-06-23T07:26:04Z</time>
      </trkpt>
      <trkpt lat="46.53745" lon="5.35332">
        <ele>224.6</ele>
        <time>2022-06-23T07:26:05Z</time>
      </trkpt>
      <trkpt lat="46.53757" lon="5.35305">
        <ele>225.6</ele>
        <time>2022-06-23T07:26:09Z</time>
      </trkpt>
      <trkpt lat="46.5376" lon="5.35299">
        <ele>225.8</ele>
        <time>2022-06-23T07:26:10Z</time>
      </trkpt>
      <trkpt lat="46.53778" lon="5.35269">
        <ele>226.6</ele>
        <time>2022-06-23T07:26:15Z</time>
      </trkpt>
      <trkpt lat="46.53787" lon="5.35257">
        <ele>227</ele>
        <time>2022-06-23T07:26:17Z</time>
      </trkpt>
      <trkpt lat="46.53821" lon="5.35224">
        <ele>227.6</ele>
        <time>2022-06-23T07:26:23Z</time>
      </trkpt>
      <trkpt lat="46.53828" lon="5.35219">
        <ele>227.6</ele>
        <time>2022-06-23T07:26:24Z</time>
      </trkpt>
      <trkpt lat="46.53875" lon="5.35186">
        <ele>227.4</ele>
        <time>2022-06-23T07:26:31Z</time>
      </trkpt>
      <trkpt lat="46.53926" lon="5.35151">
        <ele>226.6</ele>
        <time>2022-06-23T07:26:38Z</time>
      </trkpt>
      <trkpt lat="46.53932" lon="5.35147">
        <ele>226.4</ele>
        <time>2022-06-23T07:26:39Z</time>
      </trkpt>
      <trkpt lat="46.53963" lon="5.35115">
        <ele>225.4</ele>
        <time>2022-06-23T07:26:44Z</time>
      </trkpt>
      <trkpt lat="46.53974" lon="5.35101">
        <ele>225.2</ele>
        <time>2022-06-23T07:26:46Z</time>
      </trkpt>
      <trkpt lat="46.54019" lon="5.35051">
        <ele>224.4</ele>
        <time>2022-06-23T07:26:53Z</time>
      </trkpt>
      <trkpt lat="46.54026" lon="5.35045">
        <ele>224.2</ele>
        <time>2022-06-23T07:26:54Z</time>
      </trkpt>
      <trkpt lat="46.54073" lon="5.35016">
        <ele>223.4</ele>
        <time>2022-06-23T07:27:00Z</time>
      </trkpt>
      <trkpt lat="46.54082" lon="5.35013">
        <ele>223.2</ele>
        <time>2022-06-23T07:27:01Z</time>
      </trkpt>
      <trkpt lat="46.54123" lon="5.34994">
        <ele>222.2</ele>
        <time>2022-06-23T07:27:06Z</time>
      </trkpt>
      <trkpt lat="46.54139" lon="5.34984">
        <ele>221.6</ele>
        <time>2022-06-23T07:27:08Z</time>
      </trkpt>
      <trkpt lat="46.54153" lon="5.34969">
        <ele>221.2</ele>
        <time>2022-06-23T07:27:10Z</time>
      </trkpt>
      <trkpt lat="46.54161" lon="5.34959">
        <ele>221</ele>
        <time>2022-06-23T07:27:11Z</time>
      </trkpt>
      <trkpt lat="46.54203" lon="5.34915">
        <ele>219.8</ele>
        <time>2022-06-23T07:27:17Z</time>
      </trkpt>
      <trkpt lat="46.5421" lon="5.34909">
        <ele>219.8</ele>
        <time>2022-06-23T07:27:18Z</time>
      </trkpt>
      <trkpt lat="46.54224" lon="5.34895">
        <ele>219.2</ele>
        <time>2022-06-23T07:27:20Z</time>
      </trkpt>
      <trkpt lat="46.54237" lon="5.34878">
        <ele>218.8</ele>
        <time>2022-06-23T07:27:22Z</time>
      </trkpt>
      <trkpt lat="46.54242" lon="5.34868">
        <ele>218.4</ele>
        <time>2022-06-23T07:27:23Z</time>
      </trkpt>
      <trkpt lat="46.54253" lon="5.34846">
        <ele>218</ele>
        <time>2022-06-23T07:27:25Z</time>
      </trkpt>
      <trkpt lat="46.54271" lon="5.34822">
        <ele>217.8</ele>
        <time>2022-06-23T07:27:28Z</time>
      </trkpt>
      <trkpt lat="46.54318" lon="5.34771">
        <ele>217.4</ele>
        <time>2022-06-23T07:27:35Z</time>
      </trkpt>
      <trkpt lat="46.54353" lon="5.34746">
        <ele>217.2</ele>
        <time>2022-06-23T07:27:40Z</time>
      </trkpt>
      <trkpt lat="46.54385" lon="5.34736">
        <ele>217.4</ele>
        <time>2022-06-23T07:27:45Z</time>
      </trkpt>
      <trkpt lat="46.54416" lon="5.34721">
        <ele>217.6</ele>
        <time>2022-06-23T07:27:50Z</time>
      </trkpt>
      <trkpt lat="46.54459" lon="5.34696">
        <ele>217.8</ele>
        <time>2022-06-23T07:27:57Z</time>
      </trkpt>
      <trkpt lat="46.54483" lon="5.34676">
        <ele>217.8</ele>
        <time>2022-06-23T07:28:01Z</time>
      </trkpt>
      <trkpt lat="46.54492" lon="5.34666">
        <ele>217.8</ele>
        <time>2022-06-23T07:28:03Z</time>
      </trkpt>
      <trkpt lat="46.5452" lon="5.34622">
        <ele>217.8</ele>
        <time>2022-06-23T07:28:09Z</time>
      </trkpt>
      <trkpt lat="46.5455" lon="5.34592">
        <ele>218.4</ele>
        <time>2022-06-23T07:28:15Z</time>
      </trkpt>
      <trkpt lat="46.54569" lon="5.34575">
        <ele>218.8</ele>
        <time>2022-06-23T07:28:19Z</time>
      </trkpt>
      <trkpt lat="46.54576" lon="5.34568">
        <ele>219.4</ele>
        <time>2022-06-23T07:28:21Z</time>
      </trkpt>
      <trkpt lat="46.54581" lon="5.34564">
        <ele>219.6</ele>
        <time>2022-06-23T07:28:22Z</time>
      </trkpt>
      <trkpt lat="46.5459" lon="5.34556">
        <ele>220</ele>
        <time>2022-06-23T07:28:24Z</time>
      </trkpt>
      <trkpt lat="46.54597" lon="5.34551">
        <ele>220.2</ele>
        <time>2022-06-23T07:28:26Z</time>
      </trkpt>
      <trkpt lat="46.54608" lon="5.34542">
        <ele>221.4</ele>
        <time>2022-06-23T07:28:29Z</time>
      </trkpt>
      <trkpt lat="46.54615" lon="5.34536">
        <ele>222.2</ele>
        <time>2022-06-23T07:28:31Z</time>
      </trkpt>
      <trkpt lat="46.54624" lon="5.34528">
        <ele>222.6</ele>
        <time>2022-06-23T07:28:33Z</time>
      </trkpt>
      <trkpt lat="46.54641" lon="5.34514">
        <ele>223.8</ele>
        <time>2022-06-23T07:28:37Z</time>
      </trkpt>
      <trkpt lat="46.54652" lon="5.34506">
        <ele>224</ele>
        <time>2022-06-23T07:28:39Z</time>
      </trkpt>
      <trkpt lat="46.54696" lon="5.34477">
        <ele>224.6</ele>
        <time>2022-06-23T07:28:47Z</time>
      </trkpt>
      <trkpt lat="46.5474" lon="5.34463">
        <ele>224.8</ele>
        <time>2022-06-23T07:28:54Z</time>
      </trkpt>
      <trkpt lat="46.54788" lon="5.34449">
        <ele>224.2</ele>
        <time>2022-06-23T07:29:01Z</time>
      </trkpt>
      <trkpt lat="46.54824" lon="5.34433">
        <ele>223.8</ele>
        <time>2022-06-23T07:29:07Z</time>
      </trkpt>
      <trkpt lat="46.54852" lon="5.34419">
        <ele>224.2</ele>
        <time>2022-06-23T07:29:12Z</time>
      </trkpt>
      <trkpt lat="46.54887" lon="5.34394">
        <ele>224.8</ele>
        <time>2022-06-23T07:29:18Z</time>
      </trkpt>
      <trkpt lat="46.54899" lon="5.34383">
        <ele>225</ele>
        <time>2022-06-23T07:29:20Z</time>
      </trkpt>
      <trkpt lat="46.54941" lon="5.34343">
        <ele>225.6</ele>
        <time>2022-06-23T07:29:28Z</time>
      </trkpt>
      <trkpt lat="46.54952" lon="5.34331">
        <ele>225.6</ele>
        <time>2022-06-23T07:29:30Z</time>
      </trkpt>
      <trkpt lat="46.54982" lon="5.34295">
        <ele>225.2</ele>
        <time>2022-06-23T07:29:35Z</time>
      </trkpt>
      <trkpt lat="46.55028" lon="5.34237">
        <ele>224.4</ele>
        <time>2022-06-23T07:29:43Z</time>
      </trkpt>
      <trkpt lat="46.55077" lon="5.34185">
        <ele>224.4</ele>
        <time>2022-06-23T07:29:51Z</time>
      </trkpt>
      <trkpt lat="46.55083" lon="5.34178">
        <ele>224.2</ele>
        <time>2022-06-23T07:29:52Z</time>
      </trkpt>
      <trkpt lat="46.55097" lon="5.34163">
        <ele>224.2</ele>
        <time>2022-06-23T07:29:54Z</time>
      </trkpt>
      <trkpt lat="46.55116" lon="5.34142">
        <ele>224.2</ele>
        <time>2022-06-23T07:29:57Z</time>
      </trkpt>
      <trkpt lat="46.5512" lon="5.34137">
        <ele>224</ele>
        <time>2022-06-23T07:29:58Z</time>
      </trkpt>
      <trkpt lat="46.55143" lon="5.34104">
        <ele>224</ele>
        <time>2022-06-23T07:30:02Z</time>
      </trkpt>
      <trkpt lat="46.55168" lon="5.34072">
        <ele>223.8</ele>
        <time>2022-06-23T07:30:07Z</time>
      </trkpt>
      <trkpt lat="46.55177" lon="5.34058">
        <ele>223.8</ele>
        <time>2022-06-23T07:30:09Z</time>
      </trkpt>
      <trkpt lat="46.5518" lon="5.34053">
        <ele>223.8</ele>
        <time>2022-06-23T07:30:10Z</time>
      </trkpt>
      <trkpt lat="46.55184" lon="5.34046">
        <ele>223.6</ele>
        <time>2022-06-23T07:30:11Z</time>
      </trkpt>
      <trkpt lat="46.55187" lon="5.3403">
        <ele>223.4</ele>
        <time>2022-06-23T07:30:13Z</time>
      </trkpt>
      <trkpt lat="46.55187" lon="5.34019">
        <ele>223.4</ele>
        <time>2022-06-23T07:30:14Z</time>
      </trkpt>
      <trkpt lat="46.5519" lon="5.34007">
        <ele>223.2</ele>
        <time>2022-06-23T07:30:15Z</time>
      </trkpt>
      <trkpt lat="46.55199" lon="5.33989">
        <ele>223</ele>
        <time>2022-06-23T07:30:17Z</time>
      </trkpt>
      <trkpt lat="46.55209" lon="5.33974">
        <ele>222.6</ele>
        <time>2022-06-23T07:30:19Z</time>
      </trkpt>
      <trkpt lat="46.5524" lon="5.33936">
        <ele>222.6</ele>
        <time>2022-06-23T07:30:24Z</time>
      </trkpt>
      <trkpt lat="46.55272" lon="5.33879">
        <ele>223</ele>
        <time>2022-06-23T07:30:31Z</time>
      </trkpt>
      <trkpt lat="46.55278" lon="5.33869">
        <ele>223</ele>
        <time>2022-06-23T07:30:32Z</time>
      </trkpt>
      <trkpt lat="46.553" lon="5.33837">
        <ele>223.2</ele>
        <time>2022-06-23T07:30:36Z</time>
      </trkpt>
      <trkpt lat="46.55348" lon="5.33784">
        <ele>222.6</ele>
        <time>2022-06-23T07:30:44Z</time>
      </trkpt>
      <trkpt lat="46.55356" lon="5.33776">
        <ele>222.6</ele>
        <time>2022-06-23T07:30:45Z</time>
      </trkpt>
      <trkpt lat="46.55396" lon="5.33747">
        <ele>222.2</ele>
        <time>2022-06-23T07:30:51Z</time>
      </trkpt>
      <trkpt lat="46.55409" lon="5.33736">
        <ele>222.2</ele>
        <time>2022-06-23T07:30:53Z</time>
      </trkpt>
      <trkpt lat="46.55426" lon="5.33715">
        <ele>222</ele>
        <time>2022-06-23T07:30:56Z</time>
      </trkpt>
      <trkpt lat="46.55465" lon="5.33661">
        <ele>222</ele>
        <time>2022-06-23T07:31:03Z</time>
      </trkpt>
      <trkpt lat="46.55499" lon="5.33612">
        <ele>221.6</ele>
        <time>2022-06-23T07:31:09Z</time>
      </trkpt>
      <trkpt lat="46.55505" lon="5.33604">
        <ele>221.6</ele>
        <time>2022-06-23T07:31:10Z</time>
      </trkpt>
      <trkpt lat="46.55511" lon="5.33596">
        <ele>221.6</ele>
        <time>2022-06-23T07:31:11Z</time>
      </trkpt>
      <trkpt lat="46.55552" lon="5.3354">
        <ele>220.4</ele>
        <time>2022-06-23T07:31:17Z</time>
      </trkpt>
      <trkpt lat="46.55584" lon="5.3349">
        <ele>219</ele>
        <time>2022-06-23T07:31:22Z</time>
      </trkpt>
      <trkpt lat="46.5559" lon="5.33466">
        <ele>218.4</ele>
        <time>2022-06-23T07:31:24Z</time>
      </trkpt>
      <trkpt lat="46.55594" lon="5.33437">
        <ele>217.6</ele>
        <time>2022-06-23T07:31:26Z</time>
      </trkpt>
      <trkpt lat="46.55597" lon="5.33392">
        <ele>216.2</ele>
        <time>2022-06-23T07:31:29Z</time>
      </trkpt>
      <trkpt lat="46.55602" lon="5.33351">
        <ele>215.6</ele>
        <time>2022-06-23T07:31:32Z</time>
      </trkpt>
      <trkpt lat="46.55609" lon="5.33325">
        <ele>215</ele>
        <time>2022-06-23T07:31:34Z</time>
      </trkpt>
      <trkpt lat="46.55616" lon="5.333">
        <ele>214.2</ele>
        <time>2022-06-23T07:31:36Z</time>
      </trkpt>
      <trkpt lat="46.55624" lon="5.33276">
        <ele>213.8</ele>
        <time>2022-06-23T07:31:38Z</time>
      </trkpt>
      <trkpt lat="46.55644" lon="5.33206">
        <ele>213.2</ele>
        <time>2022-06-23T07:31:44Z</time>
      </trkpt>
      <trkpt lat="46.55662" lon="5.33136">
        <ele>213</ele>
        <time>2022-06-23T07:31:50Z</time>
      </trkpt>
      <trkpt lat="46.55668" lon="5.33111">
        <ele>213</ele>
        <time>2022-06-23T07:31:52Z</time>
      </trkpt>
      <trkpt lat="46.55685" lon="5.33033">
        <ele>212.8</ele>
        <time>2022-06-23T07:31:59Z</time>
      </trkpt>
      <trkpt lat="46.55691" lon="5.32998">
        <ele>212.8</ele>
        <time>2022-06-23T07:32:02Z</time>
      </trkpt>
      <trkpt lat="46.55706" lon="5.32913">
        <ele>212.8</ele>
        <time>2022-06-23T07:32:10Z</time>
      </trkpt>
      <trkpt lat="46.5572" lon="5.32831">
        <ele>213.2</ele>
        <time>2022-06-23T07:32:18Z</time>
      </trkpt>
      <trkpt lat="46.55739" lon="5.3275">
        <ele>213.2</ele>
        <time>2022-06-23T07:32:26Z</time>
      </trkpt>
      <trkpt lat="46.55742" lon="5.32738">
        <ele>213.2</ele>
        <time>2022-06-23T07:32:27Z</time>
      </trkpt>
      <trkpt lat="46.55752" lon="5.327">
        <ele>213.2</ele>
        <time>2022-06-23T07:32:31Z</time>
      </trkpt>
      <trkpt lat="46.55762" lon="5.32682">
        <ele>213.2</ele>
        <time>2022-06-23T07:32:33Z</time>
      </trkpt>
      <trkpt lat="46.55775" lon="5.32671">
        <ele>213.2</ele>
        <time>2022-06-23T07:32:35Z</time>
      </trkpt>
      <trkpt lat="46.55782" lon="5.32667">
        <ele>213</ele>
        <time>2022-06-23T07:32:36Z</time>
      </trkpt>
      <trkpt lat="46.55789" lon="5.32664">
        <ele>213</ele>
        <time>2022-06-23T07:32:37Z</time>
      </trkpt>
      <trkpt lat="46.55804" lon="5.3266">
        <ele>212.8</ele>
        <time>2022-06-23T07:32:39Z</time>
      </trkpt>
      <trkpt lat="46.5581" lon="5.3266">
        <ele>212.6</ele>
        <time>2022-06-23T07:32:40Z</time>
      </trkpt>
      <trkpt lat="46.5587" lon="5.3265">
        <ele>212.6</ele>
        <time>2022-06-23T07:32:48Z</time>
      </trkpt>
      <trkpt lat="46.5589" lon="5.32637">
        <ele>212.6</ele>
        <time>2022-06-23T07:32:51Z</time>
      </trkpt>
      <trkpt lat="46.55902" lon="5.32624">
        <ele>212.6</ele>
        <time>2022-06-23T07:32:53Z</time>
      </trkpt>
      <trkpt lat="46.5592" lon="5.32591">
        <ele>213</ele>
        <time>2022-06-23T07:32:57Z</time>
      </trkpt>
      <trkpt lat="46.55924" lon="5.32582">
        <ele>213</ele>
        <time>2022-06-23T07:32:58Z</time>
      </trkpt>
      <trkpt lat="46.55955" lon="5.3251">
        <ele>213</ele>
        <time>2022-06-23T07:33:06Z</time>
      </trkpt>
      <trkpt lat="46.55984" lon="5.32439">
        <ele>213.2</ele>
        <time>2022-06-23T07:33:14Z</time>
      </trkpt>
      <trkpt lat="46.56" lon="5.32402">
        <ele>213.6</ele>
        <time>2022-06-23T07:33:18Z</time>
      </trkpt>
      <trkpt lat="46.56032" lon="5.32347">
        <ele>214</ele>
        <time>2022-06-23T07:33:25Z</time>
      </trkpt>
      <trkpt lat="46.5607" lon="5.32299">
        <ele>215.2</ele>
        <time>2022-06-23T07:33:33Z</time>
      </trkpt>
      <trkpt lat="46.56098" lon="5.32269">
        <ele>216.4</ele>
        <time>2022-06-23T07:33:39Z</time>
      </trkpt>
      <trkpt lat="46.56102" lon="5.32263">
        <ele>216.6</ele>
        <time>2022-06-23T07:33:40Z</time>
      </trkpt>
      <trkpt lat="46.56134" lon="5.32225">
        <ele>217.4</ele>
        <time>2022-06-23T07:33:47Z</time>
      </trkpt>
      <trkpt lat="46.56139" lon="5.32219">
        <ele>217.6</ele>
        <time>2022-06-23T07:33:48Z</time>
      </trkpt>
      <trkpt lat="46.56171" lon="5.3218">
        <ele>219</ele>
        <time>2022-06-23T07:33:55Z</time>
      </trkpt>
      <trkpt lat="46.56181" lon="5.32169">
        <ele>219.2</ele>
        <time>2022-06-23T07:33:57Z</time>
      </trkpt>
      <trkpt lat="46.56203" lon="5.32138">
        <ele>220</ele>
        <time>2022-06-23T07:34:02Z</time>
      </trkpt>
      <trkpt lat="46.56244" lon="5.32085">
        <ele>221</ele>
        <time>2022-06-23T07:34:11Z</time>
      </trkpt>
      <trkpt lat="46.56249" lon="5.32079">
        <ele>221</ele>
        <time>2022-06-23T07:34:12Z</time>
      </trkpt>
      <trkpt lat="46.56277" lon="5.32052">
        <ele>221.2</ele>
        <time>2022-06-23T07:34:17Z</time>
      </trkpt>
      <trkpt lat="46.5633" lon="5.32014">
        <ele>220.6</ele>
        <time>2022-06-23T07:34:25Z</time>
      </trkpt>
      <trkpt lat="46.56379" lon="5.31979">
        <ele>220.2</ele>
        <time>2022-06-23T07:34:32Z</time>
      </trkpt>
      <trkpt lat="46.56386" lon="5.31975">
        <ele>220.2</ele>
        <time>2022-06-23T07:34:33Z</time>
      </trkpt>
      <trkpt lat="46.56393" lon="5.31971">
        <ele>220.2</ele>
        <time>2022-06-23T07:34:34Z</time>
      </trkpt>
      <trkpt lat="46.56422" lon="5.31962">
        <ele>220.2</ele>
        <time>2022-06-23T07:34:38Z</time>
      </trkpt>
      <trkpt lat="46.56465" lon="5.3196">
        <ele>220.4</ele>
        <time>2022-06-23T07:34:44Z</time>
      </trkpt>
      <trkpt lat="46.56522" lon="5.31956">
        <ele>220.6</ele>
        <time>2022-06-23T07:34:52Z</time>
      </trkpt>
      <trkpt lat="46.56531" lon="5.31955">
        <ele>220.6</ele>
        <time>2022-06-23T07:34:53Z</time>
      </trkpt>
      <trkpt lat="46.56576" lon="5.31944">
        <ele>220.4</ele>
        <time>2022-06-23T07:34:59Z</time>
      </trkpt>
      <trkpt lat="46.56584" lon="5.3194">
        <ele>220.4</ele>
        <time>2022-06-23T07:35:00Z</time>
      </trkpt>
      <trkpt lat="46.56619" lon="5.3191">
        <ele>220.2</ele>
        <time>2022-06-23T07:35:05Z</time>
      </trkpt>
      <trkpt lat="46.5664" lon="5.31889">
        <ele>219.8</ele>
        <time>2022-06-23T07:35:08Z</time>
      </trkpt>
      <trkpt lat="46.56679" lon="5.31851">
        <ele>219.4</ele>
        <time>2022-06-23T07:35:14Z</time>
      </trkpt>
      <trkpt lat="46.56723" lon="5.31809">
        <ele>219.8</ele>
        <time>2022-06-23T07:35:21Z</time>
      </trkpt>
      <trkpt lat="46.56771" lon="5.31762">
        <ele>220.6</ele>
        <time>2022-06-23T07:35:29Z</time>
      </trkpt>
      <trkpt lat="46.56777" lon="5.31757">
        <ele>220.6</ele>
        <time>2022-06-23T07:35:30Z</time>
      </trkpt>
      <trkpt lat="46.56827" lon="5.31708">
        <ele>220.6</ele>
        <time>2022-06-23T07:35:38Z</time>
      </trkpt>
      <trkpt lat="46.56834" lon="5.31702">
        <ele>220.4</ele>
        <time>2022-06-23T07:35:39Z</time>
      </trkpt>
      <trkpt lat="46.56848" lon="5.31692">
        <ele>220.2</ele>
        <time>2022-06-23T07:35:41Z</time>
      </trkpt>
      <trkpt lat="46.56863" lon="5.31686">
        <ele>220</ele>
        <time>2022-06-23T07:35:43Z</time>
      </trkpt>
      <trkpt lat="46.56903" lon="5.31686">
        <ele>219.6</ele>
        <time>2022-06-23T07:35:48Z</time>
      </trkpt>
      <trkpt lat="46.56958" lon="5.31684">
        <ele>219.2</ele>
        <time>2022-06-23T07:35:55Z</time>
      </trkpt>
      <trkpt lat="46.56966" lon="5.31682">
        <ele>219.2</ele>
        <time>2022-06-23T07:35:56Z</time>
      </trkpt>
      <trkpt lat="46.57012" lon="5.31675">
        <ele>219.2</ele>
        <time>2022-06-23T07:36:02Z</time>
      </trkpt>
      <trkpt lat="46.57064" lon="5.31668">
        <ele>219</ele>
        <time>2022-06-23T07:36:09Z</time>
      </trkpt>
      <trkpt lat="46.57116" lon="5.31662">
        <ele>219.2</ele>
        <time>2022-06-23T07:36:16Z</time>
      </trkpt>
      <trkpt lat="46.57168" lon="5.31661">
        <ele>219.8</ele>
        <time>2022-06-23T07:36:23Z</time>
      </trkpt>
      <trkpt lat="46.57227" lon="5.31657">
        <ele>220</ele>
        <time>2022-06-23T07:36:31Z</time>
      </trkpt>
      <trkpt lat="46.5725" lon="5.31655">
        <ele>220.2</ele>
        <time>2022-06-23T07:36:34Z</time>
      </trkpt>
      <trkpt lat="46.57303" lon="5.31647">
        <ele>220.2</ele>
        <time>2022-06-23T07:36:41Z</time>
      </trkpt>
      <trkpt lat="46.57356" lon="5.31632">
        <ele>220</ele>
        <time>2022-06-23T07:36:48Z</time>
      </trkpt>
      <trkpt lat="46.57376" lon="5.31626">
        <ele>219.6</ele>
        <time>2022-06-23T07:36:51Z</time>
      </trkpt>
      <trkpt lat="46.57422" lon="5.31617">
        <ele>219.2</ele>
        <time>2022-06-23T07:36:57Z</time>
      </trkpt>
      <trkpt lat="46.57463" lon="5.31615">
        <ele>219.2</ele>
        <time>2022-06-23T07:37:02Z</time>
      </trkpt>
      <trkpt lat="46.57518" lon="5.31611">
        <ele>219.2</ele>
        <time>2022-06-23T07:37:09Z</time>
      </trkpt>
      <trkpt lat="46.57527" lon="5.31609">
        <ele>219.2</ele>
        <time>2022-06-23T07:37:10Z</time>
      </trkpt>
      <trkpt lat="46.57582" lon="5.31601">
        <ele>219.2</ele>
        <time>2022-06-23T07:37:17Z</time>
      </trkpt>
      <trkpt lat="46.57605" lon="5.31598">
        <ele>219.4</ele>
        <time>2022-06-23T07:37:20Z</time>
      </trkpt>
      <trkpt lat="46.5766" lon="5.31589">
        <ele>219.8</ele>
        <time>2022-06-23T07:37:27Z</time>
      </trkpt>
      <trkpt lat="46.57692" lon="5.31582">
        <ele>219.8</ele>
        <time>2022-06-23T07:37:31Z</time>
      </trkpt>
      <trkpt lat="46.57738" lon="5.31558">
        <ele>219.6</ele>
        <time>2022-06-23T07:37:37Z</time>
      </trkpt>
      <trkpt lat="46.57768" lon="5.31534">
        <ele>219</ele>
        <time>2022-06-23T07:37:41Z</time>
      </trkpt>
      <trkpt lat="46.57791" lon="5.31516">
        <ele>218.6</ele>
        <time>2022-06-23T07:37:44Z</time>
      </trkpt>
      <trkpt lat="46.57807" lon="5.31505">
        <ele>218.6</ele>
        <time>2022-06-23T07:37:46Z</time>
      </trkpt>
      <trkpt lat="46.57841" lon="5.31488">
        <ele>218</ele>
        <time>2022-06-23T07:37:50Z</time>
      </trkpt>
      <trkpt lat="46.579" lon="5.31469">
        <ele>217.2</ele>
        <time>2022-06-23T07:37:57Z</time>
      </trkpt>
      <trkpt lat="46.57909" lon="5.31466">
        <ele>217.2</ele>
        <time>2022-06-23T07:37:58Z</time>
      </trkpt>
      <trkpt lat="46.57943" lon="5.31456">
        <ele>216.8</ele>
        <time>2022-06-23T07:38:02Z</time>
      </trkpt>
      <trkpt lat="46.58002" lon="5.31439">
        <ele>216.2</ele>
        <time>2022-06-23T07:38:09Z</time>
      </trkpt>
      <trkpt lat="46.58027" lon="5.31432">
        <ele>215.8</ele>
        <time>2022-06-23T07:38:12Z</time>
      </trkpt>
      <trkpt lat="46.58061" lon="5.31429">
        <ele>215.8</ele>
        <time>2022-06-23T07:38:16Z</time>
      </trkpt>
      <trkpt lat="46.58117" lon="5.31434">
        <ele>215.4</ele>
        <time>2022-06-23T07:38:23Z</time>
      </trkpt>
      <trkpt lat="46.58125" lon="5.31433">
        <ele>215.4</ele>
        <time>2022-06-23T07:38:24Z</time>
      </trkpt>
      <trkpt lat="46.58133" lon="5.31431">
        <ele>215.4</ele>
        <time>2022-06-23T07:38:25Z</time>
      </trkpt>
      <trkpt lat="46.58155" lon="5.31418">
        <ele>215.4</ele>
        <time>2022-06-23T07:38:28Z</time>
      </trkpt>
      <trkpt lat="46.58207" lon="5.31376">
        <ele>215</ele>
        <time>2022-06-23T07:38:35Z</time>
      </trkpt>
      <trkpt lat="46.58215" lon="5.3137">
        <ele>215</ele>
        <time>2022-06-23T07:38:36Z</time>
      </trkpt>
      <trkpt lat="46.58238" lon="5.31351">
        <ele>214.6</ele>
        <time>2022-06-23T07:38:39Z</time>
      </trkpt>
      <trkpt lat="46.58278" lon="5.31318">
        <ele>213.8</ele>
        <time>2022-06-23T07:38:44Z</time>
      </trkpt>
      <trkpt lat="46.58286" lon="5.31311">
        <ele>213.6</ele>
        <time>2022-06-23T07:38:45Z</time>
      </trkpt>
      <trkpt lat="46.58337" lon="5.31274">
        <ele>212.8</ele>
        <time>2022-06-23T07:38:51Z</time>
      </trkpt>
      <trkpt lat="46.58346" lon="5.31269">
        <ele>212.8</ele>
        <time>2022-06-23T07:38:52Z</time>
      </trkpt>
      <trkpt lat="46.58355" lon="5.31264">
        <ele>212.6</ele>
        <time>2022-06-23T07:38:53Z</time>
      </trkpt>
      <trkpt lat="46.58407" lon="5.31241">
        <ele>212.4</ele>
        <time>2022-06-23T07:38:59Z</time>
      </trkpt>
      <trkpt lat="46.58416" lon="5.31237">
        <ele>212.4</ele>
        <time>2022-06-23T07:39:00Z</time>
      </trkpt>
      <trkpt lat="46.58475" lon="5.31212">
        <ele>212.2</ele>
        <time>2022-06-23T07:39:07Z</time>
      </trkpt>
      <trkpt lat="46.58491" lon="5.31205">
        <ele>212.2</ele>
        <time>2022-06-23T07:39:09Z</time>
      </trkpt>
      <trkpt lat="46.58549" lon="5.31175">
        <ele>212.2</ele>
        <time>2022-06-23T07:39:16Z</time>
      </trkpt>
      <trkpt lat="46.58602" lon="5.31126">
        <ele>212</ele>
        <time>2022-06-23T07:39:23Z</time>
      </trkpt>
      <trkpt lat="46.58625" lon="5.31102">
        <ele>211.6</ele>
        <time>2022-06-23T07:39:26Z</time>
      </trkpt>
      <trkpt lat="46.58662" lon="5.31064">
        <ele>211</ele>
        <time>2022-06-23T07:39:31Z</time>
      </trkpt>
      <trkpt lat="46.5869" lon="5.31033">
        <ele>210.6</ele>
        <time>2022-06-23T07:39:35Z</time>
      </trkpt>
      <trkpt lat="46.5871" lon="5.31013">
        <ele>210.6</ele>
        <time>2022-06-23T07:39:38Z</time>
      </trkpt>
      <trkpt lat="46.58754" lon="5.30967">
        <ele>210.8</ele>
        <time>2022-06-23T07:39:45Z</time>
      </trkpt>
      <trkpt lat="46.58787" lon="5.30933">
        <ele>211.6</ele>
        <time>2022-06-23T07:39:51Z</time>
      </trkpt>
      <trkpt lat="46.58792" lon="5.30927">
        <ele>211.6</ele>
        <time>2022-06-23T07:39:52Z</time>
      </trkpt>
      <trkpt lat="46.5881" lon="5.30914">
        <ele>212.2</ele>
        <time>2022-06-23T07:39:55Z</time>
      </trkpt>
      <trkpt lat="46.58823" lon="5.30908">
        <ele>212.8</ele>
        <time>2022-06-23T07:39:57Z</time>
      </trkpt>
      <trkpt lat="46.58843" lon="5.30902">
        <ele>213.6</ele>
        <time>2022-06-23T07:40:00Z</time>
      </trkpt>
      <trkpt lat="46.58859" lon="5.30901">
        <ele>213.8</ele>
        <time>2022-06-23T07:40:02Z</time>
      </trkpt>
      <trkpt lat="46.58867" lon="5.309">
        <ele>213.8</ele>
        <time>2022-06-23T07:40:03Z</time>
      </trkpt>
      <trkpt lat="46.58905" lon="5.30894">
        <ele>214.2</ele>
        <time>2022-06-23T07:40:08Z</time>
      </trkpt>
      <trkpt lat="46.58961" lon="5.30887">
        <ele>214.2</ele>
        <time>2022-06-23T07:40:15Z</time>
      </trkpt>
      <trkpt lat="46.5897" lon="5.30886">
        <ele>214</ele>
        <time>2022-06-23T07:40:16Z</time>
      </trkpt>
      <trkpt lat="46.59023" lon="5.30878">
        <ele>212.8</ele>
        <time>2022-06-23T07:40:22Z</time>
      </trkpt>
      <trkpt lat="46.59042" lon="5.30876">
        <ele>211.8</ele>
        <time>2022-06-23T07:40:24Z</time>
      </trkpt>
      <trkpt lat="46.59052" lon="5.30875">
        <ele>211.4</ele>
        <time>2022-06-23T07:40:25Z</time>
      </trkpt>
      <trkpt lat="46.59093" lon="5.30869">
        <ele>210.4</ele>
        <time>2022-06-23T07:40:29Z</time>
      </trkpt>
      <trkpt lat="46.59113" lon="5.30867">
        <ele>209.4</ele>
        <time>2022-06-23T07:40:31Z</time>
      </trkpt>
      <trkpt lat="46.59123" lon="5.30865">
        <ele>208.8</ele>
        <time>2022-06-23T07:40:32Z</time>
      </trkpt>
      <trkpt lat="46.59164" lon="5.3086">
        <ele>207.6</ele>
        <time>2022-06-23T07:40:36Z</time>
      </trkpt>
      <trkpt lat="46.59196" lon="5.30856">
        <ele>206.2</ele>
        <time>2022-06-23T07:40:39Z</time>
      </trkpt>
      <trkpt lat="46.59248" lon="5.30849">
        <ele>204</ele>
        <time>2022-06-23T07:40:44Z</time>
      </trkpt>
      <trkpt lat="46.5928" lon="5.30845">
        <ele>202.8</ele>
        <time>2022-06-23T07:40:47Z</time>
      </trkpt>
      <trkpt lat="46.5929" lon="5.30844">
        <ele>202</ele>
        <time>2022-06-23T07:40:48Z</time>
      </trkpt>
      <trkpt lat="46.59299" lon="5.30843">
        <ele>201.6</ele>
        <time>2022-06-23T07:40:49Z</time>
      </trkpt>
      <trkpt lat="46.59341" lon="5.30837">
        <ele>199.8</ele>
        <time>2022-06-23T07:40:53Z</time>
      </trkpt>
      <trkpt lat="46.59386" lon="5.30831">
        <ele>198.8</ele>
        <time>2022-06-23T07:40:57Z</time>
      </trkpt>
      <trkpt lat="46.59418" lon="5.30827">
        <ele>197.8</ele>
        <time>2022-06-23T07:41:00Z</time>
      </trkpt>
      <trkpt lat="46.59458" lon="5.30822">
        <ele>196.6</ele>
        <time>2022-06-23T07:41:04Z</time>
      </trkpt>
      <trkpt lat="46.59478" lon="5.30819">
        <ele>196.2</ele>
        <time>2022-06-23T07:41:06Z</time>
      </trkpt>
      <trkpt lat="46.59507" lon="5.30816">
        <ele>195.6</ele>
        <time>2022-06-23T07:41:09Z</time>
      </trkpt>
      <trkpt lat="46.59551" lon="5.30809">
        <ele>195</ele>
        <time>2022-06-23T07:41:14Z</time>
      </trkpt>
      <trkpt lat="46.5961" lon="5.30802">
        <ele>194.8</ele>
        <time>2022-06-23T07:41:21Z</time>
      </trkpt>
      <trkpt lat="46.59619" lon="5.30801">
        <ele>194.8</ele>
        <time>2022-06-23T07:41:22Z</time>
      </trkpt>
      <trkpt lat="46.59673" lon="5.30793">
        <ele>195</ele>
        <time>2022-06-23T07:41:29Z</time>
      </trkpt>
      <trkpt lat="46.59717" lon="5.3079">
        <ele>195.4</ele>
        <time>2022-06-23T07:41:36Z</time>
      </trkpt>
      <trkpt lat="46.59739" lon="5.30788">
        <ele>197</ele>
        <time>2022-06-23T07:41:40Z</time>
      </trkpt>
      <trkpt lat="46.59756" lon="5.30787">
        <ele>197.6</ele>
        <time>2022-06-23T07:41:43Z</time>
      </trkpt>
      <trkpt lat="46.59767" lon="5.30786">
        <ele>198.2</ele>
        <time>2022-06-23T07:41:45Z</time>
      </trkpt>
      <trkpt lat="46.59776" lon="5.30787">
        <ele>198.6</ele>
        <time>2022-06-23T07:41:47Z</time>
      </trkpt>
      <trkpt lat="46.59781" lon="5.30788">
        <ele>199.2</ele>
        <time>2022-06-23T07:41:48Z</time>
      </trkpt>
      <trkpt lat="46.59786" lon="5.30789">
        <ele>199.4</ele>
        <time>2022-06-23T07:41:49Z</time>
      </trkpt>
      <trkpt lat="46.59796" lon="5.30793">
        <ele>199.8</ele>
        <time>2022-06-23T07:41:51Z</time>
      </trkpt>
      <trkpt lat="46.5981" lon="5.30801">
        <ele>200.2</ele>
        <time>2022-06-23T07:41:54Z</time>
      </trkpt>
      <trkpt lat="46.59816" lon="5.30803">
        <ele>200.6</ele>
        <time>2022-06-23T07:41:55Z</time>
      </trkpt>
      <trkpt lat="46.59838" lon="5.30812">
        <ele>201.4</ele>
        <time>2022-06-23T07:41:59Z</time>
      </trkpt>
      <trkpt lat="46.59866" lon="5.30821">
        <ele>202.6</ele>
        <time>2022-06-23T07:42:04Z</time>
      </trkpt>
      <trkpt lat="46.59911" lon="5.3083">
        <ele>203.6</ele>
        <time>2022-06-23T07:42:12Z</time>
      </trkpt>
      <trkpt lat="46.59923" lon="5.30832">
        <ele>203.8</ele>
        <time>2022-06-23T07:42:14Z</time>
      </trkpt>
      <trkpt lat="46.59952" lon="5.30837">
        <ele>204.8</ele>
        <time>2022-06-23T07:42:19Z</time>
      </trkpt>
      <trkpt lat="46.59957" lon="5.30839">
        <ele>204.8</ele>
        <time>2022-06-23T07:42:20Z</time>
      </trkpt>
      <trkpt lat="46.59962" lon="5.30841">
        <ele>205</ele>
        <time>2022-06-23T07:42:21Z</time>
      </trkpt>
      <trkpt lat="46.59967" lon="5.30845">
        <ele>205.2</ele>
        <time>2022-06-23T07:42:22Z</time>
      </trkpt>
      <trkpt lat="46.59985" lon="5.30865">
        <ele>205.8</ele>
        <time>2022-06-23T07:42:26Z</time>
      </trkpt>
      <trkpt lat="46.60015" lon="5.30899">
        <ele>206.8</ele>
        <time>2022-06-23T07:42:33Z</time>
      </trkpt>
      <trkpt lat="46.6005" lon="5.30937">
        <ele>208.2</ele>
        <time>2022-06-23T07:42:41Z</time>
      </trkpt>
      <trkpt lat="46.60058" lon="5.30947">
        <ele>208.6</ele>
        <time>2022-06-23T07:42:43Z</time>
      </trkpt>
      <trkpt lat="46.60071" lon="5.30962">
        <ele>209.2</ele>
        <time>2022-06-23T07:42:46Z</time>
      </trkpt>
      <trkpt lat="46.60092" lon="5.30985">
        <ele>209.6</ele>
        <time>2022-06-23T07:42:51Z</time>
      </trkpt>
      <trkpt lat="46.60107" lon="5.31001">
        <ele>210</ele>
        <time>2022-06-23T07:42:56Z</time>
      </trkpt>
      <trkpt lat="46.6011" lon="5.31008">
        <ele>210</ele>
        <time>2022-06-23T07:42:59Z</time>
      </trkpt>
      <trkpt lat="46.60112" lon="5.31007">
        <ele>210</ele>
        <time>2022-06-23T07:43:00Z</time>
      </trkpt>
      <trkpt lat="46.60114" lon="5.31004">
        <ele>210</ele>
        <time>2022-06-23T07:43:01Z</time>
      </trkpt>
      <trkpt lat="46.60121" lon="5.30993">
        <ele>210</ele>
        <time>2022-06-23T07:43:03Z</time>
      </trkpt>
      <trkpt lat="46.60135" lon="5.30965">
        <ele>210</ele>
        <time>2022-06-23T07:43:07Z</time>
      </trkpt>
      <trkpt lat="46.60156" lon="5.30927">
        <ele>210.4</ele>
        <time>2022-06-23T07:43:12Z</time>
      </trkpt>
      <trkpt lat="46.6016" lon="5.30919">
        <ele>210.4</ele>
        <time>2022-06-23T07:43:13Z</time>
      </trkpt>
      <trkpt lat="46.60195" lon="5.30857">
        <ele>211</ele>
        <time>2022-06-23T07:43:21Z</time>
      </trkpt>
      <trkpt lat="46.6023" lon="5.30793">
        <ele>211.2</ele>
        <time>2022-06-23T07:43:29Z</time>
      </trkpt>
      <trkpt lat="46.60235" lon="5.30785">
        <ele>211.2</ele>
        <time>2022-06-23T07:43:30Z</time>
      </trkpt>
      <trkpt lat="46.60267" lon="5.30729">
        <ele>211.2</ele>
        <time>2022-06-23T07:43:37Z</time>
      </trkpt>
      <trkpt lat="46.60301" lon="5.30689">
        <ele>211.2</ele>
        <time>2022-06-23T07:43:43Z</time>
      </trkpt>
      <trkpt lat="46.60345" lon="5.30654">
        <ele>211.4</ele>
        <time>2022-06-23T07:43:50Z</time>
      </trkpt>
      <trkpt lat="46.60351" lon="5.30649">
        <ele>211.4</ele>
        <time>2022-06-23T07:43:51Z</time>
      </trkpt>
      <trkpt lat="46.604" lon="5.30608">
        <ele>211.8</ele>
        <time>2022-06-23T07:43:59Z</time>
      </trkpt>
      <trkpt lat="46.60451" lon="5.30565">
        <ele>211.8</ele>
        <time>2022-06-23T07:44:07Z</time>
      </trkpt>
      <trkpt lat="46.60458" lon="5.3056">
        <ele>211.8</ele>
        <time>2022-06-23T07:44:08Z</time>
      </trkpt>
      <trkpt lat="46.60505" lon="5.3052">
        <ele>211.6</ele>
        <time>2022-06-23T07:44:15Z</time>
      </trkpt>
      <trkpt lat="46.60518" lon="5.30509">
        <ele>211.4</ele>
        <time>2022-06-23T07:44:17Z</time>
      </trkpt>
      <trkpt lat="46.6057" lon="5.30466">
        <ele>211</ele>
        <time>2022-06-23T07:44:25Z</time>
      </trkpt>
      <trkpt lat="46.60618" lon="5.30427">
        <ele>210.8</ele>
        <time>2022-06-23T07:44:32Z</time>
      </trkpt>
      <trkpt lat="46.60632" lon="5.30415">
        <ele>210.8</ele>
        <time>2022-06-23T07:44:34Z</time>
      </trkpt>
      <trkpt lat="46.60654" lon="5.30397">
        <ele>210.2</ele>
        <time>2022-06-23T07:44:37Z</time>
      </trkpt>
      <trkpt lat="46.60697" lon="5.3036">
        <ele>209.4</ele>
        <time>2022-06-23T07:44:43Z</time>
      </trkpt>
      <trkpt lat="46.60706" lon="5.30353">
        <ele>209.2</ele>
        <time>2022-06-23T07:44:44Z</time>
      </trkpt>
      <trkpt lat="46.60737" lon="5.30329">
        <ele>208.4</ele>
        <time>2022-06-23T07:44:48Z</time>
      </trkpt>
      <trkpt lat="46.60753" lon="5.30316">
        <ele>208</ele>
        <time>2022-06-23T07:44:50Z</time>
      </trkpt>
      <trkpt lat="46.60787" lon="5.30288">
        <ele>206.8</ele>
        <time>2022-06-23T07:44:54Z</time>
      </trkpt>
      <trkpt lat="46.60813" lon="5.30266">
        <ele>205.8</ele>
        <time>2022-06-23T07:44:57Z</time>
      </trkpt>
      <trkpt lat="46.6084" lon="5.30244">
        <ele>204.2</ele>
        <time>2022-06-23T07:45:00Z</time>
      </trkpt>
      <trkpt lat="46.60866" lon="5.30222">
        <ele>202.2</ele>
        <time>2022-06-23T07:45:03Z</time>
      </trkpt>
      <trkpt lat="46.60901" lon="5.30193">
        <ele>200.8</ele>
        <time>2022-06-23T07:45:07Z</time>
      </trkpt>
      <trkpt lat="46.6091" lon="5.30186">
        <ele>200.8</ele>
        <time>2022-06-23T07:45:08Z</time>
      </trkpt>
      <trkpt lat="46.60944" lon="5.30158">
        <ele>199.8</ele>
        <time>2022-06-23T07:45:12Z</time>
      </trkpt>
      <trkpt lat="46.60968" lon="5.30138">
        <ele>199</ele>
        <time>2022-06-23T07:45:15Z</time>
      </trkpt>
      <trkpt lat="46.61" lon="5.30111">
        <ele>198.6</ele>
        <time>2022-06-23T07:45:19Z</time>
      </trkpt>
      <trkpt lat="46.61031" lon="5.30086">
        <ele>198.2</ele>
        <time>2022-06-23T07:45:23Z</time>
      </trkpt>
      <trkpt lat="46.61081" lon="5.30045">
        <ele>197.8</ele>
        <time>2022-06-23T07:45:30Z</time>
      </trkpt>
      <trkpt lat="46.61094" lon="5.30033">
        <ele>197.8</ele>
        <time>2022-06-23T07:45:32Z</time>
      </trkpt>
      <trkpt lat="46.6113" lon="5.29993">
        <ele>198</ele>
        <time>2022-06-23T07:45:38Z</time>
      </trkpt>
      <trkpt lat="46.61168" lon="5.29935">
        <ele>198.2</ele>
        <time>2022-06-23T07:45:45Z</time>
      </trkpt>
      <trkpt lat="46.61195" lon="5.29877">
        <ele>197.6</ele>
        <time>2022-06-23T07:45:51Z</time>
      </trkpt>
      <trkpt lat="46.612" lon="5.29867">
        <ele>197.4</ele>
        <time>2022-06-23T07:45:52Z</time>
      </trkpt>
      <trkpt lat="46.61231" lon="5.29797">
        <ele>196.8</ele>
        <time>2022-06-23T07:45:59Z</time>
      </trkpt>
      <trkpt lat="46.6124" lon="5.29778">
        <ele>196.8</ele>
        <time>2022-06-23T07:46:01Z</time>
      </trkpt>
      <trkpt lat="46.61257" lon="5.2974">
        <ele>196.6</ele>
        <time>2022-06-23T07:46:05Z</time>
      </trkpt>
      <trkpt lat="46.61266" lon="5.29723">
        <ele>196.4</ele>
        <time>2022-06-23T07:46:07Z</time>
      </trkpt>
      <trkpt lat="46.6127" lon="5.29714">
        <ele>196.2</ele>
        <time>2022-06-23T07:46:08Z</time>
      </trkpt>
      <trkpt lat="46.61299" lon="5.29651">
        <ele>196.4</ele>
        <time>2022-06-23T07:46:15Z</time>
      </trkpt>
      <trkpt lat="46.61332" lon="5.2958">
        <ele>196.8</ele>
        <time>2022-06-23T07:46:23Z</time>
      </trkpt>
      <trkpt lat="46.61337" lon="5.29571">
        <ele>196.8</ele>
        <time>2022-06-23T07:46:24Z</time>
      </trkpt>
      <trkpt lat="46.61366" lon="5.29504">
        <ele>197.4</ele>
        <time>2022-06-23T07:46:32Z</time>
      </trkpt>
      <trkpt lat="46.6137" lon="5.29497">
        <ele>197.4</ele>
        <time>2022-06-23T07:46:33Z</time>
      </trkpt>
      <trkpt lat="46.61386" lon="5.2946">
        <ele>198</ele>
        <time>2022-06-23T07:46:38Z</time>
      </trkpt>
      <trkpt lat="46.61399" lon="5.29432">
        <ele>198.4</ele>
        <time>2022-06-23T07:46:42Z</time>
      </trkpt>
      <trkpt lat="46.61411" lon="5.29404">
        <ele>199.4</ele>
        <time>2022-06-23T07:46:46Z</time>
      </trkpt>
      <trkpt lat="46.61414" lon="5.29397">
        <ele>199.4</ele>
        <time>2022-06-23T07:46:47Z</time>
      </trkpt>
      <trkpt lat="46.61419" lon="5.29385">
        <ele>200</ele>
        <time>2022-06-23T07:46:49Z</time>
      </trkpt>
      <trkpt lat="46.61424" lon="5.29362">
        <ele>200.6</ele>
        <time>2022-06-23T07:46:52Z</time>
      </trkpt>
      <trkpt lat="46.61428" lon="5.29331">
        <ele>202.2</ele>
        <time>2022-06-23T07:46:56Z</time>
      </trkpt>
      <trkpt lat="46.61431" lon="5.29307">
        <ele>202.8</ele>
        <time>2022-06-23T07:46:59Z</time>
      </trkpt>
      <trkpt lat="46.61432" lon="5.29292">
        <ele>203.4</ele>
        <time>2022-06-23T07:47:01Z</time>
      </trkpt>
      <trkpt lat="46.61434" lon="5.29263">
        <ele>204.8</ele>
        <time>2022-06-23T07:47:05Z</time>
      </trkpt>
      <trkpt lat="46.61435" lon="5.29256">
        <ele>205</ele>
        <time>2022-06-23T07:47:06Z</time>
      </trkpt>
      <trkpt lat="46.61439" lon="5.29229">
        <ele>206.2</ele>
        <time>2022-06-23T07:47:10Z</time>
      </trkpt>
      <trkpt lat="46.61447" lon="5.29202">
        <ele>207.4</ele>
        <time>2022-06-23T07:47:14Z</time>
      </trkpt>
      <trkpt lat="46.61459" lon="5.29166">
        <ele>208.6</ele>
        <time>2022-06-23T07:47:19Z</time>
      </trkpt>
      <trkpt lat="46.61465" lon="5.2915">
        <ele>208.6</ele>
        <time>2022-06-23T07:47:21Z</time>
      </trkpt>
      <trkpt lat="46.61484" lon="5.29096">
        <ele>208.6</ele>
        <time>2022-06-23T07:47:27Z</time>
      </trkpt>
      <trkpt lat="46.61509" lon="5.29023">
        <ele>208</ele>
        <time>2022-06-23T07:47:34Z</time>
      </trkpt>
      <trkpt lat="46.61517" lon="5.29">
        <ele>207.4</ele>
        <time>2022-06-23T07:47:36Z</time>
      </trkpt>
      <trkpt lat="46.61535" lon="5.28949">
        <ele>206.2</ele>
        <time>2022-06-23T07:47:40Z</time>
      </trkpt>
      <trkpt lat="46.61553" lon="5.28895">
        <ele>204.4</ele>
        <time>2022-06-23T07:47:44Z</time>
      </trkpt>
      <trkpt lat="46.61563" lon="5.28867">
        <ele>203.2</ele>
        <time>2022-06-23T07:47:46Z</time>
      </trkpt>
      <trkpt lat="46.61568" lon="5.28852">
        <ele>202.6</ele>
        <time>2022-06-23T07:47:47Z</time>
      </trkpt>
      <trkpt lat="46.61578" lon="5.28823">
        <ele>201.6</ele>
        <time>2022-06-23T07:47:49Z</time>
      </trkpt>
      <trkpt lat="46.61589" lon="5.28793">
        <ele>200.6</ele>
        <time>2022-06-23T07:47:51Z</time>
      </trkpt>
      <trkpt lat="46.61599" lon="5.28764">
        <ele>199.4</ele>
        <time>2022-06-23T07:47:53Z</time>
      </trkpt>
      <trkpt lat="46.61608" lon="5.28737">
        <ele>198.4</ele>
        <time>2022-06-23T07:47:55Z</time>
      </trkpt>
      <trkpt lat="46.61614" lon="5.2872">
        <ele>197.6</ele>
        <time>2022-06-23T07:47:56Z</time>
      </trkpt>
      <trkpt lat="46.61619" lon="5.28705">
        <ele>197.2</ele>
        <time>2022-06-23T07:47:57Z</time>
      </trkpt>
      <trkpt lat="46.61629" lon="5.28677">
        <ele>196.2</ele>
        <time>2022-06-23T07:47:59Z</time>
      </trkpt>
      <trkpt lat="46.61638" lon="5.2865">
        <ele>195.2</ele>
        <time>2022-06-23T07:48:01Z</time>
      </trkpt>
      <trkpt lat="46.61657" lon="5.28595">
        <ele>193.8</ele>
        <time>2022-06-23T07:48:05Z</time>
      </trkpt>
      <trkpt lat="46.61684" lon="5.28516">
        <ele>193.2</ele>
        <time>2022-06-23T07:48:11Z</time>
      </trkpt>
      <trkpt lat="46.61689" lon="5.28503">
        <ele>193.2</ele>
        <time>2022-06-23T07:48:12Z</time>
      </trkpt>
      <trkpt lat="46.61697" lon="5.28478">
        <ele>193</ele>
        <time>2022-06-23T07:48:14Z</time>
      </trkpt>
      <trkpt lat="46.61723" lon="5.28406">
        <ele>192.2</ele>
        <time>2022-06-23T07:48:20Z</time>
      </trkpt>
      <trkpt lat="46.61731" lon="5.28383">
        <ele>192</ele>
        <time>2022-06-23T07:48:22Z</time>
      </trkpt>
      <trkpt lat="46.61758" lon="5.28302">
        <ele>192</ele>
        <time>2022-06-23T07:48:29Z</time>
      </trkpt>
      <trkpt lat="46.61785" lon="5.28224">
        <ele>191.8</ele>
        <time>2022-06-23T07:48:36Z</time>
      </trkpt>
      <trkpt lat="46.61797" lon="5.28192">
        <ele>191.6</ele>
        <time>2022-06-23T07:48:39Z</time>
      </trkpt>
      <trkpt lat="46.61823" lon="5.28117">
        <ele>191.2</ele>
        <time>2022-06-23T07:48:46Z</time>
      </trkpt>
      <trkpt lat="46.6183" lon="5.28096">
        <ele>191</ele>
        <time>2022-06-23T07:48:48Z</time>
      </trkpt>
      <trkpt lat="46.61842" lon="5.28033">
        <ele>191.2</ele>
        <time>2022-06-23T07:48:54Z</time>
      </trkpt>
      <trkpt lat="46.61847" lon="5.27971">
        <ele>192.2</ele>
        <time>2022-06-23T07:49:00Z</time>
      </trkpt>
      <trkpt lat="46.61848" lon="5.27961">
        <ele>192.6</ele>
        <time>2022-06-23T07:49:01Z</time>
      </trkpt>
      <trkpt lat="46.61846" lon="5.27889">
        <ele>193.2</ele>
        <time>2022-06-23T07:49:08Z</time>
      </trkpt>
      <trkpt lat="46.61836" lon="5.27838">
        <ele>193.6</ele>
        <time>2022-06-23T07:49:13Z</time>
      </trkpt>
      <trkpt lat="46.6182" lon="5.27765">
        <ele>193.4</ele>
        <time>2022-06-23T07:49:20Z</time>
      </trkpt>
      <trkpt lat="46.61801" lon="5.27683">
        <ele>193.8</ele>
        <time>2022-06-23T07:49:28Z</time>
      </trkpt>
      <trkpt lat="46.61783" lon="5.27605">
        <ele>194.2</ele>
        <time>2022-06-23T07:49:36Z</time>
      </trkpt>
      <trkpt lat="46.61772" lon="5.2754">
        <ele>195.2</ele>
        <time>2022-06-23T07:49:43Z</time>
      </trkpt>
      <trkpt lat="46.61771" lon="5.27532">
        <ele>195.4</ele>
        <time>2022-06-23T07:49:44Z</time>
      </trkpt>
      <trkpt lat="46.6177" lon="5.27477">
        <ele>196</ele>
        <time>2022-06-23T07:49:49Z</time>
      </trkpt>
      <trkpt lat="46.61775" lon="5.27399">
        <ele>196</ele>
        <time>2022-06-23T07:49:56Z</time>
      </trkpt>
      <trkpt lat="46.61786" lon="5.27319">
        <ele>195.2</ele>
        <time>2022-06-23T07:50:03Z</time>
      </trkpt>
      <trkpt lat="46.61788" lon="5.27307">
        <ele>195.2</ele>
        <time>2022-06-23T07:50:04Z</time>
      </trkpt>
      <trkpt lat="46.61798" lon="5.27226">
        <ele>194.6</ele>
        <time>2022-06-23T07:50:11Z</time>
      </trkpt>
      <trkpt lat="46.61801" lon="5.27202">
        <ele>194.4</ele>
        <time>2022-06-23T07:50:13Z</time>
      </trkpt>
      <trkpt lat="46.61805" lon="5.27168">
        <ele>194.2</ele>
        <time>2022-06-23T07:50:16Z</time>
      </trkpt>
      <trkpt lat="46.61814" lon="5.271">
        <ele>193.6</ele>
        <time>2022-06-23T07:50:22Z</time>
      </trkpt>
      <trkpt lat="46.6182" lon="5.27032">
        <ele>193.4</ele>
        <time>2022-06-23T07:50:28Z</time>
      </trkpt>
      <trkpt lat="46.61816" lon="5.27011">
        <ele>193.4</ele>
        <time>2022-06-23T07:50:30Z</time>
      </trkpt>
      <trkpt lat="46.61811" lon="5.27002">
        <ele>193.4</ele>
        <time>2022-06-23T07:50:31Z</time>
      </trkpt>
      <trkpt lat="46.61779" lon="5.26949">
        <ele>193.2</ele>
        <time>2022-06-23T07:50:37Z</time>
      </trkpt>
      <trkpt lat="46.61772" lon="5.26938">
        <ele>193</ele>
        <time>2022-06-23T07:50:38Z</time>
      </trkpt>
      <trkpt lat="46.61732" lon="5.26877">
        <ele>192.4</ele>
        <time>2022-06-23T07:50:45Z</time>
      </trkpt>
      <trkpt lat="46.61727" lon="5.26871">
        <ele>192.4</ele>
        <time>2022-06-23T07:50:46Z</time>
      </trkpt>
      <trkpt lat="46.6172" lon="5.26862">
        <ele>192.2</ele>
        <time>2022-06-23T07:50:47Z</time>
      </trkpt>
      <trkpt lat="46.61684" lon="5.26831">
        <ele>191.8</ele>
        <time>2022-06-23T07:50:52Z</time>
      </trkpt>
      <trkpt lat="46.61677" lon="5.26827">
        <ele>191.8</ele>
        <time>2022-06-23T07:50:53Z</time>
      </trkpt>
      <trkpt lat="46.61662" lon="5.26825">
        <ele>191.6</ele>
        <time>2022-06-23T07:50:55Z</time>
      </trkpt>
      <trkpt lat="46.61645" lon="5.26833">
        <ele>191.6</ele>
        <time>2022-06-23T07:50:57Z</time>
      </trkpt>
      <trkpt lat="46.6164" lon="5.26837">
        <ele>191.6</ele>
        <time>2022-06-23T07:50:58Z</time>
      </trkpt>
      <trkpt lat="46.61618" lon="5.26855">
        <ele>191.6</ele>
        <time>2022-06-23T07:51:01Z</time>
      </trkpt>
      <trkpt lat="46.61606" lon="5.26871">
        <ele>191.4</ele>
        <time>2022-06-23T07:51:03Z</time>
      </trkpt>
      <trkpt lat="46.616" lon="5.2688">
        <ele>191.4</ele>
        <time>2022-06-23T07:51:04Z</time>
      </trkpt>
      <trkpt lat="46.61589" lon="5.26902">
        <ele>191.2</ele>
        <time>2022-06-23T07:51:06Z</time>
      </trkpt>
      <trkpt lat="46.6158" lon="5.2692">
        <ele>190.8</ele>
        <time>2022-06-23T07:51:08Z</time>
      </trkpt>
      <trkpt lat="46.6155" lon="5.26972">
        <ele>190.2</ele>
        <time>2022-06-23T07:51:13Z</time>
      </trkpt>
      <trkpt lat="46.61537" lon="5.26989">
        <ele>189.8</ele>
        <time>2022-06-23T07:51:15Z</time>
      </trkpt>
      <trkpt lat="46.61521" lon="5.26998">
        <ele>189.6</ele>
        <time>2022-06-23T07:51:17Z</time>
      </trkpt>
      <trkpt lat="46.61513" lon="5.26998">
        <ele>189.4</ele>
        <time>2022-06-23T07:51:18Z</time>
      </trkpt>
      <trkpt lat="46.61505" lon="5.26997">
        <ele>189.4</ele>
        <time>2022-06-23T07:51:19Z</time>
      </trkpt>
      <trkpt lat="46.6148" lon="5.26989">
        <ele>189.2</ele>
        <time>2022-06-23T07:51:22Z</time>
      </trkpt>
      <trkpt lat="46.61472" lon="5.26987">
        <ele>189</ele>
        <time>2022-06-23T07:51:23Z</time>
      </trkpt>
      <trkpt lat="46.61415" lon="5.26972">
        <ele>189</ele>
        <time>2022-06-23T07:51:30Z</time>
      </trkpt>
      <trkpt lat="46.61393" lon="5.26965">
        <ele>189</ele>
        <time>2022-06-23T07:51:33Z</time>
      </trkpt>
      <trkpt lat="46.61347" lon="5.26938">
        <ele>188.6</ele>
        <time>2022-06-23T07:51:39Z</time>
      </trkpt>
      <trkpt lat="46.61333" lon="5.26928">
        <ele>188.6</ele>
        <time>2022-06-23T07:51:41Z</time>
      </trkpt>
      <trkpt lat="46.6132" lon="5.26923">
        <ele>188.6</ele>
        <time>2022-06-23T07:51:43Z</time>
      </trkpt>
      <trkpt lat="46.61307" lon="5.26926">
        <ele>188.4</ele>
        <time>2022-06-23T07:51:45Z</time>
      </trkpt>
      <trkpt lat="46.61301" lon="5.26931">
        <ele>188.4</ele>
        <time>2022-06-23T07:51:46Z</time>
      </trkpt>
      <trkpt lat="46.61296" lon="5.26937">
        <ele>188.4</ele>
        <time>2022-06-23T07:51:47Z</time>
      </trkpt>
      <trkpt lat="46.61281" lon="5.2696">
        <ele>188.8</ele>
        <time>2022-06-23T07:51:50Z</time>
      </trkpt>
      <trkpt lat="46.61265" lon="5.26985">
        <ele>188.8</ele>
        <time>2022-06-23T07:51:53Z</time>
      </trkpt>
      <trkpt lat="46.61256" lon="5.27002">
        <ele>189</ele>
        <time>2022-06-23T07:51:55Z</time>
      </trkpt>
      <trkpt lat="46.61235" lon="5.27056">
        <ele>189</ele>
        <time>2022-06-23T07:52:01Z</time>
      </trkpt>
      <trkpt lat="46.6123" lon="5.27063">
        <ele>189</ele>
        <time>2022-06-23T07:52:02Z</time>
      </trkpt>
      <trkpt lat="46.61225" lon="5.27067">
        <ele>188.8</ele>
        <time>2022-06-23T07:52:03Z</time>
      </trkpt>
      <trkpt lat="46.61214" lon="5.27065">
        <ele>188.8</ele>
        <time>2022-06-23T07:52:05Z</time>
      </trkpt>
      <trkpt lat="46.61199" lon="5.27043">
        <ele>188.6</ele>
        <time>2022-06-23T07:52:08Z</time>
      </trkpt>
      <trkpt lat="46.6117" lon="5.26994">
        <ele>188.2</ele>
        <time>2022-06-23T07:52:14Z</time>
      </trkpt>
      <trkpt lat="46.61164" lon="5.26986">
        <ele>188</ele>
        <time>2022-06-23T07:52:15Z</time>
      </trkpt>
      <trkpt lat="46.61145" lon="5.26968">
        <ele>188</ele>
        <time>2022-06-23T07:52:18Z</time>
      </trkpt>
      <trkpt lat="46.61126" lon="5.2695">
        <ele>187.8</ele>
        <time>2022-06-23T07:52:21Z</time>
      </trkpt>
      <trkpt lat="46.61116" lon="5.26935">
        <ele>187.8</ele>
        <time>2022-06-23T07:52:23Z</time>
      </trkpt>
      <trkpt lat="46.61086" lon="5.26871">
        <ele>188</ele>
        <time>2022-06-23T07:52:30Z</time>
      </trkpt>
      <trkpt lat="46.61083" lon="5.26861">
        <ele>188</ele>
        <time>2022-06-23T07:52:31Z</time>
      </trkpt>
      <trkpt lat="46.6107" lon="5.26821">
        <ele>188.2</ele>
        <time>2022-06-23T07:52:35Z</time>
      </trkpt>
      <trkpt lat="46.61056" lon="5.26793">
        <ele>188.2</ele>
        <time>2022-06-23T07:52:38Z</time>
      </trkpt>
      <trkpt lat="46.61044" lon="5.26777">
        <ele>188.2</ele>
        <time>2022-06-23T07:52:40Z</time>
      </trkpt>
      <trkpt lat="46.61006" lon="5.26738">
        <ele>188</ele>
        <time>2022-06-23T07:52:46Z</time>
      </trkpt>
      <trkpt lat="46.60956" lon="5.26691">
        <ele>188.4</ele>
        <time>2022-06-23T07:52:54Z</time>
      </trkpt>
      <trkpt lat="46.60946" lon="5.26678">
        <ele>188.6</ele>
        <time>2022-06-23T07:52:56Z</time>
      </trkpt>
      <trkpt lat="46.60934" lon="5.26658">
        <ele>188.8</ele>
        <time>2022-06-23T07:52:59Z</time>
      </trkpt>
      <trkpt lat="46.60929" lon="5.26652">
        <ele>189</ele>
        <time>2022-06-23T07:53:00Z</time>
      </trkpt>
      <trkpt lat="46.60924" lon="5.26648">
        <ele>189.4</ele>
        <time>2022-06-23T07:53:01Z</time>
      </trkpt>
      <trkpt lat="46.6092" lon="5.26645">
        <ele>189.8</ele>
        <time>2022-06-23T07:53:02Z</time>
      </trkpt>
      <trkpt lat="46.60914" lon="5.26643">
        <ele>190.2</ele>
        <time>2022-06-23T07:53:03Z</time>
      </trkpt>
      <trkpt lat="46.60909" lon="5.26643">
        <ele>190.8</ele>
        <time>2022-06-23T07:53:04Z</time>
      </trkpt>
      <trkpt lat="46.60904" lon="5.26644">
        <ele>191</ele>
        <time>2022-06-23T07:53:05Z</time>
      </trkpt>
      <trkpt lat="46.6089" lon="5.26649">
        <ele>192</ele>
        <time>2022-06-23T07:53:08Z</time>
      </trkpt>
      <trkpt lat="46.60881" lon="5.2665">
        <ele>192.6</ele>
        <time>2022-06-23T07:53:10Z</time>
      </trkpt>
      <trkpt lat="46.60871" lon="5.26648">
        <ele>193.2</ele>
        <time>2022-06-23T07:53:12Z</time>
      </trkpt>
      <trkpt lat="46.60866" lon="5.26646">
        <ele>193.4</ele>
        <time>2022-06-23T07:53:13Z</time>
      </trkpt>
      <trkpt lat="46.60847" lon="5.26635">
        <ele>194.6</ele>
        <time>2022-06-23T07:53:17Z</time>
      </trkpt>
      <trkpt lat="46.60831" lon="5.26624">
        <ele>195.2</ele>
        <time>2022-06-23T07:53:20Z</time>
      </trkpt>
      <trkpt lat="46.60803" lon="5.266">
        <ele>195.4</ele>
        <time>2022-06-23T07:53:25Z</time>
      </trkpt>
      <trkpt lat="46.60781" lon="5.26567">
        <ele>195.4</ele>
        <time>2022-06-23T07:53:29Z</time>
      </trkpt>
      <trkpt lat="46.60776" lon="5.26556">
        <ele>195.2</ele>
        <time>2022-06-23T07:53:30Z</time>
      </trkpt>
      <trkpt lat="46.60764" lon="5.2652">
        <ele>194.2</ele>
        <time>2022-06-23T07:53:33Z</time>
      </trkpt>
      <trkpt lat="46.60759" lon="5.26492">
        <ele>193.4</ele>
        <time>2022-06-23T07:53:35Z</time>
      </trkpt>
      <trkpt lat="46.60749" lon="5.26451">
        <ele>192</ele>
        <time>2022-06-23T07:53:38Z</time>
      </trkpt>
      <trkpt lat="46.60745" lon="5.26438">
        <ele>191.8</ele>
        <time>2022-06-23T07:53:39Z</time>
      </trkpt>
      <trkpt lat="46.60732" lon="5.26399">
        <ele>191</ele>
        <time>2022-06-23T07:53:42Z</time>
      </trkpt>
      <trkpt lat="46.60716" lon="5.2635">
        <ele>190.2</ele>
        <time>2022-06-23T07:53:46Z</time>
      </trkpt>
      <trkpt lat="46.60705" lon="5.26314">
        <ele>190</ele>
        <time>2022-06-23T07:53:49Z</time>
      </trkpt>
      <trkpt lat="46.60686" lon="5.26257">
        <ele>189.4</ele>
        <time>2022-06-23T07:53:54Z</time>
      </trkpt>
      <trkpt lat="46.60669" lon="5.26189">
        <ele>189.6</ele>
        <time>2022-06-23T07:54:00Z</time>
      </trkpt>
      <trkpt lat="46.60665" lon="5.26112">
        <ele>189.8</ele>
        <time>2022-06-23T07:54:06Z</time>
      </trkpt>
      <trkpt lat="46.6067" lon="5.2604">
        <ele>189.6</ele>
        <time>2022-06-23T07:54:12Z</time>
      </trkpt>
      <trkpt lat="46.60668" lon="5.25994">
        <ele>189.6</ele>
        <time>2022-06-23T07:54:16Z</time>
      </trkpt>
      <trkpt lat="46.60662" lon="5.25907">
        <ele>190</ele>
        <time>2022-06-23T07:54:24Z</time>
      </trkpt>
      <trkpt lat="46.60662" lon="5.25897">
        <ele>190</ele>
        <time>2022-06-23T07:54:25Z</time>
      </trkpt>
      <trkpt lat="46.60665" lon="5.25837">
        <ele>191</ele>
        <time>2022-06-23T07:54:31Z</time>
      </trkpt>
      <trkpt lat="46.6067" lon="5.2581">
        <ele>191.2</ele>
        <time>2022-06-23T07:54:34Z</time>
      </trkpt>
      <trkpt lat="46.60677" lon="5.25786">
        <ele>191.6</ele>
        <time>2022-06-23T07:54:37Z</time>
      </trkpt>
      <trkpt lat="46.60685" lon="5.25755">
        <ele>192.6</ele>
        <time>2022-06-23T07:54:41Z</time>
      </trkpt>
      <trkpt lat="46.60688" lon="5.25743">
        <ele>192.8</ele>
        <time>2022-06-23T07:54:43Z</time>
      </trkpt>
      <trkpt lat="46.60694" lon="5.25722">
        <ele>193.6</ele>
        <time>2022-06-23T07:54:46Z</time>
      </trkpt>
      <trkpt lat="46.60699" lon="5.25705">
        <ele>194.6</ele>
        <time>2022-06-23T07:54:49Z</time>
      </trkpt>
      <trkpt lat="46.607" lon="5.25698">
        <ele>194.8</ele>
        <time>2022-06-23T07:54:50Z</time>
      </trkpt>
      <trkpt lat="46.60702" lon="5.25684">
        <ele>195.4</ele>
        <time>2022-06-23T07:54:52Z</time>
      </trkpt>
      <trkpt lat="46.60703" lon="5.2567">
        <ele>196</ele>
        <time>2022-06-23T07:54:54Z</time>
      </trkpt>
      <trkpt lat="46.60702" lon="5.25663">
        <ele>196.2</ele>
        <time>2022-06-23T07:54:55Z</time>
      </trkpt>
      <trkpt lat="46.607" lon="5.25657">
        <ele>196.6</ele>
        <time>2022-06-23T07:54:56Z</time>
      </trkpt>
      <trkpt lat="46.60695" lon="5.25647">
        <ele>197</ele>
        <time>2022-06-23T07:54:58Z</time>
      </trkpt>
      <trkpt lat="46.60691" lon="5.25641">
        <ele>197.2</ele>
        <time>2022-06-23T07:54:59Z</time>
      </trkpt>
      <trkpt lat="46.60671" lon="5.25625">
        <ele>198.2</ele>
        <time>2022-06-23T07:55:04Z</time>
      </trkpt>
      <trkpt lat="46.60667" lon="5.25622">
        <ele>198.4</ele>
        <time>2022-06-23T07:55:05Z</time>
      </trkpt>
      <trkpt lat="46.60662" lon="5.25619">
        <ele>198.8</ele>
        <time>2022-06-23T07:55:06Z</time>
      </trkpt>
      <trkpt lat="46.60653" lon="5.25615">
        <ele>199.2</ele>
        <time>2022-06-23T07:55:08Z</time>
      </trkpt>
      <trkpt lat="46.6064" lon="5.25607">
        <ele>200</ele>
        <time>2022-06-23T07:55:11Z</time>
      </trkpt>
      <trkpt lat="46.60632" lon="5.256">
        <ele>200.8</ele>
        <time>2022-06-23T07:55:13Z</time>
      </trkpt>
      <trkpt lat="46.60628" lon="5.25597">
        <ele>201</ele>
        <time>2022-06-23T07:55:14Z</time>
      </trkpt>
      <trkpt lat="46.60615" lon="5.25588">
        <ele>201.8</ele>
        <time>2022-06-23T07:55:17Z</time>
      </trkpt>
      <trkpt lat="46.6061" lon="5.25586">
        <ele>201.8</ele>
        <time>2022-06-23T07:55:18Z</time>
      </trkpt>
      <trkpt lat="46.6059" lon="5.25572">
        <ele>203</ele>
        <time>2022-06-23T07:55:22Z</time>
      </trkpt>
      <trkpt lat="46.60573" lon="5.2556">
        <ele>203.4</ele>
        <time>2022-06-23T07:55:25Z</time>
      </trkpt>
      <trkpt lat="46.60537" lon="5.25542">
        <ele>203.4</ele>
        <time>2022-06-23T07:55:31Z</time>
      </trkpt>
      <trkpt lat="46.60518" lon="5.25537">
        <ele>203.4</ele>
        <time>2022-06-23T07:55:34Z</time>
      </trkpt>
      <trkpt lat="46.60501" lon="5.25533">
        <ele>203.4</ele>
        <time>2022-06-23T07:55:37Z</time>
      </trkpt>
      <trkpt lat="46.60483" lon="5.25529">
        <ele>204.2</ele>
        <time>2022-06-23T07:55:41Z</time>
      </trkpt>
      <trkpt lat="46.60478" lon="5.25529">
        <ele>204.4</ele>
        <time>2022-06-23T07:55:42Z</time>
      </trkpt>
      <trkpt lat="46.60459" lon="5.25524">
        <ele>205.2</ele>
        <time>2022-06-23T07:55:46Z</time>
      </trkpt>
      <trkpt lat="46.60449" lon="5.25521">
        <ele>206.2</ele>
        <time>2022-06-23T07:55:48Z</time>
      </trkpt>
      <trkpt lat="46.60443" lon="5.25519">
        <ele>206.2</ele>
        <time>2022-06-23T07:55:49Z</time>
      </trkpt>
      <trkpt lat="46.60438" lon="5.25517">
        <ele>206.6</ele>
        <time>2022-06-23T07:55:50Z</time>
      </trkpt>
      <trkpt lat="46.60416" lon="5.25511">
        <ele>207.2</ele>
        <time>2022-06-23T07:55:54Z</time>
      </trkpt>
      <trkpt lat="46.60403" lon="5.25509">
        <ele>207.4</ele>
        <time>2022-06-23T07:55:56Z</time>
      </trkpt>
      <trkpt lat="46.60374" lon="5.25503">
        <ele>208</ele>
        <time>2022-06-23T07:56:01Z</time>
      </trkpt>
      <trkpt lat="46.60349" lon="5.25496">
        <ele>208.4</ele>
        <time>2022-06-23T07:56:05Z</time>
      </trkpt>
      <trkpt lat="46.60323" lon="5.25489">
        <ele>208.6</ele>
        <time>2022-06-23T07:56:09Z</time>
      </trkpt>
      <trkpt lat="46.60271" lon="5.25473">
        <ele>209</ele>
        <time>2022-06-23T07:56:17Z</time>
      </trkpt>
      <trkpt lat="46.60218" lon="5.25448">
        <ele>208.8</ele>
        <time>2022-06-23T07:56:25Z</time>
      </trkpt>
      <trkpt lat="46.60205" lon="5.25441">
        <ele>209</ele>
        <time>2022-06-23T07:56:27Z</time>
      </trkpt>
      <trkpt lat="46.60155" lon="5.25417">
        <ele>209.2</ele>
        <time>2022-06-23T07:56:34Z</time>
      </trkpt>
      <trkpt lat="46.6014" lon="5.25412">
        <ele>209.4</ele>
        <time>2022-06-23T07:56:36Z</time>
      </trkpt>
      <trkpt lat="46.60111" lon="5.25405">
        <ele>209.2</ele>
        <time>2022-06-23T07:56:40Z</time>
      </trkpt>
      <trkpt lat="46.60066" lon="5.25396">
        <ele>209</ele>
        <time>2022-06-23T07:56:46Z</time>
      </trkpt>
      <trkpt lat="46.60059" lon="5.25393">
        <ele>208.8</ele>
        <time>2022-06-23T07:56:47Z</time>
      </trkpt>
      <trkpt lat="46.60052" lon="5.25389">
        <ele>208.6</ele>
        <time>2022-06-23T07:56:48Z</time>
      </trkpt>
      <trkpt lat="46.60032" lon="5.25373">
        <ele>208.6</ele>
        <time>2022-06-23T07:56:51Z</time>
      </trkpt>
      <trkpt lat="46.60006" lon="5.25341">
        <ele>208.6</ele>
        <time>2022-06-23T07:56:56Z</time>
      </trkpt>
      <trkpt lat="46.59965" lon="5.25277">
        <ele>209.8</ele>
        <time>2022-06-23T07:57:04Z</time>
      </trkpt>
      <trkpt lat="46.59936" lon="5.25215">
        <ele>209.8</ele>
        <time>2022-06-23T07:57:11Z</time>
      </trkpt>
      <trkpt lat="46.59903" lon="5.25144">
        <ele>210</ele>
        <time>2022-06-23T07:57:19Z</time>
      </trkpt>
      <trkpt lat="46.59874" lon="5.2508">
        <ele>209.6</ele>
        <time>2022-06-23T07:57:26Z</time>
      </trkpt>
      <trkpt lat="46.59841" lon="5.2501">
        <ele>209.4</ele>
        <time>2022-06-23T07:57:34Z</time>
      </trkpt>
      <trkpt lat="46.59837" lon="5.25003">
        <ele>209.2</ele>
        <time>2022-06-23T07:57:35Z</time>
      </trkpt>
      <trkpt lat="46.59832" lon="5.24996">
        <ele>209.2</ele>
        <time>2022-06-23T07:57:36Z</time>
      </trkpt>
      <trkpt lat="46.59825" lon="5.24982">
        <ele>209.2</ele>
        <time>2022-06-23T07:57:38Z</time>
      </trkpt>
      <trkpt lat="46.5982" lon="5.24966">
        <ele>209.2</ele>
        <time>2022-06-23T07:57:40Z</time>
      </trkpt>
      <trkpt lat="46.59811" lon="5.24951">
        <ele>209.4</ele>
        <time>2022-06-23T07:57:42Z</time>
      </trkpt>
      <trkpt lat="46.59805" lon="5.24946">
        <ele>209.4</ele>
        <time>2022-06-23T07:57:43Z</time>
      </trkpt>
      <trkpt lat="46.59778" lon="5.24928">
        <ele>209.6</ele>
        <time>2022-06-23T07:57:47Z</time>
      </trkpt>
      <trkpt lat="46.59749" lon="5.2491">
        <ele>209.6</ele>
        <time>2022-06-23T07:57:51Z</time>
      </trkpt>
      <trkpt lat="46.59734" lon="5.24905">
        <ele>209.6</ele>
        <time>2022-06-23T07:57:53Z</time>
      </trkpt>
      <trkpt lat="46.5969" lon="5.24892">
        <ele>209.8</ele>
        <time>2022-06-23T07:57:59Z</time>
      </trkpt>
      <trkpt lat="46.5964" lon="5.24863">
        <ele>210</ele>
        <time>2022-06-23T07:58:06Z</time>
      </trkpt>
      <trkpt lat="46.596" lon="5.24825">
        <ele>209.6</ele>
        <time>2022-06-23T07:58:12Z</time>
      </trkpt>
      <trkpt lat="46.59555" lon="5.24781">
        <ele>209.2</ele>
        <time>2022-06-23T07:58:19Z</time>
      </trkpt>
      <trkpt lat="46.59519" lon="5.24762">
        <ele>209.4</ele>
        <time>2022-06-23T07:58:24Z</time>
      </trkpt>
      <trkpt lat="46.59468" lon="5.24743">
        <ele>209.8</ele>
        <time>2022-06-23T07:58:31Z</time>
      </trkpt>
      <trkpt lat="46.5941" lon="5.24722">
        <ele>210</ele>
        <time>2022-06-23T07:58:39Z</time>
      </trkpt>
      <trkpt lat="46.59352" lon="5.24702">
        <ele>210</ele>
        <time>2022-06-23T07:58:47Z</time>
      </trkpt>
      <trkpt lat="46.59323" lon="5.24691">
        <ele>210</ele>
        <time>2022-06-23T07:58:51Z</time>
      </trkpt>
      <trkpt lat="46.59266" lon="5.2467">
        <ele>210</ele>
        <time>2022-06-23T07:58:59Z</time>
      </trkpt>
      <trkpt lat="46.59253" lon="5.24666">
        <ele>210</ele>
        <time>2022-06-23T07:59:01Z</time>
      </trkpt>
      <trkpt lat="46.59245" lon="5.24663">
        <ele>210</ele>
        <time>2022-06-23T07:59:02Z</time>
      </trkpt>
      <trkpt lat="46.59216" lon="5.2466">
        <ele>210</ele>
        <time>2022-06-23T07:59:06Z</time>
      </trkpt>
      <trkpt lat="46.59207" lon="5.24661">
        <ele>210</ele>
        <time>2022-06-23T07:59:07Z</time>
      </trkpt>
      <trkpt lat="46.59178" lon="5.2467">
        <ele>210.2</ele>
        <time>2022-06-23T07:59:11Z</time>
      </trkpt>
      <trkpt lat="46.5917" lon="5.24673">
        <ele>210.2</ele>
        <time>2022-06-23T07:59:12Z</time>
      </trkpt>
      <trkpt lat="46.59114" lon="5.24697">
        <ele>210.6</ele>
        <time>2022-06-23T07:59:20Z</time>
      </trkpt>
      <trkpt lat="46.591" lon="5.24703">
        <ele>210.6</ele>
        <time>2022-06-23T07:59:22Z</time>
      </trkpt>
      <trkpt lat="46.59093" lon="5.24706">
        <ele>210.6</ele>
        <time>2022-06-23T07:59:23Z</time>
      </trkpt>
      <trkpt lat="46.59035" lon="5.24731">
        <ele>211</ele>
        <time>2022-06-23T07:59:31Z</time>
      </trkpt>
      <trkpt lat="46.5902" lon="5.24737">
        <ele>211</ele>
        <time>2022-06-23T07:59:33Z</time>
      </trkpt>
      <trkpt lat="46.58961" lon="5.24761">
        <ele>211</ele>
        <time>2022-06-23T07:59:41Z</time>
      </trkpt>
      <trkpt lat="46.58905" lon="5.24784">
        <ele>211.2</ele>
        <time>2022-06-23T07:59:49Z</time>
      </trkpt>
      <trkpt lat="46.58882" lon="5.24794">
        <ele>211.2</ele>
        <time>2022-06-23T07:59:52Z</time>
      </trkpt>
      <trkpt lat="46.58875" lon="5.24797">
        <ele>211.4</ele>
        <time>2022-06-23T07:59:53Z</time>
      </trkpt>
      <trkpt lat="46.5882" lon="5.2482">
        <ele>211.2</ele>
        <time>2022-06-23T08:00:01Z</time>
      </trkpt>
      <trkpt lat="46.58803" lon="5.24827">
        <ele>211</ele>
        <time>2022-06-23T08:00:03Z</time>
      </trkpt>
      <trkpt lat="46.58747" lon="5.2485">
        <ele>210</ele>
        <time>2022-06-23T08:00:10Z</time>
      </trkpt>
      <trkpt lat="46.58738" lon="5.24854">
        <ele>209.8</ele>
        <time>2022-06-23T08:00:11Z</time>
      </trkpt>
      <trkpt lat="46.58729" lon="5.24858">
        <ele>209.6</ele>
        <time>2022-06-23T08:00:12Z</time>
      </trkpt>
      <trkpt lat="46.58692" lon="5.24873">
        <ele>208.8</ele>
        <time>2022-06-23T08:00:16Z</time>
      </trkpt>
      <trkpt lat="46.58673" lon="5.24881">
        <ele>208.2</ele>
        <time>2022-06-23T08:00:18Z</time>
      </trkpt>
      <trkpt lat="46.58655" lon="5.24888">
        <ele>207.2</ele>
        <time>2022-06-23T08:00:20Z</time>
      </trkpt>
      <trkpt lat="46.58622" lon="5.24902">
        <ele>206</ele>
        <time>2022-06-23T08:00:23Z</time>
      </trkpt>
      <trkpt lat="46.58611" lon="5.24906">
        <ele>205.2</ele>
        <time>2022-06-23T08:00:24Z</time>
      </trkpt>
      <trkpt lat="46.586" lon="5.24911">
        <ele>204.8</ele>
        <time>2022-06-23T08:00:25Z</time>
      </trkpt>
      <trkpt lat="46.58578" lon="5.2492">
        <ele>203.2</ele>
        <time>2022-06-23T08:00:27Z</time>
      </trkpt>
      <trkpt lat="46.58556" lon="5.24929">
        <ele>202.2</ele>
        <time>2022-06-23T08:00:29Z</time>
      </trkpt>
      <trkpt lat="46.58533" lon="5.24939">
        <ele>201.2</ele>
        <time>2022-06-23T08:00:31Z</time>
      </trkpt>
      <trkpt lat="46.58522" lon="5.24944">
        <ele>201</ele>
        <time>2022-06-23T08:00:32Z</time>
      </trkpt>
      <trkpt lat="46.58498" lon="5.24953">
        <ele>199.4</ele>
        <time>2022-06-23T08:00:34Z</time>
      </trkpt>
      <trkpt lat="46.58475" lon="5.24963">
        <ele>198</ele>
        <time>2022-06-23T08:00:36Z</time>
      </trkpt>
      <trkpt lat="46.5844" lon="5.24978">
        <ele>196.8</ele>
        <time>2022-06-23T08:00:39Z</time>
      </trkpt>
      <trkpt lat="46.58428" lon="5.24983">
        <ele>195.8</ele>
        <time>2022-06-23T08:00:40Z</time>
      </trkpt>
      <trkpt lat="46.58408" lon="5.24992">
        <ele>194.6</ele>
        <time>2022-06-23T08:00:42Z</time>
      </trkpt>
      <trkpt lat="46.58372" lon="5.25007">
        <ele>193.2</ele>
        <time>2022-06-23T08:00:45Z</time>
      </trkpt>
      <trkpt lat="46.58331" lon="5.25024">
        <ele>192</ele>
        <time>2022-06-23T08:00:49Z</time>
      </trkpt>
      <trkpt lat="46.5831" lon="5.25033">
        <ele>191.6</ele>
        <time>2022-06-23T08:00:51Z</time>
      </trkpt>
      <trkpt lat="46.58253" lon="5.25057">
        <ele>191.2</ele>
        <time>2022-06-23T08:00:57Z</time>
      </trkpt>
      <trkpt lat="46.58202" lon="5.25078">
        <ele>191.8</ele>
        <time>2022-06-23T08:01:03Z</time>
      </trkpt>
      <trkpt lat="46.58154" lon="5.25091">
        <ele>192.2</ele>
        <time>2022-06-23T08:01:09Z</time>
      </trkpt>
      <trkpt lat="46.58105" lon="5.25092">
        <ele>192.6</ele>
        <time>2022-06-23T08:01:15Z</time>
      </trkpt>
      <trkpt lat="46.58047" lon="5.25087">
        <ele>192.6</ele>
        <time>2022-06-23T08:01:22Z</time>
      </trkpt>
      <trkpt lat="46.58024" lon="5.25087">
        <ele>192.4</ele>
        <time>2022-06-23T08:01:25Z</time>
      </trkpt>
      <trkpt lat="46.57985" lon="5.25088">
        <ele>193</ele>
        <time>2022-06-23T08:01:30Z</time>
      </trkpt>
      <trkpt lat="46.57955" lon="5.25091">
        <ele>193.2</ele>
        <time>2022-06-23T08:01:34Z</time>
      </trkpt>
      <trkpt lat="46.57901" lon="5.25094">
        <ele>193.8</ele>
        <time>2022-06-23T08:01:42Z</time>
      </trkpt>
      <trkpt lat="46.57888" lon="5.25093">
        <ele>194</ele>
        <time>2022-06-23T08:01:44Z</time>
      </trkpt>
      <trkpt lat="46.57855" lon="5.25094">
        <ele>195</ele>
        <time>2022-06-23T08:01:49Z</time>
      </trkpt>
      <trkpt lat="46.57849" lon="5.25093">
        <ele>195.2</ele>
        <time>2022-06-23T08:01:50Z</time>
      </trkpt>
      <trkpt lat="46.57813" lon="5.25092">
        <ele>195.6</ele>
        <time>2022-06-23T08:01:56Z</time>
      </trkpt>
      <trkpt lat="46.57793" lon="5.25092">
        <ele>196</ele>
        <time>2022-06-23T08:01:59Z</time>
      </trkpt>
      <trkpt lat="46.57786" lon="5.25092">
        <ele>196.2</ele>
        <time>2022-06-23T08:02:00Z</time>
      </trkpt>
      <trkpt lat="46.57732" lon="5.25089">
        <ele>197</ele>
        <time>2022-06-23T08:02:08Z</time>
      </trkpt>
      <trkpt lat="46.57709" lon="5.25091">
        <ele>197</ele>
        <time>2022-06-23T08:02:11Z</time>
      </trkpt>
      <trkpt lat="46.5768" lon="5.25098">
        <ele>196.6</ele>
        <time>2022-06-23T08:02:15Z</time>
      </trkpt>
      <trkpt lat="46.57637" lon="5.25123">
        <ele>196.2</ele>
        <time>2022-06-23T08:02:20Z</time>
      </trkpt>
      <trkpt lat="46.5761" lon="5.25136">
        <ele>195.4</ele>
        <time>2022-06-23T08:02:23Z</time>
      </trkpt>
      <trkpt lat="46.57603" lon="5.25137">
        <ele>195</ele>
        <time>2022-06-23T08:02:24Z</time>
      </trkpt>
      <trkpt lat="46.57593" lon="5.25137">
        <ele>194.6</ele>
        <time>2022-06-23T08:02:25Z</time>
      </trkpt>
      <trkpt lat="46.57563" lon="5.2513">
        <ele>194.2</ele>
        <time>2022-06-23T08:02:28Z</time>
      </trkpt>
      <trkpt lat="46.57554" lon="5.25126">
        <ele>194</ele>
        <time>2022-06-23T08:02:29Z</time>
      </trkpt>
      <trkpt lat="46.57535" lon="5.25112">
        <ele>193.4</ele>
        <time>2022-06-23T08:02:31Z</time>
      </trkpt>
      <trkpt lat="46.57527" lon="5.25103">
        <ele>193.2</ele>
        <time>2022-06-23T08:02:32Z</time>
      </trkpt>
      <trkpt lat="46.57519" lon="5.25093">
        <ele>192.8</ele>
        <time>2022-06-23T08:02:33Z</time>
      </trkpt>
      <trkpt lat="46.57501" lon="5.2506">
        <ele>192</ele>
        <time>2022-06-23T08:02:36Z</time>
      </trkpt>
      <trkpt lat="46.57495" lon="5.25049">
        <ele>191.6</ele>
        <time>2022-06-23T08:02:37Z</time>
      </trkpt>
      <trkpt lat="46.57485" lon="5.25026">
        <ele>191.4</ele>
        <time>2022-06-23T08:02:39Z</time>
      </trkpt>
      <trkpt lat="46.57474" lon="5.25003">
        <ele>190.8</ele>
        <time>2022-06-23T08:02:41Z</time>
      </trkpt>
      <trkpt lat="46.5747" lon="5.24991">
        <ele>190.6</ele>
        <time>2022-06-23T08:02:42Z</time>
      </trkpt>
      <trkpt lat="46.57436" lon="5.24916">
        <ele>189.8</ele>
        <time>2022-06-23T08:02:49Z</time>
      </trkpt>
      <trkpt lat="46.57431" lon="5.24906">
        <ele>189.8</ele>
        <time>2022-06-23T08:02:50Z</time>
      </trkpt>
      <trkpt lat="46.57426" lon="5.24895">
        <ele>189.8</ele>
        <time>2022-06-23T08:02:51Z</time>
      </trkpt>
      <trkpt lat="46.57399" lon="5.24834">
        <ele>189.6</ele>
        <time>2022-06-23T08:02:57Z</time>
      </trkpt>
      <trkpt lat="46.57376" lon="5.24787">
        <ele>189.6</ele>
        <time>2022-06-23T08:03:02Z</time>
      </trkpt>
      <trkpt lat="46.5737" lon="5.24779">
        <ele>189.6</ele>
        <time>2022-06-23T08:03:03Z</time>
      </trkpt>
      <trkpt lat="46.5733" lon="5.2474">
        <ele>189.4</ele>
        <time>2022-06-23T08:03:09Z</time>
      </trkpt>
      <trkpt lat="46.57317" lon="5.24727">
        <ele>189.4</ele>
        <time>2022-06-23T08:03:11Z</time>
      </trkpt>
      <trkpt lat="46.57306" lon="5.24711">
        <ele>189.4</ele>
        <time>2022-06-23T08:03:13Z</time>
      </trkpt>
      <trkpt lat="46.57302" lon="5.24701">
        <ele>189.2</ele>
        <time>2022-06-23T08:03:14Z</time>
      </trkpt>
      <trkpt lat="46.57286" lon="5.2466">
        <ele>189</ele>
        <time>2022-06-23T08:03:18Z</time>
      </trkpt>
      <trkpt lat="46.5728" lon="5.24652">
        <ele>189</ele>
        <time>2022-06-23T08:03:19Z</time>
      </trkpt>
      <trkpt lat="46.57273" lon="5.24647">
        <ele>188.8</ele>
        <time>2022-06-23T08:03:20Z</time>
      </trkpt>
      <trkpt lat="46.57266" lon="5.24645">
        <ele>188.8</ele>
        <time>2022-06-23T08:03:21Z</time>
      </trkpt>
      <trkpt lat="46.57259" lon="5.24646">
        <ele>188.6</ele>
        <time>2022-06-23T08:03:22Z</time>
      </trkpt>
      <trkpt lat="46.57244" lon="5.24653">
        <ele>188.6</ele>
        <time>2022-06-23T08:03:24Z</time>
      </trkpt>
      <trkpt lat="46.57206" lon="5.24667">
        <ele>188.6</ele>
        <time>2022-06-23T08:03:29Z</time>
      </trkpt>
      <trkpt lat="46.57148" lon="5.24686">
        <ele>189.4</ele>
        <time>2022-06-23T08:03:37Z</time>
      </trkpt>
      <trkpt lat="46.57141" lon="5.24688">
        <ele>189.6</ele>
        <time>2022-06-23T08:03:38Z</time>
      </trkpt>
      <trkpt lat="46.57133" lon="5.24688">
        <ele>189.8</ele>
        <time>2022-06-23T08:03:39Z</time>
      </trkpt>
      <trkpt lat="46.57122" lon="5.24687">
        <ele>190</ele>
        <time>2022-06-23T08:03:41Z</time>
      </trkpt>
      <trkpt lat="46.5709" lon="5.24677">
        <ele>190.8</ele>
        <time>2022-06-23T08:03:46Z</time>
      </trkpt>
      <trkpt lat="46.57084" lon="5.24675">
        <ele>191</ele>
        <time>2022-06-23T08:03:47Z</time>
      </trkpt>
      <trkpt lat="46.57046" lon="5.24662">
        <ele>191.8</ele>
        <time>2022-06-23T08:03:53Z</time>
      </trkpt>
      <trkpt lat="46.57034" lon="5.24658">
        <ele>192.2</ele>
        <time>2022-06-23T08:03:55Z</time>
      </trkpt>
      <trkpt lat="46.57008" lon="5.2465">
        <ele>193</ele>
        <time>2022-06-23T08:03:59Z</time>
      </trkpt>
      <trkpt lat="46.5699" lon="5.24644">
        <ele>193.6</ele>
        <time>2022-06-23T08:04:02Z</time>
      </trkpt>
      <trkpt lat="46.56972" lon="5.24637">
        <ele>194</ele>
        <time>2022-06-23T08:04:05Z</time>
      </trkpt>
      <trkpt lat="46.56943" lon="5.24626">
        <ele>194.6</ele>
        <time>2022-06-23T08:04:10Z</time>
      </trkpt>
      <trkpt lat="46.56938" lon="5.24624">
        <ele>195</ele>
        <time>2022-06-23T08:04:11Z</time>
      </trkpt>
      <trkpt lat="46.5691" lon="5.24614">
        <ele>196</ele>
        <time>2022-06-23T08:04:16Z</time>
      </trkpt>
      <trkpt lat="46.56892" lon="5.24609">
        <ele>196.6</ele>
        <time>2022-06-23T08:04:19Z</time>
      </trkpt>
      <trkpt lat="46.56864" lon="5.24598">
        <ele>197</ele>
        <time>2022-06-23T08:04:24Z</time>
      </trkpt>
      <trkpt lat="46.56835" lon="5.24588">
        <ele>198</ele>
        <time>2022-06-23T08:04:29Z</time>
      </trkpt>
      <trkpt lat="46.56829" lon="5.24586">
        <ele>198.2</ele>
        <time>2022-06-23T08:04:30Z</time>
      </trkpt>
      <trkpt lat="46.56775" lon="5.24567">
        <ele>198.8</ele>
        <time>2022-06-23T08:04:39Z</time>
      </trkpt>
      <trkpt lat="46.56758" lon="5.2456">
        <ele>199.2</ele>
        <time>2022-06-23T08:04:42Z</time>
      </trkpt>
      <trkpt lat="46.56714" lon="5.24546">
        <ele>200.4</ele>
        <time>2022-06-23T08:04:50Z</time>
      </trkpt>
      <trkpt lat="46.56708" lon="5.24543">
        <ele>200.6</ele>
        <time>2022-06-23T08:04:51Z</time>
      </trkpt>
      <trkpt lat="46.56683" lon="5.24534">
        <ele>201.4</ele>
        <time>2022-06-23T08:04:56Z</time>
      </trkpt>
      <trkpt lat="46.5666" lon="5.24527">
        <ele>202.2</ele>
        <time>2022-06-23T08:05:01Z</time>
      </trkpt>
      <trkpt lat="46.56655" lon="5.24525">
        <ele>202.6</ele>
        <time>2022-06-23T08:05:02Z</time>
      </trkpt>
      <trkpt lat="46.56633" lon="5.24517">
        <ele>203.8</ele>
        <time>2022-06-23T08:05:07Z</time>
      </trkpt>
      <trkpt lat="46.56619" lon="5.24513">
        <ele>204.2</ele>
        <time>2022-06-23T08:05:10Z</time>
      </trkpt>
      <trkpt lat="46.56605" lon="5.24508">
        <ele>205</ele>
        <time>2022-06-23T08:05:13Z</time>
      </trkpt>
      <trkpt lat="46.56577" lon="5.24498">
        <ele>206</ele>
        <time>2022-06-23T08:05:19Z</time>
      </trkpt>
      <trkpt lat="46.56567" lon="5.24495">
        <ele>206.2</ele>
        <time>2022-06-23T08:05:21Z</time>
      </trkpt>
      <trkpt lat="46.56533" lon="5.24483">
        <ele>206.8</ele>
        <time>2022-06-23T08:05:27Z</time>
      </trkpt>
      <trkpt lat="46.56516" lon="5.24478">
        <ele>207.2</ele>
        <time>2022-06-23T08:05:30Z</time>
      </trkpt>
      <trkpt lat="46.56494" lon="5.2447">
        <ele>207.4</ele>
        <time>2022-06-23T08:05:34Z</time>
      </trkpt>
      <trkpt lat="46.56466" lon="5.2446">
        <ele>208.2</ele>
        <time>2022-06-23T08:05:39Z</time>
      </trkpt>
      <trkpt lat="46.56433" lon="5.24448">
        <ele>209</ele>
        <time>2022-06-23T08:05:45Z</time>
      </trkpt>
      <trkpt lat="46.56428" lon="5.24446">
        <ele>209.2</ele>
        <time>2022-06-23T08:05:46Z</time>
      </trkpt>
      <trkpt lat="46.5639" lon="5.24433">
        <ele>210.4</ele>
        <time>2022-06-23T08:05:53Z</time>
      </trkpt>
      <trkpt lat="46.56368" lon="5.24426">
        <ele>210.6</ele>
        <time>2022-06-23T08:05:57Z</time>
      </trkpt>
      <trkpt lat="46.56345" lon="5.24417">
        <ele>211.4</ele>
        <time>2022-06-23T08:06:01Z</time>
      </trkpt>
      <trkpt lat="46.56323" lon="5.2441">
        <ele>212</ele>
        <time>2022-06-23T08:06:05Z</time>
      </trkpt>
      <trkpt lat="46.56312" lon="5.24406">
        <ele>212.4</ele>
        <time>2022-06-23T08:06:07Z</time>
      </trkpt>
      <trkpt lat="46.56267" lon="5.24391">
        <ele>213.2</ele>
        <time>2022-06-23T08:06:14Z</time>
      </trkpt>
      <trkpt lat="46.56218" lon="5.24374">
        <ele>213.4</ele>
        <time>2022-06-23T08:06:21Z</time>
      </trkpt>
      <trkpt lat="46.56181" lon="5.24362">
        <ele>213.2</ele>
        <time>2022-06-23T08:06:26Z</time>
      </trkpt>
      <trkpt lat="46.56138" lon="5.24347">
        <ele>213.4</ele>
        <time>2022-06-23T08:06:32Z</time>
      </trkpt>
      <trkpt lat="46.56124" lon="5.24342">
        <ele>213.4</ele>
        <time>2022-06-23T08:06:34Z</time>
      </trkpt>
      <trkpt lat="46.56066" lon="5.24323">
        <ele>213.2</ele>
        <time>2022-06-23T08:06:42Z</time>
      </trkpt>
      <trkpt lat="46.56012" lon="5.24306">
        <ele>213</ele>
        <time>2022-06-23T08:06:49Z</time>
      </trkpt>
      <trkpt lat="46.55989" lon="5.24299">
        <ele>212.8</ele>
        <time>2022-06-23T08:06:51Z</time>
      </trkpt>
      <trkpt lat="46.55961" lon="5.24295">
        <ele>212.4</ele>
        <time>2022-06-23T08:06:56Z</time>
      </trkpt>
      <trkpt lat="46.55938" lon="5.24294">
        <ele>212.2</ele>
        <time>2022-06-23T08:06:59Z</time>
      </trkpt>
      <trkpt lat="46.55889" lon="5.24296">
        <ele>211.8</ele>
        <time>2022-06-23T08:07:05Z</time>
      </trkpt>
      <trkpt lat="46.55855" lon="5.24298">
        <ele>211.2</ele>
        <time>2022-06-23T08:07:09Z</time>
      </trkpt>
      <trkpt lat="46.55828" lon="5.243">
        <ele>210.6</ele>
        <time>2022-06-23T08:07:12Z</time>
      </trkpt>
      <trkpt lat="46.55793" lon="5.24303">
        <ele>210.2</ele>
        <time>2022-06-23T08:07:16Z</time>
      </trkpt>
      <trkpt lat="46.55747" lon="5.24307">
        <ele>209</ele>
        <time>2022-06-23T08:07:21Z</time>
      </trkpt>
      <trkpt lat="46.55695" lon="5.24314">
        <ele>207.6</ele>
        <time>2022-06-23T08:07:27Z</time>
      </trkpt>
      <trkpt lat="46.55678" lon="5.24315">
        <ele>207.4</ele>
        <time>2022-06-23T08:07:29Z</time>
      </trkpt>
      <trkpt lat="46.5562" lon="5.24319">
        <ele>207</ele>
        <time>2022-06-23T08:07:36Z</time>
      </trkpt>
      <trkpt lat="46.55561" lon="5.24322">
        <ele>206.8</ele>
        <time>2022-06-23T08:07:43Z</time>
      </trkpt>
      <trkpt lat="46.55514" lon="5.24324">
        <ele>207.2</ele>
        <time>2022-06-23T08:07:49Z</time>
      </trkpt>
      <trkpt lat="46.55468" lon="5.24325">
        <ele>207.4</ele>
        <time>2022-06-23T08:07:55Z</time>
      </trkpt>
      <trkpt lat="46.55433" lon="5.24327">
        <ele>207.8</ele>
        <time>2022-06-23T08:08:00Z</time>
      </trkpt>
      <trkpt lat="46.55406" lon="5.2433">
        <ele>208.2</ele>
        <time>2022-06-23T08:08:04Z</time>
      </trkpt>
      <trkpt lat="46.55394" lon="5.24331">
        <ele>208.4</ele>
        <time>2022-06-23T08:08:06Z</time>
      </trkpt>
      <trkpt lat="46.55376" lon="5.24333">
        <ele>208.8</ele>
        <time>2022-06-23T08:08:09Z</time>
      </trkpt>
      <trkpt lat="46.55353" lon="5.24335">
        <ele>209.6</ele>
        <time>2022-06-23T08:08:12Z</time>
      </trkpt>
      <trkpt lat="46.55338" lon="5.24336">
        <ele>209.8</ele>
        <time>2022-06-23T08:08:14Z</time>
      </trkpt>
      <trkpt lat="46.55322" lon="5.2434">
        <ele>210</ele>
        <time>2022-06-23T08:08:16Z</time>
      </trkpt>
      <trkpt lat="46.55268" lon="5.24344">
        <ele>209.4</ele>
        <time>2022-06-23T08:08:23Z</time>
      </trkpt>
      <trkpt lat="46.55214" lon="5.24346">
        <ele>209</ele>
        <time>2022-06-23T08:08:30Z</time>
      </trkpt>
      <trkpt lat="46.55161" lon="5.24353">
        <ele>209.8</ele>
        <time>2022-06-23T08:08:37Z</time>
      </trkpt>
      <trkpt lat="46.55121" lon="5.24365">
        <ele>210</ele>
        <time>2022-06-23T08:08:43Z</time>
      </trkpt>
      <trkpt lat="46.55098" lon="5.24377">
        <ele>211</ele>
        <time>2022-06-23T08:08:47Z</time>
      </trkpt>
      <trkpt lat="46.55092" lon="5.2438">
        <ele>211</ele>
        <time>2022-06-23T08:08:48Z</time>
      </trkpt>
      <trkpt lat="46.55064" lon="5.24399">
        <ele>211.8</ele>
        <time>2022-06-23T08:08:53Z</time>
      </trkpt>
      <trkpt lat="46.55059" lon="5.24403">
        <ele>212</ele>
        <time>2022-06-23T08:08:54Z</time>
      </trkpt>
      <trkpt lat="46.55053" lon="5.24408">
        <ele>212</ele>
        <time>2022-06-23T08:08:55Z</time>
      </trkpt>
      <trkpt lat="46.55028" lon="5.24424">
        <ele>212.8</ele>
        <time>2022-06-23T08:08:59Z</time>
      </trkpt>
      <trkpt lat="46.55022" lon="5.24428">
        <ele>213</ele>
        <time>2022-06-23T08:09:00Z</time>
      </trkpt>
      <trkpt lat="46.55016" lon="5.24432">
        <ele>213</ele>
        <time>2022-06-23T08:09:01Z</time>
      </trkpt>
      <trkpt lat="46.54991" lon="5.24448">
        <ele>213.8</ele>
        <time>2022-06-23T08:09:05Z</time>
      </trkpt>
      <trkpt lat="46.54971" lon="5.24461">
        <ele>213.8</ele>
        <time>2022-06-23T08:09:08Z</time>
      </trkpt>
      <trkpt lat="46.54958" lon="5.24469">
        <ele>213.8</ele>
        <time>2022-06-23T08:09:10Z</time>
      </trkpt>
      <trkpt lat="46.54909" lon="5.24498">
        <ele>213.8</ele>
        <time>2022-06-23T08:09:17Z</time>
      </trkpt>
      <trkpt lat="46.54858" lon="5.24528">
        <ele>213.6</ele>
        <time>2022-06-23T08:09:24Z</time>
      </trkpt>
      <trkpt lat="46.54836" lon="5.24541">
        <ele>213.4</ele>
        <time>2022-06-23T08:09:27Z</time>
      </trkpt>
      <trkpt lat="46.54784" lon="5.24572">
        <ele>212.4</ele>
        <time>2022-06-23T08:09:33Z</time>
      </trkpt>
      <trkpt lat="46.54766" lon="5.2458">
        <ele>212</ele>
        <time>2022-06-23T08:09:35Z</time>
      </trkpt>
      <trkpt lat="46.54737" lon="5.24586">
        <ele>211.2</ele>
        <time>2022-06-23T08:09:38Z</time>
      </trkpt>
      <trkpt lat="46.54718" lon="5.24586">
        <ele>210.8</ele>
        <time>2022-06-23T08:09:40Z</time>
      </trkpt>
      <trkpt lat="46.54698" lon="5.24582">
        <ele>210.4</ele>
        <time>2022-06-23T08:09:42Z</time>
      </trkpt>
      <trkpt lat="46.54659" lon="5.24573">
        <ele>209.6</ele>
        <time>2022-06-23T08:09:46Z</time>
      </trkpt>
      <trkpt lat="46.54628" lon="5.24566">
        <ele>208.4</ele>
        <time>2022-06-23T08:09:49Z</time>
      </trkpt>
      <trkpt lat="46.54607" lon="5.24561">
        <ele>207.8</ele>
        <time>2022-06-23T08:09:51Z</time>
      </trkpt>
      <trkpt lat="46.54575" lon="5.24553">
        <ele>207.2</ele>
        <time>2022-06-23T08:09:54Z</time>
      </trkpt>
      <trkpt lat="46.54523" lon="5.24541">
        <ele>206.2</ele>
        <time>2022-06-23T08:09:59Z</time>
      </trkpt>
      <trkpt lat="46.54502" lon="5.24536">
        <ele>205.6</ele>
        <time>2022-06-23T08:10:01Z</time>
      </trkpt>
      <trkpt lat="46.54481" lon="5.24532">
        <ele>205</ele>
        <time>2022-06-23T08:10:03Z</time>
      </trkpt>
      <trkpt lat="46.54431" lon="5.2452">
        <ele>204</ele>
        <time>2022-06-23T08:10:08Z</time>
      </trkpt>
      <trkpt lat="46.54421" lon="5.24518">
        <ele>203.8</ele>
        <time>2022-06-23T08:10:09Z</time>
      </trkpt>
      <trkpt lat="46.54362" lon="5.24506">
        <ele>202.8</ele>
        <time>2022-06-23T08:10:15Z</time>
      </trkpt>
      <trkpt lat="46.54333" lon="5.245">
        <ele>202.8</ele>
        <time>2022-06-23T08:10:18Z</time>
      </trkpt>
      <trkpt lat="46.54273" lon="5.24489">
        <ele>202.2</ele>
        <time>2022-06-23T08:10:24Z</time>
      </trkpt>
      <trkpt lat="46.54263" lon="5.24487">
        <ele>202.2</ele>
        <time>2022-06-23T08:10:25Z</time>
      </trkpt>
      <trkpt lat="46.54253" lon="5.24485">
        <ele>201.8</ele>
        <time>2022-06-23T08:10:26Z</time>
      </trkpt>
      <trkpt lat="46.54191" lon="5.24473">
        <ele>201</ele>
        <time>2022-06-23T08:10:32Z</time>
      </trkpt>
      <trkpt lat="46.5414" lon="5.24463">
        <ele>200.6</ele>
        <time>2022-06-23T08:10:37Z</time>
      </trkpt>
      <trkpt lat="46.5413" lon="5.24461">
        <ele>200.4</ele>
        <time>2022-06-23T08:10:38Z</time>
      </trkpt>
      <trkpt lat="46.54073" lon="5.2445">
        <ele>200.2</ele>
        <time>2022-06-23T08:10:44Z</time>
      </trkpt>
      <trkpt lat="46.54055" lon="5.24447">
        <ele>200.2</ele>
        <time>2022-06-23T08:10:46Z</time>
      </trkpt>
      <trkpt lat="46.54007" lon="5.24438">
        <ele>201.2</ele>
        <time>2022-06-23T08:10:52Z</time>
      </trkpt>
      <trkpt lat="46.53992" lon="5.24434">
        <ele>201.6</ele>
        <time>2022-06-23T08:10:54Z</time>
      </trkpt>
      <trkpt lat="46.53957" lon="5.24428">
        <ele>202.4</ele>
        <time>2022-06-23T08:10:59Z</time>
      </trkpt>
      <trkpt lat="46.53943" lon="5.24425">
        <ele>202.6</ele>
        <time>2022-06-23T08:11:01Z</time>
      </trkpt>
      <trkpt lat="46.53923" lon="5.24423">
        <ele>203.2</ele>
        <time>2022-06-23T08:11:04Z</time>
      </trkpt>
      <trkpt lat="46.53903" lon="5.24419">
        <ele>203.8</ele>
        <time>2022-06-23T08:11:07Z</time>
      </trkpt>
      <trkpt lat="46.53878" lon="5.24415">
        <ele>205</ele>
        <time>2022-06-23T08:11:11Z</time>
      </trkpt>
      <trkpt lat="46.53859" lon="5.24411">
        <ele>205.8</ele>
        <time>2022-06-23T08:11:14Z</time>
      </trkpt>
      <trkpt lat="46.53853" lon="5.2441">
        <ele>206</ele>
        <time>2022-06-23T08:11:15Z</time>
      </trkpt>
      <trkpt lat="46.53815" lon="5.24403">
        <ele>207</ele>
        <time>2022-06-23T08:11:21Z</time>
      </trkpt>
      <trkpt lat="46.53804" lon="5.24401">
        <ele>207.8</ele>
        <time>2022-06-23T08:11:23Z</time>
      </trkpt>
      <trkpt lat="46.53792" lon="5.24398">
        <ele>208.2</ele>
        <time>2022-06-23T08:11:25Z</time>
      </trkpt>
      <trkpt lat="46.53751" lon="5.2439">
        <ele>209.2</ele>
        <time>2022-06-23T08:11:32Z</time>
      </trkpt>
      <trkpt lat="46.53745" lon="5.24389">
        <ele>209.4</ele>
        <time>2022-06-23T08:11:33Z</time>
      </trkpt>
      <trkpt lat="46.53686" lon="5.24379">
        <ele>210</ele>
        <time>2022-06-23T08:11:42Z</time>
      </trkpt>
      <trkpt lat="46.53673" lon="5.24377">
        <ele>210.2</ele>
        <time>2022-06-23T08:11:44Z</time>
      </trkpt>
      <trkpt lat="46.53622" lon="5.24367">
        <ele>210.4</ele>
        <time>2022-06-23T08:11:52Z</time>
      </trkpt>
      <trkpt lat="46.53569" lon="5.24358">
        <ele>210.8</ele>
        <time>2022-06-23T08:12:00Z</time>
      </trkpt>
      <trkpt lat="46.53563" lon="5.24356">
        <ele>211</ele>
        <time>2022-06-23T08:12:01Z</time>
      </trkpt>
      <trkpt lat="46.5353" lon="5.24351">
        <ele>211.4</ele>
        <time>2022-06-23T08:12:06Z</time>
      </trkpt>
      <trkpt lat="46.53495" lon="5.24344">
        <ele>211.6</ele>
        <time>2022-06-23T08:12:11Z</time>
      </trkpt>
      <trkpt lat="46.53448" lon="5.24336">
        <ele>211.8</ele>
        <time>2022-06-23T08:12:18Z</time>
      </trkpt>
      <trkpt lat="46.53388" lon="5.24325">
        <ele>212</ele>
        <time>2022-06-23T08:12:27Z</time>
      </trkpt>
      <trkpt lat="46.53381" lon="5.24324">
        <ele>212</ele>
        <time>2022-06-23T08:12:28Z</time>
      </trkpt>
      <trkpt lat="46.53326" lon="5.24314">
        <ele>212</ele>
        <time>2022-06-23T08:12:36Z</time>
      </trkpt>
      <trkpt lat="46.53312" lon="5.24311">
        <ele>212.2</ele>
        <time>2022-06-23T08:12:38Z</time>
      </trkpt>
      <trkpt lat="46.53298" lon="5.24309">
        <ele>212.6</ele>
        <time>2022-06-23T08:12:40Z</time>
      </trkpt>
      <trkpt lat="46.53242" lon="5.24298">
        <ele>213.4</ele>
        <time>2022-06-23T08:12:48Z</time>
      </trkpt>
      <trkpt lat="46.53226" lon="5.24295">
        <ele>213.4</ele>
        <time>2022-06-23T08:12:50Z</time>
      </trkpt>
      <trkpt lat="46.53167" lon="5.24283">
        <ele>213.4</ele>
        <time>2022-06-23T08:12:58Z</time>
      </trkpt>
      <trkpt lat="46.53129" lon="5.24273">
        <ele>213.4</ele>
        <time>2022-06-23T08:13:02Z</time>
      </trkpt>
      <trkpt lat="46.5307" lon="5.24259">
        <ele>213.6</ele>
        <time>2022-06-23T08:13:10Z</time>
      </trkpt>
      <trkpt lat="46.53062" lon="5.24257">
        <ele>213.6</ele>
        <time>2022-06-23T08:13:11Z</time>
      </trkpt>
      <trkpt lat="46.53002" lon="5.24243">
        <ele>214</ele>
        <time>2022-06-23T08:13:19Z</time>
      </trkpt>
      <trkpt lat="46.52987" lon="5.24239">
        <ele>214</ele>
        <time>2022-06-23T08:13:21Z</time>
      </trkpt>
      <trkpt lat="46.52927" lon="5.24225">
        <ele>214.2</ele>
        <time>2022-06-23T08:13:29Z</time>
      </trkpt>
      <trkpt lat="46.52911" lon="5.24222">
        <ele>214.2</ele>
        <time>2022-06-23T08:13:31Z</time>
      </trkpt>
      <trkpt lat="46.52851" lon="5.24208">
        <ele>214</ele>
        <time>2022-06-23T08:13:39Z</time>
      </trkpt>
      <trkpt lat="46.528" lon="5.24196">
        <ele>214.2</ele>
        <time>2022-06-23T08:13:46Z</time>
      </trkpt>
      <trkpt lat="46.52741" lon="5.24182">
        <ele>214.6</ele>
        <time>2022-06-23T08:13:54Z</time>
      </trkpt>
      <trkpt lat="46.52734" lon="5.2418">
        <ele>214.6</ele>
        <time>2022-06-23T08:13:55Z</time>
      </trkpt>
      <trkpt lat="46.52675" lon="5.24166">
        <ele>215.2</ele>
        <time>2022-06-23T08:14:03Z</time>
      </trkpt>
      <trkpt lat="46.52659" lon="5.24163">
        <ele>215.2</ele>
        <time>2022-06-23T08:14:05Z</time>
      </trkpt>
      <trkpt lat="46.52605" lon="5.2415">
        <ele>215.2</ele>
        <time>2022-06-23T08:14:12Z</time>
      </trkpt>
      <trkpt lat="46.52582" lon="5.24144">
        <ele>215.2</ele>
        <time>2022-06-23T08:14:15Z</time>
      </trkpt>
      <trkpt lat="46.52519" lon="5.2413">
        <ele>215.4</ele>
        <time>2022-06-23T08:14:23Z</time>
      </trkpt>
      <trkpt lat="46.52511" lon="5.24128">
        <ele>215.4</ele>
        <time>2022-06-23T08:14:24Z</time>
      </trkpt>
      <trkpt lat="46.52455" lon="5.24114">
        <ele>215.4</ele>
        <time>2022-06-23T08:14:31Z</time>
      </trkpt>
      <trkpt lat="46.52445" lon="5.24112">
        <ele>215.4</ele>
        <time>2022-06-23T08:14:32Z</time>
      </trkpt>
      <trkpt lat="46.52385" lon="5.24098">
        <ele>215</ele>
        <time>2022-06-23T08:14:39Z</time>
      </trkpt>
      <trkpt lat="46.52351" lon="5.24092">
        <ele>214.8</ele>
        <time>2022-06-23T08:14:43Z</time>
      </trkpt>
      <trkpt lat="46.52301" lon="5.24094">
        <ele>214.6</ele>
        <time>2022-06-23T08:14:49Z</time>
      </trkpt>
      <trkpt lat="46.52242" lon="5.24103">
        <ele>214.4</ele>
        <time>2022-06-23T08:14:56Z</time>
      </trkpt>
      <trkpt lat="46.52234" lon="5.24105">
        <ele>214.4</ele>
        <time>2022-06-23T08:14:57Z</time>
      </trkpt>
      <trkpt lat="46.52225" lon="5.24106">
        <ele>214.4</ele>
        <time>2022-06-23T08:14:58Z</time>
      </trkpt>
      <trkpt lat="46.52164" lon="5.24116">
        <ele>213.4</ele>
        <time>2022-06-23T08:15:05Z</time>
      </trkpt>
      <trkpt lat="46.52145" lon="5.24119">
        <ele>213.2</ele>
        <time>2022-06-23T08:15:07Z</time>
      </trkpt>
      <trkpt lat="46.52088" lon="5.2413">
        <ele>212.6</ele>
        <time>2022-06-23T08:15:13Z</time>
      </trkpt>
      <trkpt lat="46.52078" lon="5.24131">
        <ele>212.6</ele>
        <time>2022-06-23T08:15:14Z</time>
      </trkpt>
      <trkpt lat="46.52059" lon="5.24134">
        <ele>212.4</ele>
        <time>2022-06-23T08:15:16Z</time>
      </trkpt>
      <trkpt lat="46.5201" lon="5.24141">
        <ele>211.2</ele>
        <time>2022-06-23T08:15:21Z</time>
      </trkpt>
      <trkpt lat="46.51962" lon="5.2415">
        <ele>210.2</ele>
        <time>2022-06-23T08:15:26Z</time>
      </trkpt>
      <trkpt lat="46.51917" lon="5.24157">
        <ele>209.2</ele>
        <time>2022-06-23T08:15:30Z</time>
      </trkpt>
      <trkpt lat="46.51906" lon="5.24159">
        <ele>209</ele>
        <time>2022-06-23T08:15:31Z</time>
      </trkpt>
      <trkpt lat="46.51864" lon="5.24166">
        <ele>207.6</ele>
        <time>2022-06-23T08:15:35Z</time>
      </trkpt>
      <trkpt lat="46.51835" lon="5.24171">
        <ele>207.6</ele>
        <time>2022-06-23T08:15:38Z</time>
      </trkpt>
      <trkpt lat="46.51779" lon="5.24181">
        <ele>207.6</ele>
        <time>2022-06-23T08:15:44Z</time>
      </trkpt>
      <trkpt lat="46.51762" lon="5.24183">
        <ele>207.6</ele>
        <time>2022-06-23T08:15:46Z</time>
      </trkpt>
      <trkpt lat="46.51712" lon="5.24194">
        <ele>208.2</ele>
        <time>2022-06-23T08:15:52Z</time>
      </trkpt>
      <trkpt lat="46.51696" lon="5.24198">
        <ele>209</ele>
        <time>2022-06-23T08:15:54Z</time>
      </trkpt>
      <trkpt lat="46.51657" lon="5.24212">
        <ele>209.8</ele>
        <time>2022-06-23T08:15:59Z</time>
      </trkpt>
      <trkpt lat="46.51626" lon="5.24224">
        <ele>210</ele>
        <time>2022-06-23T08:16:03Z</time>
      </trkpt>
      <trkpt lat="46.51574" lon="5.24245">
        <ele>209.4</ele>
        <time>2022-06-23T08:16:09Z</time>
      </trkpt>
      <trkpt lat="46.51555" lon="5.24252">
        <ele>208.8</ele>
        <time>2022-06-23T08:16:11Z</time>
      </trkpt>
      <trkpt lat="46.51507" lon="5.24271">
        <ele>207.6</ele>
        <time>2022-06-23T08:16:16Z</time>
      </trkpt>
      <trkpt lat="46.51497" lon="5.24275">
        <ele>207.4</ele>
        <time>2022-06-23T08:16:17Z</time>
      </trkpt>
      <trkpt lat="46.51469" lon="5.24286">
        <ele>206.6</ele>
        <time>2022-06-23T08:16:20Z</time>
      </trkpt>
      <trkpt lat="46.51441" lon="5.24297">
        <ele>205.4</ele>
        <time>2022-06-23T08:16:23Z</time>
      </trkpt>
      <trkpt lat="46.51403" lon="5.24312">
        <ele>204.2</ele>
        <time>2022-06-23T08:16:27Z</time>
      </trkpt>
      <trkpt lat="46.51394" lon="5.24316">
        <ele>203.8</ele>
        <time>2022-06-23T08:16:28Z</time>
      </trkpt>
      <trkpt lat="46.51375" lon="5.24323">
        <ele>203.2</ele>
        <time>2022-06-23T08:16:30Z</time>
      </trkpt>
      <trkpt lat="46.51347" lon="5.24334">
        <ele>202</ele>
        <time>2022-06-23T08:16:33Z</time>
      </trkpt>
      <trkpt lat="46.51308" lon="5.24349">
        <ele>201</ele>
        <time>2022-06-23T08:16:37Z</time>
      </trkpt>
      <trkpt lat="46.5127" lon="5.24364">
        <ele>200</ele>
        <time>2022-06-23T08:16:41Z</time>
      </trkpt>
      <trkpt lat="46.51241" lon="5.24375">
        <ele>198.6</ele>
        <time>2022-06-23T08:16:44Z</time>
      </trkpt>
      <trkpt lat="46.51222" lon="5.24383">
        <ele>198.2</ele>
        <time>2022-06-23T08:16:46Z</time>
      </trkpt>
      <trkpt lat="46.51187" lon="5.24397">
        <ele>197.6</ele>
        <time>2022-06-23T08:16:50Z</time>
      </trkpt>
      <trkpt lat="46.51169" lon="5.24404">
        <ele>197.2</ele>
        <time>2022-06-23T08:16:52Z</time>
      </trkpt>
      <trkpt lat="46.51112" lon="5.24426">
        <ele>196.8</ele>
        <time>2022-06-23T08:16:59Z</time>
      </trkpt>
      <trkpt lat="46.51106" lon="5.24429">
        <ele>196.8</ele>
        <time>2022-06-23T08:17:00Z</time>
      </trkpt>
      <trkpt lat="46.51081" lon="5.24438">
        <ele>196.6</ele>
        <time>2022-06-23T08:17:03Z</time>
      </trkpt>
      <trkpt lat="46.51028" lon="5.24459">
        <ele>196.6</ele>
        <time>2022-06-23T08:17:10Z</time>
      </trkpt>
      <trkpt lat="46.50971" lon="5.24481">
        <ele>196.6</ele>
        <time>2022-06-23T08:17:18Z</time>
      </trkpt>
      <trkpt lat="46.50916" lon="5.24503">
        <ele>197</ele>
        <time>2022-06-23T08:17:26Z</time>
      </trkpt>
      <trkpt lat="46.50902" lon="5.24508">
        <ele>197.2</ele>
        <time>2022-06-23T08:17:28Z</time>
      </trkpt>
      <trkpt lat="46.50853" lon="5.24528">
        <ele>197.6</ele>
        <time>2022-06-23T08:17:35Z</time>
      </trkpt>
      <trkpt lat="46.50846" lon="5.2453">
        <ele>197.8</ele>
        <time>2022-06-23T08:17:36Z</time>
      </trkpt>
      <trkpt lat="46.50793" lon="5.24551">
        <ele>198</ele>
        <time>2022-06-23T08:17:44Z</time>
      </trkpt>
      <trkpt lat="46.50787" lon="5.24553">
        <ele>198</ele>
        <time>2022-06-23T08:17:45Z</time>
      </trkpt>
      <trkpt lat="46.5074" lon="5.24571">
        <ele>198.8</ele>
        <time>2022-06-23T08:17:52Z</time>
      </trkpt>
      <trkpt lat="46.50734" lon="5.24572">
        <ele>198.8</ele>
        <time>2022-06-23T08:17:53Z</time>
      </trkpt>
      <trkpt lat="46.50727" lon="5.24574">
        <ele>199</ele>
        <time>2022-06-23T08:17:54Z</time>
      </trkpt>
      <trkpt lat="46.50688" lon="5.24585">
        <ele>199.8</ele>
        <time>2022-06-23T08:18:00Z</time>
      </trkpt>
      <trkpt lat="46.50681" lon="5.24586">
        <ele>200</ele>
        <time>2022-06-23T08:18:01Z</time>
      </trkpt>
      <trkpt lat="46.50645" lon="5.24592">
        <ele>201</ele>
        <time>2022-06-23T08:18:07Z</time>
      </trkpt>
      <trkpt lat="46.50619" lon="5.24595">
        <ele>202</ele>
        <time>2022-06-23T08:18:11Z</time>
      </trkpt>
      <trkpt lat="46.50613" lon="5.24596">
        <ele>202</ele>
        <time>2022-06-23T08:18:12Z</time>
      </trkpt>
      <trkpt lat="46.50556" lon="5.24603">
        <ele>203</ele>
        <time>2022-06-23T08:18:20Z</time>
      </trkpt>
      <trkpt lat="46.50499" lon="5.24606">
        <ele>203.8</ele>
        <time>2022-06-23T08:18:28Z</time>
      </trkpt>
      <trkpt lat="46.50493" lon="5.24606">
        <ele>203.6</ele>
        <time>2022-06-23T08:18:29Z</time>
      </trkpt>
      <trkpt lat="46.50445" lon="5.24593">
        <ele>203.2</ele>
        <time>2022-06-23T08:18:35Z</time>
      </trkpt>
      <trkpt lat="46.50401" lon="5.24567">
        <ele>202.4</ele>
        <time>2022-06-23T08:18:41Z</time>
      </trkpt>
      <trkpt lat="46.50372" lon="5.24547">
        <ele>201.8</ele>
        <time>2022-06-23T08:18:45Z</time>
      </trkpt>
      <trkpt lat="46.50338" lon="5.24521">
        <ele>201.6</ele>
        <time>2022-06-23T08:18:50Z</time>
      </trkpt>
      <trkpt lat="46.50289" lon="5.24485">
        <ele>201.2</ele>
        <time>2022-06-23T08:18:57Z</time>
      </trkpt>
      <trkpt lat="46.50268" lon="5.2447">
        <ele>201</ele>
        <time>2022-06-23T08:19:00Z</time>
      </trkpt>
      <trkpt lat="46.50237" lon="5.24448">
        <ele>200.8</ele>
        <time>2022-06-23T08:19:04Z</time>
      </trkpt>
      <trkpt lat="46.50198" lon="5.2442">
        <ele>199.8</ele>
        <time>2022-06-23T08:19:09Z</time>
      </trkpt>
      <trkpt lat="46.5019" lon="5.24414">
        <ele>199.8</ele>
        <time>2022-06-23T08:19:10Z</time>
      </trkpt>
      <trkpt lat="46.50159" lon="5.24393">
        <ele>199.2</ele>
        <time>2022-06-23T08:19:14Z</time>
      </trkpt>
      <trkpt lat="46.50135" lon="5.24378">
        <ele>198.6</ele>
        <time>2022-06-23T08:19:17Z</time>
      </trkpt>
      <trkpt lat="46.5009" lon="5.2435">
        <ele>198.2</ele>
        <time>2022-06-23T08:19:23Z</time>
      </trkpt>
      <trkpt lat="46.50037" lon="5.24318">
        <ele>198.4</ele>
        <time>2022-06-23T08:19:30Z</time>
      </trkpt>
      <trkpt lat="46.49983" lon="5.24288">
        <ele>198.4</ele>
        <time>2022-06-23T08:19:37Z</time>
      </trkpt>
      <trkpt lat="46.4997" lon="5.2428">
        <ele>198.2</ele>
        <time>2022-06-23T08:19:39Z</time>
      </trkpt>
      <trkpt lat="46.49918" lon="5.24251">
        <ele>198</ele>
        <time>2022-06-23T08:19:46Z</time>
      </trkpt>
      <trkpt lat="46.49897" lon="5.24239">
        <ele>198</ele>
        <time>2022-06-23T08:19:49Z</time>
      </trkpt>
      <trkpt lat="46.49859" lon="5.24218">
        <ele>198</ele>
        <time>2022-06-23T08:19:55Z</time>
      </trkpt>
      <trkpt lat="46.49819" lon="5.24195">
        <ele>199</ele>
        <time>2022-06-23T08:20:02Z</time>
      </trkpt>
      <trkpt lat="46.49798" lon="5.24183">
        <ele>200</ele>
        <time>2022-06-23T08:20:06Z</time>
      </trkpt>
      <trkpt lat="46.49775" lon="5.24169">
        <ele>201.2</ele>
        <time>2022-06-23T08:20:11Z</time>
      </trkpt>
      <trkpt lat="46.49752" lon="5.24156">
        <ele>202.2</ele>
        <time>2022-06-23T08:20:16Z</time>
      </trkpt>
      <trkpt lat="46.49725" lon="5.2414">
        <ele>203.2</ele>
        <time>2022-06-23T08:20:22Z</time>
      </trkpt>
      <trkpt lat="46.4972" lon="5.24138">
        <ele>203.4</ele>
        <time>2022-06-23T08:20:23Z</time>
      </trkpt>
      <trkpt lat="46.49701" lon="5.24129">
        <ele>203.8</ele>
        <time>2022-06-23T08:20:27Z</time>
      </trkpt>
      <trkpt lat="46.49693" lon="5.24123">
        <ele>204.4</ele>
        <time>2022-06-23T08:20:29Z</time>
      </trkpt>
      <trkpt lat="46.49689" lon="5.24121">
        <ele>204.6</ele>
        <time>2022-06-23T08:20:30Z</time>
      </trkpt>
      <trkpt lat="46.49656" lon="5.24106">
        <ele>205.2</ele>
        <time>2022-06-23T08:20:37Z</time>
      </trkpt>
      <trkpt lat="46.49642" lon="5.24102">
        <ele>205.8</ele>
        <time>2022-06-23T08:20:40Z</time>
      </trkpt>
      <trkpt lat="46.49613" lon="5.24098">
        <ele>206.6</ele>
        <time>2022-06-23T08:20:46Z</time>
      </trkpt>
      <trkpt lat="46.49601" lon="5.24097">
        <ele>207</ele>
        <time>2022-06-23T08:20:48Z</time>
      </trkpt>
      <trkpt lat="46.49596" lon="5.24097">
        <ele>207</ele>
        <time>2022-06-23T08:20:49Z</time>
      </trkpt>
      <trkpt lat="46.49576" lon="5.24099">
        <ele>208</ele>
        <time>2022-06-23T08:20:53Z</time>
      </trkpt>
      <trkpt lat="46.49543" lon="5.2411">
        <ele>209.2</ele>
        <time>2022-06-23T08:21:00Z</time>
      </trkpt>
      <trkpt lat="46.49538" lon="5.24112">
        <ele>209.4</ele>
        <time>2022-06-23T08:21:01Z</time>
      </trkpt>
      <trkpt lat="46.49509" lon="5.24126">
        <ele>210.2</ele>
        <time>2022-06-23T08:21:07Z</time>
      </trkpt>
      <trkpt lat="46.4949" lon="5.24138">
        <ele>211</ele>
        <time>2022-06-23T08:21:11Z</time>
      </trkpt>
      <trkpt lat="46.49476" lon="5.24148">
        <ele>211.4</ele>
        <time>2022-06-23T08:21:14Z</time>
      </trkpt>
      <trkpt lat="46.49444" lon="5.24169">
        <ele>212.6</ele>
        <time>2022-06-23T08:21:21Z</time>
      </trkpt>
      <trkpt lat="46.49404" lon="5.24196">
        <ele>213.6</ele>
        <time>2022-06-23T08:21:29Z</time>
      </trkpt>
      <trkpt lat="46.49393" lon="5.24204">
        <ele>213.8</ele>
        <time>2022-06-23T08:21:31Z</time>
      </trkpt>
      <trkpt lat="46.49378" lon="5.24214">
        <ele>214.2</ele>
        <time>2022-06-23T08:21:34Z</time>
      </trkpt>
      <trkpt lat="46.49349" lon="5.24233">
        <ele>214.8</ele>
        <time>2022-06-23T08:21:39Z</time>
      </trkpt>
      <trkpt lat="46.49343" lon="5.24237">
        <ele>214.8</ele>
        <time>2022-06-23T08:21:40Z</time>
      </trkpt>
      <trkpt lat="46.49291" lon="5.24272">
        <ele>215</ele>
        <time>2022-06-23T08:21:49Z</time>
      </trkpt>
      <trkpt lat="46.49245" lon="5.24303">
        <ele>215.2</ele>
        <time>2022-06-23T08:21:57Z</time>
      </trkpt>
      <trkpt lat="46.49208" lon="5.2433">
        <ele>215.8</ele>
        <time>2022-06-23T08:22:03Z</time>
      </trkpt>
      <trkpt lat="46.49169" lon="5.24357">
        <ele>216.2</ele>
        <time>2022-06-23T08:22:09Z</time>
      </trkpt>
      <trkpt lat="46.49125" lon="5.24388">
        <ele>216.4</ele>
        <time>2022-06-23T08:22:16Z</time>
      </trkpt>
      <trkpt lat="46.49075" lon="5.24421">
        <ele>216.6</ele>
        <time>2022-06-23T08:22:24Z</time>
      </trkpt>
      <trkpt lat="46.49069" lon="5.24425">
        <ele>216.6</ele>
        <time>2022-06-23T08:22:25Z</time>
      </trkpt>
      <trkpt lat="46.49032" lon="5.24449">
        <ele>216.8</ele>
        <time>2022-06-23T08:22:31Z</time>
      </trkpt>
      <trkpt lat="46.49014" lon="5.24461">
        <ele>217</ele>
        <time>2022-06-23T08:22:34Z</time>
      </trkpt>
      <trkpt lat="46.48973" lon="5.24488">
        <ele>217.2</ele>
        <time>2022-06-23T08:22:41Z</time>
      </trkpt>
      <trkpt lat="46.48933" lon="5.24515">
        <ele>217.8</ele>
        <time>2022-06-23T08:22:48Z</time>
      </trkpt>
      <trkpt lat="46.48883" lon="5.24548">
        <ele>218.4</ele>
        <time>2022-06-23T08:22:57Z</time>
      </trkpt>
      <trkpt lat="46.48878" lon="5.24552">
        <ele>218.6</ele>
        <time>2022-06-23T08:22:58Z</time>
      </trkpt>
      <trkpt lat="46.4885" lon="5.24571">
        <ele>218.8</ele>
        <time>2022-06-23T08:23:03Z</time>
      </trkpt>
      <trkpt lat="46.48829" lon="5.24585">
        <ele>219.6</ele>
        <time>2022-06-23T08:23:07Z</time>
      </trkpt>
      <trkpt lat="46.48818" lon="5.24592">
        <ele>220</ele>
        <time>2022-06-23T08:23:09Z</time>
      </trkpt>
      <trkpt lat="46.48784" lon="5.24615">
        <ele>220.4</ele>
        <time>2022-06-23T08:23:15Z</time>
      </trkpt>
      <trkpt lat="46.48766" lon="5.24625">
        <ele>220.6</ele>
        <time>2022-06-23T08:23:18Z</time>
      </trkpt>
      <trkpt lat="46.48753" lon="5.24628">
        <ele>220.6</ele>
        <time>2022-06-23T08:23:20Z</time>
      </trkpt>
      <trkpt lat="46.48746" lon="5.24629">
        <ele>220.6</ele>
        <time>2022-06-23T08:23:21Z</time>
      </trkpt>
      <trkpt lat="46.48739" lon="5.2463">
        <ele>220.6</ele>
        <time>2022-06-23T08:23:22Z</time>
      </trkpt>
      <trkpt lat="46.48724" lon="5.24627">
        <ele>220.4</ele>
        <time>2022-06-23T08:23:24Z</time>
      </trkpt>
      <trkpt lat="46.4868" lon="5.24606">
        <ele>220.2</ele>
        <time>2022-06-23T08:23:30Z</time>
      </trkpt>
      <trkpt lat="46.48633" lon="5.24581">
        <ele>219.6</ele>
        <time>2022-06-23T08:23:37Z</time>
      </trkpt>
      <trkpt lat="46.48588" lon="5.24555">
        <ele>220</ele>
        <time>2022-06-23T08:23:44Z</time>
      </trkpt>
      <trkpt lat="46.48553" lon="5.2452">
        <ele>220.4</ele>
        <time>2022-06-23T08:23:50Z</time>
      </trkpt>
      <trkpt lat="46.48506" lon="5.24461">
        <ele>220</ele>
        <time>2022-06-23T08:23:58Z</time>
      </trkpt>
      <trkpt lat="46.48501" lon="5.24455">
        <ele>220</ele>
        <time>2022-06-23T08:23:59Z</time>
      </trkpt>
      <trkpt lat="46.48456" lon="5.24401">
        <ele>218.8</ele>
        <time>2022-06-23T08:24:06Z</time>
      </trkpt>
      <trkpt lat="46.48448" lon="5.24392">
        <ele>218.8</ele>
        <time>2022-06-23T08:24:07Z</time>
      </trkpt>
      <trkpt lat="46.4841" lon="5.24354">
        <ele>218</ele>
        <time>2022-06-23T08:24:13Z</time>
      </trkpt>
      <trkpt lat="46.48377" lon="5.24338">
        <ele>218.2</ele>
        <time>2022-06-23T08:24:18Z</time>
      </trkpt>
      <trkpt lat="46.48348" lon="5.24324">
        <ele>219</ele>
        <time>2022-06-23T08:24:23Z</time>
      </trkpt>
      <trkpt lat="46.48343" lon="5.2432">
        <ele>219.2</ele>
        <time>2022-06-23T08:24:24Z</time>
      </trkpt>
      <trkpt lat="46.48338" lon="5.24315">
        <ele>219.2</ele>
        <time>2022-06-23T08:24:25Z</time>
      </trkpt>
      <trkpt lat="46.4833" lon="5.24305">
        <ele>219.6</ele>
        <time>2022-06-23T08:24:27Z</time>
      </trkpt>
      <trkpt lat="46.48326" lon="5.24299">
        <ele>220</ele>
        <time>2022-06-23T08:24:28Z</time>
      </trkpt>
      <trkpt lat="46.48321" lon="5.24292">
        <ele>220.4</ele>
        <time>2022-06-23T08:24:29Z</time>
      </trkpt>
      <trkpt lat="46.48312" lon="5.2428">
        <ele>220.8</ele>
        <time>2022-06-23T08:24:31Z</time>
      </trkpt>
      <trkpt lat="46.48303" lon="5.24272">
        <ele>221.4</ele>
        <time>2022-06-23T08:24:33Z</time>
      </trkpt>
      <trkpt lat="46.48297" lon="5.2427">
        <ele>221.6</ele>
        <time>2022-06-23T08:24:34Z</time>
      </trkpt>
      <trkpt lat="46.48255" lon="5.24259">
        <ele>222.4</ele>
        <time>2022-06-23T08:24:41Z</time>
      </trkpt>
      <trkpt lat="46.48249" lon="5.24257">
        <ele>222.6</ele>
        <time>2022-06-23T08:24:42Z</time>
      </trkpt>
      <trkpt lat="46.48236" lon="5.24253">
        <ele>222.8</ele>
        <time>2022-06-23T08:24:44Z</time>
      </trkpt>
      <trkpt lat="46.48212" lon="5.24249">
        <ele>223</ele>
        <time>2022-06-23T08:24:48Z</time>
      </trkpt>
      <trkpt lat="46.48198" lon="5.2425">
        <ele>223.2</ele>
        <time>2022-06-23T08:24:50Z</time>
      </trkpt>
      <trkpt lat="46.48187" lon="5.24258">
        <ele>223.2</ele>
        <time>2022-06-23T08:24:52Z</time>
      </trkpt>
      <trkpt lat="46.48156" lon="5.243">
        <ele>223</ele>
        <time>2022-06-23T08:24:58Z</time>
      </trkpt>
      <trkpt lat="46.48128" lon="5.24332">
        <ele>222.6</ele>
        <time>2022-06-23T08:25:03Z</time>
      </trkpt>
      <trkpt lat="46.4812" lon="5.24342">
        <ele>222</ele>
        <time>2022-06-23T08:25:06Z</time>
      </trkpt>
      <trkpt lat="46.48118" lon="5.24344">
        <ele>221.4</ele>
        <time>2022-06-23T08:25:08Z</time>
      </trkpt>
      <trkpt lat="46.48117" lon="5.24345">
        <ele>221</ele>
        <time>2022-06-23T08:25:10Z</time>
      </trkpt>
      <trkpt lat="46.48111" lon="5.24349">
        <ele>220.6</ele>
        <time>2022-06-23T08:25:15Z</time>
      </trkpt>
      <trkpt lat="46.48102" lon="5.24366">
        <ele>220.6</ele>
        <time>2022-06-23T08:25:18Z</time>
      </trkpt>
      <trkpt lat="46.48097" lon="5.24371">
        <ele>220.6</ele>
        <time>2022-06-23T08:25:19Z</time>
      </trkpt>
      <trkpt lat="46.48065" lon="5.24399">
        <ele>220.6</ele>
        <time>2022-06-23T08:25:25Z</time>
      </trkpt>
      <trkpt lat="46.48014" lon="5.24434">
        <ele>221</ele>
        <time>2022-06-23T08:25:33Z</time>
      </trkpt>
      <trkpt lat="46.47969" lon="5.24465">
        <ele>221.8</ele>
        <time>2022-06-23T08:25:40Z</time>
      </trkpt>
      <trkpt lat="46.47931" lon="5.24488">
        <ele>222.2</ele>
        <time>2022-06-23T08:25:46Z</time>
      </trkpt>
      <trkpt lat="46.47912" lon="5.24495">
        <ele>222.4</ele>
        <time>2022-06-23T08:25:49Z</time>
      </trkpt>
      <trkpt lat="46.47899" lon="5.24497">
        <ele>222.6</ele>
        <time>2022-06-23T08:25:51Z</time>
      </trkpt>
      <trkpt lat="46.47841" lon="5.24495">
        <ele>223.4</ele>
        <time>2022-06-23T08:25:59Z</time>
      </trkpt>
      <trkpt lat="46.47781" lon="5.24499">
        <ele>222.2</ele>
        <time>2022-06-23T08:26:07Z</time>
      </trkpt>
      <trkpt lat="46.47726" lon="5.24513">
        <ele>221.6</ele>
        <time>2022-06-23T08:26:14Z</time>
      </trkpt>
      <trkpt lat="46.47717" lon="5.24516">
        <ele>221.6</ele>
        <time>2022-06-23T08:26:15Z</time>
      </trkpt>
      <trkpt lat="46.47689" lon="5.24527">
        <ele>221.4</ele>
        <time>2022-06-23T08:26:19Z</time>
      </trkpt>
      <trkpt lat="46.47666" lon="5.24538">
        <ele>221.2</ele>
        <time>2022-06-23T08:26:22Z</time>
      </trkpt>
      <trkpt lat="46.47611" lon="5.2457">
        <ele>221.2</ele>
        <time>2022-06-23T08:26:30Z</time>
      </trkpt>
      <trkpt lat="46.47554" lon="5.24603">
        <ele>220.4</ele>
        <time>2022-06-23T08:26:38Z</time>
      </trkpt>
      <trkpt lat="46.47531" lon="5.24615">
        <ele>220.4</ele>
        <time>2022-06-23T08:26:41Z</time>
      </trkpt>
      <trkpt lat="46.47498" lon="5.2463">
        <ele>220.4</ele>
        <time>2022-06-23T08:26:45Z</time>
      </trkpt>
      <trkpt lat="46.47484" lon="5.24634">
        <ele>220</ele>
        <time>2022-06-23T08:26:47Z</time>
      </trkpt>
      <trkpt lat="46.47427" lon="5.2464">
        <ele>219.6</ele>
        <time>2022-06-23T08:26:54Z</time>
      </trkpt>
      <trkpt lat="46.47388" lon="5.24643">
        <ele>219.4</ele>
        <time>2022-06-23T08:26:59Z</time>
      </trkpt>
      <trkpt lat="46.47355" lon="5.24647">
        <ele>218.8</ele>
        <time>2022-06-23T08:27:03Z</time>
      </trkpt>
      <trkpt lat="46.47312" lon="5.2465">
        <ele>218.4</ele>
        <time>2022-06-23T08:27:08Z</time>
      </trkpt>
      <trkpt lat="46.47296" lon="5.24651">
        <ele>217.8</ele>
        <time>2022-06-23T08:27:10Z</time>
      </trkpt>
      <trkpt lat="46.47277" lon="5.24653">
        <ele>217.4</ele>
        <time>2022-06-23T08:27:12Z</time>
      </trkpt>
      <trkpt lat="46.47223" lon="5.24654">
        <ele>216</ele>
        <time>2022-06-23T08:27:18Z</time>
      </trkpt>
      <trkpt lat="46.47187" lon="5.2465">
        <ele>215</ele>
        <time>2022-06-23T08:27:22Z</time>
      </trkpt>
      <trkpt lat="46.4716" lon="5.24644">
        <ele>214.4</ele>
        <time>2022-06-23T08:27:25Z</time>
      </trkpt>
      <trkpt lat="46.47143" lon="5.24638">
        <ele>214</ele>
        <time>2022-06-23T08:27:27Z</time>
      </trkpt>
      <trkpt lat="46.47117" lon="5.24627">
        <ele>212.8</ele>
        <time>2022-06-23T08:27:30Z</time>
      </trkpt>
      <trkpt lat="46.47108" lon="5.24627">
        <ele>212.6</ele>
        <time>2022-06-23T08:27:31Z</time>
      </trkpt>
      <trkpt lat="46.471" lon="5.24631">
        <ele>212.2</ele>
        <time>2022-06-23T08:27:32Z</time>
      </trkpt>
      <trkpt lat="46.47094" lon="5.24638">
        <ele>212</ele>
        <time>2022-06-23T08:27:33Z</time>
      </trkpt>
      <trkpt lat="46.47089" lon="5.24646">
        <ele>211.8</ele>
        <time>2022-06-23T08:27:34Z</time>
      </trkpt>
      <trkpt lat="46.47086" lon="5.24656">
        <ele>211.6</ele>
        <time>2022-06-23T08:27:35Z</time>
      </trkpt>
      <trkpt lat="46.47083" lon="5.24667">
        <ele>211.2</ele>
        <time>2022-06-23T08:27:36Z</time>
      </trkpt>
      <trkpt lat="46.4708" lon="5.24678">
        <ele>210.6</ele>
        <time>2022-06-23T08:27:37Z</time>
      </trkpt>
      <trkpt lat="46.47063" lon="5.24722">
        <ele>209.4</ele>
        <time>2022-06-23T08:27:41Z</time>
      </trkpt>
      <trkpt lat="46.47057" lon="5.24732">
        <ele>209.6</ele>
        <time>2022-06-23T08:27:42Z</time>
      </trkpt>
      <trkpt lat="46.47037" lon="5.24763">
        <ele>209</ele>
        <time>2022-06-23T08:27:45Z</time>
      </trkpt>
      <trkpt lat="46.47011" lon="5.24793">
        <ele>208.6</ele>
        <time>2022-06-23T08:27:48Z</time>
      </trkpt>
      <trkpt lat="46.47003" lon="5.24801">
        <ele>208.4</ele>
        <time>2022-06-23T08:27:49Z</time>
      </trkpt>
      <trkpt lat="46.46976" lon="5.24824">
        <ele>207.4</ele>
        <time>2022-06-23T08:27:52Z</time>
      </trkpt>
      <trkpt lat="46.46958" lon="5.2484">
        <ele>206</ele>
        <time>2022-06-23T08:27:54Z</time>
      </trkpt>
      <trkpt lat="46.46949" lon="5.24848">
        <ele>205.4</ele>
        <time>2022-06-23T08:27:55Z</time>
      </trkpt>
      <trkpt lat="46.46933" lon="5.24861">
        <ele>204.8</ele>
        <time>2022-06-23T08:27:57Z</time>
      </trkpt>
      <trkpt lat="46.46918" lon="5.24873">
        <ele>204.6</ele>
        <time>2022-06-23T08:27:59Z</time>
      </trkpt>
      <trkpt lat="46.46884" lon="5.249">
        <ele>204.6</ele>
        <time>2022-06-23T08:28:04Z</time>
      </trkpt>
      <trkpt lat="46.46847" lon="5.2493">
        <ele>205.6</ele>
        <time>2022-06-23T08:28:10Z</time>
      </trkpt>
      <trkpt lat="46.46841" lon="5.24935">
        <ele>206</ele>
        <time>2022-06-23T08:28:11Z</time>
      </trkpt>
      <trkpt lat="46.46813" lon="5.24958">
        <ele>206.6</ele>
        <time>2022-06-23T08:28:16Z</time>
      </trkpt>
      <trkpt lat="46.46804" lon="5.24965">
        <ele>207</ele>
        <time>2022-06-23T08:28:18Z</time>
      </trkpt>
      <trkpt lat="46.46793" lon="5.24972">
        <ele>207.2</ele>
        <time>2022-06-23T08:28:20Z</time>
      </trkpt>
      <trkpt lat="46.4678" lon="5.24982">
        <ele>207.6</ele>
        <time>2022-06-23T08:28:23Z</time>
      </trkpt>
      <trkpt lat="46.46767" lon="5.2499">
        <ele>208</ele>
        <time>2022-06-23T08:28:26Z</time>
      </trkpt>
      <trkpt lat="46.46763" lon="5.24992">
        <ele>208.6</ele>
        <time>2022-06-23T08:28:27Z</time>
      </trkpt>
      <trkpt lat="46.46759" lon="5.24996">
        <ele>209</ele>
        <time>2022-06-23T08:28:28Z</time>
      </trkpt>
      <trkpt lat="46.46747" lon="5.25006">
        <ele>209.6</ele>
        <time>2022-06-23T08:28:31Z</time>
      </trkpt>
      <trkpt lat="46.46743" lon="5.25009">
        <ele>209.8</ele>
        <time>2022-06-23T08:28:32Z</time>
      </trkpt>
      <trkpt lat="46.46729" lon="5.25021">
        <ele>210</ele>
        <time>2022-06-23T08:28:35Z</time>
      </trkpt>
      <trkpt lat="46.46707" lon="5.2504">
        <ele>210</ele>
        <time>2022-06-23T08:28:38Z</time>
      </trkpt>
      <trkpt lat="46.4666" lon="5.25082">
        <ele>210.2</ele>
        <time>2022-06-23T08:28:45Z</time>
      </trkpt>
      <trkpt lat="46.46655" lon="5.25088">
        <ele>210.2</ele>
        <time>2022-06-23T08:28:46Z</time>
      </trkpt>
      <trkpt lat="46.46642" lon="5.25097">
        <ele>210.4</ele>
        <time>2022-06-23T08:28:48Z</time>
      </trkpt>
      <trkpt lat="46.46623" lon="5.25114">
        <ele>210.8</ele>
        <time>2022-06-23T08:28:52Z</time>
      </trkpt>
      <trkpt lat="46.46617" lon="5.25118">
        <ele>211</ele>
        <time>2022-06-23T08:28:53Z</time>
      </trkpt>
      <trkpt lat="46.46612" lon="5.25123">
        <ele>211</ele>
        <time>2022-06-23T08:28:54Z</time>
      </trkpt>
      <trkpt lat="46.46594" lon="5.25138">
        <ele>211.6</ele>
        <time>2022-06-23T08:28:57Z</time>
      </trkpt>
      <trkpt lat="46.46558" lon="5.25166">
        <ele>211.8</ele>
        <time>2022-06-23T08:29:03Z</time>
      </trkpt>
      <trkpt lat="46.46545" lon="5.25176">
        <ele>212</ele>
        <time>2022-06-23T08:29:05Z</time>
      </trkpt>
      <trkpt lat="46.46533" lon="5.25186">
        <ele>212.2</ele>
        <time>2022-06-23T08:29:07Z</time>
      </trkpt>
      <trkpt lat="46.46517" lon="5.25199">
        <ele>212.2</ele>
        <time>2022-06-23T08:29:09Z</time>
      </trkpt>
      <trkpt lat="46.46512" lon="5.25207">
        <ele>212.4</ele>
        <time>2022-06-23T08:29:10Z</time>
      </trkpt>
      <trkpt lat="46.46485" lon="5.25229">
        <ele>212.4</ele>
        <time>2022-06-23T08:29:15Z</time>
      </trkpt>
      <trkpt lat="46.4645" lon="5.25252">
        <ele>213.2</ele>
        <time>2022-06-23T08:29:22Z</time>
      </trkpt>
      <trkpt lat="46.46441" lon="5.25258">
        <ele>213.4</ele>
        <time>2022-06-23T08:29:24Z</time>
      </trkpt>
      <trkpt lat="46.46422" lon="5.25274">
        <ele>213.8</ele>
        <time>2022-06-23T08:29:28Z</time>
      </trkpt>
      <trkpt lat="46.46417" lon="5.25278">
        <ele>214.2</ele>
        <time>2022-06-23T08:29:29Z</time>
      </trkpt>
      <trkpt lat="46.46391" lon="5.25306">
        <ele>215.2</ele>
        <time>2022-06-23T08:29:35Z</time>
      </trkpt>
      <trkpt lat="46.46362" lon="5.2535">
        <ele>216.2</ele>
        <time>2022-06-23T08:29:42Z</time>
      </trkpt>
      <trkpt lat="46.46351" lon="5.25371">
        <ele>216.6</ele>
        <time>2022-06-23T08:29:45Z</time>
      </trkpt>
      <trkpt lat="46.46343" lon="5.25384">
        <ele>217</ele>
        <time>2022-06-23T08:29:47Z</time>
      </trkpt>
      <trkpt lat="46.46323" lon="5.25419">
        <ele>217.2</ele>
        <time>2022-06-23T08:29:52Z</time>
      </trkpt>
      <trkpt lat="46.46312" lon="5.25439">
        <ele>217.6</ele>
        <time>2022-06-23T08:29:55Z</time>
      </trkpt>
      <trkpt lat="46.46292" lon="5.25473">
        <ele>218.4</ele>
        <time>2022-06-23T08:30:00Z</time>
      </trkpt>
      <trkpt lat="46.46276" lon="5.25499">
        <ele>218.8</ele>
        <time>2022-06-23T08:30:04Z</time>
      </trkpt>
      <trkpt lat="46.46254" lon="5.2555">
        <ele>219</ele>
        <time>2022-06-23T08:30:11Z</time>
      </trkpt>
      <trkpt lat="46.4624" lon="5.25599">
        <ele>219.4</ele>
        <time>2022-06-23T08:30:17Z</time>
      </trkpt>
      <trkpt lat="46.46238" lon="5.25607">
        <ele>219.4</ele>
        <time>2022-06-23T08:30:18Z</time>
      </trkpt>
      <trkpt lat="46.46227" lon="5.25674">
        <ele>220</ele>
        <time>2022-06-23T08:30:25Z</time>
      </trkpt>
      <trkpt lat="46.46226" lon="5.25686">
        <ele>220</ele>
        <time>2022-06-23T08:30:26Z</time>
      </trkpt>
      <trkpt lat="46.46229" lon="5.25724">
        <ele>219.8</ele>
        <time>2022-06-23T08:30:29Z</time>
      </trkpt>
      <trkpt lat="46.46244" lon="5.25801">
        <ele>218.2</ele>
        <time>2022-06-23T08:30:35Z</time>
      </trkpt>
      <trkpt lat="46.4625" lon="5.25844">
        <ele>217.8</ele>
        <time>2022-06-23T08:30:39Z</time>
      </trkpt>
      <trkpt lat="46.4625" lon="5.25872">
        <ele>217.8</ele>
        <time>2022-06-23T08:30:42Z</time>
      </trkpt>
      <trkpt lat="46.46249" lon="5.2588">
        <ele>218.4</ele>
        <time>2022-06-23T08:30:43Z</time>
      </trkpt>
      <trkpt lat="46.46247" lon="5.25889">
        <ele>218.4</ele>
        <time>2022-06-23T08:30:44Z</time>
      </trkpt>
      <trkpt lat="46.46239" lon="5.25912">
        <ele>219.2</ele>
        <time>2022-06-23T08:30:47Z</time>
      </trkpt>
      <trkpt lat="46.46234" lon="5.25927">
        <ele>220</ele>
        <time>2022-06-23T08:30:49Z</time>
      </trkpt>
      <trkpt lat="46.46232" lon="5.25934">
        <ele>220.6</ele>
        <time>2022-06-23T08:30:50Z</time>
      </trkpt>
      <trkpt lat="46.46225" lon="5.25955">
        <ele>221.6</ele>
        <time>2022-06-23T08:30:53Z</time>
      </trkpt>
      <trkpt lat="46.46218" lon="5.25977">
        <ele>222.8</ele>
        <time>2022-06-23T08:30:56Z</time>
      </trkpt>
      <trkpt lat="46.46215" lon="5.25991">
        <ele>223.2</ele>
        <time>2022-06-23T08:30:58Z</time>
      </trkpt>
      <trkpt lat="46.46211" lon="5.26007">
        <ele>224</ele>
        <time>2022-06-23T08:31:00Z</time>
      </trkpt>
      <trkpt lat="46.4621" lon="5.26015">
        <ele>224.4</ele>
        <time>2022-06-23T08:31:01Z</time>
      </trkpt>
      <trkpt lat="46.46206" lon="5.2604">
        <ele>225.2</ele>
        <time>2022-06-23T08:31:04Z</time>
      </trkpt>
      <trkpt lat="46.46201" lon="5.26096">
        <ele>226.4</ele>
        <time>2022-06-23T08:31:10Z</time>
      </trkpt>
      <trkpt lat="46.46201" lon="5.26105">
        <ele>226.6</ele>
        <time>2022-06-23T08:31:11Z</time>
      </trkpt>
      <trkpt lat="46.46193" lon="5.26178">
        <ele>226.8</ele>
        <time>2022-06-23T08:31:18Z</time>
      </trkpt>
      <trkpt lat="46.46186" lon="5.26257">
        <ele>226.2</ele>
        <time>2022-06-23T08:31:25Z</time>
      </trkpt>
      <trkpt lat="46.46185" lon="5.2627">
        <ele>226</ele>
        <time>2022-06-23T08:31:26Z</time>
      </trkpt>
      <trkpt lat="46.46182" lon="5.26308">
        <ele>225.2</ele>
        <time>2022-06-23T08:31:29Z</time>
      </trkpt>
      <trkpt lat="46.46179" lon="5.2635">
        <ele>224.4</ele>
        <time>2022-06-23T08:31:32Z</time>
      </trkpt>
      <trkpt lat="46.46178" lon="5.26362">
        <ele>223.2</ele>
        <time>2022-06-23T08:31:33Z</time>
      </trkpt>
      <trkpt lat="46.46172" lon="5.26425">
        <ele>222</ele>
        <time>2022-06-23T08:31:37Z</time>
      </trkpt>
      <trkpt lat="46.46168" lon="5.26457">
        <ele>220.8</ele>
        <time>2022-06-23T08:31:39Z</time>
      </trkpt>
      <trkpt lat="46.46165" lon="5.26489">
        <ele>219.4</ele>
        <time>2022-06-23T08:31:41Z</time>
      </trkpt>
      <trkpt lat="46.46159" lon="5.26553">
        <ele>217.6</ele>
        <time>2022-06-23T08:31:45Z</time>
      </trkpt>
      <trkpt lat="46.46156" lon="5.26586">
        <ele>216.4</ele>
        <time>2022-06-23T08:31:47Z</time>
      </trkpt>
      <trkpt lat="46.46154" lon="5.26619">
        <ele>215.4</ele>
        <time>2022-06-23T08:31:49Z</time>
      </trkpt>
      <trkpt lat="46.46151" lon="5.2667">
        <ele>213.6</ele>
        <time>2022-06-23T08:31:52Z</time>
      </trkpt>
      <trkpt lat="46.4615" lon="5.26688">
        <ele>213.2</ele>
        <time>2022-06-23T08:31:53Z</time>
      </trkpt>
      <trkpt lat="46.4615" lon="5.26705">
        <ele>212.2</ele>
        <time>2022-06-23T08:31:54Z</time>
      </trkpt>
      <trkpt lat="46.46149" lon="5.26739">
        <ele>211</ele>
        <time>2022-06-23T08:31:56Z</time>
      </trkpt>
      <trkpt lat="46.46148" lon="5.26772">
        <ele>210</ele>
        <time>2022-06-23T08:31:58Z</time>
      </trkpt>
      <trkpt lat="46.46148" lon="5.26788">
        <ele>208.8</ele>
        <time>2022-06-23T08:31:59Z</time>
      </trkpt>
      <trkpt lat="46.46146" lon="5.26835">
        <ele>207.4</ele>
        <time>2022-06-23T08:32:02Z</time>
      </trkpt>
      <trkpt lat="46.46145" lon="5.26896">
        <ele>206.4</ele>
        <time>2022-06-23T08:32:06Z</time>
      </trkpt>
      <trkpt lat="46.46144" lon="5.26926">
        <ele>205.6</ele>
        <time>2022-06-23T08:32:08Z</time>
      </trkpt>
      <trkpt lat="46.46144" lon="5.26941">
        <ele>205.4</ele>
        <time>2022-06-23T08:32:09Z</time>
      </trkpt>
      <trkpt lat="46.46142" lon="5.27023">
        <ele>204.2</ele>
        <time>2022-06-23T08:32:15Z</time>
      </trkpt>
      <trkpt lat="46.46139" lon="5.27102">
        <ele>204.2</ele>
        <time>2022-06-23T08:32:21Z</time>
      </trkpt>
      <trkpt lat="46.46137" lon="5.27143">
        <ele>204.2</ele>
        <time>2022-06-23T08:32:24Z</time>
      </trkpt>
      <trkpt lat="46.46134" lon="5.27225">
        <ele>203.6</ele>
        <time>2022-06-23T08:32:30Z</time>
      </trkpt>
      <trkpt lat="46.46133" lon="5.27252">
        <ele>203.4</ele>
        <time>2022-06-23T08:32:32Z</time>
      </trkpt>
      <trkpt lat="46.46132" lon="5.27265">
        <ele>203.2</ele>
        <time>2022-06-23T08:32:33Z</time>
      </trkpt>
      <trkpt lat="46.4613" lon="5.27352">
        <ele>202.4</ele>
        <time>2022-06-23T08:32:40Z</time>
      </trkpt>
      <trkpt lat="46.4613" lon="5.27364">
        <ele>202.4</ele>
        <time>2022-06-23T08:32:41Z</time>
      </trkpt>
      <trkpt lat="46.46128" lon="5.27447">
        <ele>202.4</ele>
        <time>2022-06-23T08:32:48Z</time>
      </trkpt>
      <trkpt lat="46.46127" lon="5.27471">
        <ele>202.2</ele>
        <time>2022-06-23T08:32:50Z</time>
      </trkpt>
      <trkpt lat="46.46125" lon="5.27554">
        <ele>202.2</ele>
        <time>2022-06-23T08:32:57Z</time>
      </trkpt>
      <trkpt lat="46.46123" lon="5.27636">
        <ele>202</ele>
        <time>2022-06-23T08:33:04Z</time>
      </trkpt>
      <trkpt lat="46.4612" lon="5.27724">
        <ele>202.4</ele>
        <time>2022-06-23T08:33:12Z</time>
      </trkpt>
      <trkpt lat="46.46119" lon="5.27782">
        <ele>203.4</ele>
        <time>2022-06-23T08:33:18Z</time>
      </trkpt>
      <trkpt lat="46.46119" lon="5.27791">
        <ele>203.4</ele>
        <time>2022-06-23T08:33:19Z</time>
      </trkpt>
      <trkpt lat="46.46119" lon="5.27825">
        <ele>204.4</ele>
        <time>2022-06-23T08:33:23Z</time>
      </trkpt>
      <trkpt lat="46.4612" lon="5.2785">
        <ele>205</ele>
        <time>2022-06-23T08:33:26Z</time>
      </trkpt>
      <trkpt lat="46.4612" lon="5.27867">
        <ele>205.4</ele>
        <time>2022-06-23T08:33:28Z</time>
      </trkpt>
      <trkpt lat="46.46122" lon="5.27911">
        <ele>206.6</ele>
        <time>2022-06-23T08:33:34Z</time>
      </trkpt>
      <trkpt lat="46.46123" lon="5.27925">
        <ele>207</ele>
        <time>2022-06-23T08:33:36Z</time>
      </trkpt>
      <trkpt lat="46.46126" lon="5.27944">
        <ele>208</ele>
        <time>2022-06-23T08:33:39Z</time>
      </trkpt>
      <trkpt lat="46.46128" lon="5.2795">
        <ele>208</ele>
        <time>2022-06-23T08:33:40Z</time>
      </trkpt>
      <trkpt lat="46.46133" lon="5.2796">
        <ele>209</ele>
        <time>2022-06-23T08:33:42Z</time>
      </trkpt>
      <trkpt lat="46.46136" lon="5.27964">
        <ele>209.4</ele>
        <time>2022-06-23T08:33:43Z</time>
      </trkpt>
      <trkpt lat="46.46143" lon="5.27971">
        <ele>210</ele>
        <time>2022-06-23T08:33:45Z</time>
      </trkpt>
      <trkpt lat="46.46153" lon="5.27979">
        <ele>211.2</ele>
        <time>2022-06-23T08:33:48Z</time>
      </trkpt>
      <trkpt lat="46.46156" lon="5.27982">
        <ele>211.4</ele>
        <time>2022-06-23T08:33:49Z</time>
      </trkpt>
      <trkpt lat="46.4616" lon="5.27985">
        <ele>211.8</ele>
        <time>2022-06-23T08:33:50Z</time>
      </trkpt>
      <trkpt lat="46.46166" lon="5.2799">
        <ele>212.4</ele>
        <time>2022-06-23T08:33:52Z</time>
      </trkpt>
      <trkpt lat="46.46176" lon="5.27998">
        <ele>214</ele>
        <time>2022-06-23T08:33:55Z</time>
      </trkpt>
      <trkpt lat="46.46185" lon="5.28007">
        <ele>215.2</ele>
        <time>2022-06-23T08:33:58Z</time>
      </trkpt>
      <trkpt lat="46.46187" lon="5.28011">
        <ele>215.6</ele>
        <time>2022-06-23T08:33:59Z</time>
      </trkpt>
      <trkpt lat="46.46187" lon="5.28015">
        <ele>216</ele>
        <time>2022-06-23T08:34:00Z</time>
      </trkpt>
      <trkpt lat="46.46189" lon="5.28022">
        <ele>216</ele>
        <time>2022-06-23T08:34:01Z</time>
      </trkpt>
      <trkpt lat="46.46188" lon="5.2803">
        <ele>216.4</ele>
        <time>2022-06-23T08:34:02Z</time>
      </trkpt>
      <trkpt lat="46.46187" lon="5.28048">
        <ele>216.8</ele>
        <time>2022-06-23T08:34:04Z</time>
      </trkpt>
      <trkpt lat="46.46188" lon="5.281">
        <ele>217.2</ele>
        <time>2022-06-23T08:34:10Z</time>
      </trkpt>
      <trkpt lat="46.46181" lon="5.28164">
        <ele>217.2</ele>
        <time>2022-06-23T08:34:18Z</time>
      </trkpt>
      <trkpt lat="46.46176" lon="5.28198">
        <ele>217.4</ele>
        <time>2022-06-23T08:34:22Z</time>
      </trkpt>
      <trkpt lat="46.46171" lon="5.28225">
        <ele>217.4</ele>
        <time>2022-06-23T08:34:25Z</time>
      </trkpt>
      <trkpt lat="46.46167" lon="5.28267">
        <ele>217.4</ele>
        <time>2022-06-23T08:34:29Z</time>
      </trkpt>
      <trkpt lat="46.46168" lon="5.28278">
        <ele>217</ele>
        <time>2022-06-23T08:34:30Z</time>
      </trkpt>
      <trkpt lat="46.46173" lon="5.28327">
        <ele>216.2</ele>
        <time>2022-06-23T08:34:34Z</time>
      </trkpt>
      <trkpt lat="46.46175" lon="5.28342">
        <ele>215.6</ele>
        <time>2022-06-23T08:34:35Z</time>
      </trkpt>
      <trkpt lat="46.46178" lon="5.28366">
        <ele>215</ele>
        <time>2022-06-23T08:34:37Z</time>
      </trkpt>
      <trkpt lat="46.46186" lon="5.28417">
        <ele>213.8</ele>
        <time>2022-06-23T08:34:41Z</time>
      </trkpt>
      <trkpt lat="46.46188" lon="5.28432">
        <ele>213.2</ele>
        <time>2022-06-23T08:34:42Z</time>
      </trkpt>
      <trkpt lat="46.46196" lon="5.28486">
        <ele>213</ele>
        <time>2022-06-23T08:34:47Z</time>
      </trkpt>
      <trkpt lat="46.46203" lon="5.28535">
        <ele>214.2</ele>
        <time>2022-06-23T08:34:53Z</time>
      </trkpt>
      <trkpt lat="46.46206" lon="5.28558">
        <ele>215</ele>
        <time>2022-06-23T08:34:56Z</time>
      </trkpt>
      <trkpt lat="46.46208" lon="5.2857">
        <ele>215.4</ele>
        <time>2022-06-23T08:34:58Z</time>
      </trkpt>
      <trkpt lat="46.46211" lon="5.28593">
        <ele>216.4</ele>
        <time>2022-06-23T08:35:01Z</time>
      </trkpt>
      <trkpt lat="46.46215" lon="5.28613">
        <ele>217</ele>
        <time>2022-06-23T08:35:04Z</time>
      </trkpt>
      <trkpt lat="46.46215" lon="5.28619">
        <ele>217.4</ele>
        <time>2022-06-23T08:35:05Z</time>
      </trkpt>
      <trkpt lat="46.46218" lon="5.28647">
        <ele>218.4</ele>
        <time>2022-06-23T08:35:09Z</time>
      </trkpt>
      <trkpt lat="46.4622" lon="5.28659">
        <ele>219.6</ele>
        <time>2022-06-23T08:35:11Z</time>
      </trkpt>
      <trkpt lat="46.46224" lon="5.28676">
        <ele>220.6</ele>
        <time>2022-06-23T08:35:14Z</time>
      </trkpt>
      <trkpt lat="46.46228" lon="5.28686">
        <ele>221.4</ele>
        <time>2022-06-23T08:35:16Z</time>
      </trkpt>
      <trkpt lat="46.46231" lon="5.28692">
        <ele>221.6</ele>
        <time>2022-06-23T08:35:17Z</time>
      </trkpt>
      <trkpt lat="46.46236" lon="5.28696">
        <ele>221.8</ele>
        <time>2022-06-23T08:35:18Z</time>
      </trkpt>
      <trkpt lat="46.46244" lon="5.28703">
        <ele>222.2</ele>
        <time>2022-06-23T08:35:20Z</time>
      </trkpt>
      <trkpt lat="46.46256" lon="5.28711">
        <ele>223</ele>
        <time>2022-06-23T08:35:23Z</time>
      </trkpt>
      <trkpt lat="46.46274" lon="5.28727">
        <ele>224</ele>
        <time>2022-06-23T08:35:28Z</time>
      </trkpt>
      <trkpt lat="46.46282" lon="5.28733">
        <ele>224.4</ele>
        <time>2022-06-23T08:35:30Z</time>
      </trkpt>
      <trkpt lat="46.46295" lon="5.28741">
        <ele>225</ele>
        <time>2022-06-23T08:35:33Z</time>
      </trkpt>
      <trkpt lat="46.46304" lon="5.28748">
        <ele>225.2</ele>
        <time>2022-06-23T08:35:35Z</time>
      </trkpt>
      <trkpt lat="46.46321" lon="5.28758">
        <ele>226.2</ele>
        <time>2022-06-23T08:35:39Z</time>
      </trkpt>
      <trkpt lat="46.46326" lon="5.28761">
        <ele>226.4</ele>
        <time>2022-06-23T08:35:40Z</time>
      </trkpt>
      <trkpt lat="46.46335" lon="5.28768">
        <ele>226.8</ele>
        <time>2022-06-23T08:35:42Z</time>
      </trkpt>
      <trkpt lat="46.46352" lon="5.28782">
        <ele>227.2</ele>
        <time>2022-06-23T08:35:46Z</time>
      </trkpt>
      <trkpt lat="46.46369" lon="5.28795">
        <ele>227.8</ele>
        <time>2022-06-23T08:35:50Z</time>
      </trkpt>
      <trkpt lat="46.46377" lon="5.28803">
        <ele>228.2</ele>
        <time>2022-06-23T08:35:52Z</time>
      </trkpt>
      <trkpt lat="46.46382" lon="5.28809">
        <ele>228.4</ele>
        <time>2022-06-23T08:35:53Z</time>
      </trkpt>
      <trkpt lat="46.46394" lon="5.28822">
        <ele>228.6</ele>
        <time>2022-06-23T08:35:56Z</time>
      </trkpt>
      <trkpt lat="46.46406" lon="5.28849">
        <ele>229</ele>
        <time>2022-06-23T08:36:00Z</time>
      </trkpt>
      <trkpt lat="46.46415" lon="5.28872">
        <ele>229.6</ele>
        <time>2022-06-23T08:36:03Z</time>
      </trkpt>
      <trkpt lat="46.4642" lon="5.28896">
        <ele>229.8</ele>
        <time>2022-06-23T08:36:06Z</time>
      </trkpt>
      <trkpt lat="46.46436" lon="5.28966">
        <ele>230.4</ele>
        <time>2022-06-23T08:36:15Z</time>
      </trkpt>
      <trkpt lat="46.4644" lon="5.2899">
        <ele>230.6</ele>
        <time>2022-06-23T08:36:18Z</time>
      </trkpt>
      <trkpt lat="46.4645" lon="5.29038">
        <ele>231.4</ele>
        <time>2022-06-23T08:36:24Z</time>
      </trkpt>
      <trkpt lat="46.46454" lon="5.29056">
        <ele>231.6</ele>
        <time>2022-06-23T08:36:26Z</time>
      </trkpt>
      <trkpt lat="46.46463" lon="5.29101">
        <ele>232</ele>
        <time>2022-06-23T08:36:31Z</time>
      </trkpt>
      <trkpt lat="46.46479" lon="5.29175">
        <ele>232.2</ele>
        <time>2022-06-23T08:36:39Z</time>
      </trkpt>
      <trkpt lat="46.46481" lon="5.29185">
        <ele>232.2</ele>
        <time>2022-06-23T08:36:40Z</time>
      </trkpt>
      <trkpt lat="46.46492" lon="5.29239">
        <ele>232.2</ele>
        <time>2022-06-23T08:36:45Z</time>
      </trkpt>
      <trkpt lat="46.46508" lon="5.29309">
        <ele>231.4</ele>
        <time>2022-06-23T08:36:51Z</time>
      </trkpt>
      <trkpt lat="46.46514" lon="5.29341">
        <ele>230.6</ele>
        <time>2022-06-23T08:36:54Z</time>
      </trkpt>
      <trkpt lat="46.46522" lon="5.29376">
        <ele>230.2</ele>
        <time>2022-06-23T08:36:57Z</time>
      </trkpt>
      <trkpt lat="46.46535" lon="5.29437">
        <ele>230</ele>
        <time>2022-06-23T08:37:03Z</time>
      </trkpt>
      <trkpt lat="46.46552" lon="5.29512">
        <ele>229.6</ele>
        <time>2022-06-23T08:37:10Z</time>
      </trkpt>
      <trkpt lat="46.46555" lon="5.29523">
        <ele>229.6</ele>
        <time>2022-06-23T08:37:11Z</time>
      </trkpt>
      <trkpt lat="46.46571" lon="5.29587">
        <ele>229.4</ele>
        <time>2022-06-23T08:37:17Z</time>
      </trkpt>
      <trkpt lat="46.46574" lon="5.29596">
        <ele>229.4</ele>
        <time>2022-06-23T08:37:18Z</time>
      </trkpt>
      <trkpt lat="46.46584" lon="5.29631">
        <ele>230</ele>
        <time>2022-06-23T08:37:22Z</time>
      </trkpt>
      <trkpt lat="46.46593" lon="5.29666">
        <ele>230.6</ele>
        <time>2022-06-23T08:37:26Z</time>
      </trkpt>
      <trkpt lat="46.46601" lon="5.29692">
        <ele>230.8</ele>
        <time>2022-06-23T08:37:29Z</time>
      </trkpt>
      <trkpt lat="46.46621" lon="5.29768">
        <ele>231.6</ele>
        <time>2022-06-23T08:37:37Z</time>
      </trkpt>
      <trkpt lat="46.46622" lon="5.29778">
        <ele>231.6</ele>
        <time>2022-06-23T08:37:38Z</time>
      </trkpt>
      <trkpt lat="46.46629" lon="5.29804">
        <ele>232.2</ele>
        <time>2022-06-23T08:37:41Z</time>
      </trkpt>
      <trkpt lat="46.46632" lon="5.29812">
        <ele>232.4</ele>
        <time>2022-06-23T08:37:42Z</time>
      </trkpt>
      <trkpt lat="46.46635" lon="5.29821">
        <ele>232.6</ele>
        <time>2022-06-23T08:37:43Z</time>
      </trkpt>
      <trkpt lat="46.4664" lon="5.2984">
        <ele>232.8</ele>
        <time>2022-06-23T08:37:45Z</time>
      </trkpt>
      <trkpt lat="46.46659" lon="5.29911">
        <ele>233.6</ele>
        <time>2022-06-23T08:37:52Z</time>
      </trkpt>
      <trkpt lat="46.46669" lon="5.29954">
        <ele>233.8</ele>
        <time>2022-06-23T08:37:56Z</time>
      </trkpt>
      <trkpt lat="46.46673" lon="5.29965">
        <ele>233.8</ele>
        <time>2022-06-23T08:37:57Z</time>
      </trkpt>
      <trkpt lat="46.46679" lon="5.29996">
        <ele>233.6</ele>
        <time>2022-06-23T08:38:00Z</time>
      </trkpt>
      <trkpt lat="46.46682" lon="5.3001">
        <ele>233.4</ele>
        <time>2022-06-23T08:38:01Z</time>
      </trkpt>
      <trkpt lat="46.46687" lon="5.30032">
        <ele>233</ele>
        <time>2022-06-23T08:38:03Z</time>
      </trkpt>
      <trkpt lat="46.46695" lon="5.30059">
        <ele>232.6</ele>
        <time>2022-06-23T08:38:05Z</time>
      </trkpt>
      <trkpt lat="46.46713" lon="5.30128">
        <ele>231.6</ele>
        <time>2022-06-23T08:38:11Z</time>
      </trkpt>
      <trkpt lat="46.46716" lon="5.30139">
        <ele>231.6</ele>
        <time>2022-06-23T08:38:12Z</time>
      </trkpt>
      <trkpt lat="46.46729" lon="5.30189">
        <ele>231.4</ele>
        <time>2022-06-23T08:38:17Z</time>
      </trkpt>
      <trkpt lat="46.46739" lon="5.30216">
        <ele>231.4</ele>
        <time>2022-06-23T08:38:20Z</time>
      </trkpt>
      <trkpt lat="46.46747" lon="5.30229">
        <ele>231.6</ele>
        <time>2022-06-23T08:38:22Z</time>
      </trkpt>
      <trkpt lat="46.46782" lon="5.30271">
        <ele>232</ele>
        <time>2022-06-23T08:38:28Z</time>
      </trkpt>
      <trkpt lat="46.4683" lon="5.30328">
        <ele>232</ele>
        <time>2022-06-23T08:38:36Z</time>
      </trkpt>
      <trkpt lat="46.46835" lon="5.30335">
        <ele>231.8</ele>
        <time>2022-06-23T08:38:37Z</time>
      </trkpt>
      <trkpt lat="46.46877" lon="5.30377">
        <ele>231.8</ele>
        <time>2022-06-23T08:38:44Z</time>
      </trkpt>
      <trkpt lat="46.46913" lon="5.30393">
        <ele>231.6</ele>
        <time>2022-06-23T08:38:49Z</time>
      </trkpt>
      <trkpt lat="46.46943" lon="5.30406">
        <ele>231.4</ele>
        <time>2022-06-23T08:38:53Z</time>
      </trkpt>
      <trkpt lat="46.46966" lon="5.3042">
        <ele>231.2</ele>
        <time>2022-06-23T08:38:56Z</time>
      </trkpt>
      <trkpt lat="46.47017" lon="5.30464">
        <ele>231.2</ele>
        <time>2022-06-23T08:39:04Z</time>
      </trkpt>
      <trkpt lat="46.47068" lon="5.30508">
        <ele>231.4</ele>
        <time>2022-06-23T08:39:12Z</time>
      </trkpt>
      <trkpt lat="46.47074" lon="5.30513">
        <ele>231.6</ele>
        <time>2022-06-23T08:39:13Z</time>
      </trkpt>
      <trkpt lat="46.47113" lon="5.30541">
        <ele>232.2</ele>
        <time>2022-06-23T08:39:19Z</time>
      </trkpt>
      <trkpt lat="46.47164" lon="5.30561">
        <ele>232.4</ele>
        <time>2022-06-23T08:39:26Z</time>
      </trkpt>
      <trkpt lat="46.47172" lon="5.30562">
        <ele>232.4</ele>
        <time>2022-06-23T08:39:27Z</time>
      </trkpt>
      <trkpt lat="46.47204" lon="5.30559">
        <ele>232</ele>
        <time>2022-06-23T08:39:31Z</time>
      </trkpt>
      <trkpt lat="46.47212" lon="5.30559">
        <ele>232</ele>
        <time>2022-06-23T08:39:32Z</time>
      </trkpt>
      <trkpt lat="46.47228" lon="5.30562">
        <ele>231.8</ele>
        <time>2022-06-23T08:39:34Z</time>
      </trkpt>
      <trkpt lat="46.47235" lon="5.30565">
        <ele>231.8</ele>
        <time>2022-06-23T08:39:35Z</time>
      </trkpt>
      <trkpt lat="46.47256" lon="5.3058">
        <ele>231.6</ele>
        <time>2022-06-23T08:39:38Z</time>
      </trkpt>
      <trkpt lat="46.47269" lon="5.30594">
        <ele>231.6</ele>
        <time>2022-06-23T08:39:40Z</time>
      </trkpt>
      <trkpt lat="46.47301" lon="5.30635">
        <ele>231.6</ele>
        <time>2022-06-23T08:39:46Z</time>
      </trkpt>
      <trkpt lat="46.47307" lon="5.30645">
        <ele>231.6</ele>
        <time>2022-06-23T08:39:47Z</time>
      </trkpt>
      <trkpt lat="46.47314" lon="5.30664">
        <ele>231.6</ele>
        <time>2022-06-23T08:39:49Z</time>
      </trkpt>
      <trkpt lat="46.47315" lon="5.30709">
        <ele>231.6</ele>
        <time>2022-06-23T08:39:53Z</time>
      </trkpt>
      <trkpt lat="46.47321" lon="5.30795">
        <ele>231</ele>
        <time>2022-06-23T08:40:00Z</time>
      </trkpt>
      <trkpt lat="46.47329" lon="5.30863">
        <ele>230.6</ele>
        <time>2022-06-23T08:40:06Z</time>
      </trkpt>
      <trkpt lat="46.47332" lon="5.30881">
        <ele>230.6</ele>
        <time>2022-06-23T08:40:08Z</time>
      </trkpt>
      <trkpt lat="46.47342" lon="5.30895">
        <ele>230.6</ele>
        <time>2022-06-23T08:40:10Z</time>
      </trkpt>
      <trkpt lat="46.47356" lon="5.30896">
        <ele>230.6</ele>
        <time>2022-06-23T08:40:12Z</time>
      </trkpt>
      <trkpt lat="46.47364" lon="5.30894">
        <ele>230.8</ele>
        <time>2022-06-23T08:40:13Z</time>
      </trkpt>
      <trkpt lat="46.47418" lon="5.30872">
        <ele>231.2</ele>
        <time>2022-06-23T08:40:20Z</time>
      </trkpt>
      <trkpt lat="46.4747" lon="5.30844">
        <ele>231.2</ele>
        <time>2022-06-23T08:40:27Z</time>
      </trkpt>
      <trkpt lat="46.47484" lon="5.30836">
        <ele>231.2</ele>
        <time>2022-06-23T08:40:29Z</time>
      </trkpt>
      <trkpt lat="46.47533" lon="5.30813">
        <ele>231.4</ele>
        <time>2022-06-23T08:40:36Z</time>
      </trkpt>
      <trkpt lat="46.47554" lon="5.30808">
        <ele>231.6</ele>
        <time>2022-06-23T08:40:39Z</time>
      </trkpt>
      <trkpt lat="46.47575" lon="5.30806">
        <ele>232</ele>
        <time>2022-06-23T08:40:42Z</time>
      </trkpt>
      <trkpt lat="46.47635" lon="5.30797">
        <ele>232.2</ele>
        <time>2022-06-23T08:40:50Z</time>
      </trkpt>
      <trkpt lat="46.4765" lon="5.30795">
        <ele>232.4</ele>
        <time>2022-06-23T08:40:52Z</time>
      </trkpt>
      <trkpt lat="46.47709" lon="5.30786">
        <ele>232</ele>
        <time>2022-06-23T08:41:00Z</time>
      </trkpt>
      <trkpt lat="46.4774" lon="5.30781">
        <ele>231.6</ele>
        <time>2022-06-23T08:41:04Z</time>
      </trkpt>
      <trkpt lat="46.47796" lon="5.30772">
        <ele>231.2</ele>
        <time>2022-06-23T08:41:11Z</time>
      </trkpt>
      <trkpt lat="46.47804" lon="5.30772">
        <ele>231</ele>
        <time>2022-06-23T08:41:12Z</time>
      </trkpt>
      <trkpt lat="46.47826" lon="5.30774">
        <ele>231</ele>
        <time>2022-06-23T08:41:15Z</time>
      </trkpt>
      <trkpt lat="46.47833" lon="5.30777">
        <ele>231</ele>
        <time>2022-06-23T08:41:16Z</time>
      </trkpt>
      <trkpt lat="46.47838" lon="5.30781">
        <ele>231.2</ele>
        <time>2022-06-23T08:41:17Z</time>
      </trkpt>
      <trkpt lat="46.47842" lon="5.30788">
        <ele>231.2</ele>
        <time>2022-06-23T08:41:18Z</time>
      </trkpt>
      <trkpt lat="46.47847" lon="5.308">
        <ele>231.4</ele>
        <time>2022-06-23T08:41:20Z</time>
      </trkpt>
      <trkpt lat="46.47851" lon="5.30802">
        <ele>231.8</ele>
        <time>2022-06-23T08:41:21Z</time>
      </trkpt>
      <trkpt lat="46.47857" lon="5.30803">
        <ele>232</ele>
        <time>2022-06-23T08:41:22Z</time>
      </trkpt>
      <trkpt lat="46.47863" lon="5.30804">
        <ele>232.6</ele>
        <time>2022-06-23T08:41:23Z</time>
      </trkpt>
      <trkpt lat="46.47871" lon="5.30804">
        <ele>232.8</ele>
        <time>2022-06-23T08:41:24Z</time>
      </trkpt>
      <trkpt lat="46.47887" lon="5.30807">
        <ele>233.2</ele>
        <time>2022-06-23T08:41:26Z</time>
      </trkpt>
      <trkpt lat="46.47904" lon="5.30812">
        <ele>233.2</ele>
        <time>2022-06-23T08:41:28Z</time>
      </trkpt>
      <trkpt lat="46.47942" lon="5.30821">
        <ele>232.2</ele>
        <time>2022-06-23T08:41:32Z</time>
      </trkpt>
      <trkpt lat="46.47953" lon="5.30821">
        <ele>231.8</ele>
        <time>2022-06-23T08:41:33Z</time>
      </trkpt>
      <trkpt lat="46.47964" lon="5.30819">
        <ele>231.6</ele>
        <time>2022-06-23T08:41:34Z</time>
      </trkpt>
      <trkpt lat="46.47974" lon="5.30816">
        <ele>231</ele>
        <time>2022-06-23T08:41:35Z</time>
      </trkpt>
      <trkpt lat="46.47992" lon="5.30806">
        <ele>230</ele>
        <time>2022-06-23T08:41:37Z</time>
      </trkpt>
      <trkpt lat="46.48041" lon="5.30779">
        <ele>229.4</ele>
        <time>2022-06-23T08:41:43Z</time>
      </trkpt>
      <trkpt lat="46.4809" lon="5.30752">
        <ele>230</ele>
        <time>2022-06-23T08:41:50Z</time>
      </trkpt>
      <trkpt lat="46.48148" lon="5.3072">
        <ele>230.2</ele>
        <time>2022-06-23T08:41:58Z</time>
      </trkpt>
      <trkpt lat="46.48163" lon="5.30712">
        <ele>230</ele>
        <time>2022-06-23T08:42:00Z</time>
      </trkpt>
      <trkpt lat="46.4821" lon="5.30688">
        <ele>229.6</ele>
        <time>2022-06-23T08:42:06Z</time>
      </trkpt>
      <trkpt lat="46.48218" lon="5.30686">
        <ele>229.2</ele>
        <time>2022-06-23T08:42:07Z</time>
      </trkpt>
      <trkpt lat="46.48227" lon="5.30686">
        <ele>229.2</ele>
        <time>2022-06-23T08:42:08Z</time>
      </trkpt>
      <trkpt lat="46.48244" lon="5.30688">
        <ele>228.8</ele>
        <time>2022-06-23T08:42:10Z</time>
      </trkpt>
      <trkpt lat="46.48253" lon="5.3069">
        <ele>228.8</ele>
        <time>2022-06-23T08:42:11Z</time>
      </trkpt>
      <trkpt lat="46.48297" lon="5.307">
        <ele>227.8</ele>
        <time>2022-06-23T08:42:16Z</time>
      </trkpt>
      <trkpt lat="46.48323" lon="5.30695">
        <ele>227.2</ele>
        <time>2022-06-23T08:42:19Z</time>
      </trkpt>
      <trkpt lat="46.48331" lon="5.30691">
        <ele>227.2</ele>
        <time>2022-06-23T08:42:20Z</time>
      </trkpt>
      <trkpt lat="46.48351" lon="5.30676">
        <ele>226.8</ele>
        <time>2022-06-23T08:42:23Z</time>
      </trkpt>
      <trkpt lat="46.48366" lon="5.30662">
        <ele>226.6</ele>
        <time>2022-06-23T08:42:25Z</time>
      </trkpt>
      <trkpt lat="46.48412" lon="5.30619">
        <ele>227</ele>
        <time>2022-06-23T08:42:32Z</time>
      </trkpt>
      <trkpt lat="46.48418" lon="5.30613">
        <ele>227.2</ele>
        <time>2022-06-23T08:42:33Z</time>
      </trkpt>
      <trkpt lat="46.48469" lon="5.30566">
        <ele>227.4</ele>
        <time>2022-06-23T08:42:41Z</time>
      </trkpt>
      <trkpt lat="46.48493" lon="5.30543">
        <ele>228</ele>
        <time>2022-06-23T08:42:45Z</time>
      </trkpt>
      <trkpt lat="46.48516" lon="5.3052">
        <ele>228.2</ele>
        <time>2022-06-23T08:42:49Z</time>
      </trkpt>
      <trkpt lat="46.48546" lon="5.30496">
        <ele>228.2</ele>
        <time>2022-06-23T08:42:54Z</time>
      </trkpt>
      <trkpt lat="46.48552" lon="5.30495">
        <ele>228.2</ele>
        <time>2022-06-23T08:42:55Z</time>
      </trkpt>
      <trkpt lat="46.48557" lon="5.30498">
        <ele>228.2</ele>
        <time>2022-06-23T08:42:56Z</time>
      </trkpt>
      <trkpt lat="46.4856" lon="5.30505">
        <ele>228.2</ele>
        <time>2022-06-23T08:42:57Z</time>
      </trkpt>
      <trkpt lat="46.48562" lon="5.30523">
        <ele>228.2</ele>
        <time>2022-06-23T08:42:59Z</time>
      </trkpt>
      <trkpt lat="46.48561" lon="5.30533">
        <ele>228.2</ele>
        <time>2022-06-23T08:43:00Z</time>
      </trkpt>
      <trkpt lat="46.48551" lon="5.30593">
        <ele>227.8</ele>
        <time>2022-06-23T08:43:06Z</time>
      </trkpt>
      <trkpt lat="46.48544" lon="5.30656">
        <ele>227</ele>
        <time>2022-06-23T08:43:11Z</time>
      </trkpt>
      <trkpt lat="46.48545" lon="5.30684">
        <ele>226.2</ele>
        <time>2022-06-23T08:43:13Z</time>
      </trkpt>
      <trkpt lat="46.48547" lon="5.30697">
        <ele>226</ele>
        <time>2022-06-23T08:43:14Z</time>
      </trkpt>
      <trkpt lat="46.48549" lon="5.30711">
        <ele>225.4</ele>
        <time>2022-06-23T08:43:15Z</time>
      </trkpt>
      <trkpt lat="46.48553" lon="5.30721">
        <ele>225</ele>
        <time>2022-06-23T08:43:16Z</time>
      </trkpt>
      <trkpt lat="46.4856" lon="5.30734">
        <ele>224.6</ele>
        <time>2022-06-23T08:43:17Z</time>
      </trkpt>
      <trkpt lat="46.48574" lon="5.30752">
        <ele>224</ele>
        <time>2022-06-23T08:43:19Z</time>
      </trkpt>
      <trkpt lat="46.4858" lon="5.30759">
        <ele>223.8</ele>
        <time>2022-06-23T08:43:20Z</time>
      </trkpt>
      <trkpt lat="46.4859" lon="5.30768">
        <ele>223.8</ele>
        <time>2022-06-23T08:43:21Z</time>
      </trkpt>
      <trkpt lat="46.48607" lon="5.30783">
        <ele>223</ele>
        <time>2022-06-23T08:43:23Z</time>
      </trkpt>
      <trkpt lat="46.48634" lon="5.30803">
        <ele>221.6</ele>
        <time>2022-06-23T08:43:26Z</time>
      </trkpt>
      <trkpt lat="46.48687" lon="5.30837">
        <ele>220.8</ele>
        <time>2022-06-23T08:43:33Z</time>
      </trkpt>
      <trkpt lat="46.48713" lon="5.30857">
        <ele>220.8</ele>
        <time>2022-06-23T08:43:37Z</time>
      </trkpt>
      <trkpt lat="46.48718" lon="5.30864">
        <ele>220.8</ele>
        <time>2022-06-23T08:43:38Z</time>
      </trkpt>
      <trkpt lat="46.48721" lon="5.30873">
        <ele>221</ele>
        <time>2022-06-23T08:43:39Z</time>
      </trkpt>
      <trkpt lat="46.48724" lon="5.30893">
        <ele>221.6</ele>
        <time>2022-06-23T08:43:41Z</time>
      </trkpt>
      <trkpt lat="46.48723" lon="5.30903">
        <ele>221.6</ele>
        <time>2022-06-23T08:43:42Z</time>
      </trkpt>
      <trkpt lat="46.48718" lon="5.30914">
        <ele>221.8</ele>
        <time>2022-06-23T08:43:43Z</time>
      </trkpt>
      <trkpt lat="46.48698" lon="5.3094">
        <ele>222</ele>
        <time>2022-06-23T08:43:47Z</time>
      </trkpt>
      <trkpt lat="46.48683" lon="5.30969">
        <ele>222.8</ele>
        <time>2022-06-23T08:43:51Z</time>
      </trkpt>
      <trkpt lat="46.48675" lon="5.30987">
        <ele>223.6</ele>
        <time>2022-06-23T08:43:53Z</time>
      </trkpt>
      <trkpt lat="46.48672" lon="5.30993">
        <ele>224</ele>
        <time>2022-06-23T08:43:54Z</time>
      </trkpt>
      <trkpt lat="46.48645" lon="5.31046">
        <ele>224.6</ele>
        <time>2022-06-23T08:44:00Z</time>
      </trkpt>
      <trkpt lat="46.4861" lon="5.31119">
        <ele>224.4</ele>
        <time>2022-06-23T08:44:07Z</time>
      </trkpt>
      <trkpt lat="46.48606" lon="5.31127">
        <ele>224.2</ele>
        <time>2022-06-23T08:44:08Z</time>
      </trkpt>
      <trkpt lat="46.48581" lon="5.31177">
        <ele>222.6</ele>
        <time>2022-06-23T08:44:13Z</time>
      </trkpt>
      <trkpt lat="46.48572" lon="5.31198">
        <ele>222</ele>
        <time>2022-06-23T08:44:15Z</time>
      </trkpt>
      <trkpt lat="46.48562" lon="5.31218">
        <ele>221.6</ele>
        <time>2022-06-23T08:44:17Z</time>
      </trkpt>
      <trkpt lat="46.48557" lon="5.31232">
        <ele>221.4</ele>
        <time>2022-06-23T08:44:18Z</time>
      </trkpt>
      <trkpt lat="46.48552" lon="5.31256">
        <ele>220.8</ele>
        <time>2022-06-23T08:44:20Z</time>
      </trkpt>
      <trkpt lat="46.48553" lon="5.31279">
        <ele>220.4</ele>
        <time>2022-06-23T08:44:22Z</time>
      </trkpt>
      <trkpt lat="46.48555" lon="5.31305">
        <ele>219.8</ele>
        <time>2022-06-23T08:44:24Z</time>
      </trkpt>
      <trkpt lat="46.48557" lon="5.31327">
        <ele>219.4</ele>
        <time>2022-06-23T08:44:26Z</time>
      </trkpt>
      <trkpt lat="46.48559" lon="5.31342">
        <ele>219.4</ele>
        <time>2022-06-23T08:44:27Z</time>
      </trkpt>
      <trkpt lat="46.4856" lon="5.31351">
        <ele>219.2</ele>
        <time>2022-06-23T08:44:28Z</time>
      </trkpt>
      <trkpt lat="46.48569" lon="5.31374">
        <ele>219</ele>
        <time>2022-06-23T08:44:30Z</time>
      </trkpt>
      <trkpt lat="46.48575" lon="5.31384">
        <ele>218.6</ele>
        <time>2022-06-23T08:44:31Z</time>
      </trkpt>
      <trkpt lat="46.48583" lon="5.31395">
        <ele>218.6</ele>
        <time>2022-06-23T08:44:32Z</time>
      </trkpt>
      <trkpt lat="46.48591" lon="5.31403">
        <ele>218.4</ele>
        <time>2022-06-23T08:44:33Z</time>
      </trkpt>
      <trkpt lat="46.48597" lon="5.31411">
        <ele>217.6</ele>
        <time>2022-06-23T08:44:34Z</time>
      </trkpt>
      <trkpt lat="46.48603" lon="5.31423">
        <ele>217.4</ele>
        <time>2022-06-23T08:44:35Z</time>
      </trkpt>
      <trkpt lat="46.48607" lon="5.31436">
        <ele>216.8</ele>
        <time>2022-06-23T08:44:36Z</time>
      </trkpt>
      <trkpt lat="46.48608" lon="5.31451">
        <ele>216.6</ele>
        <time>2022-06-23T08:44:37Z</time>
      </trkpt>
      <trkpt lat="46.48609" lon="5.31479">
        <ele>215.4</ele>
        <time>2022-06-23T08:44:39Z</time>
      </trkpt>
      <trkpt lat="46.48612" lon="5.31507">
        <ele>214.4</ele>
        <time>2022-06-23T08:44:41Z</time>
      </trkpt>
      <trkpt lat="46.48619" lon="5.31525">
        <ele>213.8</ele>
        <time>2022-06-23T08:44:43Z</time>
      </trkpt>
      <trkpt lat="46.48623" lon="5.31532">
        <ele>213.6</ele>
        <time>2022-06-23T08:44:44Z</time>
      </trkpt>
      <trkpt lat="46.48636" lon="5.31555">
        <ele>213.4</ele>
        <time>2022-06-23T08:44:47Z</time>
      </trkpt>
      <trkpt lat="46.48645" lon="5.31569">
        <ele>213.4</ele>
        <time>2022-06-23T08:44:49Z</time>
      </trkpt>
      <trkpt lat="46.48667" lon="5.31601">
        <ele>213.6</ele>
        <time>2022-06-23T08:44:53Z</time>
      </trkpt>
      <trkpt lat="46.48696" lon="5.3164">
        <ele>213.6</ele>
        <time>2022-06-23T08:44:58Z</time>
      </trkpt>
      <trkpt lat="46.48702" lon="5.31649">
        <ele>213.6</ele>
        <time>2022-06-23T08:44:59Z</time>
      </trkpt>
      <trkpt lat="46.48707" lon="5.31656">
        <ele>213.6</ele>
        <time>2022-06-23T08:45:00Z</time>
      </trkpt>
      <trkpt lat="46.48727" lon="5.31679">
        <ele>213.4</ele>
        <time>2022-06-23T08:45:03Z</time>
      </trkpt>
      <trkpt lat="46.4876" lon="5.31713">
        <ele>213.2</ele>
        <time>2022-06-23T08:45:07Z</time>
      </trkpt>
      <trkpt lat="46.48768" lon="5.31734">
        <ele>213</ele>
        <time>2022-06-23T08:45:09Z</time>
      </trkpt>
      <trkpt lat="46.48772" lon="5.31763">
        <ele>213</ele>
        <time>2022-06-23T08:45:11Z</time>
      </trkpt>
      <trkpt lat="46.48772" lon="5.31776">
        <ele>213</ele>
        <time>2022-06-23T08:45:12Z</time>
      </trkpt>
      <trkpt lat="46.48773" lon="5.31787">
        <ele>212.8</ele>
        <time>2022-06-23T08:45:13Z</time>
      </trkpt>
      <trkpt lat="46.48776" lon="5.31813">
        <ele>212.6</ele>
        <time>2022-06-23T08:45:15Z</time>
      </trkpt>
      <trkpt lat="46.48784" lon="5.31838">
        <ele>212.4</ele>
        <time>2022-06-23T08:45:17Z</time>
      </trkpt>
      <trkpt lat="46.48798" lon="5.31849">
        <ele>212.2</ele>
        <time>2022-06-23T08:45:19Z</time>
      </trkpt>
      <trkpt lat="46.48817" lon="5.31858">
        <ele>211.8</ele>
        <time>2022-06-23T08:45:21Z</time>
      </trkpt>
      <trkpt lat="46.48826" lon="5.31862">
        <ele>211.8</ele>
        <time>2022-06-23T08:45:22Z</time>
      </trkpt>
      <trkpt lat="46.48831" lon="5.31869">
        <ele>211.6</ele>
        <time>2022-06-23T08:45:23Z</time>
      </trkpt>
      <trkpt lat="46.48838" lon="5.3189">
        <ele>211.6</ele>
        <time>2022-06-23T08:45:25Z</time>
      </trkpt>
      <trkpt lat="46.48844" lon="5.31938">
        <ele>211.6</ele>
        <time>2022-06-23T08:45:29Z</time>
      </trkpt>
      <trkpt lat="46.48845" lon="5.3201">
        <ele>212.4</ele>
        <time>2022-06-23T08:45:36Z</time>
      </trkpt>
      <trkpt lat="46.48837" lon="5.3206">
        <ele>213.2</ele>
        <time>2022-06-23T08:45:41Z</time>
      </trkpt>
      <trkpt lat="46.48833" lon="5.32082">
        <ele>213.6</ele>
        <time>2022-06-23T08:45:43Z</time>
      </trkpt>
      <trkpt lat="46.48824" lon="5.3213">
        <ele>213.8</ele>
        <time>2022-06-23T08:45:48Z</time>
      </trkpt>
      <trkpt lat="46.48823" lon="5.32147">
        <ele>214</ele>
        <time>2022-06-23T08:45:50Z</time>
      </trkpt>
      <trkpt lat="46.48824" lon="5.32174">
        <ele>214.4</ele>
        <time>2022-06-23T08:45:53Z</time>
      </trkpt>
      <trkpt lat="46.48826" lon="5.32194">
        <ele>214.6</ele>
        <time>2022-06-23T08:45:55Z</time>
      </trkpt>
      <trkpt lat="46.48831" lon="5.32227">
        <ele>215.4</ele>
        <time>2022-06-23T08:45:59Z</time>
      </trkpt>
      <trkpt lat="46.48834" lon="5.32234">
        <ele>215.8</ele>
        <time>2022-06-23T08:46:00Z</time>
      </trkpt>
      <trkpt lat="46.48837" lon="5.32243">
        <ele>215.8</ele>
        <time>2022-06-23T08:46:01Z</time>
      </trkpt>
      <trkpt lat="46.4885" lon="5.32264">
        <ele>216.6</ele>
        <time>2022-06-23T08:46:04Z</time>
      </trkpt>
      <trkpt lat="46.48855" lon="5.32271">
        <ele>216.8</ele>
        <time>2022-06-23T08:46:05Z</time>
      </trkpt>
      <trkpt lat="46.48885" lon="5.32317">
        <ele>216.8</ele>
        <time>2022-06-23T08:46:10Z</time>
      </trkpt>
      <trkpt lat="46.48909" lon="5.32363">
        <ele>215.6</ele>
        <time>2022-06-23T08:46:14Z</time>
      </trkpt>
      <trkpt lat="46.48916" lon="5.32387">
        <ele>213.8</ele>
        <time>2022-06-23T08:46:16Z</time>
      </trkpt>
      <trkpt lat="46.48924" lon="5.32414">
        <ele>212.8</ele>
        <time>2022-06-23T08:46:18Z</time>
      </trkpt>
      <trkpt lat="46.48935" lon="5.3245">
        <ele>211.6</ele>
        <time>2022-06-23T08:46:21Z</time>
      </trkpt>
      <trkpt lat="46.48945" lon="5.32481">
        <ele>211.2</ele>
        <time>2022-06-23T08:46:24Z</time>
      </trkpt>
      <trkpt lat="46.48953" lon="5.32505">
        <ele>211</ele>
        <time>2022-06-23T08:46:26Z</time>
      </trkpt>
      <trkpt lat="46.48958" lon="5.32526">
        <ele>210.8</ele>
        <time>2022-06-23T08:46:28Z</time>
      </trkpt>
      <trkpt lat="46.48958" lon="5.32552">
        <ele>210.6</ele>
        <time>2022-06-23T08:46:30Z</time>
      </trkpt>
      <trkpt lat="46.48955" lon="5.3256">
        <ele>210.6</ele>
        <time>2022-06-23T08:46:31Z</time>
      </trkpt>
      <trkpt lat="46.4895" lon="5.32571">
        <ele>210.8</ele>
        <time>2022-06-23T08:46:32Z</time>
      </trkpt>
      <trkpt lat="46.4894" lon="5.32585">
        <ele>210.6</ele>
        <time>2022-06-23T08:46:34Z</time>
      </trkpt>
      <trkpt lat="46.48923" lon="5.3261">
        <ele>210.6</ele>
        <time>2022-06-23T08:46:37Z</time>
      </trkpt>
      <trkpt lat="46.4892" lon="5.32617">
        <ele>210.8</ele>
        <time>2022-06-23T08:46:38Z</time>
      </trkpt>
      <trkpt lat="46.48919" lon="5.32625">
        <ele>211</ele>
        <time>2022-06-23T08:46:39Z</time>
      </trkpt>
      <trkpt lat="46.48919" lon="5.32642">
        <ele>211.4</ele>
        <time>2022-06-23T08:46:41Z</time>
      </trkpt>
      <trkpt lat="46.48922" lon="5.32655">
        <ele>211.8</ele>
        <time>2022-06-23T08:46:43Z</time>
      </trkpt>
      <trkpt lat="46.48925" lon="5.32661">
        <ele>212.2</ele>
        <time>2022-06-23T08:46:44Z</time>
      </trkpt>
      <trkpt lat="46.48928" lon="5.32666">
        <ele>212.4</ele>
        <time>2022-06-23T08:46:45Z</time>
      </trkpt>
      <trkpt lat="46.48934" lon="5.32676">
        <ele>213.4</ele>
        <time>2022-06-23T08:46:47Z</time>
      </trkpt>
      <trkpt lat="46.48937" lon="5.3268">
        <ele>213.8</ele>
        <time>2022-06-23T08:46:48Z</time>
      </trkpt>
      <trkpt lat="46.48946" lon="5.32692">
        <ele>214.8</ele>
        <time>2022-06-23T08:46:51Z</time>
      </trkpt>
      <trkpt lat="46.4895" lon="5.32696">
        <ele>215</ele>
        <time>2022-06-23T08:46:52Z</time>
      </trkpt>
      <trkpt lat="46.48956" lon="5.32702">
        <ele>216</ele>
        <time>2022-06-23T08:46:54Z</time>
      </trkpt>
      <trkpt lat="46.4896" lon="5.32704">
        <ele>216</ele>
        <time>2022-06-23T08:46:55Z</time>
      </trkpt>
      <trkpt lat="46.48969" lon="5.32707">
        <ele>216.6</ele>
        <time>2022-06-23T08:46:57Z</time>
      </trkpt>
      <trkpt lat="46.48974" lon="5.32708">
        <ele>217</ele>
        <time>2022-06-23T08:46:58Z</time>
      </trkpt>
      <trkpt lat="46.4899" lon="5.32709">
        <ele>218.2</ele>
        <time>2022-06-23T08:47:01Z</time>
      </trkpt>
      <trkpt lat="46.49013" lon="5.32708">
        <ele>219</ele>
        <time>2022-06-23T08:47:05Z</time>
      </trkpt>
      <trkpt lat="46.49018" lon="5.32707">
        <ele>219.2</ele>
        <time>2022-06-23T08:47:06Z</time>
      </trkpt>
      <trkpt lat="46.49034" lon="5.32705">
        <ele>220.6</ele>
        <time>2022-06-23T08:47:09Z</time>
      </trkpt>
      <trkpt lat="46.4906" lon="5.327">
        <ele>221.8</ele>
        <time>2022-06-23T08:47:14Z</time>
      </trkpt>
      <trkpt lat="46.49065" lon="5.32699">
        <ele>221.6</ele>
        <time>2022-06-23T08:47:15Z</time>
      </trkpt>
      <trkpt lat="46.49075" lon="5.32698">
        <ele>222.8</ele>
        <time>2022-06-23T08:47:17Z</time>
      </trkpt>
      <trkpt lat="46.49096" lon="5.32695">
        <ele>223.6</ele>
        <time>2022-06-23T08:47:21Z</time>
      </trkpt>
      <trkpt lat="46.49101" lon="5.32695">
        <ele>223.8</ele>
        <time>2022-06-23T08:47:22Z</time>
      </trkpt>
      <trkpt lat="46.49106" lon="5.32696">
        <ele>224</ele>
        <time>2022-06-23T08:47:23Z</time>
      </trkpt>
      <trkpt lat="46.49111" lon="5.32699">
        <ele>224.4</ele>
        <time>2022-06-23T08:47:24Z</time>
      </trkpt>
      <trkpt lat="46.49116" lon="5.32703">
        <ele>224.6</ele>
        <time>2022-06-23T08:47:25Z</time>
      </trkpt>
      <trkpt lat="46.4912" lon="5.32707">
        <ele>225</ele>
        <time>2022-06-23T08:47:26Z</time>
      </trkpt>
      <trkpt lat="46.49124" lon="5.32715">
        <ele>225.2</ele>
        <time>2022-06-23T08:47:27Z</time>
      </trkpt>
      <trkpt lat="46.4913" lon="5.32729">
        <ele>225.6</ele>
        <time>2022-06-23T08:47:29Z</time>
      </trkpt>
      <trkpt lat="46.49135" lon="5.32751">
        <ele>226.2</ele>
        <time>2022-06-23T08:47:32Z</time>
      </trkpt>
      <trkpt lat="46.4914" lon="5.32781">
        <ele>226.6</ele>
        <time>2022-06-23T08:47:36Z</time>
      </trkpt>
      <trkpt lat="46.49143" lon="5.32814">
        <ele>227.2</ele>
        <time>2022-06-23T08:47:40Z</time>
      </trkpt>
      <trkpt lat="46.49143" lon="5.32824">
        <ele>227.2</ele>
        <time>2022-06-23T08:47:41Z</time>
      </trkpt>
      <trkpt lat="46.4914" lon="5.32843">
        <ele>227.2</ele>
        <time>2022-06-23T08:47:43Z</time>
      </trkpt>
      <trkpt lat="46.49134" lon="5.32861">
        <ele>227</ele>
        <time>2022-06-23T08:47:45Z</time>
      </trkpt>
      <trkpt lat="46.49125" lon="5.32914">
        <ele>226.4</ele>
        <time>2022-06-23T08:47:51Z</time>
      </trkpt>
      <trkpt lat="46.49126" lon="5.32983">
        <ele>226.6</ele>
        <time>2022-06-23T08:47:58Z</time>
      </trkpt>
      <trkpt lat="46.49132" lon="5.33026">
        <ele>227.4</ele>
        <time>2022-06-23T08:48:03Z</time>
      </trkpt>
      <trkpt lat="46.49135" lon="5.33042">
        <ele>227.4</ele>
        <time>2022-06-23T08:48:05Z</time>
      </trkpt>
      <trkpt lat="46.49138" lon="5.33058">
        <ele>227.8</ele>
        <time>2022-06-23T08:48:07Z</time>
      </trkpt>
      <trkpt lat="46.49141" lon="5.33074">
        <ele>228.2</ele>
        <time>2022-06-23T08:48:09Z</time>
      </trkpt>
      <trkpt lat="46.49144" lon="5.33083">
        <ele>228.4</ele>
        <time>2022-06-23T08:48:10Z</time>
      </trkpt>
      <trkpt lat="46.49153" lon="5.33108">
        <ele>228.4</ele>
        <time>2022-06-23T08:48:13Z</time>
      </trkpt>
      <trkpt lat="46.49164" lon="5.33125">
        <ele>228.4</ele>
        <time>2022-06-23T08:48:15Z</time>
      </trkpt>
      <trkpt lat="46.49199" lon="5.33159">
        <ele>228.4</ele>
        <time>2022-06-23T08:48:21Z</time>
      </trkpt>
      <trkpt lat="46.49247" lon="5.332">
        <ele>228.6</ele>
        <time>2022-06-23T08:48:29Z</time>
      </trkpt>
      <trkpt lat="46.49255" lon="5.33214">
        <ele>228.8</ele>
        <time>2022-06-23T08:48:31Z</time>
      </trkpt>
      <trkpt lat="46.49262" lon="5.33231">
        <ele>229</ele>
        <time>2022-06-23T08:48:33Z</time>
      </trkpt>
      <trkpt lat="46.4927" lon="5.33259">
        <ele>229.4</ele>
        <time>2022-06-23T08:48:36Z</time>
      </trkpt>
      <trkpt lat="46.49276" lon="5.33287">
        <ele>229.6</ele>
        <time>2022-06-23T08:48:39Z</time>
      </trkpt>
      <trkpt lat="46.4928" lon="5.33316">
        <ele>230</ele>
        <time>2022-06-23T08:48:42Z</time>
      </trkpt>
      <trkpt lat="46.49286" lon="5.33344">
        <ele>230.4</ele>
        <time>2022-06-23T08:48:45Z</time>
      </trkpt>
      <trkpt lat="46.49289" lon="5.33363">
        <ele>230.6</ele>
        <time>2022-06-23T08:48:47Z</time>
      </trkpt>
      <trkpt lat="46.49303" lon="5.33427">
        <ele>231.4</ele>
        <time>2022-06-23T08:48:54Z</time>
      </trkpt>
      <trkpt lat="46.49304" lon="5.33436">
        <ele>231.6</ele>
        <time>2022-06-23T08:48:55Z</time>
      </trkpt>
      <trkpt lat="46.49315" lon="5.33511">
        <ele>232.4</ele>
        <time>2022-06-23T08:49:03Z</time>
      </trkpt>
      <trkpt lat="46.49317" lon="5.33545">
        <ele>232.6</ele>
        <time>2022-06-23T08:49:06Z</time>
      </trkpt>
      <trkpt lat="46.49316" lon="5.33566">
        <ele>232.6</ele>
        <time>2022-06-23T08:49:08Z</time>
      </trkpt>
      <trkpt lat="46.49304" lon="5.33628">
        <ele>232.4</ele>
        <time>2022-06-23T08:49:14Z</time>
      </trkpt>
      <trkpt lat="46.49301" lon="5.33683">
        <ele>232.6</ele>
        <time>2022-06-23T08:49:19Z</time>
      </trkpt>
      <trkpt lat="46.49296" lon="5.33758">
        <ele>233</ele>
        <time>2022-06-23T08:49:26Z</time>
      </trkpt>
      <trkpt lat="46.49287" lon="5.33809">
        <ele>233.4</ele>
        <time>2022-06-23T08:49:31Z</time>
      </trkpt>
      <trkpt lat="46.49285" lon="5.33819">
        <ele>233.6</ele>
        <time>2022-06-23T08:49:32Z</time>
      </trkpt>
      <trkpt lat="46.49272" lon="5.33891">
        <ele>234.2</ele>
        <time>2022-06-23T08:49:39Z</time>
      </trkpt>
      <trkpt lat="46.49259" lon="5.33964">
        <ele>234.4</ele>
        <time>2022-06-23T08:49:46Z</time>
      </trkpt>
      <trkpt lat="46.49242" lon="5.34045">
        <ele>234.6</ele>
        <time>2022-06-23T08:49:54Z</time>
      </trkpt>
      <trkpt lat="46.49234" lon="5.34077">
        <ele>234.8</ele>
        <time>2022-06-23T08:49:57Z</time>
      </trkpt>
      <trkpt lat="46.49231" lon="5.34089">
        <ele>234.8</ele>
        <time>2022-06-23T08:49:58Z</time>
      </trkpt>
      <trkpt lat="46.49217" lon="5.34167">
        <ele>234.2</ele>
        <time>2022-06-23T08:50:04Z</time>
      </trkpt>
      <trkpt lat="46.49208" lon="5.34206">
        <ele>233.4</ele>
        <time>2022-06-23T08:50:07Z</time>
      </trkpt>
      <trkpt lat="46.49199" lon="5.34258">
        <ele>232.4</ele>
        <time>2022-06-23T08:50:11Z</time>
      </trkpt>
      <trkpt lat="46.49191" lon="5.34305">
        <ele>232.4</ele>
        <time>2022-06-23T08:50:15Z</time>
      </trkpt>
      <trkpt lat="46.49187" lon="5.34327">
        <ele>232.2</ele>
        <time>2022-06-23T08:50:17Z</time>
      </trkpt>
      <trkpt lat="46.49175" lon="5.34391">
        <ele>233.2</ele>
        <time>2022-06-23T08:50:23Z</time>
      </trkpt>
      <trkpt lat="46.49164" lon="5.34452">
        <ele>233.2</ele>
        <time>2022-06-23T08:50:28Z</time>
      </trkpt>
      <trkpt lat="46.49146" lon="5.34536">
        <ele>232.4</ele>
        <time>2022-06-23T08:50:35Z</time>
      </trkpt>
      <trkpt lat="46.49143" lon="5.34547">
        <ele>232.4</ele>
        <time>2022-06-23T08:50:36Z</time>
      </trkpt>
      <trkpt lat="46.49133" lon="5.34599">
        <ele>232.4</ele>
        <time>2022-06-23T08:50:41Z</time>
      </trkpt>
      <trkpt lat="46.49131" lon="5.34609">
        <ele>232.4</ele>
        <time>2022-06-23T08:50:42Z</time>
      </trkpt>
      <trkpt lat="46.49125" lon="5.34642">
        <ele>232.8</ele>
        <time>2022-06-23T08:50:45Z</time>
      </trkpt>
      <trkpt lat="46.49123" lon="5.34653">
        <ele>232.8</ele>
        <time>2022-06-23T08:50:46Z</time>
      </trkpt>
      <trkpt lat="46.49111" lon="5.34715">
        <ele>232.8</ele>
        <time>2022-06-23T08:50:51Z</time>
      </trkpt>
      <trkpt lat="46.49099" lon="5.34782">
        <ele>232.2</ele>
        <time>2022-06-23T08:50:57Z</time>
      </trkpt>
      <trkpt lat="46.49088" lon="5.34838">
        <ele>232.8</ele>
        <time>2022-06-23T08:51:03Z</time>
      </trkpt>
      <trkpt lat="46.4908" lon="5.34876">
        <ele>233.4</ele>
        <time>2022-06-23T08:51:07Z</time>
      </trkpt>
      <trkpt lat="46.49075" lon="5.34903">
        <ele>233.6</ele>
        <time>2022-06-23T08:51:10Z</time>
      </trkpt>
      <trkpt lat="46.4907" lon="5.34929">
        <ele>234.2</ele>
        <time>2022-06-23T08:51:14Z</time>
      </trkpt>
      <trkpt lat="46.4906" lon="5.34972">
        <ele>235</ele>
        <time>2022-06-23T08:51:19Z</time>
      </trkpt>
      <trkpt lat="46.49056" lon="5.34989">
        <ele>235.2</ele>
        <time>2022-06-23T08:51:21Z</time>
      </trkpt>
      <trkpt lat="46.49045" lon="5.35044">
        <ele>236.2</ele>
        <time>2022-06-23T08:51:28Z</time>
      </trkpt>
      <trkpt lat="46.49043" lon="5.35053">
        <ele>236.4</ele>
        <time>2022-06-23T08:51:29Z</time>
      </trkpt>
      <trkpt lat="46.4904" lon="5.35071">
        <ele>236.8</ele>
        <time>2022-06-23T08:51:31Z</time>
      </trkpt>
      <trkpt lat="46.49035" lon="5.35095">
        <ele>237.2</ele>
        <time>2022-06-23T08:51:34Z</time>
      </trkpt>
      <trkpt lat="46.49032" lon="5.35112">
        <ele>237.4</ele>
        <time>2022-06-23T08:51:36Z</time>
      </trkpt>
      <trkpt lat="46.49029" lon="5.3512">
        <ele>237.4</ele>
        <time>2022-06-23T08:51:37Z</time>
      </trkpt>
      <trkpt lat="46.4902" lon="5.35144">
        <ele>237.8</ele>
        <time>2022-06-23T08:51:40Z</time>
      </trkpt>
      <trkpt lat="46.48989" lon="5.3522">
        <ele>238</ele>
        <time>2022-06-23T08:51:49Z</time>
      </trkpt>
      <trkpt lat="46.48965" lon="5.35277">
        <ele>237.4</ele>
        <time>2022-06-23T08:51:55Z</time>
      </trkpt>
      <trkpt lat="46.48935" lon="5.35344">
        <ele>236.6</ele>
        <time>2022-06-23T08:52:01Z</time>
      </trkpt>
      <trkpt lat="46.4893" lon="5.35354">
        <ele>236.6</ele>
        <time>2022-06-23T08:52:02Z</time>
      </trkpt>
      <trkpt lat="46.48912" lon="5.35398">
        <ele>236.4</ele>
        <time>2022-06-23T08:52:06Z</time>
      </trkpt>
      <trkpt lat="46.48909" lon="5.35407">
        <ele>236.4</ele>
        <time>2022-06-23T08:52:07Z</time>
      </trkpt>
      <trkpt lat="46.48884" lon="5.35459">
        <ele>236.8</ele>
        <time>2022-06-23T08:52:12Z</time>
      </trkpt>
      <trkpt lat="46.48865" lon="5.35499">
        <ele>237.2</ele>
        <time>2022-06-23T08:52:16Z</time>
      </trkpt>
      <trkpt lat="46.4886" lon="5.35511">
        <ele>237.4</ele>
        <time>2022-06-23T08:52:17Z</time>
      </trkpt>
      <trkpt lat="46.48856" lon="5.35521">
        <ele>237.4</ele>
        <time>2022-06-23T08:52:18Z</time>
      </trkpt>
      <trkpt lat="46.4883" lon="5.3558">
        <ele>238.2</ele>
        <time>2022-06-23T08:52:24Z</time>
      </trkpt>
      <trkpt lat="46.48801" lon="5.35648">
        <ele>238</ele>
        <time>2022-06-23T08:52:31Z</time>
      </trkpt>
      <trkpt lat="46.48796" lon="5.35658">
        <ele>238</ele>
        <time>2022-06-23T08:52:32Z</time>
      </trkpt>
      <trkpt lat="46.48784" lon="5.35686">
        <ele>237.8</ele>
        <time>2022-06-23T08:52:35Z</time>
      </trkpt>
      <trkpt lat="46.48763" lon="5.35736">
        <ele>237.6</ele>
        <time>2022-06-23T08:52:40Z</time>
      </trkpt>
      <trkpt lat="46.48733" lon="5.35803">
        <ele>237.4</ele>
        <time>2022-06-23T08:52:47Z</time>
      </trkpt>
      <trkpt lat="46.48724" lon="5.35821">
        <ele>237.6</ele>
        <time>2022-06-23T08:52:49Z</time>
      </trkpt>
      <trkpt lat="46.48706" lon="5.35864">
        <ele>238</ele>
        <time>2022-06-23T08:52:54Z</time>
      </trkpt>
      <trkpt lat="46.48694" lon="5.35898">
        <ele>238.6</ele>
        <time>2022-06-23T08:52:58Z</time>
      </trkpt>
      <trkpt lat="46.48689" lon="5.35916">
        <ele>238.8</ele>
        <time>2022-06-23T08:53:00Z</time>
      </trkpt>
      <trkpt lat="46.48679" lon="5.35974">
        <ele>240</ele>
        <time>2022-06-23T08:53:06Z</time>
      </trkpt>
      <trkpt lat="46.48674" lon="5.36013">
        <ele>240.4</ele>
        <time>2022-06-23T08:53:10Z</time>
      </trkpt>
      <trkpt lat="46.48668" lon="5.36042">
        <ele>240.6</ele>
        <time>2022-06-23T08:53:13Z</time>
      </trkpt>
      <trkpt lat="46.4865" lon="5.36126">
        <ele>239.8</ele>
        <time>2022-06-23T08:53:20Z</time>
      </trkpt>
      <trkpt lat="46.48643" lon="5.36172">
        <ele>239</ele>
        <time>2022-06-23T08:53:24Z</time>
      </trkpt>
      <trkpt lat="46.48643" lon="5.36183">
        <ele>239</ele>
        <time>2022-06-23T08:53:25Z</time>
      </trkpt>
      <trkpt lat="46.48634" lon="5.36266">
        <ele>239</ele>
        <time>2022-06-23T08:53:33Z</time>
      </trkpt>
      <trkpt lat="46.48626" lon="5.36301">
        <ele>239.6</ele>
        <time>2022-06-23T08:53:37Z</time>
      </trkpt>
      <trkpt lat="46.48622" lon="5.36308">
        <ele>239.8</ele>
        <time>2022-06-23T08:53:38Z</time>
      </trkpt>
      <trkpt lat="46.48618" lon="5.36313">
        <ele>239.8</ele>
        <time>2022-06-23T08:53:39Z</time>
      </trkpt>
      <trkpt lat="46.48613" lon="5.36317">
        <ele>240.2</ele>
        <time>2022-06-23T08:53:40Z</time>
      </trkpt>
      <trkpt lat="46.48608" lon="5.3632">
        <ele>240.2</ele>
        <time>2022-06-23T08:53:41Z</time>
      </trkpt>
      <trkpt lat="46.48588" lon="5.36324">
        <ele>241.4</ele>
        <time>2022-06-23T08:53:45Z</time>
      </trkpt>
      <trkpt lat="46.48573" lon="5.36327">
        <ele>241.8</ele>
        <time>2022-06-23T08:53:48Z</time>
      </trkpt>
      <trkpt lat="46.48562" lon="5.36329">
        <ele>242.6</ele>
        <time>2022-06-23T08:53:50Z</time>
      </trkpt>
      <trkpt lat="46.48529" lon="5.36334">
        <ele>243.8</ele>
        <time>2022-06-23T08:53:56Z</time>
      </trkpt>
      <trkpt lat="46.48517" lon="5.36336">
        <ele>244.2</ele>
        <time>2022-06-23T08:53:58Z</time>
      </trkpt>
      <trkpt lat="46.48488" lon="5.3634">
        <ele>245</ele>
        <time>2022-06-23T08:54:03Z</time>
      </trkpt>
      <trkpt lat="46.48476" lon="5.36343">
        <ele>245.2</ele>
        <time>2022-06-23T08:54:05Z</time>
      </trkpt>
      <trkpt lat="46.48422" lon="5.36354">
        <ele>245.8</ele>
        <time>2022-06-23T08:54:14Z</time>
      </trkpt>
      <trkpt lat="46.48399" lon="5.36368">
        <ele>246</ele>
        <time>2022-06-23T08:54:18Z</time>
      </trkpt>
      <trkpt lat="46.48389" lon="5.36378">
        <ele>246.4</ele>
        <time>2022-06-23T08:54:20Z</time>
      </trkpt>
      <trkpt lat="46.48343" lon="5.36427">
        <ele>246.8</ele>
        <time>2022-06-23T08:54:29Z</time>
      </trkpt>
      <trkpt lat="46.48339" lon="5.36431">
        <ele>247</ele>
        <time>2022-06-23T08:54:30Z</time>
      </trkpt>
      <trkpt lat="46.4832" lon="5.36452">
        <ele>247.4</ele>
        <time>2022-06-23T08:54:34Z</time>
      </trkpt>
      <trkpt lat="46.48298" lon="5.36477">
        <ele>248</ele>
        <time>2022-06-23T08:54:39Z</time>
      </trkpt>
      <trkpt lat="46.4828" lon="5.36496">
        <ele>248.4</ele>
        <time>2022-06-23T08:54:43Z</time>
      </trkpt>
      <trkpt lat="46.48258" lon="5.3652">
        <ele>249.4</ele>
        <time>2022-06-23T08:54:48Z</time>
      </trkpt>
      <trkpt lat="46.4825" lon="5.36529">
        <ele>249.6</ele>
        <time>2022-06-23T08:54:50Z</time>
      </trkpt>
      <trkpt lat="46.48228" lon="5.36552">
        <ele>250.4</ele>
        <time>2022-06-23T08:54:55Z</time>
      </trkpt>
      <trkpt lat="46.48223" lon="5.36556">
        <ele>250.6</ele>
        <time>2022-06-23T08:54:56Z</time>
      </trkpt>
      <trkpt lat="46.48216" lon="5.36558">
        <ele>250.8</ele>
        <time>2022-06-23T08:54:57Z</time>
      </trkpt>
      <trkpt lat="46.48206" lon="5.36558">
        <ele>251.4</ele>
        <time>2022-06-23T08:54:59Z</time>
      </trkpt>
      <trkpt lat="46.48194" lon="5.36565">
        <ele>251.6</ele>
        <time>2022-06-23T08:55:01Z</time>
      </trkpt>
      <trkpt lat="46.48188" lon="5.36577">
        <ele>252</ele>
        <time>2022-06-23T08:55:03Z</time>
      </trkpt>
      <trkpt lat="46.48186" lon="5.36585">
        <ele>252</ele>
        <time>2022-06-23T08:55:04Z</time>
      </trkpt>
      <trkpt lat="46.48183" lon="5.36594">
        <ele>252.2</ele>
        <time>2022-06-23T08:55:05Z</time>
      </trkpt>
      <trkpt lat="46.48179" lon="5.36602">
        <ele>252.4</ele>
        <time>2022-06-23T08:55:06Z</time>
      </trkpt>
      <trkpt lat="46.48171" lon="5.36613">
        <ele>252.6</ele>
        <time>2022-06-23T08:55:08Z</time>
      </trkpt>
      <trkpt lat="46.48146" lon="5.36641">
        <ele>252.6</ele>
        <time>2022-06-23T08:55:13Z</time>
      </trkpt>
      <trkpt lat="46.4814" lon="5.36646">
        <ele>252.6</ele>
        <time>2022-06-23T08:55:14Z</time>
      </trkpt>
      <trkpt lat="46.48135" lon="5.36651">
        <ele>252.8</ele>
        <time>2022-06-23T08:55:15Z</time>
      </trkpt>
      <trkpt lat="46.48125" lon="5.36663">
        <ele>253</ele>
        <time>2022-06-23T08:55:17Z</time>
      </trkpt>
      <trkpt lat="46.48113" lon="5.36675">
        <ele>253.4</ele>
        <time>2022-06-23T08:55:20Z</time>
      </trkpt>
      <trkpt lat="46.4811" lon="5.36678">
        <ele>253.4</ele>
        <time>2022-06-23T08:55:21Z</time>
      </trkpt>
      <trkpt lat="46.48105" lon="5.36686">
        <ele>253.6</ele>
        <time>2022-06-23T08:55:23Z</time>
      </trkpt>
      <trkpt lat="46.48104" lon="5.36699">
        <ele>253.8</ele>
        <time>2022-06-23T08:55:25Z</time>
      </trkpt>
      <trkpt lat="46.4811" lon="5.36709">
        <ele>254.2</ele>
        <time>2022-06-23T08:55:27Z</time>
      </trkpt>
      <trkpt lat="46.48114" lon="5.36712">
        <ele>254.4</ele>
        <time>2022-06-23T08:55:28Z</time>
      </trkpt>
      <trkpt lat="46.48123" lon="5.36719">
        <ele>254.8</ele>
        <time>2022-06-23T08:55:30Z</time>
      </trkpt>
      <trkpt lat="46.48155" lon="5.36746">
        <ele>255.8</ele>
        <time>2022-06-23T08:55:38Z</time>
      </trkpt>
      <trkpt lat="46.48171" lon="5.36759">
        <ele>257</ele>
        <time>2022-06-23T08:55:42Z</time>
      </trkpt>
      <trkpt lat="46.48189" lon="5.36774">
        <ele>258</ele>
        <time>2022-06-23T08:55:47Z</time>
      </trkpt>
      <trkpt lat="46.48204" lon="5.36786">
        <ele>259.2</ele>
        <time>2022-06-23T08:55:51Z</time>
      </trkpt>
      <trkpt lat="46.48218" lon="5.36797">
        <ele>260.2</ele>
        <time>2022-06-23T08:55:55Z</time>
      </trkpt>
      <trkpt lat="46.48221" lon="5.368">
        <ele>260.4</ele>
        <time>2022-06-23T08:55:56Z</time>
      </trkpt>
      <trkpt lat="46.48233" lon="5.36811">
        <ele>261.4</ele>
        <time>2022-06-23T08:56:00Z</time>
      </trkpt>
      <trkpt lat="46.48248" lon="5.36826">
        <ele>262.2</ele>
        <time>2022-06-23T08:56:05Z</time>
      </trkpt>
      <trkpt lat="46.48251" lon="5.36829">
        <ele>262.6</ele>
        <time>2022-06-23T08:56:06Z</time>
      </trkpt>
    </trkseg>
  </trk>
</gpx>